<?xml version="1.0" encoding="UTF-8"?>
<gpx version="1.1" creator="https://www.youtrack.es" xsi:schemaLocation="http://www.topografix.com/GPX/1/1 http://www.topografix.com/GPX/1/1/gpx.xsd http://www.garmin.com/xmlschemas/GpxExtensions/v3 http://www.garmin.com/xmlschemas/GpxExtensionsv3.xsd http://www.garmin.com/xmlschemas/TrackPointExtension/v1 http://www.garmin.com/xmlschemas/TrackPointExtensionv1.xsd" xmlns:gpxtpx="http://www.garmin.com/xmlschemas/TrackPointExtension/v1" xmlns:gpxx="http://www.garmin.com/xmlschemas/GpxExtensions/v3" xmlns:xsi="http://www.w3.org/2001/XMLSchema-instance">
  <metadata>
    <link href="https://www.youtrack.es">
      <text>YouTrack.es</text>
    </link>
    <time>2026-05-09T01:05:03Z</time>
  </metadata>
  <trk>
    <src>https://www.youtrack.es</src>
    <link href="https://www.youtrack.es/ruta/39183-le-pichaley">
      <text>YouTrack.es</text>
    </link>
    <trkseg>
      <trkpt lat="42.825995999999996" lon="0.257612">
        <ele>1599.256</ele>
        <time>2022-01-30T08:35:47Z</time>
      </trkpt>
      <trkpt lat="42.826018999999995" lon="0.257523">
        <ele>1600.059</ele>
        <time>2022-01-30T08:35:49Z</time>
      </trkpt>
      <trkpt lat="42.825931" lon="0.257494">
        <ele>1598.114</ele>
        <time>2022-01-30T08:35:51Z</time>
      </trkpt>
      <trkpt lat="42.825948999999994" lon="0.25743">
        <ele>1598.908</ele>
        <time>2022-01-30T08:35:59Z</time>
      </trkpt>
      <trkpt lat="42.82595599999999" lon="0.257365">
        <ele>1599.464</ele>
        <time>2022-01-30T08:36:03Z</time>
      </trkpt>
      <trkpt lat="42.82598499999999" lon="0.257314">
        <ele>1600.219</ele>
        <time>2022-01-30T08:36:06Z</time>
      </trkpt>
      <trkpt lat="42.82601199999999" lon="0.257247">
        <ele>1601.145</ele>
        <time>2022-01-30T08:36:10Z</time>
      </trkpt>
      <trkpt lat="42.82599599999999" lon="0.257189">
        <ele>1601.223</ele>
        <time>2022-01-30T08:36:14Z</time>
      </trkpt>
      <trkpt lat="42.82598299999999" lon="0.257124">
        <ele>1601.475</ele>
        <time>2022-01-30T08:36:19Z</time>
      </trkpt>
      <trkpt lat="42.82598299999999" lon="0.257048">
        <ele>1601.992</ele>
        <time>2022-01-30T08:36:23Z</time>
      </trkpt>
      <trkpt lat="42.82596599999999" lon="0.25699">
        <ele>1602.186</ele>
        <time>2022-01-30T08:36:26Z</time>
      </trkpt>
      <trkpt lat="42.82594899999999" lon="0.256927">
        <ele>1602.346</ele>
        <time>2022-01-30T08:36:31Z</time>
      </trkpt>
      <trkpt lat="42.825968999999986" lon="0.25686400000000004">
        <ele>1603.276</ele>
        <time>2022-01-30T08:36:36Z</time>
      </trkpt>
      <trkpt lat="42.825985999999986" lon="0.25680600000000003">
        <ele>1603.990</ele>
        <time>2022-01-30T08:36:40Z</time>
      </trkpt>
      <trkpt lat="42.82598199999999" lon="0.256732">
        <ele>1604.519</ele>
        <time>2022-01-30T08:36:45Z</time>
      </trkpt>
      <trkpt lat="42.82598499999999" lon="0.25666100000000003">
        <ele>1605.108</ele>
        <time>2022-01-30T08:36:49Z</time>
      </trkpt>
      <trkpt lat="42.82599399999999" lon="0.256591">
        <ele>1605.826</ele>
        <time>2022-01-30T08:36:53Z</time>
      </trkpt>
      <trkpt lat="42.82598799999999" lon="0.256517">
        <ele>1606.411</ele>
        <time>2022-01-30T08:36:58Z</time>
      </trkpt>
      <trkpt lat="42.82598999999999" lon="0.256447">
        <ele>1607.117</ele>
        <time>2022-01-30T08:37:02Z</time>
      </trkpt>
      <trkpt lat="42.82598199999999" lon="0.25638">
        <ele>1607.675</ele>
        <time>2022-01-30T08:37:06Z</time>
      </trkpt>
      <trkpt lat="42.82597999999999" lon="0.256311">
        <ele>1608.547</ele>
        <time>2022-01-30T08:37:10Z</time>
      </trkpt>
      <trkpt lat="42.825968999999986" lon="0.25624600000000003">
        <ele>1609.364</ele>
        <time>2022-01-30T08:37:14Z</time>
      </trkpt>
      <trkpt lat="42.825971999999986" lon="0.25618300000000005">
        <ele>1610.198</ele>
        <time>2022-01-30T08:37:18Z</time>
      </trkpt>
      <trkpt lat="42.82597299999998" lon="0.25611900000000004">
        <ele>1610.928</ele>
        <time>2022-01-30T08:37:22Z</time>
      </trkpt>
      <trkpt lat="42.82597099999998" lon="0.25605300000000003">
        <ele>1611.842</ele>
        <time>2022-01-30T08:37:26Z</time>
      </trkpt>
      <trkpt lat="42.82596599999998" lon="0.255989">
        <ele>1612.822</ele>
        <time>2022-01-30T08:37:30Z</time>
      </trkpt>
      <trkpt lat="42.825972999999976" lon="0.255917">
        <ele>1613.814</ele>
        <time>2022-01-30T08:37:35Z</time>
      </trkpt>
      <trkpt lat="42.825978999999975" lon="0.255841">
        <ele>1614.808</ele>
        <time>2022-01-30T08:37:40Z</time>
      </trkpt>
      <trkpt lat="42.82599099999997" lon="0.25577">
        <ele>1616.053</ele>
        <time>2022-01-30T08:37:45Z</time>
      </trkpt>
      <trkpt lat="42.82601099999997" lon="0.255703">
        <ele>1617.158</ele>
        <time>2022-01-30T08:37:50Z</time>
      </trkpt>
      <trkpt lat="42.82603399999997" lon="0.255639">
        <ele>1618.184</ele>
        <time>2022-01-30T08:37:55Z</time>
      </trkpt>
      <trkpt lat="42.826060999999974" lon="0.25558000000000003">
        <ele>1618.972</ele>
        <time>2022-01-30T08:38:00Z</time>
      </trkpt>
      <trkpt lat="42.82608699999997" lon="0.25552600000000003">
        <ele>1619.614</ele>
        <time>2022-01-30T08:38:05Z</time>
      </trkpt>
      <trkpt lat="42.82610199999997" lon="0.25545900000000005">
        <ele>1620.521</ele>
        <time>2022-01-30T08:38:10Z</time>
      </trkpt>
      <trkpt lat="42.82611799999997" lon="0.25539600000000007">
        <ele>1621.555</ele>
        <time>2022-01-30T08:38:15Z</time>
      </trkpt>
      <trkpt lat="42.82614299999997" lon="0.2553390000000001">
        <ele>1623.155</ele>
        <time>2022-01-30T08:38:21Z</time>
      </trkpt>
      <trkpt lat="42.826172999999976" lon="0.2552910000000001">
        <ele>1624.646</ele>
        <time>2022-01-30T08:38:26Z</time>
      </trkpt>
      <trkpt lat="42.82618799999997" lon="0.2552300000000001">
        <ele>1626.188</ele>
        <time>2022-01-30T08:38:31Z</time>
      </trkpt>
      <trkpt lat="42.82621199999998" lon="0.2551760000000001">
        <ele>1627.716</ele>
        <time>2022-01-30T08:38:36Z</time>
      </trkpt>
      <trkpt lat="42.826240999999975" lon="0.25511700000000015">
        <ele>1629.408</ele>
        <time>2022-01-30T08:38:42Z</time>
      </trkpt>
      <trkpt lat="42.826268999999975" lon="0.2550620000000001">
        <ele>1630.923</ele>
        <time>2022-01-30T08:38:48Z</time>
      </trkpt>
      <trkpt lat="42.826299999999975" lon="0.2550120000000001">
        <ele>1632.238</ele>
        <time>2022-01-30T08:38:53Z</time>
      </trkpt>
      <trkpt lat="42.826322999999974" lon="0.2549540000000001">
        <ele>1633.574</ele>
        <time>2022-01-30T08:38:58Z</time>
      </trkpt>
      <trkpt lat="42.826355999999976" lon="0.2549030000000001">
        <ele>1634.712</ele>
        <time>2022-01-30T08:39:03Z</time>
      </trkpt>
      <trkpt lat="42.82637699999997" lon="0.2548350000000001">
        <ele>1635.714</ele>
        <time>2022-01-30T08:39:08Z</time>
      </trkpt>
      <trkpt lat="42.82639699999997" lon="0.2547780000000001">
        <ele>1636.771</ele>
        <time>2022-01-30T08:39:13Z</time>
      </trkpt>
      <trkpt lat="42.826423999999975" lon="0.2547270000000001">
        <ele>1638.345</ele>
        <time>2022-01-30T08:39:18Z</time>
      </trkpt>
      <trkpt lat="42.826451999999975" lon="0.2546750000000001">
        <ele>1639.935</ele>
        <time>2022-01-30T08:39:23Z</time>
      </trkpt>
      <trkpt lat="42.826476999999976" lon="0.2546100000000001">
        <ele>1641.471</ele>
        <time>2022-01-30T08:39:29Z</time>
      </trkpt>
      <trkpt lat="42.826496999999975" lon="0.25454700000000013">
        <ele>1642.741</ele>
        <time>2022-01-30T08:39:35Z</time>
      </trkpt>
      <trkpt lat="42.826516999999974" lon="0.25448500000000013">
        <ele>1643.815</ele>
        <time>2022-01-30T08:39:41Z</time>
      </trkpt>
      <trkpt lat="42.826549999999976" lon="0.2544340000000001">
        <ele>1645.308</ele>
        <time>2022-01-30T08:39:47Z</time>
      </trkpt>
      <trkpt lat="42.826575999999974" lon="0.25437700000000013">
        <ele>1646.756</ele>
        <time>2022-01-30T08:39:53Z</time>
      </trkpt>
      <trkpt lat="42.82660299999998" lon="0.25431400000000015">
        <ele>1647.981</ele>
        <time>2022-01-30T08:39:59Z</time>
      </trkpt>
      <trkpt lat="42.82662999999998" lon="0.25426500000000013">
        <ele>1648.947</ele>
        <time>2022-01-30T08:40:05Z</time>
      </trkpt>
      <trkpt lat="42.82665099999998" lon="0.25420800000000016">
        <ele>1649.655</ele>
        <time>2022-01-30T08:40:11Z</time>
      </trkpt>
      <trkpt lat="42.826673999999976" lon="0.25415200000000016">
        <ele>1650.437</ele>
        <time>2022-01-30T08:40:17Z</time>
      </trkpt>
      <trkpt lat="42.826707999999975" lon="0.25410800000000017">
        <ele>1651.914</ele>
        <time>2022-01-30T08:40:23Z</time>
      </trkpt>
      <trkpt lat="42.826755999999975" lon="0.2540990000000002">
        <ele>1653.988</ele>
        <time>2022-01-30T08:40:30Z</time>
      </trkpt>
      <trkpt lat="42.826803999999974" lon="0.2540840000000002">
        <ele>1655.818</ele>
        <time>2022-01-30T08:40:36Z</time>
      </trkpt>
      <trkpt lat="42.82684999999997" lon="0.2540640000000002">
        <ele>1657.622</ele>
        <time>2022-01-30T08:40:42Z</time>
      </trkpt>
      <trkpt lat="42.82689599999997" lon="0.2540450000000002">
        <ele>1659.362</ele>
        <time>2022-01-30T08:40:48Z</time>
      </trkpt>
      <trkpt lat="42.82693499999997" lon="0.2540140000000002">
        <ele>1660.508</ele>
        <time>2022-01-30T08:40:54Z</time>
      </trkpt>
      <trkpt lat="42.82698099999997" lon="0.25399000000000016">
        <ele>1662.408</ele>
        <time>2022-01-30T08:41:03Z</time>
      </trkpt>
      <trkpt lat="42.82701999999997" lon="0.25394900000000015">
        <ele>1664.051</ele>
        <time>2022-01-30T08:41:11Z</time>
      </trkpt>
      <trkpt lat="42.82706399999997" lon="0.2539290000000001">
        <ele>1665.966</ele>
        <time>2022-01-30T08:41:18Z</time>
      </trkpt>
      <trkpt lat="42.827110999999974" lon="0.2539210000000001">
        <ele>1668.072</ele>
        <time>2022-01-30T08:41:25Z</time>
      </trkpt>
      <trkpt lat="42.82706099999997" lon="0.25388700000000014">
        <ele>1665.470</ele>
        <time>2022-01-30T08:41:35Z</time>
      </trkpt>
      <trkpt lat="42.82700999999997" lon="0.25388300000000014">
        <ele>1663.142</ele>
        <time>2022-01-30T08:42:13Z</time>
      </trkpt>
      <trkpt lat="42.826986999999974" lon="0.25382900000000014">
        <ele>1662.029</ele>
        <time>2022-01-30T08:42:49Z</time>
      </trkpt>
      <trkpt lat="42.82697199999998" lon="0.2538880000000001">
        <ele>1661.383</ele>
        <time>2022-01-30T08:42:56Z</time>
      </trkpt>
      <trkpt lat="42.82698299999998" lon="0.25382500000000013">
        <ele>1661.963</ele>
        <time>2022-01-30T08:44:00Z</time>
      </trkpt>
      <trkpt lat="42.826986999999974" lon="0.25368300000000016">
        <ele>1662.223</ele>
        <time>2022-01-30T08:45:12Z</time>
      </trkpt>
      <trkpt lat="42.82696199999997" lon="0.25352400000000014">
        <ele>1663.983</ele>
        <time>2022-01-30T08:45:13Z</time>
      </trkpt>
      <trkpt lat="42.826957999999976" lon="0.2537800000000001">
        <ele>1660.911</ele>
        <time>2022-01-30T08:45:20Z</time>
      </trkpt>
      <trkpt lat="42.827031999999974" lon="0.2538900000000001">
        <ele>1664.108</ele>
        <time>2022-01-30T08:48:45Z</time>
      </trkpt>
      <trkpt lat="42.82706899999997" lon="0.2538530000000001">
        <ele>1665.781</ele>
        <time>2022-01-30T08:48:50Z</time>
      </trkpt>
      <trkpt lat="42.82710399999997" lon="0.2538040000000001">
        <ele>1666.986</ele>
        <time>2022-01-30T08:48:54Z</time>
      </trkpt>
      <trkpt lat="42.82714399999997" lon="0.2537420000000001">
        <ele>1668.022</ele>
        <time>2022-01-30T08:49:00Z</time>
      </trkpt>
      <trkpt lat="42.82718399999997" lon="0.25370500000000007">
        <ele>1669.080</ele>
        <time>2022-01-30T08:49:03Z</time>
      </trkpt>
      <trkpt lat="42.82723399999997" lon="0.25367400000000007">
        <ele>1670.412</ele>
        <time>2022-01-30T08:49:06Z</time>
      </trkpt>
      <trkpt lat="42.82727399999997" lon="0.25363500000000005">
        <ele>1671.689</ele>
        <time>2022-01-30T08:49:09Z</time>
      </trkpt>
      <trkpt lat="42.827325999999964" lon="0.25362000000000007">
        <ele>1673.623</ele>
        <time>2022-01-30T08:49:13Z</time>
      </trkpt>
      <trkpt lat="42.82736899999996" lon="0.2535920000000001">
        <ele>1675.483</ele>
        <time>2022-01-30T08:49:17Z</time>
      </trkpt>
      <trkpt lat="42.827409999999965" lon="0.2535620000000001">
        <ele>1677.298</ele>
        <time>2022-01-30T08:49:22Z</time>
      </trkpt>
      <trkpt lat="42.827398999999964" lon="0.2535000000000001">
        <ele>1677.015</ele>
        <time>2022-01-30T08:49:27Z</time>
      </trkpt>
      <trkpt lat="42.827412999999964" lon="0.2534360000000001">
        <ele>1677.626</ele>
        <time>2022-01-30T08:49:33Z</time>
      </trkpt>
      <trkpt lat="42.82743999999997" lon="0.2533840000000001">
        <ele>1678.508</ele>
        <time>2022-01-30T08:49:42Z</time>
      </trkpt>
      <trkpt lat="42.827485999999965" lon="0.2533610000000001">
        <ele>1679.758</ele>
        <time>2022-01-30T08:49:49Z</time>
      </trkpt>
      <trkpt lat="42.827513999999965" lon="0.2533070000000001">
        <ele>1681.123</ele>
        <time>2022-01-30T08:49:59Z</time>
      </trkpt>
      <trkpt lat="42.827544999999965" lon="0.2532610000000001">
        <ele>1683.369</ele>
        <time>2022-01-30T08:50:08Z</time>
      </trkpt>
      <trkpt lat="42.827561999999965" lon="0.2531930000000001">
        <ele>1685.077</ele>
        <time>2022-01-30T08:50:42Z</time>
      </trkpt>
      <trkpt lat="42.827606999999965" lon="0.2531810000000001">
        <ele>1686.689</ele>
        <time>2022-01-30T08:50:47Z</time>
      </trkpt>
      <trkpt lat="42.82762499999996" lon="0.2531180000000001">
        <ele>1688.026</ele>
        <time>2022-01-30T08:50:58Z</time>
      </trkpt>
      <trkpt lat="42.82761199999996" lon="0.2530540000000001">
        <ele>1688.580</ele>
        <time>2022-01-30T08:51:10Z</time>
      </trkpt>
      <trkpt lat="42.82759999999996" lon="0.2529880000000001">
        <ele>1691.470</ele>
        <time>2022-01-30T08:51:22Z</time>
      </trkpt>
      <trkpt lat="42.82756899999996" lon="0.2529290000000001">
        <ele>1693.513</ele>
        <time>2022-01-30T08:51:28Z</time>
      </trkpt>
      <trkpt lat="42.82754499999996" lon="0.25286600000000015">
        <ele>1696.043</ele>
        <time>2022-01-30T08:52:15Z</time>
      </trkpt>
      <trkpt lat="42.82751899999996" lon="0.25279600000000013">
        <ele>1698.607</ele>
        <time>2022-01-30T08:52:21Z</time>
      </trkpt>
      <trkpt lat="42.82750199999996" lon="0.25273800000000013">
        <ele>1701.208</ele>
        <time>2022-01-30T08:52:25Z</time>
      </trkpt>
      <trkpt lat="42.82748699999996" lon="0.2526720000000001">
        <ele>1704.310</ele>
        <time>2022-01-30T08:52:29Z</time>
      </trkpt>
      <trkpt lat="42.82743899999996" lon="0.2525980000000001">
        <ele>1706.985</ele>
        <time>2022-01-30T08:52:36Z</time>
      </trkpt>
      <trkpt lat="42.82738399999996" lon="0.2525030000000001">
        <ele>1710.141</ele>
        <time>2022-01-30T08:52:42Z</time>
      </trkpt>
      <trkpt lat="42.82734899999996" lon="0.25242500000000007">
        <ele>1712.699</ele>
        <time>2022-01-30T08:53:30Z</time>
      </trkpt>
      <trkpt lat="42.82733199999996" lon="0.25231900000000007">
        <ele>1717.071</ele>
        <time>2022-01-30T08:53:33Z</time>
      </trkpt>
      <trkpt lat="42.827322999999964" lon="0.2522500000000001">
        <ele>1720.058</ele>
        <time>2022-01-30T08:53:35Z</time>
      </trkpt>
      <trkpt lat="42.827302999999965" lon="0.2521910000000001">
        <ele>1722.112</ele>
        <time>2022-01-30T08:53:37Z</time>
      </trkpt>
      <trkpt lat="42.827294999999964" lon="0.25213000000000013">
        <ele>1724.852</ele>
        <time>2022-01-30T08:53:39Z</time>
      </trkpt>
      <trkpt lat="42.827266999999964" lon="0.2520580000000001">
        <ele>1727.246</ele>
        <time>2022-01-30T08:53:42Z</time>
      </trkpt>
      <trkpt lat="42.827229999999965" lon="0.25202200000000013">
        <ele>1727.688</ele>
        <time>2022-01-30T08:53:46Z</time>
      </trkpt>
      <trkpt lat="42.827184999999965" lon="0.25202800000000014">
        <ele>1727.116</ele>
        <time>2022-01-30T08:53:54Z</time>
      </trkpt>
      <trkpt lat="42.827144999999966" lon="0.25206100000000015">
        <ele>1725.608</ele>
        <time>2022-01-30T08:54:00Z</time>
      </trkpt>
      <trkpt lat="42.827096999999966" lon="0.25204600000000016">
        <ele>1726.343</ele>
        <time>2022-01-30T08:54:07Z</time>
      </trkpt>
      <trkpt lat="42.82706499999997" lon="0.25199500000000014">
        <ele>1728.478</ele>
        <time>2022-01-30T08:54:13Z</time>
      </trkpt>
      <trkpt lat="42.82703499999997" lon="0.2519460000000001">
        <ele>1730.384</ele>
        <time>2022-01-30T08:54:21Z</time>
      </trkpt>
      <trkpt lat="42.82701199999997" lon="0.2518880000000001">
        <ele>1732.572</ele>
        <time>2022-01-30T08:54:33Z</time>
      </trkpt>
      <trkpt lat="42.82698599999997" lon="0.2518260000000001">
        <ele>1734.974</ele>
        <time>2022-01-30T08:54:40Z</time>
      </trkpt>
      <trkpt lat="42.82694699999997" lon="0.2517910000000001">
        <ele>1736.151</ele>
        <time>2022-01-30T08:54:52Z</time>
      </trkpt>
      <trkpt lat="42.82691799999997" lon="0.2517430000000001">
        <ele>1738.665</ele>
        <time>2022-01-30T08:55:04Z</time>
      </trkpt>
      <trkpt lat="42.82689599999997" lon="0.2516780000000001">
        <ele>1741.525</ele>
        <time>2022-01-30T08:55:14Z</time>
      </trkpt>
      <trkpt lat="42.82687899999997" lon="0.2516100000000001">
        <ele>1743.967</ele>
        <time>2022-01-30T08:55:20Z</time>
      </trkpt>
      <trkpt lat="42.82686099999997" lon="0.25155100000000014">
        <ele>1745.981</ele>
        <time>2022-01-30T08:55:27Z</time>
      </trkpt>
      <trkpt lat="42.82681299999997" lon="0.25152800000000014">
        <ele>1746.919</ele>
        <time>2022-01-30T08:55:44Z</time>
      </trkpt>
      <trkpt lat="42.82678199999997" lon="0.25147600000000014">
        <ele>1748.408</ele>
        <time>2022-01-30T08:55:55Z</time>
      </trkpt>
      <trkpt lat="42.82675399999997" lon="0.2514250000000001">
        <ele>1749.535</ele>
        <time>2022-01-30T08:56:02Z</time>
      </trkpt>
      <trkpt lat="42.82671999999997" lon="0.2513750000000001">
        <ele>1750.650</ele>
        <time>2022-01-30T08:56:08Z</time>
      </trkpt>
      <trkpt lat="42.82670599999997" lon="0.25131200000000015">
        <ele>1752.446</ele>
        <time>2022-01-30T08:56:17Z</time>
      </trkpt>
      <trkpt lat="42.82669199999997" lon="0.25125000000000014">
        <ele>1754.274</ele>
        <time>2022-01-30T08:56:27Z</time>
      </trkpt>
      <trkpt lat="42.826671999999974" lon="0.25118800000000013">
        <ele>1755.896</ele>
        <time>2022-01-30T08:56:35Z</time>
      </trkpt>
      <trkpt lat="42.826645999999975" lon="0.25109000000000015">
        <ele>1759.243</ele>
        <time>2022-01-30T08:56:38Z</time>
      </trkpt>
      <trkpt lat="42.82659899999997" lon="0.25104500000000013">
        <ele>1761.777</ele>
        <time>2022-01-30T08:57:08Z</time>
      </trkpt>
      <trkpt lat="42.826558999999975" lon="0.2510120000000001">
        <ele>1763.427</ele>
        <time>2022-01-30T08:57:13Z</time>
      </trkpt>
      <trkpt lat="42.826538999999975" lon="0.2509570000000001">
        <ele>1765.343</ele>
        <time>2022-01-30T08:57:20Z</time>
      </trkpt>
      <trkpt lat="42.82651299999998" lon="0.2509060000000001">
        <ele>1767.064</ele>
        <time>2022-01-30T08:57:34Z</time>
      </trkpt>
      <trkpt lat="42.826493999999975" lon="0.2508390000000001">
        <ele>1768.910</ele>
        <time>2022-01-30T08:57:42Z</time>
      </trkpt>
      <trkpt lat="42.82646499999998" lon="0.2507740000000001">
        <ele>1770.508</ele>
        <time>2022-01-30T08:57:49Z</time>
      </trkpt>
      <trkpt lat="42.82642599999998" lon="0.2507220000000001">
        <ele>1771.643</ele>
        <time>2022-01-30T08:57:53Z</time>
      </trkpt>
      <trkpt lat="42.826383999999976" lon="0.25066500000000014">
        <ele>1772.818</ele>
        <time>2022-01-30T08:58:54Z</time>
      </trkpt>
      <trkpt lat="42.82645899999998" lon="0.25064600000000015">
        <ele>1773.774</ele>
        <time>2022-01-30T08:58:56Z</time>
      </trkpt>
      <trkpt lat="42.82640999999998" lon="0.2505890000000002">
        <ele>1774.562</ele>
        <time>2022-01-30T08:58:58Z</time>
      </trkpt>
      <trkpt lat="42.82635599999998" lon="0.2505350000000002">
        <ele>1776.664</ele>
        <time>2022-01-30T08:59:01Z</time>
      </trkpt>
      <trkpt lat="42.826315999999984" lon="0.25044200000000016">
        <ele>1780.211</ele>
        <time>2022-01-30T08:59:03Z</time>
      </trkpt>
      <trkpt lat="42.82627699999998" lon="0.25039100000000014">
        <ele>1782.445</ele>
        <time>2022-01-30T08:59:05Z</time>
      </trkpt>
      <trkpt lat="42.82625499999998" lon="0.2503360000000001">
        <ele>1784.185</ele>
        <time>2022-01-30T08:59:08Z</time>
      </trkpt>
      <trkpt lat="42.826228999999984" lon="0.2502840000000001">
        <ele>1785.624</ele>
        <time>2022-01-30T08:59:14Z</time>
      </trkpt>
      <trkpt lat="42.826242999999984" lon="0.25022300000000014">
        <ele>1787.204</ele>
        <time>2022-01-30T09:01:26Z</time>
      </trkpt>
      <trkpt lat="42.826222999999985" lon="0.25007100000000015">
        <ele>1791.814</ele>
        <time>2022-01-30T09:01:50Z</time>
      </trkpt>
      <trkpt lat="42.826166999999984" lon="0.25001800000000013">
        <ele>1792.908</ele>
        <time>2022-01-30T09:02:01Z</time>
      </trkpt>
      <trkpt lat="42.826208999999984" lon="0.24998500000000012">
        <ele>1794.211</ele>
        <time>2022-01-30T09:02:03Z</time>
      </trkpt>
      <trkpt lat="42.826256999999984" lon="0.24995900000000013">
        <ele>1795.586</ele>
        <time>2022-01-30T09:02:05Z</time>
      </trkpt>
      <trkpt lat="42.82632299999998" lon="0.24996300000000013">
        <ele>1795.982</ele>
        <time>2022-01-30T09:02:07Z</time>
      </trkpt>
      <trkpt lat="42.82636999999998" lon="0.24994300000000014">
        <ele>1797.130</ele>
        <time>2022-01-30T09:02:40Z</time>
      </trkpt>
      <trkpt lat="42.82630899999998" lon="0.24993000000000012">
        <ele>1797.142</ele>
        <time>2022-01-30T09:02:44Z</time>
      </trkpt>
      <trkpt lat="42.82643899999998" lon="0.24989600000000012">
        <ele>1800.149</ele>
        <time>2022-01-30T09:03:51Z</time>
      </trkpt>
      <trkpt lat="42.82648199999998" lon="0.24986600000000012">
        <ele>1802.183</ele>
        <time>2022-01-30T09:03:53Z</time>
      </trkpt>
      <trkpt lat="42.82652599999998" lon="0.24984200000000012">
        <ele>1804.053</ele>
        <time>2022-01-30T09:03:55Z</time>
      </trkpt>
      <trkpt lat="42.82657099999998" lon="0.24982800000000013">
        <ele>1805.515</ele>
        <time>2022-01-30T09:03:57Z</time>
      </trkpt>
      <trkpt lat="42.82663099999998" lon="0.24983200000000014">
        <ele>1806.565</ele>
        <time>2022-01-30T09:04:00Z</time>
      </trkpt>
      <trkpt lat="42.82668899999998" lon="0.24981800000000015">
        <ele>1808.411</ele>
        <time>2022-01-30T09:04:02Z</time>
      </trkpt>
      <trkpt lat="42.82679699999998" lon="0.24987300000000015">
        <ele>1808.808</ele>
        <time>2022-01-30T09:04:34Z</time>
      </trkpt>
      <trkpt lat="42.826862999999975" lon="0.24984200000000015">
        <ele>1811.870</ele>
        <time>2022-01-30T09:04:43Z</time>
      </trkpt>
      <trkpt lat="42.82689999999997" lon="0.24980300000000014">
        <ele>1814.445</ele>
        <time>2022-01-30T09:04:44Z</time>
      </trkpt>
      <trkpt lat="42.826955999999974" lon="0.24979900000000013">
        <ele>1815.941</ele>
        <time>2022-01-30T09:04:49Z</time>
      </trkpt>
      <trkpt lat="42.82701299999997" lon="0.24980500000000014">
        <ele>1816.789</ele>
        <time>2022-01-30T09:04:54Z</time>
      </trkpt>
      <trkpt lat="42.82706399999997" lon="0.24984000000000015">
        <ele>1816.251</ele>
        <time>2022-01-30T09:04:57Z</time>
      </trkpt>
      <trkpt lat="42.82702699999997" lon="0.24990300000000015">
        <ele>1812.988</ele>
        <time>2022-01-30T09:06:21Z</time>
      </trkpt>
      <trkpt lat="42.82709999999997" lon="0.24983900000000014">
        <ele>1817.032</ele>
        <time>2022-01-30T09:07:28Z</time>
      </trkpt>
      <trkpt lat="42.82714599999997" lon="0.24982500000000016">
        <ele>1818.582</ele>
        <time>2022-01-30T09:07:34Z</time>
      </trkpt>
      <trkpt lat="42.827214999999974" lon="0.24984800000000015">
        <ele>1818.981</ele>
        <time>2022-01-30T09:08:18Z</time>
      </trkpt>
      <trkpt lat="42.82726999999998" lon="0.24984200000000015">
        <ele>1820.461</ele>
        <time>2022-01-30T09:08:22Z</time>
      </trkpt>
      <trkpt lat="42.82733099999998" lon="0.24982200000000016">
        <ele>1822.617</ele>
        <time>2022-01-30T09:08:25Z</time>
      </trkpt>
      <trkpt lat="42.82738999999998" lon="0.24982300000000016">
        <ele>1824.008</ele>
        <time>2022-01-30T09:08:29Z</time>
      </trkpt>
      <trkpt lat="42.82744599999998" lon="0.24983400000000017">
        <ele>1824.967</ele>
        <time>2022-01-30T09:08:32Z</time>
      </trkpt>
      <trkpt lat="42.82750199999998" lon="0.24980600000000017">
        <ele>1827.422</ele>
        <time>2022-01-30T09:08:35Z</time>
      </trkpt>
      <trkpt lat="42.82754899999998" lon="0.24977400000000016">
        <ele>1830.058</ele>
        <time>2022-01-30T09:08:40Z</time>
      </trkpt>
      <trkpt lat="42.82759699999998" lon="0.24977000000000016">
        <ele>1831.366</ele>
        <time>2022-01-30T09:08:45Z</time>
      </trkpt>
      <trkpt lat="42.82768199999998" lon="0.24978700000000015">
        <ele>1832.658</ele>
        <time>2022-01-30T09:08:51Z</time>
      </trkpt>
      <trkpt lat="42.82775199999998" lon="0.24982900000000013">
        <ele>1832.435</ele>
        <time>2022-01-30T09:09:40Z</time>
      </trkpt>
      <trkpt lat="42.827804999999984" lon="0.24983500000000014">
        <ele>1833.459</ele>
        <time>2022-01-30T09:09:42Z</time>
      </trkpt>
      <trkpt lat="42.82784799999998" lon="0.24987200000000015">
        <ele>1832.879</ele>
        <time>2022-01-30T09:09:47Z</time>
      </trkpt>
      <trkpt lat="42.827891999999984" lon="0.24984500000000015">
        <ele>1835.158</ele>
        <time>2022-01-30T09:09:52Z</time>
      </trkpt>
      <trkpt lat="42.82793599999999" lon="0.24981800000000015">
        <ele>1837.352</ele>
        <time>2022-01-30T09:09:58Z</time>
      </trkpt>
      <trkpt lat="42.827986999999986" lon="0.24981000000000014">
        <ele>1838.917</ele>
        <time>2022-01-30T09:10:03Z</time>
      </trkpt>
      <trkpt lat="42.828029999999984" lon="0.24983900000000014">
        <ele>1838.708</ele>
        <time>2022-01-30T09:10:07Z</time>
      </trkpt>
      <trkpt lat="42.82808499999999" lon="0.24984000000000015">
        <ele>1839.914</ele>
        <time>2022-01-30T09:15:48Z</time>
      </trkpt>
      <trkpt lat="42.828138999999986" lon="0.24979900000000013">
        <ele>1842.339</ele>
        <time>2022-01-30T09:15:50Z</time>
      </trkpt>
      <trkpt lat="42.82819199999999" lon="0.24978200000000014">
        <ele>1843.655</ele>
        <time>2022-01-30T09:15:52Z</time>
      </trkpt>
      <trkpt lat="42.82825099999999" lon="0.24976600000000015">
        <ele>1844.933</ele>
        <time>2022-01-30T09:15:54Z</time>
      </trkpt>
      <trkpt lat="42.82831599999999" lon="0.24975600000000014">
        <ele>1846.035</ele>
        <time>2022-01-30T09:15:56Z</time>
      </trkpt>
      <trkpt lat="42.82836299999999" lon="0.24972500000000014">
        <ele>1847.412</ele>
        <time>2022-01-30T09:15:59Z</time>
      </trkpt>
      <trkpt lat="42.828425999999986" lon="0.24968400000000013">
        <ele>1849.746</ele>
        <time>2022-01-30T09:16:04Z</time>
      </trkpt>
      <trkpt lat="42.828518999999986" lon="0.24967400000000012">
        <ele>1851.166</ele>
        <time>2022-01-30T09:16:06Z</time>
      </trkpt>
      <trkpt lat="42.82858199999998" lon="0.24965800000000013">
        <ele>1852.366</ele>
        <time>2022-01-30T09:16:08Z</time>
      </trkpt>
      <trkpt lat="42.828631999999985" lon="0.24961200000000014">
        <ele>1854.229</ele>
        <time>2022-01-30T09:16:11Z</time>
      </trkpt>
      <trkpt lat="42.82867299999999" lon="0.24958100000000014">
        <ele>1855.921</ele>
        <time>2022-01-30T09:17:35Z</time>
      </trkpt>
      <trkpt lat="42.82872299999999" lon="0.24954000000000012">
        <ele>1857.908</ele>
        <time>2022-01-30T09:17:39Z</time>
      </trkpt>
      <trkpt lat="42.82876999999999" lon="0.2495020000000001">
        <ele>1859.635</ele>
        <time>2022-01-30T09:17:42Z</time>
      </trkpt>
      <trkpt lat="42.82880899999999" lon="0.24946000000000013">
        <ele>1861.290</ele>
        <time>2022-01-30T09:17:45Z</time>
      </trkpt>
      <trkpt lat="42.828855999999995" lon="0.24941400000000014">
        <ele>1863.086</ele>
        <time>2022-01-30T09:17:48Z</time>
      </trkpt>
      <trkpt lat="42.828894999999996" lon="0.24937800000000013">
        <ele>1864.384</ele>
        <time>2022-01-30T09:17:51Z</time>
      </trkpt>
      <trkpt lat="42.828948999999994" lon="0.24934900000000013">
        <ele>1865.696</ele>
        <time>2022-01-30T09:17:54Z</time>
      </trkpt>
      <trkpt lat="42.82899199999999" lon="0.24930300000000014">
        <ele>1867.053</ele>
        <time>2022-01-30T09:17:57Z</time>
      </trkpt>
      <trkpt lat="42.82902399999999" lon="0.24924800000000014">
        <ele>1868.577</ele>
        <time>2022-01-30T09:18:01Z</time>
      </trkpt>
      <trkpt lat="42.82906799999999" lon="0.24920800000000012">
        <ele>1869.887</ele>
        <time>2022-01-30T09:18:04Z</time>
      </trkpt>
      <trkpt lat="42.82910499999999" lon="0.2491700000000001">
        <ele>1871.115</ele>
        <time>2022-01-30T09:18:07Z</time>
      </trkpt>
      <trkpt lat="42.82917799999999" lon="0.24912200000000012">
        <ele>1872.965</ele>
        <time>2022-01-30T09:18:09Z</time>
      </trkpt>
      <trkpt lat="42.82921999999999" lon="0.24907200000000013">
        <ele>1874.311</ele>
        <time>2022-01-30T09:18:42Z</time>
      </trkpt>
      <trkpt lat="42.82925699999999" lon="0.24903500000000012">
        <ele>1875.508</ele>
        <time>2022-01-30T09:18:44Z</time>
      </trkpt>
      <trkpt lat="42.82927499999999" lon="0.24896300000000013">
        <ele>1877.190</ele>
        <time>2022-01-30T09:18:47Z</time>
      </trkpt>
      <trkpt lat="42.829303999999986" lon="0.24889900000000012">
        <ele>1878.825</ele>
        <time>2022-01-30T09:18:50Z</time>
      </trkpt>
      <trkpt lat="42.829334999999986" lon="0.24883900000000012">
        <ele>1880.361</ele>
        <time>2022-01-30T09:18:53Z</time>
      </trkpt>
      <trkpt lat="42.82936699999998" lon="0.24879200000000012">
        <ele>1881.569</ele>
        <time>2022-01-30T09:18:56Z</time>
      </trkpt>
      <trkpt lat="42.829411999999984" lon="0.2487520000000001">
        <ele>1882.651</ele>
        <time>2022-01-30T09:18:59Z</time>
      </trkpt>
      <trkpt lat="42.82940499999999" lon="0.24867700000000012">
        <ele>1883.788</ele>
        <time>2022-01-30T09:19:03Z</time>
      </trkpt>
      <trkpt lat="42.82939099999999" lon="0.24857500000000013">
        <ele>1885.222</ele>
        <time>2022-01-30T09:19:04Z</time>
      </trkpt>
      <trkpt lat="42.82936699999998" lon="0.24851800000000013">
        <ele>1886.212</ele>
        <time>2022-01-30T09:19:24Z</time>
      </trkpt>
      <trkpt lat="42.82946099999998" lon="0.24846800000000013">
        <ele>1887.225</ele>
        <time>2022-01-30T09:19:26Z</time>
      </trkpt>
      <trkpt lat="42.82947199999998" lon="0.24840600000000013">
        <ele>1888.226</ele>
        <time>2022-01-30T09:19:30Z</time>
      </trkpt>
      <trkpt lat="42.82949799999998" lon="0.24834900000000013">
        <ele>1889.308</ele>
        <time>2022-01-30T09:19:37Z</time>
      </trkpt>
      <trkpt lat="42.82952399999998" lon="0.24828600000000012">
        <ele>1890.808</ele>
        <time>2022-01-30T09:19:42Z</time>
      </trkpt>
      <trkpt lat="42.82959999999998" lon="0.24825600000000012">
        <ele>1892.051</ele>
        <time>2022-01-30T09:20:00Z</time>
      </trkpt>
      <trkpt lat="42.82968699999998" lon="0.24817200000000011">
        <ele>1894.176</ele>
        <time>2022-01-30T09:20:29Z</time>
      </trkpt>
      <trkpt lat="42.82969799999998" lon="0.2481120000000001">
        <ele>1895.162</ele>
        <time>2022-01-30T09:20:32Z</time>
      </trkpt>
      <trkpt lat="42.82972599999998" lon="0.2480480000000001">
        <ele>1896.220</ele>
        <time>2022-01-30T09:20:36Z</time>
      </trkpt>
      <trkpt lat="42.82974999999998" lon="0.24797700000000011">
        <ele>1897.682</ele>
        <time>2022-01-30T09:20:40Z</time>
      </trkpt>
      <trkpt lat="42.829779999999985" lon="0.2479120000000001">
        <ele>1899.079</ele>
        <time>2022-01-30T09:20:45Z</time>
      </trkpt>
      <trkpt lat="42.82978099999998" lon="0.2478450000000001">
        <ele>1900.223</ele>
        <time>2022-01-30T09:20:50Z</time>
      </trkpt>
      <trkpt lat="42.82983699999998" lon="0.2477360000000001">
        <ele>1902.573</ele>
        <time>2022-01-30T09:20:55Z</time>
      </trkpt>
      <trkpt lat="42.82989899999998" lon="0.2477140000000001">
        <ele>1903.366</ele>
        <time>2022-01-30T09:21:34Z</time>
      </trkpt>
      <trkpt lat="42.82990299999998" lon="0.2476470000000001">
        <ele>1904.329</ele>
        <time>2022-01-30T09:21:39Z</time>
      </trkpt>
      <trkpt lat="42.82996099999998" lon="0.24760800000000008">
        <ele>1905.221</ele>
        <time>2022-01-30T09:21:42Z</time>
      </trkpt>
      <trkpt lat="42.830007999999985" lon="0.24758600000000008">
        <ele>1905.808</ele>
        <time>2022-01-30T09:21:44Z</time>
      </trkpt>
      <trkpt lat="42.830046999999986" lon="0.2475390000000001">
        <ele>1906.935</ele>
        <time>2022-01-30T09:21:49Z</time>
      </trkpt>
      <trkpt lat="42.83006499999998" lon="0.2474780000000001">
        <ele>1908.260</ele>
        <time>2022-01-30T09:21:56Z</time>
      </trkpt>
      <trkpt lat="42.83009399999998" lon="0.2474310000000001">
        <ele>1909.686</ele>
        <time>2022-01-30T09:22:01Z</time>
      </trkpt>
      <trkpt lat="42.83011199999998" lon="0.2473690000000001">
        <ele>1911.244</ele>
        <time>2022-01-30T09:22:10Z</time>
      </trkpt>
      <trkpt lat="42.83014199999998" lon="0.2473160000000001">
        <ele>1912.856</ele>
        <time>2022-01-30T09:22:16Z</time>
      </trkpt>
      <trkpt lat="42.83017199999998" lon="0.2472700000000001">
        <ele>1914.353</ele>
        <time>2022-01-30T09:22:22Z</time>
      </trkpt>
      <trkpt lat="42.83022099999998" lon="0.2472640000000001">
        <ele>1915.287</ele>
        <time>2022-01-30T09:22:30Z</time>
      </trkpt>
      <trkpt lat="42.83027099999998" lon="0.2472370000000001">
        <ele>1916.567</ele>
        <time>2022-01-30T09:22:35Z</time>
      </trkpt>
      <trkpt lat="42.830314999999985" lon="0.2472140000000001">
        <ele>1917.687</ele>
        <time>2022-01-30T09:22:44Z</time>
      </trkpt>
      <trkpt lat="42.83040299999998" lon="0.2471880000000001">
        <ele>1919.442</ele>
        <time>2022-01-30T09:23:11Z</time>
      </trkpt>
      <trkpt lat="42.830446999999985" lon="0.2471570000000001">
        <ele>1920.926</ele>
        <time>2022-01-30T09:23:15Z</time>
      </trkpt>
      <trkpt lat="42.83049299999998" lon="0.2471520000000001">
        <ele>1921.708</ele>
        <time>2022-01-30T09:23:19Z</time>
      </trkpt>
      <trkpt lat="42.83054099999998" lon="0.24713900000000008">
        <ele>1922.887</ele>
        <time>2022-01-30T09:23:24Z</time>
      </trkpt>
      <trkpt lat="42.83058699999998" lon="0.2471480000000001">
        <ele>1923.332</ele>
        <time>2022-01-30T09:23:28Z</time>
      </trkpt>
      <trkpt lat="42.83063399999998" lon="0.24713800000000008">
        <ele>1924.778</ele>
        <time>2022-01-30T09:23:32Z</time>
      </trkpt>
      <trkpt lat="42.830714999999984" lon="0.2471210000000001">
        <ele>1927.156</ele>
        <time>2022-01-30T09:23:59Z</time>
      </trkpt>
      <trkpt lat="42.83078899999998" lon="0.2471220000000001">
        <ele>1928.798</ele>
        <time>2022-01-30T09:24:02Z</time>
      </trkpt>
      <trkpt lat="42.830846999999984" lon="0.2470930000000001">
        <ele>1931.335</ele>
        <time>2022-01-30T09:24:07Z</time>
      </trkpt>
      <trkpt lat="42.830891999999984" lon="0.2471200000000001">
        <ele>1930.849</ele>
        <time>2022-01-30T09:24:10Z</time>
      </trkpt>
      <trkpt lat="42.83094699999999" lon="0.24711300000000008">
        <ele>1932.029</ele>
        <time>2022-01-30T09:24:13Z</time>
      </trkpt>
      <trkpt lat="42.83099799999999" lon="0.2471250000000001">
        <ele>1932.315</ele>
        <time>2022-01-30T09:24:17Z</time>
      </trkpt>
      <trkpt lat="42.831076999999986" lon="0.24714000000000008">
        <ele>1933.065</ele>
        <time>2022-01-30T09:24:20Z</time>
      </trkpt>
      <trkpt lat="42.83112699999999" lon="0.2471240000000001">
        <ele>1934.311</ele>
        <time>2022-01-30T09:24:25Z</time>
      </trkpt>
      <trkpt lat="42.83118299999999" lon="0.24716600000000008">
        <ele>1932.908</ele>
        <time>2022-01-30T09:24:49Z</time>
      </trkpt>
      <trkpt lat="42.831234999999985" lon="0.2471480000000001">
        <ele>1934.010</ele>
        <time>2022-01-30T09:24:52Z</time>
      </trkpt>
      <trkpt lat="42.831279999999985" lon="0.24714400000000009">
        <ele>1934.415</ele>
        <time>2022-01-30T09:24:54Z</time>
      </trkpt>
      <trkpt lat="42.831327999999985" lon="0.24714000000000008">
        <ele>1934.961</ele>
        <time>2022-01-30T09:24:57Z</time>
      </trkpt>
      <trkpt lat="42.83144799999999" lon="0.2471210000000001">
        <ele>1936.379</ele>
        <time>2022-01-30T09:25:01Z</time>
      </trkpt>
      <trkpt lat="42.83151199999999" lon="0.24710800000000008">
        <ele>1937.031</ele>
        <time>2022-01-30T09:25:17Z</time>
      </trkpt>
      <trkpt lat="42.83156299999999" lon="0.24710200000000007">
        <ele>1937.568</ele>
        <time>2022-01-30T09:25:20Z</time>
      </trkpt>
      <trkpt lat="42.83161099999999" lon="0.24707100000000007">
        <ele>1938.722</ele>
        <time>2022-01-30T09:25:22Z</time>
      </trkpt>
      <trkpt lat="42.83165899999999" lon="0.24708700000000006">
        <ele>1938.452</ele>
        <time>2022-01-30T09:25:29Z</time>
      </trkpt>
      <trkpt lat="42.83170299999999" lon="0.24706700000000006">
        <ele>1938.939</ele>
        <time>2022-01-30T09:25:34Z</time>
      </trkpt>
      <trkpt lat="42.83173999999999" lon="0.24702300000000008">
        <ele>1940.201</ele>
        <time>2022-01-30T09:25:40Z</time>
      </trkpt>
      <trkpt lat="42.83177299999999" lon="0.24696700000000008">
        <ele>1941.621</ele>
        <time>2022-01-30T09:25:47Z</time>
      </trkpt>
      <trkpt lat="42.83181599999999" lon="0.24694400000000008">
        <ele>1941.908</ele>
        <time>2022-01-30T09:25:52Z</time>
      </trkpt>
      <trkpt lat="42.83185899999999" lon="0.24691100000000007">
        <ele>1942.092</ele>
        <time>2022-01-30T09:25:57Z</time>
      </trkpt>
      <trkpt lat="42.831904999999985" lon="0.24691200000000008">
        <ele>1941.757</ele>
        <time>2022-01-30T09:26:01Z</time>
      </trkpt>
      <trkpt lat="42.83194899999999" lon="0.2468960000000001">
        <ele>1941.593</ele>
        <time>2022-01-30T09:26:05Z</time>
      </trkpt>
      <trkpt lat="42.83199699999999" lon="0.2468720000000001">
        <ele>1941.671</ele>
        <time>2022-01-30T09:26:11Z</time>
      </trkpt>
      <trkpt lat="42.832030999999986" lon="0.2468170000000001">
        <ele>1942.223</ele>
        <time>2022-01-30T09:26:17Z</time>
      </trkpt>
      <trkpt lat="42.832061999999986" lon="0.24675100000000008">
        <ele>1943.090</ele>
        <time>2022-01-30T09:26:23Z</time>
      </trkpt>
      <trkpt lat="42.83207299999999" lon="0.24660300000000007">
        <ele>1944.824</ele>
        <time>2022-01-30T09:26:53Z</time>
      </trkpt>
      <trkpt lat="42.83211499999999" lon="0.24656800000000006">
        <ele>1945.274</ele>
        <time>2022-01-30T09:27:01Z</time>
      </trkpt>
      <trkpt lat="42.83215899999999" lon="0.24659400000000006">
        <ele>1944.858</ele>
        <time>2022-01-30T09:27:05Z</time>
      </trkpt>
      <trkpt lat="42.83220499999999" lon="0.24657200000000007">
        <ele>1945.052</ele>
        <time>2022-01-30T09:27:12Z</time>
      </trkpt>
      <trkpt lat="42.83218799999999" lon="0.24650800000000006">
        <ele>1945.817</ele>
        <time>2022-01-30T09:27:16Z</time>
      </trkpt>
      <trkpt lat="42.83219699999999" lon="0.24644400000000005">
        <ele>1946.508</ele>
        <time>2022-01-30T09:27:22Z</time>
      </trkpt>
      <trkpt lat="42.832230999999986" lon="0.24640300000000004">
        <ele>1946.854</ele>
        <time>2022-01-30T09:27:28Z</time>
      </trkpt>
      <trkpt lat="42.83221099999999" lon="0.24646700000000005">
        <ele>1946.269</ele>
        <time>2022-01-30T09:28:10Z</time>
      </trkpt>
      <trkpt lat="42.83216499999999" lon="0.24650600000000006">
        <ele>1945.955</ele>
        <time>2022-01-30T09:28:15Z</time>
      </trkpt>
      <trkpt lat="42.83216499999999" lon="0.24657100000000007">
        <ele>1945.153</ele>
        <time>2022-01-30T09:28:30Z</time>
      </trkpt>
      <trkpt lat="42.83213399999999" lon="0.24662800000000007">
        <ele>1944.515</ele>
        <time>2022-01-30T09:28:46Z</time>
      </trkpt>
      <trkpt lat="42.832109999999986" lon="0.24668200000000007">
        <ele>1943.872</ele>
        <time>2022-01-30T09:28:52Z</time>
      </trkpt>
      <trkpt lat="42.832076999999984" lon="0.24672500000000006">
        <ele>1943.366</ele>
        <time>2022-01-30T09:28:55Z</time>
      </trkpt>
      <trkpt lat="42.83202499999999" lon="0.24675400000000006">
        <ele>1943.026</ele>
        <time>2022-01-30T09:29:00Z</time>
      </trkpt>
      <trkpt lat="42.831985999999986" lon="0.24679500000000007">
        <ele>1942.515</ele>
        <time>2022-01-30T09:29:06Z</time>
      </trkpt>
      <trkpt lat="42.832008999999985" lon="0.24686300000000008">
        <ele>1941.765</ele>
        <time>2022-01-30T09:29:11Z</time>
      </trkpt>
      <trkpt lat="42.83204099999998" lon="0.24676900000000007">
        <ele>1942.811</ele>
        <time>2022-01-30T09:30:18Z</time>
      </trkpt>
      <trkpt lat="42.83206999999998" lon="0.24671600000000007">
        <ele>1943.408</ele>
        <time>2022-01-30T09:30:51Z</time>
      </trkpt>
      <trkpt lat="42.83209299999998" lon="0.24666000000000007">
        <ele>1944.150</ele>
        <time>2022-01-30T09:30:55Z</time>
      </trkpt>
      <trkpt lat="42.83212199999998" lon="0.24661000000000008">
        <ele>1944.755</ele>
        <time>2022-01-30T09:30:59Z</time>
      </trkpt>
      <trkpt lat="42.83215999999998" lon="0.24657000000000007">
        <ele>1945.181</ele>
        <time>2022-01-30T09:31:04Z</time>
      </trkpt>
      <trkpt lat="42.83216599999998" lon="0.24650200000000005">
        <ele>1945.959</ele>
        <time>2022-01-30T09:31:12Z</time>
      </trkpt>
      <trkpt lat="42.83218799999998" lon="0.24644600000000005">
        <ele>1946.511</ele>
        <time>2022-01-30T09:31:18Z</time>
      </trkpt>
      <trkpt lat="42.83217399999998" lon="0.24638100000000004">
        <ele>1947.358</ele>
        <time>2022-01-30T09:31:23Z</time>
      </trkpt>
      <trkpt lat="42.83218699999998" lon="0.24630900000000006">
        <ele>1948.322</ele>
        <time>2022-01-30T09:31:28Z</time>
      </trkpt>
      <trkpt lat="42.832230999999986" lon="0.24627700000000005">
        <ele>1948.672</ele>
        <time>2022-01-30T09:31:33Z</time>
      </trkpt>
      <trkpt lat="42.83226599999998" lon="0.24621200000000004">
        <ele>1949.385</ele>
        <time>2022-01-30T09:31:39Z</time>
      </trkpt>
      <trkpt lat="42.83232799999998" lon="0.24618800000000005">
        <ele>1949.489</ele>
        <time>2022-01-30T09:31:47Z</time>
      </trkpt>
      <trkpt lat="42.83238799999998" lon="0.24614600000000006">
        <ele>1949.817</ele>
        <time>2022-01-30T09:31:50Z</time>
      </trkpt>
      <trkpt lat="42.83243899999998" lon="0.24608000000000005">
        <ele>1950.708</ele>
        <time>2022-01-30T09:31:52Z</time>
      </trkpt>
      <trkpt lat="42.83246599999998" lon="0.24600300000000005">
        <ele>1951.737</ele>
        <time>2022-01-30T09:32:31Z</time>
      </trkpt>
      <trkpt lat="42.83250899999998" lon="0.24597100000000005">
        <ele>1951.892</ele>
        <time>2022-01-30T09:32:33Z</time>
      </trkpt>
      <trkpt lat="42.83245599999998" lon="0.24596200000000004">
        <ele>1952.378</ele>
        <time>2022-01-30T09:32:38Z</time>
      </trkpt>
      <trkpt lat="42.83247999999998" lon="0.24590300000000004">
        <ele>1953.146</ele>
        <time>2022-01-30T09:32:40Z</time>
      </trkpt>
      <trkpt lat="42.832464999999985" lon="0.24596600000000005">
        <ele>1952.288</ele>
        <time>2022-01-30T09:32:50Z</time>
      </trkpt>
      <trkpt lat="42.83250899999999" lon="0.24592500000000003">
        <ele>1952.575</ele>
        <time>2022-01-30T09:32:56Z</time>
      </trkpt>
      <trkpt lat="42.83254999999999" lon="0.24588000000000004">
        <ele>1952.479</ele>
        <time>2022-01-30T09:32:59Z</time>
      </trkpt>
      <trkpt lat="42.83258499999999" lon="0.24582600000000004">
        <ele>1952.619</ele>
        <time>2022-01-30T09:33:02Z</time>
      </trkpt>
      <trkpt lat="42.832557999999985" lon="0.24576100000000003">
        <ele>1954.168</ele>
        <time>2022-01-30T09:33:05Z</time>
      </trkpt>
      <trkpt lat="42.83250499999998" lon="0.24573300000000003">
        <ele>1955.442</ele>
        <time>2022-01-30T09:33:07Z</time>
      </trkpt>
      <trkpt lat="42.83254599999999" lon="0.24567500000000003">
        <ele>1955.626</ele>
        <time>2022-01-30T09:33:10Z</time>
      </trkpt>
      <trkpt lat="42.83259499999998" lon="0.24564700000000003">
        <ele>1955.408</ele>
        <time>2022-01-30T09:33:12Z</time>
      </trkpt>
      <trkpt lat="42.83263599999999" lon="0.24560900000000002">
        <ele>1955.675</ele>
        <time>2022-01-30T09:33:15Z</time>
      </trkpt>
      <trkpt lat="42.832658999999985" lon="0.24554700000000002">
        <ele>1956.520</ele>
        <time>2022-01-30T09:33:18Z</time>
      </trkpt>
      <trkpt lat="42.832692999999985" lon="0.245507">
        <ele>1957.026</ele>
        <time>2022-01-30T09:33:21Z</time>
      </trkpt>
      <trkpt lat="42.832743999999984" lon="0.245469">
        <ele>1957.564</ele>
        <time>2022-01-30T09:33:26Z</time>
      </trkpt>
      <trkpt lat="42.83279199999998" lon="0.245388">
        <ele>1959.156</ele>
        <time>2022-01-30T09:33:54Z</time>
      </trkpt>
      <trkpt lat="42.832830999999985" lon="0.245354">
        <ele>1959.733</ele>
        <time>2022-01-30T09:33:55Z</time>
      </trkpt>
      <trkpt lat="42.83287499999999" lon="0.245296">
        <ele>1960.667</ele>
        <time>2022-01-30T09:33:57Z</time>
      </trkpt>
      <trkpt lat="42.832917999999985" lon="0.245245">
        <ele>1961.147</ele>
        <time>2022-01-30T09:34:00Z</time>
      </trkpt>
      <trkpt lat="42.83293899999998" lon="0.245188">
        <ele>1961.927</ele>
        <time>2022-01-30T09:34:03Z</time>
      </trkpt>
      <trkpt lat="42.83296799999998" lon="0.245116">
        <ele>1962.968</ele>
        <time>2022-01-30T09:34:06Z</time>
      </trkpt>
      <trkpt lat="42.83299699999998" lon="0.245064">
        <ele>1963.514</ele>
        <time>2022-01-30T09:34:09Z</time>
      </trkpt>
      <trkpt lat="42.83300199999998" lon="0.245">
        <ele>1964.608</ele>
        <time>2022-01-30T09:34:13Z</time>
      </trkpt>
      <trkpt lat="42.83305199999998" lon="0.244966">
        <ele>1964.891</ele>
        <time>2022-01-30T09:34:16Z</time>
      </trkpt>
      <trkpt lat="42.83308299999998" lon="0.244909">
        <ele>1966.786</ele>
        <time>2022-01-30T09:34:20Z</time>
      </trkpt>
      <trkpt lat="42.83308999999998" lon="0.244836">
        <ele>1968.472</ele>
        <time>2022-01-30T09:34:25Z</time>
      </trkpt>
      <trkpt lat="42.833096999999974" lon="0.244771">
        <ele>1969.860</ele>
        <time>2022-01-30T09:34:33Z</time>
      </trkpt>
      <trkpt lat="42.833031999999974" lon="0.244722">
        <ele>1970.342</ele>
        <time>2022-01-30T09:34:34Z</time>
      </trkpt>
      <trkpt lat="42.833067999999976" lon="0.244663">
        <ele>1971.769</ele>
        <time>2022-01-30T09:34:56Z</time>
      </trkpt>
      <trkpt lat="42.833039999999976" lon="0.24459899999999998">
        <ele>1973.383</ele>
        <time>2022-01-30T09:34:58Z</time>
      </trkpt>
      <trkpt lat="42.83309199999997" lon="0.24455">
        <ele>1974.663</ele>
        <time>2022-01-30T09:35:00Z</time>
      </trkpt>
      <trkpt lat="42.83308399999997" lon="0.24447">
        <ele>1976.496</ele>
        <time>2022-01-30T09:35:04Z</time>
      </trkpt>
      <trkpt lat="42.83311499999997" lon="0.244415">
        <ele>1977.631</ele>
        <time>2022-01-30T09:35:06Z</time>
      </trkpt>
      <trkpt lat="42.83308099999997" lon="0.24435199999999999">
        <ele>1978.924</ele>
        <time>2022-01-30T09:35:11Z</time>
      </trkpt>
      <trkpt lat="42.83308499999997" lon="0.24428499999999997">
        <ele>1980.308</ele>
        <time>2022-01-30T09:35:15Z</time>
      </trkpt>
      <trkpt lat="42.83313899999997" lon="0.24425999999999998">
        <ele>1980.448</ele>
        <time>2022-01-30T09:35:17Z</time>
      </trkpt>
      <trkpt lat="42.83318699999997" lon="0.24423999999999998">
        <ele>1980.423</ele>
        <time>2022-01-30T09:35:20Z</time>
      </trkpt>
      <trkpt lat="42.83314999999997" lon="0.244163">
        <ele>1982.079</ele>
        <time>2022-01-30T09:35:26Z</time>
      </trkpt>
      <trkpt lat="42.83321699999997" lon="0.244108">
        <ele>1982.337</ele>
        <time>2022-01-30T09:35:58Z</time>
      </trkpt>
      <trkpt lat="42.83323199999997" lon="0.24404199999999998">
        <ele>1983.339</ele>
        <time>2022-01-30T09:36:00Z</time>
      </trkpt>
      <trkpt lat="42.83320099999997" lon="0.243968">
        <ele>1985.016</ele>
        <time>2022-01-30T09:36:02Z</time>
      </trkpt>
      <trkpt lat="42.83321499999997" lon="0.243893">
        <ele>1986.260</ele>
        <time>2022-01-30T09:36:06Z</time>
      </trkpt>
      <trkpt lat="42.833240999999965" lon="0.243833">
        <ele>1987.220</ele>
        <time>2022-01-30T09:36:10Z</time>
      </trkpt>
      <trkpt lat="42.833285999999966" lon="0.24379199999999998">
        <ele>1987.463</ele>
        <time>2022-01-30T09:36:13Z</time>
      </trkpt>
      <trkpt lat="42.833353999999964" lon="0.24376299999999998">
        <ele>1987.744</ele>
        <time>2022-01-30T09:36:15Z</time>
      </trkpt>
      <trkpt lat="42.83338599999996" lon="0.24370899999999998">
        <ele>1989.018</ele>
        <time>2022-01-30T09:36:20Z</time>
      </trkpt>
      <trkpt lat="42.83340899999996" lon="0.243639">
        <ele>1990.208</ele>
        <time>2022-01-30T09:36:26Z</time>
      </trkpt>
      <trkpt lat="42.833418999999964" lon="0.24356999999999998">
        <ele>1991.575</ele>
        <time>2022-01-30T09:36:34Z</time>
      </trkpt>
      <trkpt lat="42.83346499999996" lon="0.243523">
        <ele>1992.660</ele>
        <time>2022-01-30T09:36:41Z</time>
      </trkpt>
      <trkpt lat="42.83349599999996" lon="0.24347">
        <ele>1993.536</ele>
        <time>2022-01-30T09:36:47Z</time>
      </trkpt>
      <trkpt lat="42.83351199999996" lon="0.24340599999999998">
        <ele>1994.694</ele>
        <time>2022-01-30T09:36:57Z</time>
      </trkpt>
      <trkpt lat="42.83353799999996" lon="0.24335199999999998">
        <ele>1995.326</ele>
        <time>2022-01-30T09:37:04Z</time>
      </trkpt>
      <trkpt lat="42.83357799999996" lon="0.243308">
        <ele>1995.793</ele>
        <time>2022-01-30T09:37:09Z</time>
      </trkpt>
      <trkpt lat="42.83361499999996" lon="0.24326799999999998">
        <ele>1996.367</ele>
        <time>2022-01-30T09:37:17Z</time>
      </trkpt>
      <trkpt lat="42.83361099999996" lon="0.24320099999999997">
        <ele>1997.497</ele>
        <time>2022-01-30T09:37:27Z</time>
      </trkpt>
      <trkpt lat="42.833637999999965" lon="0.24314499999999997">
        <ele>1999.241</ele>
        <time>2022-01-30T09:37:35Z</time>
      </trkpt>
      <trkpt lat="42.833659999999966" lon="0.24308099999999996">
        <ele>2000.881</ele>
        <time>2022-01-30T09:37:42Z</time>
      </trkpt>
      <trkpt lat="42.83366799999997" lon="0.24301399999999995">
        <ele>2002.509</ele>
        <time>2022-01-30T09:37:50Z</time>
      </trkpt>
      <trkpt lat="42.83368699999997" lon="0.24294699999999994">
        <ele>2004.608</ele>
        <time>2022-01-30T09:37:56Z</time>
      </trkpt>
      <trkpt lat="42.83371899999997" lon="0.24289899999999995">
        <ele>2006.473</ele>
        <time>2022-01-30T09:38:01Z</time>
      </trkpt>
      <trkpt lat="42.833727999999965" lon="0.24283399999999994">
        <ele>2008.028</ele>
        <time>2022-01-30T09:38:08Z</time>
      </trkpt>
      <trkpt lat="42.833730999999965" lon="0.24276499999999993">
        <ele>2009.674</ele>
        <time>2022-01-30T09:38:16Z</time>
      </trkpt>
      <trkpt lat="42.833735999999966" lon="0.2426979999999999">
        <ele>2011.272</ele>
        <time>2022-01-30T09:38:32Z</time>
      </trkpt>
      <trkpt lat="42.833766999999966" lon="0.24265199999999992">
        <ele>2012.694</ele>
        <time>2022-01-30T09:38:42Z</time>
      </trkpt>
      <trkpt lat="42.83368799999997" lon="0.24270499999999992">
        <ele>2010.681</ele>
        <time>2022-01-30T09:40:21Z</time>
      </trkpt>
      <trkpt lat="42.83372999999997" lon="0.24267199999999992">
        <ele>2011.835</ele>
        <time>2022-01-30T09:40:45Z</time>
      </trkpt>
      <trkpt lat="42.83375699999997" lon="0.24262199999999992">
        <ele>2013.285</ele>
        <time>2022-01-30T09:40:59Z</time>
      </trkpt>
      <trkpt lat="42.83375999999997" lon="0.2425569999999999">
        <ele>2014.725</ele>
        <time>2022-01-30T09:41:05Z</time>
      </trkpt>
      <trkpt lat="42.83378399999997" lon="0.24250399999999991">
        <ele>2016.226</ele>
        <time>2022-01-30T09:41:14Z</time>
      </trkpt>
      <trkpt lat="42.83378499999997" lon="0.24243299999999993">
        <ele>2018.008</ele>
        <time>2022-01-30T09:41:25Z</time>
      </trkpt>
      <trkpt lat="42.83380499999997" lon="0.24237699999999993">
        <ele>2019.608</ele>
        <time>2022-01-30T09:41:31Z</time>
      </trkpt>
      <trkpt lat="42.83382199999997" lon="0.24231299999999992">
        <ele>2021.411</ele>
        <time>2022-01-30T09:41:39Z</time>
      </trkpt>
      <trkpt lat="42.83380499999997" lon="0.2422529999999999">
        <ele>2022.966</ele>
        <time>2022-01-30T09:41:49Z</time>
      </trkpt>
      <trkpt lat="42.83377799999997" lon="0.24220199999999992">
        <ele>2024.282</ele>
        <time>2022-01-30T09:41:57Z</time>
      </trkpt>
      <trkpt lat="42.833797999999966" lon="0.24214499999999992">
        <ele>2026.080</ele>
        <time>2022-01-30T09:42:07Z</time>
      </trkpt>
      <trkpt lat="42.83383699999997" lon="0.24210099999999993">
        <ele>2027.482</ele>
        <time>2022-01-30T09:42:28Z</time>
      </trkpt>
      <trkpt lat="42.83386199999997" lon="0.24204099999999992">
        <ele>2029.229</ele>
        <time>2022-01-30T09:42:38Z</time>
      </trkpt>
      <trkpt lat="42.833868999999964" lon="0.24197999999999992">
        <ele>2031.053</ele>
        <time>2022-01-30T09:42:45Z</time>
      </trkpt>
      <trkpt lat="42.83388399999996" lon="0.24192099999999991">
        <ele>2032.433</ele>
        <time>2022-01-30T09:43:08Z</time>
      </trkpt>
      <trkpt lat="42.83387099999996" lon="0.2418589999999999">
        <ele>2033.679</ele>
        <time>2022-01-30T09:43:15Z</time>
      </trkpt>
      <trkpt lat="42.83387099999996" lon="0.2417959999999999">
        <ele>2034.705</ele>
        <time>2022-01-30T09:43:23Z</time>
      </trkpt>
      <trkpt lat="42.83387999999996" lon="0.2417319999999999">
        <ele>2035.925</ele>
        <time>2022-01-30T09:43:43Z</time>
      </trkpt>
      <trkpt lat="42.83391899999996" lon="0.24169699999999988">
        <ele>2037.008</ele>
        <time>2022-01-30T09:44:00Z</time>
      </trkpt>
      <trkpt lat="42.83395999999996" lon="0.24166299999999988">
        <ele>2038.446</ele>
        <time>2022-01-30T09:44:07Z</time>
      </trkpt>
      <trkpt lat="42.83395699999996" lon="0.24159599999999987">
        <ele>2039.961</ele>
        <time>2022-01-30T09:44:15Z</time>
      </trkpt>
      <trkpt lat="42.833958999999965" lon="0.24152899999999985">
        <ele>2041.637</ele>
        <time>2022-01-30T09:44:24Z</time>
      </trkpt>
      <trkpt lat="42.833972999999965" lon="0.24146799999999985">
        <ele>2043.515</ele>
        <time>2022-01-30T09:44:36Z</time>
      </trkpt>
      <trkpt lat="42.833980999999966" lon="0.24139799999999986">
        <ele>2045.457</ele>
        <time>2022-01-30T09:44:43Z</time>
      </trkpt>
      <trkpt lat="42.833997999999966" lon="0.24133199999999985">
        <ele>2047.734</ele>
        <time>2022-01-30T09:45:26Z</time>
      </trkpt>
      <trkpt lat="42.834039999999966" lon="0.24130799999999986">
        <ele>2049.758</ele>
        <time>2022-01-30T09:45:35Z</time>
      </trkpt>
      <trkpt lat="42.834051999999964" lon="0.24124499999999985">
        <ele>2051.938</ele>
        <time>2022-01-30T09:45:44Z</time>
      </trkpt>
      <trkpt lat="42.834070999999966" lon="0.24118899999999985">
        <ele>2054.253</ele>
        <time>2022-01-30T09:45:52Z</time>
      </trkpt>
      <trkpt lat="42.83409799999997" lon="0.24113399999999985">
        <ele>2056.804</ele>
        <time>2022-01-30T09:46:01Z</time>
      </trkpt>
      <trkpt lat="42.83414199999997" lon="0.24109899999999984">
        <ele>2059.514</ele>
        <time>2022-01-30T09:46:10Z</time>
      </trkpt>
      <trkpt lat="42.834179999999975" lon="0.24105899999999983">
        <ele>2061.808</ele>
        <time>2022-01-30T09:47:03Z</time>
      </trkpt>
      <trkpt lat="42.83423199999997" lon="0.24104999999999982">
        <ele>2063.494</ele>
        <time>2022-01-30T09:47:10Z</time>
      </trkpt>
      <trkpt lat="42.83426799999997" lon="0.24100799999999983">
        <ele>2065.579</ele>
        <time>2022-01-30T09:47:21Z</time>
      </trkpt>
      <trkpt lat="42.834266999999976" lon="0.24094599999999983">
        <ele>2067.325</ele>
        <time>2022-01-30T09:47:32Z</time>
      </trkpt>
      <trkpt lat="42.83425999999998" lon="0.24088499999999982">
        <ele>2068.943</ele>
        <time>2022-01-30T09:47:40Z</time>
      </trkpt>
      <trkpt lat="42.83425199999998" lon="0.24081499999999983">
        <ele>2070.765</ele>
        <time>2022-01-30T09:47:49Z</time>
      </trkpt>
      <trkpt lat="42.83424799999998" lon="0.24074799999999982">
        <ele>2072.572</ele>
        <time>2022-01-30T09:47:57Z</time>
      </trkpt>
      <trkpt lat="42.83429799999998" lon="0.24075999999999984">
        <ele>2073.546</ele>
        <time>2022-01-30T09:48:05Z</time>
      </trkpt>
      <trkpt lat="42.834305999999984" lon="0.24069199999999982">
        <ele>2075.816</ele>
        <time>2022-01-30T09:48:20Z</time>
      </trkpt>
      <trkpt lat="42.834296999999985" lon="0.2406269999999998">
        <ele>2077.557</ele>
        <time>2022-01-30T09:48:32Z</time>
      </trkpt>
      <trkpt lat="42.834307999999986" lon="0.2405669999999998">
        <ele>2079.700</ele>
        <time>2022-01-30T09:48:44Z</time>
      </trkpt>
      <trkpt lat="42.83428999999999" lon="0.2405099999999998">
        <ele>2080.320</ele>
        <time>2022-01-30T09:48:54Z</time>
      </trkpt>
      <trkpt lat="42.83428499999999" lon="0.2404459999999998">
        <ele>2081.408</ele>
        <time>2022-01-30T09:49:05Z</time>
      </trkpt>
      <trkpt lat="42.834336999999984" lon="0.2404189999999998">
        <ele>2083.944</ele>
        <time>2022-01-30T09:49:54Z</time>
      </trkpt>
      <trkpt lat="42.83435399999998" lon="0.2403579999999998">
        <ele>2085.849</ele>
        <time>2022-01-30T09:50:07Z</time>
      </trkpt>
      <trkpt lat="42.83438899999998" lon="0.24031699999999978">
        <ele>2088.065</ele>
        <time>2022-01-30T09:50:14Z</time>
      </trkpt>
      <trkpt lat="42.83438999999998" lon="0.24025199999999977">
        <ele>2089.383</ele>
        <time>2022-01-30T09:50:21Z</time>
      </trkpt>
      <trkpt lat="42.834390999999975" lon="0.24018799999999976">
        <ele>2090.635</ele>
        <time>2022-01-30T09:50:39Z</time>
      </trkpt>
      <trkpt lat="42.834345999999975" lon="0.24017199999999977">
        <ele>2089.352</ele>
        <time>2022-01-30T09:50:45Z</time>
      </trkpt>
      <trkpt lat="42.83432499999998" lon="0.24011199999999977">
        <ele>2089.856</ele>
        <time>2022-01-30T09:50:53Z</time>
      </trkpt>
      <trkpt lat="42.83433899999998" lon="0.24004699999999976">
        <ele>2091.686</ele>
        <time>2022-01-30T09:51:16Z</time>
      </trkpt>
      <trkpt lat="42.83437999999998" lon="0.24001399999999976">
        <ele>2093.652</ele>
        <time>2022-01-30T09:51:22Z</time>
      </trkpt>
      <trkpt lat="42.83441199999998" lon="0.23996599999999976">
        <ele>2096.053</ele>
        <time>2022-01-30T09:51:33Z</time>
      </trkpt>
      <trkpt lat="42.83443899999998" lon="0.23990799999999976">
        <ele>2098.508</ele>
        <time>2022-01-30T09:51:44Z</time>
      </trkpt>
      <trkpt lat="42.834476999999985" lon="0.23986199999999977">
        <ele>2101.308</ele>
        <time>2022-01-30T09:52:17Z</time>
      </trkpt>
      <trkpt lat="42.83446099999998" lon="0.23980499999999977">
        <ele>2102.344</ele>
        <time>2022-01-30T09:52:27Z</time>
      </trkpt>
      <trkpt lat="42.83443899999998" lon="0.23974899999999977">
        <ele>2103.159</ele>
        <time>2022-01-30T09:52:38Z</time>
      </trkpt>
      <trkpt lat="42.83444699999998" lon="0.23968799999999976">
        <ele>2105.335</ele>
        <time>2022-01-30T09:52:51Z</time>
      </trkpt>
      <trkpt lat="42.834456999999986" lon="0.23962799999999976">
        <ele>2107.953</ele>
        <time>2022-01-30T09:53:00Z</time>
      </trkpt>
      <trkpt lat="42.83447599999999" lon="0.23956899999999975">
        <ele>2110.925</ele>
        <time>2022-01-30T09:53:09Z</time>
      </trkpt>
      <trkpt lat="42.834442999999986" lon="0.23951699999999976">
        <ele>2111.492</ele>
        <time>2022-01-30T09:53:38Z</time>
      </trkpt>
      <trkpt lat="42.834428999999986" lon="0.23945299999999975">
        <ele>2113.476</ele>
        <time>2022-01-30T09:53:45Z</time>
      </trkpt>
      <trkpt lat="42.83443699999999" lon="0.23938899999999974">
        <ele>2115.376</ele>
        <time>2022-01-30T09:53:55Z</time>
      </trkpt>
      <trkpt lat="42.834440999999984" lon="0.23932699999999973">
        <ele>2116.923</ele>
        <time>2022-01-30T10:01:26Z</time>
      </trkpt>
      <trkpt lat="42.83440299999998" lon="0.23924099999999973">
        <ele>2118.583</ele>
        <time>2022-01-30T10:03:22Z</time>
      </trkpt>
      <trkpt lat="42.83444499999998" lon="0.23918499999999973">
        <ele>2120.611</ele>
        <time>2022-01-30T10:03:28Z</time>
      </trkpt>
      <trkpt lat="42.83448399999998" lon="0.23915199999999973">
        <ele>2123.308</ele>
        <time>2022-01-30T10:03:39Z</time>
      </trkpt>
      <trkpt lat="42.83448999999998" lon="0.23908799999999972">
        <ele>2125.231</ele>
        <time>2022-01-30T10:03:47Z</time>
      </trkpt>
      <trkpt lat="42.83452899999998" lon="0.2390519999999997">
        <ele>2127.986</ele>
        <time>2022-01-30T10:03:58Z</time>
      </trkpt>
      <trkpt lat="42.83455099999998" lon="0.2389949999999997">
        <ele>2130.232</ele>
        <time>2022-01-30T10:04:11Z</time>
      </trkpt>
      <trkpt lat="42.83458499999998" lon="0.23895099999999972">
        <ele>2132.770</ele>
        <time>2022-01-30T10:04:32Z</time>
      </trkpt>
      <trkpt lat="42.834617999999985" lon="0.23890399999999973">
        <ele>2135.282</ele>
        <time>2022-01-30T10:04:44Z</time>
      </trkpt>
      <trkpt lat="42.834645999999985" lon="0.23884599999999973">
        <ele>2137.559</ele>
        <time>2022-01-30T10:04:52Z</time>
      </trkpt>
      <trkpt lat="42.834659999999985" lon="0.23878699999999972">
        <ele>2139.093</ele>
        <time>2022-01-30T10:05:02Z</time>
      </trkpt>
      <trkpt lat="42.83466099999998" lon="0.2387219999999997">
        <ele>2140.253</ele>
        <time>2022-01-30T10:05:11Z</time>
      </trkpt>
      <trkpt lat="42.83467599999998" lon="0.2386599999999997">
        <ele>2141.731</ele>
        <time>2022-01-30T10:05:19Z</time>
      </trkpt>
      <trkpt lat="42.83470299999998" lon="0.2386009999999997">
        <ele>2143.661</ele>
        <time>2022-01-30T10:05:46Z</time>
      </trkpt>
      <trkpt lat="42.83471999999998" lon="0.2385429999999997">
        <ele>2145.207</ele>
        <time>2022-01-30T10:05:54Z</time>
      </trkpt>
      <trkpt lat="42.83476499999998" lon="0.2385549999999997">
        <ele>2146.408</ele>
        <time>2022-01-30T10:06:07Z</time>
      </trkpt>
      <trkpt lat="42.834811999999985" lon="0.2385709999999997">
        <ele>2147.772</ele>
        <time>2022-01-30T10:06:15Z</time>
      </trkpt>
      <trkpt lat="42.83485899999999" lon="0.2385909999999997">
        <ele>2148.887</ele>
        <time>2022-01-30T10:06:23Z</time>
      </trkpt>
      <trkpt lat="42.834893999999984" lon="0.2385479999999997">
        <ele>2150.813</ele>
        <time>2022-01-30T10:06:33Z</time>
      </trkpt>
      <trkpt lat="42.834921999999985" lon="0.2384939999999997">
        <ele>2152.941</ele>
        <time>2022-01-30T10:06:45Z</time>
      </trkpt>
      <trkpt lat="42.83493999999998" lon="0.2384329999999997">
        <ele>2154.823</ele>
        <time>2022-01-30T10:06:53Z</time>
      </trkpt>
      <trkpt lat="42.83494699999998" lon="0.2383699999999997">
        <ele>2156.360</ele>
        <time>2022-01-30T10:07:00Z</time>
      </trkpt>
      <trkpt lat="42.83495999999998" lon="0.23830499999999968">
        <ele>2158.094</ele>
        <time>2022-01-30T10:07:08Z</time>
      </trkpt>
      <trkpt lat="42.83496699999998" lon="0.2382349999999997">
        <ele>2159.384</ele>
        <time>2022-01-30T10:07:15Z</time>
      </trkpt>
      <trkpt lat="42.834995999999975" lon="0.2381809999999997">
        <ele>2161.157</ele>
        <time>2022-01-30T10:07:22Z</time>
      </trkpt>
      <trkpt lat="42.83501099999997" lon="0.2381179999999997">
        <ele>2162.000</ele>
        <time>2022-01-30T10:07:31Z</time>
      </trkpt>
      <trkpt lat="42.83499699999997" lon="0.2380579999999997">
        <ele>2162.920</ele>
        <time>2022-01-30T10:08:18Z</time>
      </trkpt>
      <trkpt lat="42.835015999999975" lon="0.2381189999999997">
        <ele>2161.908</ele>
        <time>2022-01-30T10:08:37Z</time>
      </trkpt>
      <trkpt lat="42.83502299999997" lon="0.23818899999999968">
        <ele>2160.974</ele>
        <time>2022-01-30T10:08:43Z</time>
      </trkpt>
      <trkpt lat="42.83499599999997" lon="0.23824699999999968">
        <ele>2160.149</ele>
        <time>2022-01-30T10:08:48Z</time>
      </trkpt>
      <trkpt lat="42.83496399999997" lon="0.23829599999999967">
        <ele>2158.375</ele>
        <time>2022-01-30T10:08:56Z</time>
      </trkpt>
      <trkpt lat="42.83498599999997" lon="0.23823999999999967">
        <ele>2159.933</ele>
        <time>2022-01-30T10:09:56Z</time>
      </trkpt>
      <trkpt lat="42.834990999999974" lon="0.23817699999999967">
        <ele>2161.085</ele>
        <time>2022-01-30T10:10:08Z</time>
      </trkpt>
      <trkpt lat="42.83501699999997" lon="0.23812499999999967">
        <ele>2161.812</ele>
        <time>2022-01-30T10:10:17Z</time>
      </trkpt>
      <trkpt lat="42.83502599999997" lon="0.23805499999999968">
        <ele>2162.736</ele>
        <time>2022-01-30T10:11:10Z</time>
      </trkpt>
      <trkpt lat="42.83503799999997" lon="0.23799399999999968">
        <ele>2163.346</ele>
        <time>2022-01-30T10:11:19Z</time>
      </trkpt>
      <trkpt lat="42.83504099999997" lon="0.23792799999999967">
        <ele>2164.164</ele>
        <time>2022-01-30T10:11:34Z</time>
      </trkpt>
      <trkpt lat="42.83505399999997" lon="0.23786399999999966">
        <ele>2164.806</ele>
        <time>2022-01-30T10:11:42Z</time>
      </trkpt>
      <trkpt lat="42.83508499999997" lon="0.23781099999999966">
        <ele>2165.316</ele>
        <time>2022-01-30T10:11:51Z</time>
      </trkpt>
      <trkpt lat="42.83511599999997" lon="0.23776499999999967">
        <ele>2165.808</ele>
        <time>2022-01-30T10:11:59Z</time>
      </trkpt>
      <trkpt lat="42.83512799999997" lon="0.23770499999999967">
        <ele>2166.755</ele>
        <time>2022-01-30T10:12:08Z</time>
      </trkpt>
      <trkpt lat="42.83513899999997" lon="0.23764199999999966">
        <ele>2167.740</ele>
        <time>2022-01-30T10:12:49Z</time>
      </trkpt>
      <trkpt lat="42.83517199999997" lon="0.23758999999999966">
        <ele>2168.586</ele>
        <time>2022-01-30T10:13:11Z</time>
      </trkpt>
      <trkpt lat="42.83521199999997" lon="0.23755199999999965">
        <ele>2169.154</ele>
        <time>2022-01-30T10:13:21Z</time>
      </trkpt>
      <trkpt lat="42.83525799999997" lon="0.23752899999999966">
        <ele>2169.556</ele>
        <time>2022-01-30T10:13:31Z</time>
      </trkpt>
      <trkpt lat="42.835303999999965" lon="0.23752499999999965">
        <ele>2170.013</ele>
        <time>2022-01-30T10:13:38Z</time>
      </trkpt>
      <trkpt lat="42.835351999999965" lon="0.23751399999999964">
        <ele>2171.177</ele>
        <time>2022-01-30T10:13:47Z</time>
      </trkpt>
      <trkpt lat="42.835393999999965" lon="0.23748499999999964">
        <ele>2172.657</ele>
        <time>2022-01-30T10:13:55Z</time>
      </trkpt>
      <trkpt lat="42.83536499999997" lon="0.23743199999999964">
        <ele>2173.728</ele>
        <time>2022-01-30T10:14:05Z</time>
      </trkpt>
      <trkpt lat="42.835342999999966" lon="0.23737499999999964">
        <ele>2175.189</ele>
        <time>2022-01-30T10:14:16Z</time>
      </trkpt>
      <trkpt lat="42.83538399999997" lon="0.23734599999999964">
        <ele>2176.717</ele>
        <time>2022-01-30T10:14:27Z</time>
      </trkpt>
      <trkpt lat="42.83542599999997" lon="0.23732299999999965">
        <ele>2178.108</ele>
        <time>2022-01-30T10:14:36Z</time>
      </trkpt>
      <trkpt lat="42.83547399999997" lon="0.23732699999999965">
        <ele>2178.711</ele>
        <time>2022-01-30T10:14:44Z</time>
      </trkpt>
      <trkpt lat="42.83552299999997" lon="0.23731599999999964">
        <ele>2179.856</ele>
        <time>2022-01-30T10:14:53Z</time>
      </trkpt>
      <trkpt lat="42.83551599999997" lon="0.23725099999999963">
        <ele>2181.682</ele>
        <time>2022-01-30T10:15:09Z</time>
      </trkpt>
      <trkpt lat="42.83555599999997" lon="0.23721799999999962">
        <ele>2183.140</ele>
        <time>2022-01-30T10:15:25Z</time>
      </trkpt>
      <trkpt lat="42.83553299999997" lon="0.23715899999999962">
        <ele>2184.752</ele>
        <time>2022-01-30T10:15:37Z</time>
      </trkpt>
      <trkpt lat="42.83556999999997" lon="0.2371189999999996">
        <ele>2186.799</ele>
        <time>2022-01-30T10:15:56Z</time>
      </trkpt>
      <trkpt lat="42.83556499999997" lon="0.2370579999999996">
        <ele>2188.543</ele>
        <time>2022-01-30T10:16:10Z</time>
      </trkpt>
      <trkpt lat="42.83559299999997" lon="0.2370099999999996">
        <ele>2190.723</ele>
        <time>2022-01-30T10:16:40Z</time>
      </trkpt>
      <trkpt lat="42.83561199999997" lon="0.2369409999999996">
        <ele>2193.386</ele>
        <time>2022-01-30T10:16:48Z</time>
      </trkpt>
      <trkpt lat="42.83562199999997" lon="0.2368789999999996">
        <ele>2195.260</ele>
        <time>2022-01-30T10:16:56Z</time>
      </trkpt>
      <trkpt lat="42.835617999999975" lon="0.2368049999999996">
        <ele>2197.026</ele>
        <time>2022-01-30T10:18:58Z</time>
      </trkpt>
      <trkpt lat="42.83558499999997" lon="0.2367619999999996">
        <ele>2197.708</ele>
        <time>2022-01-30T10:19:02Z</time>
      </trkpt>
      <trkpt lat="42.83556099999997" lon="0.23670899999999961">
        <ele>2198.837</ele>
        <time>2022-01-30T10:19:05Z</time>
      </trkpt>
      <trkpt lat="42.83553399999997" lon="0.2366479999999996">
        <ele>2200.242</ele>
        <time>2022-01-30T10:19:10Z</time>
      </trkpt>
      <trkpt lat="42.835503999999965" lon="0.2365939999999996">
        <ele>2201.238</ele>
        <time>2022-01-30T10:19:16Z</time>
      </trkpt>
      <trkpt lat="42.835489999999965" lon="0.2365299999999996">
        <ele>2202.776</ele>
        <time>2022-01-30T10:19:24Z</time>
      </trkpt>
      <trkpt lat="42.83546099999997" lon="0.2364719999999996">
        <ele>2204.098</ele>
        <time>2022-01-30T10:19:39Z</time>
      </trkpt>
      <trkpt lat="42.835424999999965" lon="0.2364219999999996">
        <ele>2205.135</ele>
        <time>2022-01-30T10:19:47Z</time>
      </trkpt>
      <trkpt lat="42.835393999999965" lon="0.2363689999999996">
        <ele>2206.429</ele>
        <time>2022-01-30T10:19:56Z</time>
      </trkpt>
      <trkpt lat="42.835359999999966" lon="0.23632699999999962">
        <ele>2207.359</ele>
        <time>2022-01-30T10:20:04Z</time>
      </trkpt>
      <trkpt lat="42.83533099999997" lon="0.23627599999999963">
        <ele>2208.635</ele>
        <time>2022-01-30T10:20:20Z</time>
      </trkpt>
      <trkpt lat="42.835292999999965" lon="0.23623899999999962">
        <ele>2209.486</ele>
        <time>2022-01-30T10:20:27Z</time>
      </trkpt>
      <trkpt lat="42.83525799999997" lon="0.2361999999999996">
        <ele>2210.414</ele>
        <time>2022-01-30T10:20:33Z</time>
      </trkpt>
      <trkpt lat="42.835219999999964" lon="0.2361639999999996">
        <ele>2211.408</ele>
        <time>2022-01-30T10:20:39Z</time>
      </trkpt>
      <trkpt lat="42.83517899999996" lon="0.23612399999999958">
        <ele>2212.642</ele>
        <time>2022-01-30T10:20:46Z</time>
      </trkpt>
      <trkpt lat="42.83513899999996" lon="0.23608899999999958">
        <ele>2213.467</ele>
        <time>2022-01-30T10:20:54Z</time>
      </trkpt>
      <trkpt lat="42.835123999999965" lon="0.23602499999999957">
        <ele>2214.743</ele>
        <time>2022-01-30T10:21:14Z</time>
      </trkpt>
      <trkpt lat="42.83511399999996" lon="0.23596099999999956">
        <ele>2216.031</ele>
        <time>2022-01-30T10:21:23Z</time>
      </trkpt>
      <trkpt lat="42.83507599999996" lon="0.23589799999999955">
        <ele>2217.423</ele>
        <time>2022-01-30T10:21:31Z</time>
      </trkpt>
      <trkpt lat="42.835048999999955" lon="0.23584899999999956">
        <ele>2218.520</ele>
        <time>2022-01-30T10:21:34Z</time>
      </trkpt>
      <trkpt lat="42.835006999999955" lon="0.23581099999999955">
        <ele>2219.464</ele>
        <time>2022-01-30T10:21:38Z</time>
      </trkpt>
      <trkpt lat="42.83495799999996" lon="0.23579099999999956">
        <ele>2220.134</ele>
        <time>2022-01-30T10:21:43Z</time>
      </trkpt>
      <trkpt lat="42.83490899999996" lon="0.23580599999999954">
        <ele>2220.167</ele>
        <time>2022-01-30T10:21:49Z</time>
      </trkpt>
      <trkpt lat="42.83486399999996" lon="0.23579299999999953">
        <ele>2220.781</ele>
        <time>2022-01-30T10:21:58Z</time>
      </trkpt>
      <trkpt lat="42.83481299999996" lon="0.23578399999999952">
        <ele>2221.219</ele>
        <time>2022-01-30T10:22:06Z</time>
      </trkpt>
      <trkpt lat="42.83476299999996" lon="0.23578099999999952">
        <ele>2221.608</ele>
        <time>2022-01-30T10:22:14Z</time>
      </trkpt>
      <trkpt lat="42.83470999999996" lon="0.23578999999999953">
        <ele>2221.995</ele>
        <time>2022-01-30T10:22:22Z</time>
      </trkpt>
      <trkpt lat="42.83466099999996" lon="0.23579999999999954">
        <ele>2222.130</ele>
        <time>2022-01-30T10:22:28Z</time>
      </trkpt>
      <trkpt lat="42.83461599999996" lon="0.23580899999999955">
        <ele>2222.286</ele>
        <time>2022-01-30T10:22:34Z</time>
      </trkpt>
      <trkpt lat="42.83456599999996" lon="0.23582899999999954">
        <ele>2222.294</ele>
        <time>2022-01-30T10:22:40Z</time>
      </trkpt>
      <trkpt lat="42.83452099999996" lon="0.23583699999999955">
        <ele>2222.456</ele>
        <time>2022-01-30T10:22:45Z</time>
      </trkpt>
      <trkpt lat="42.83447399999996" lon="0.23584999999999956">
        <ele>2222.443</ele>
        <time>2022-01-30T10:22:51Z</time>
      </trkpt>
      <trkpt lat="42.83442799999996" lon="0.23585499999999956">
        <ele>2222.577</ele>
        <time>2022-01-30T10:22:59Z</time>
      </trkpt>
      <trkpt lat="42.83438199999996" lon="0.23585799999999957">
        <ele>2222.687</ele>
        <time>2022-01-30T10:23:05Z</time>
      </trkpt>
      <trkpt lat="42.834335999999965" lon="0.23586899999999958">
        <ele>2222.575</ele>
        <time>2022-01-30T10:23:11Z</time>
      </trkpt>
      <trkpt lat="42.834281999999966" lon="0.23587499999999958">
        <ele>2222.528</ele>
        <time>2022-01-30T10:23:17Z</time>
      </trkpt>
      <trkpt lat="42.834237999999964" lon="0.23589399999999958">
        <ele>2222.220</ele>
        <time>2022-01-30T10:23:22Z</time>
      </trkpt>
      <trkpt lat="42.834183999999965" lon="0.23589899999999958">
        <ele>2222.308</ele>
        <time>2022-01-30T10:23:28Z</time>
      </trkpt>
      <trkpt lat="42.83413199999997" lon="0.23589499999999958">
        <ele>2222.346</ele>
        <time>2022-01-30T10:23:33Z</time>
      </trkpt>
      <trkpt lat="42.83407999999997" lon="0.2358779999999996">
        <ele>2222.461</ele>
        <time>2022-01-30T10:23:38Z</time>
      </trkpt>
      <trkpt lat="42.83403199999997" lon="0.2358789999999996">
        <ele>2222.097</ele>
        <time>2022-01-30T10:23:43Z</time>
      </trkpt>
      <trkpt lat="42.83399099999997" lon="0.2359069999999996">
        <ele>2221.285</ele>
        <time>2022-01-30T10:23:51Z</time>
      </trkpt>
      <trkpt lat="42.83394399999997" lon="0.23592699999999958">
        <ele>2220.677</ele>
        <time>2022-01-30T10:23:57Z</time>
      </trkpt>
      <trkpt lat="42.83389799999997" lon="0.23592199999999958">
        <ele>2220.424</ele>
        <time>2022-01-30T10:24:02Z</time>
      </trkpt>
      <trkpt lat="42.83384399999997" lon="0.23593099999999959">
        <ele>2220.048</ele>
        <time>2022-01-30T10:24:07Z</time>
      </trkpt>
      <trkpt lat="42.83379699999997" lon="0.2359609999999996">
        <ele>2219.378</ele>
        <time>2022-01-30T10:24:12Z</time>
      </trkpt>
      <trkpt lat="42.83374499999997" lon="0.23594799999999957">
        <ele>2219.313</ele>
        <time>2022-01-30T10:24:16Z</time>
      </trkpt>
      <trkpt lat="42.83369699999997" lon="0.23594899999999958">
        <ele>2219.143</ele>
        <time>2022-01-30T10:24:20Z</time>
      </trkpt>
      <trkpt lat="42.83364199999997" lon="0.23594599999999957">
        <ele>2218.907</ele>
        <time>2022-01-30T10:24:25Z</time>
      </trkpt>
      <trkpt lat="42.83359499999997" lon="0.23596099999999956">
        <ele>2218.508</ele>
        <time>2022-01-30T10:24:29Z</time>
      </trkpt>
      <trkpt lat="42.83355299999997" lon="0.23599699999999957">
        <ele>2217.940</ele>
        <time>2022-01-30T10:24:34Z</time>
      </trkpt>
      <trkpt lat="42.833508999999964" lon="0.23601399999999956">
        <ele>2217.615</ele>
        <time>2022-01-30T10:24:39Z</time>
      </trkpt>
      <trkpt lat="42.833457999999965" lon="0.23603499999999955">
        <ele>2217.171</ele>
        <time>2022-01-30T10:24:45Z</time>
      </trkpt>
      <trkpt lat="42.83340599999997" lon="0.23604699999999956">
        <ele>2216.819</ele>
        <time>2022-01-30T10:24:53Z</time>
      </trkpt>
      <trkpt lat="42.833358999999966" lon="0.23604499999999956">
        <ele>2216.681</ele>
        <time>2022-01-30T10:25:04Z</time>
      </trkpt>
      <trkpt lat="42.83331499999996" lon="0.23601599999999956">
        <ele>2216.678</ele>
        <time>2022-01-30T10:25:52Z</time>
      </trkpt>
      <trkpt lat="42.833265999999966" lon="0.23598899999999956">
        <ele>2216.572</ele>
        <time>2022-01-30T10:25:57Z</time>
      </trkpt>
      <trkpt lat="42.83323099999997" lon="0.23594099999999957">
        <ele>2216.662</ele>
        <time>2022-01-30T10:26:02Z</time>
      </trkpt>
      <trkpt lat="42.83320199999997" lon="0.23588299999999957">
        <ele>2216.868</ele>
        <time>2022-01-30T10:26:08Z</time>
      </trkpt>
      <trkpt lat="42.83315499999997" lon="0.23584599999999956">
        <ele>2216.742</ele>
        <time>2022-01-30T10:26:13Z</time>
      </trkpt>
      <trkpt lat="42.83310899999997" lon="0.23582599999999956">
        <ele>2216.426</ele>
        <time>2022-01-30T10:26:18Z</time>
      </trkpt>
      <trkpt lat="42.83305899999997" lon="0.23580199999999957">
        <ele>2216.108</ele>
        <time>2022-01-30T10:26:22Z</time>
      </trkpt>
      <trkpt lat="42.83300899999997" lon="0.23579099999999956">
        <ele>2215.955</ele>
        <time>2022-01-30T10:26:26Z</time>
      </trkpt>
      <trkpt lat="42.83296099999997" lon="0.23576799999999956">
        <ele>2215.780</ele>
        <time>2022-01-30T10:26:30Z</time>
      </trkpt>
      <trkpt lat="42.83291399999997" lon="0.23575799999999955">
        <ele>2215.396</ele>
        <time>2022-01-30T10:26:34Z</time>
      </trkpt>
      <trkpt lat="42.832863999999965" lon="0.23575799999999955">
        <ele>2215.044</ele>
        <time>2022-01-30T10:26:39Z</time>
      </trkpt>
      <trkpt lat="42.832818999999965" lon="0.23577199999999954">
        <ele>2214.826</ele>
        <time>2022-01-30T10:26:43Z</time>
      </trkpt>
      <trkpt lat="42.832765999999964" lon="0.23575799999999955">
        <ele>2214.433</ele>
        <time>2022-01-30T10:26:47Z</time>
      </trkpt>
      <trkpt lat="42.83271899999996" lon="0.23576499999999956">
        <ele>2214.287</ele>
        <time>2022-01-30T10:26:51Z</time>
      </trkpt>
      <trkpt lat="42.832675999999964" lon="0.23578199999999955">
        <ele>2214.237</ele>
        <time>2022-01-30T10:26:56Z</time>
      </trkpt>
      <trkpt lat="42.83263399999996" lon="0.23580599999999954">
        <ele>2214.237</ele>
        <time>2022-01-30T10:27:00Z</time>
      </trkpt>
      <trkpt lat="42.832585999999964" lon="0.23580799999999955">
        <ele>2214.149</ele>
        <time>2022-01-30T10:27:04Z</time>
      </trkpt>
      <trkpt lat="42.832540999999964" lon="0.23581899999999956">
        <ele>2214.013</ele>
        <time>2022-01-30T10:27:07Z</time>
      </trkpt>
      <trkpt lat="42.83247999999996" lon="0.23580799999999955">
        <ele>2214.008</ele>
        <time>2022-01-30T10:27:11Z</time>
      </trkpt>
      <trkpt lat="42.832430999999964" lon="0.23579699999999953">
        <ele>2214.582</ele>
        <time>2022-01-30T10:27:14Z</time>
      </trkpt>
      <trkpt lat="42.83238699999996" lon="0.23576799999999953">
        <ele>2214.637</ele>
        <time>2022-01-30T10:27:18Z</time>
      </trkpt>
      <trkpt lat="42.83234799999996" lon="0.23571499999999954">
        <ele>2214.283</ele>
        <time>2022-01-30T10:27:23Z</time>
      </trkpt>
      <trkpt lat="42.83232099999996" lon="0.23564999999999953">
        <ele>2213.331</ele>
        <time>2022-01-30T10:27:27Z</time>
      </trkpt>
      <trkpt lat="42.83230099999996" lon="0.2355809999999995">
        <ele>2212.243</ele>
        <time>2022-01-30T10:27:32Z</time>
      </trkpt>
      <trkpt lat="42.832298999999956" lon="0.2355189999999995">
        <ele>2211.460</ele>
        <time>2022-01-30T10:27:45Z</time>
      </trkpt>
      <trkpt lat="42.832304999999955" lon="0.2354559999999995">
        <ele>2210.854</ele>
        <time>2022-01-30T10:27:52Z</time>
      </trkpt>
      <trkpt lat="42.832298999999956" lon="0.2353919999999995">
        <ele>2210.314</ele>
        <time>2022-01-30T10:27:57Z</time>
      </trkpt>
      <trkpt lat="42.83229199999996" lon="0.23532499999999948">
        <ele>2209.777</ele>
        <time>2022-01-30T10:28:02Z</time>
      </trkpt>
      <trkpt lat="42.83229599999996" lon="0.23525899999999947">
        <ele>2209.261</ele>
        <time>2022-01-30T10:28:06Z</time>
      </trkpt>
      <trkpt lat="42.83231999999996" lon="0.23520599999999947">
        <ele>2209.127</ele>
        <time>2022-01-30T10:28:10Z</time>
      </trkpt>
      <trkpt lat="42.83229399999996" lon="0.23514799999999947">
        <ele>2208.708</ele>
        <time>2022-01-30T10:28:24Z</time>
      </trkpt>
      <trkpt lat="42.83229999999996" lon="0.23506999999999947">
        <ele>2208.466</ele>
        <time>2022-01-30T10:28:28Z</time>
      </trkpt>
      <trkpt lat="42.832281999999964" lon="0.23500599999999947">
        <ele>2207.941</ele>
        <time>2022-01-30T10:28:31Z</time>
      </trkpt>
      <trkpt lat="42.83227399999996" lon="0.23493499999999948">
        <ele>2207.627</ele>
        <time>2022-01-30T10:28:34Z</time>
      </trkpt>
      <trkpt lat="42.83226399999996" lon="0.23486799999999947">
        <ele>2207.345</ele>
        <time>2022-01-30T10:28:38Z</time>
      </trkpt>
      <trkpt lat="42.83227699999996" lon="0.23480299999999946">
        <ele>2207.437</ele>
        <time>2022-01-30T10:28:46Z</time>
      </trkpt>
      <trkpt lat="42.83226399999996" lon="0.23473199999999947">
        <ele>2206.984</ele>
        <time>2022-01-30T10:28:52Z</time>
      </trkpt>
      <trkpt lat="42.83225999999996" lon="0.23466399999999946">
        <ele>2206.858</ele>
        <time>2022-01-30T10:28:57Z</time>
      </trkpt>
      <trkpt lat="42.832241999999965" lon="0.23460399999999945">
        <ele>2206.568</ele>
        <time>2022-01-30T10:29:03Z</time>
      </trkpt>
      <trkpt lat="42.83223999999996" lon="0.23454299999999945">
        <ele>2206.415</ele>
        <time>2022-01-30T10:29:08Z</time>
      </trkpt>
      <trkpt lat="42.832227999999965" lon="0.23448299999999944">
        <ele>2206.165</ele>
        <time>2022-01-30T10:29:12Z</time>
      </trkpt>
      <trkpt lat="42.83222099999997" lon="0.23441699999999943">
        <ele>2206.111</ele>
        <time>2022-01-30T10:29:18Z</time>
      </trkpt>
      <trkpt lat="42.83221799999997" lon="0.23434999999999942">
        <ele>2206.208</ele>
        <time>2022-01-30T10:29:24Z</time>
      </trkpt>
      <trkpt lat="42.83220099999997" lon="0.2342839999999994">
        <ele>2206.170</ele>
        <time>2022-01-30T10:29:30Z</time>
      </trkpt>
      <trkpt lat="42.83218699999997" lon="0.2342189999999994">
        <ele>2205.945</ele>
        <time>2022-01-30T10:29:35Z</time>
      </trkpt>
      <trkpt lat="42.83216799999997" lon="0.2341589999999994">
        <ele>2205.751</ele>
        <time>2022-01-30T10:29:40Z</time>
      </trkpt>
      <trkpt lat="42.832128999999966" lon="0.2341259999999994">
        <ele>2205.079</ele>
        <time>2022-01-30T10:29:55Z</time>
      </trkpt>
      <trkpt lat="42.832123999999965" lon="0.2340529999999994">
        <ele>2205.521</ele>
        <time>2022-01-30T10:30:01Z</time>
      </trkpt>
      <trkpt lat="42.832123999999965" lon="0.2339849999999994">
        <ele>2206.058</ele>
        <time>2022-01-30T10:30:07Z</time>
      </trkpt>
      <trkpt lat="42.832098999999964" lon="0.23392199999999938">
        <ele>2205.882</ele>
        <time>2022-01-30T10:30:13Z</time>
      </trkpt>
      <trkpt lat="42.83207499999996" lon="0.23386499999999938">
        <ele>2205.552</ele>
        <time>2022-01-30T10:30:18Z</time>
      </trkpt>
      <trkpt lat="42.83204999999996" lon="0.23380999999999938">
        <ele>2205.355</ele>
        <time>2022-01-30T10:30:22Z</time>
      </trkpt>
      <trkpt lat="42.83203699999996" lon="0.2337379999999994">
        <ele>2205.607</ele>
        <time>2022-01-30T10:30:27Z</time>
      </trkpt>
      <trkpt lat="42.832012999999954" lon="0.2336809999999994">
        <ele>2205.517</ele>
        <time>2022-01-30T10:30:32Z</time>
      </trkpt>
      <trkpt lat="42.83200499999995" lon="0.23361999999999938">
        <ele>2205.908</ele>
        <time>2022-01-30T10:30:37Z</time>
      </trkpt>
      <trkpt lat="42.831983999999956" lon="0.23356199999999938">
        <ele>2206.084</ele>
        <time>2022-01-30T10:30:43Z</time>
      </trkpt>
      <trkpt lat="42.83196099999996" lon="0.23349599999999937">
        <ele>2206.249</ele>
        <time>2022-01-30T10:30:49Z</time>
      </trkpt>
      <trkpt lat="42.831941999999955" lon="0.23343399999999936">
        <ele>2206.535</ele>
        <time>2022-01-30T10:30:55Z</time>
      </trkpt>
      <trkpt lat="42.83191899999996" lon="0.23337299999999936">
        <ele>2206.663</ele>
        <time>2022-01-30T10:31:00Z</time>
      </trkpt>
      <trkpt lat="42.83188999999996" lon="0.23332299999999936">
        <ele>2206.435</ele>
        <time>2022-01-30T10:31:05Z</time>
      </trkpt>
      <trkpt lat="42.831865999999955" lon="0.23326099999999936">
        <ele>2206.482</ele>
        <time>2022-01-30T10:31:09Z</time>
      </trkpt>
      <trkpt lat="42.83183299999995" lon="0.23320599999999936">
        <ele>2205.966</ele>
        <time>2022-01-30T10:31:13Z</time>
      </trkpt>
      <trkpt lat="42.83180599999995" lon="0.23313599999999937">
        <ele>2205.656</ele>
        <time>2022-01-30T10:31:17Z</time>
      </trkpt>
      <trkpt lat="42.831784999999954" lon="0.23307199999999936">
        <ele>2205.513</ele>
        <time>2022-01-30T10:31:21Z</time>
      </trkpt>
      <trkpt lat="42.831767999999954" lon="0.23300499999999935">
        <ele>2205.443</ele>
        <time>2022-01-30T10:31:25Z</time>
      </trkpt>
      <trkpt lat="42.831750999999954" lon="0.23294399999999935">
        <ele>2205.307</ele>
        <time>2022-01-30T10:31:29Z</time>
      </trkpt>
      <trkpt lat="42.83173799999995" lon="0.23287199999999936">
        <ele>2205.308</ele>
        <time>2022-01-30T10:31:33Z</time>
      </trkpt>
      <trkpt lat="42.831716999999955" lon="0.23279799999999937">
        <ele>2205.050</ele>
        <time>2022-01-30T10:31:37Z</time>
      </trkpt>
      <trkpt lat="42.831696999999956" lon="0.23272299999999937">
        <ele>2204.555</ele>
        <time>2022-01-30T10:31:41Z</time>
      </trkpt>
      <trkpt lat="42.83168799999996" lon="0.23265599999999936">
        <ele>2204.421</ele>
        <time>2022-01-30T10:31:45Z</time>
      </trkpt>
      <trkpt lat="42.83167899999996" lon="0.23259099999999935">
        <ele>2204.299</ele>
        <time>2022-01-30T10:31:52Z</time>
      </trkpt>
      <trkpt lat="42.83166799999996" lon="0.23251899999999937">
        <ele>2204.091</ele>
        <time>2022-01-30T10:31:58Z</time>
      </trkpt>
      <trkpt lat="42.83165999999996" lon="0.23245499999999936">
        <ele>2203.968</ele>
        <time>2022-01-30T10:32:02Z</time>
      </trkpt>
      <trkpt lat="42.831649999999954" lon="0.23238499999999937">
        <ele>2203.742</ele>
        <time>2022-01-30T10:32:06Z</time>
      </trkpt>
      <trkpt lat="42.831632999999954" lon="0.23232099999999936">
        <ele>2203.272</ele>
        <time>2022-01-30T10:32:10Z</time>
      </trkpt>
      <trkpt lat="42.831618999999954" lon="0.23224899999999937">
        <ele>2202.975</ele>
        <time>2022-01-30T10:32:14Z</time>
      </trkpt>
      <trkpt lat="42.831612999999955" lon="0.23216999999999938">
        <ele>2202.728</ele>
        <time>2022-01-30T10:32:18Z</time>
      </trkpt>
      <trkpt lat="42.83160599999996" lon="0.23210599999999937">
        <ele>2202.420</ele>
        <time>2022-01-30T10:32:21Z</time>
      </trkpt>
      <trkpt lat="42.831592999999955" lon="0.23204599999999936">
        <ele>2201.808</ele>
        <time>2022-01-30T10:32:24Z</time>
      </trkpt>
      <trkpt lat="42.83158399999996" lon="0.23197399999999938">
        <ele>2201.416</ele>
        <time>2022-01-30T10:32:28Z</time>
      </trkpt>
      <trkpt lat="42.83156299999996" lon="0.23190599999999936">
        <ele>2200.581</ele>
        <time>2022-01-30T10:32:32Z</time>
      </trkpt>
      <trkpt lat="42.83156099999996" lon="0.23183999999999935">
        <ele>2200.467</ele>
        <time>2022-01-30T10:32:37Z</time>
      </trkpt>
      <trkpt lat="42.83155199999996" lon="0.23177099999999934">
        <ele>2200.095</ele>
        <time>2022-01-30T10:32:43Z</time>
      </trkpt>
      <trkpt lat="42.831558999999956" lon="0.23169999999999935">
        <ele>2200.387</ele>
        <time>2022-01-30T10:32:48Z</time>
      </trkpt>
      <trkpt lat="42.831567999999955" lon="0.23163599999999934">
        <ele>2200.784</ele>
        <time>2022-01-30T10:32:52Z</time>
      </trkpt>
      <trkpt lat="42.831575999999956" lon="0.23155699999999935">
        <ele>2201.028</ele>
        <time>2022-01-30T10:32:57Z</time>
      </trkpt>
      <trkpt lat="42.83157699999995" lon="0.23148699999999936">
        <ele>2200.988</ele>
        <time>2022-01-30T10:33:01Z</time>
      </trkpt>
      <trkpt lat="42.83157699999995" lon="0.23141699999999937">
        <ele>2200.858</ele>
        <time>2022-01-30T10:33:05Z</time>
      </trkpt>
      <trkpt lat="42.831592999999955" lon="0.23134899999999936">
        <ele>2201.452</ele>
        <time>2022-01-30T10:33:10Z</time>
      </trkpt>
      <trkpt lat="42.831603999999956" lon="0.23128499999999935">
        <ele>2201.717</ele>
        <time>2022-01-30T10:33:15Z</time>
      </trkpt>
      <trkpt lat="42.83160499999995" lon="0.23121999999999934">
        <ele>2201.508</ele>
        <time>2022-01-30T10:33:20Z</time>
      </trkpt>
      <trkpt lat="42.831612999999955" lon="0.23114499999999935">
        <ele>2201.624</ele>
        <time>2022-01-30T10:33:25Z</time>
      </trkpt>
      <trkpt lat="42.831615999999954" lon="0.23107999999999934">
        <ele>2201.679</ele>
        <time>2022-01-30T10:33:29Z</time>
      </trkpt>
      <trkpt lat="42.831623999999955" lon="0.23101699999999933">
        <ele>2202.055</ele>
        <time>2022-01-30T10:33:33Z</time>
      </trkpt>
      <trkpt lat="42.831626999999955" lon="0.23094799999999932">
        <ele>2202.173</ele>
        <time>2022-01-30T10:33:39Z</time>
      </trkpt>
      <trkpt lat="42.831618999999954" lon="0.2308789999999993">
        <ele>2201.685</ele>
        <time>2022-01-30T10:33:45Z</time>
      </trkpt>
      <trkpt lat="42.83161999999995" lon="0.2308159999999993">
        <ele>2201.692</ele>
        <time>2022-01-30T10:33:50Z</time>
      </trkpt>
      <trkpt lat="42.83162099999995" lon="0.23074699999999929">
        <ele>2201.476</ele>
        <time>2022-01-30T10:33:54Z</time>
      </trkpt>
      <trkpt lat="42.83161299999995" lon="0.2305919999999993">
        <ele>2200.456</ele>
        <time>2022-01-30T10:33:58Z</time>
      </trkpt>
      <trkpt lat="42.831602999999944" lon="0.2305149999999993">
        <ele>2199.777</ele>
        <time>2022-01-30T10:34:09Z</time>
      </trkpt>
      <trkpt lat="42.831596999999945" lon="0.2304519999999993">
        <ele>2199.361</ele>
        <time>2022-01-30T10:34:11Z</time>
      </trkpt>
      <trkpt lat="42.83160999999995" lon="0.2303929999999993">
        <ele>2199.827</ele>
        <time>2022-01-30T10:34:13Z</time>
      </trkpt>
      <trkpt lat="42.831641999999945" lon="0.2303369999999993">
        <ele>2201.108</ele>
        <time>2022-01-30T10:34:18Z</time>
      </trkpt>
      <trkpt lat="42.83167399999994" lon="0.2302829999999993">
        <ele>2202.296</ele>
        <time>2022-01-30T10:34:22Z</time>
      </trkpt>
      <trkpt lat="42.831700999999946" lon="0.2302219999999993">
        <ele>2201.511</ele>
        <time>2022-01-30T10:34:27Z</time>
      </trkpt>
      <trkpt lat="42.831745999999946" lon="0.23018299999999928">
        <ele>2201.657</ele>
        <time>2022-01-30T10:34:32Z</time>
      </trkpt>
      <trkpt lat="42.831782999999945" lon="0.23014699999999927">
        <ele>2201.545</ele>
        <time>2022-01-30T10:34:36Z</time>
      </trkpt>
      <trkpt lat="42.83182599999994" lon="0.23011899999999927">
        <ele>2201.787</ele>
        <time>2022-01-30T10:34:40Z</time>
      </trkpt>
      <trkpt lat="42.831872999999945" lon="0.23011799999999927">
        <ele>2202.634</ele>
        <time>2022-01-30T10:34:45Z</time>
      </trkpt>
      <trkpt lat="42.831920999999944" lon="0.23010199999999928">
        <ele>2203.178</ele>
        <time>2022-01-30T10:34:49Z</time>
      </trkpt>
      <trkpt lat="42.83197499999994" lon="0.23007699999999928">
        <ele>2203.248</ele>
        <time>2022-01-30T10:34:53Z</time>
      </trkpt>
      <trkpt lat="42.832021999999945" lon="0.23006499999999927">
        <ele>2203.386</ele>
        <time>2022-01-30T10:34:58Z</time>
      </trkpt>
      <trkpt lat="42.83207199999995" lon="0.23005499999999926">
        <ele>2203.460</ele>
        <time>2022-01-30T10:35:03Z</time>
      </trkpt>
      <trkpt lat="42.83212199999995" lon="0.23004299999999925">
        <ele>2203.526</ele>
        <time>2022-01-30T10:35:07Z</time>
      </trkpt>
      <trkpt lat="42.83216699999995" lon="0.23003699999999924">
        <ele>2203.608</ele>
        <time>2022-01-30T10:35:11Z</time>
      </trkpt>
      <trkpt lat="42.83221099999995" lon="0.23001099999999924">
        <ele>2203.247</ele>
        <time>2022-01-30T10:35:44Z</time>
      </trkpt>
      <trkpt lat="42.83225799999995" lon="0.22999999999999923">
        <ele>2203.082</ele>
        <time>2022-01-30T10:35:52Z</time>
      </trkpt>
      <trkpt lat="42.83230399999995" lon="0.23000299999999924">
        <ele>2203.158</ele>
        <time>2022-01-30T10:35:57Z</time>
      </trkpt>
      <trkpt lat="42.83235799999995" lon="0.22999899999999923">
        <ele>2203.046</ele>
        <time>2022-01-30T10:36:02Z</time>
      </trkpt>
      <trkpt lat="42.83240799999995" lon="0.22999699999999923">
        <ele>2202.958</ele>
        <time>2022-01-30T10:36:06Z</time>
      </trkpt>
      <trkpt lat="42.83245299999995" lon="0.22999099999999922">
        <ele>2202.725</ele>
        <time>2022-01-30T10:36:09Z</time>
      </trkpt>
      <trkpt lat="42.83250999999995" lon="0.22998799999999922">
        <ele>2202.649</ele>
        <time>2022-01-30T10:36:13Z</time>
      </trkpt>
      <trkpt lat="42.83255799999995" lon="0.2299769999999992">
        <ele>2202.359</ele>
        <time>2022-01-30T10:36:16Z</time>
      </trkpt>
      <trkpt lat="42.83260499999995" lon="0.2299729999999992">
        <ele>2202.342</ele>
        <time>2022-01-30T10:36:19Z</time>
      </trkpt>
      <trkpt lat="42.83265899999995" lon="0.2299609999999992">
        <ele>2202.022</ele>
        <time>2022-01-30T10:36:23Z</time>
      </trkpt>
      <trkpt lat="42.83270499999995" lon="0.2299549999999992">
        <ele>2201.914</ele>
        <time>2022-01-30T10:36:26Z</time>
      </trkpt>
      <trkpt lat="42.832756999999944" lon="0.2299579999999992">
        <ele>2202.108</ele>
        <time>2022-01-30T10:36:29Z</time>
      </trkpt>
      <trkpt lat="42.832803999999946" lon="0.2299599999999992">
        <ele>2202.433</ele>
        <time>2022-01-30T10:36:32Z</time>
      </trkpt>
      <trkpt lat="42.832849999999944" lon="0.2299619999999992">
        <ele>2202.898</ele>
        <time>2022-01-30T10:36:35Z</time>
      </trkpt>
      <trkpt lat="42.83289799999994" lon="0.2299679999999992">
        <ele>2203.374</ele>
        <time>2022-01-30T10:36:38Z</time>
      </trkpt>
      <trkpt lat="42.83294899999994" lon="0.2299639999999992">
        <ele>2203.432</ele>
        <time>2022-01-30T10:36:42Z</time>
      </trkpt>
      <trkpt lat="42.833003999999946" lon="0.2299709999999992">
        <ele>2204.174</ele>
        <time>2022-01-30T10:36:46Z</time>
      </trkpt>
      <trkpt lat="42.833054999999945" lon="0.2299739999999992">
        <ele>2204.621</ele>
        <time>2022-01-30T10:36:50Z</time>
      </trkpt>
      <trkpt lat="42.833113999999945" lon="0.2299729999999992">
        <ele>2204.445</ele>
        <time>2022-01-30T10:36:54Z</time>
      </trkpt>
      <trkpt lat="42.833169999999946" lon="0.22998299999999922">
        <ele>2204.755</ele>
        <time>2022-01-30T10:36:58Z</time>
      </trkpt>
      <trkpt lat="42.83321999999995" lon="0.2299769999999992">
        <ele>2204.289</ele>
        <time>2022-01-30T10:37:02Z</time>
      </trkpt>
      <trkpt lat="42.83326799999995" lon="0.22998199999999921">
        <ele>2204.306</ele>
        <time>2022-01-30T10:37:06Z</time>
      </trkpt>
      <trkpt lat="42.83332299999995" lon="0.2299959999999992">
        <ele>2204.826</ele>
        <time>2022-01-30T10:37:10Z</time>
      </trkpt>
      <trkpt lat="42.83337699999995" lon="0.2299809999999992">
        <ele>2203.808</ele>
        <time>2022-01-30T10:37:13Z</time>
      </trkpt>
      <trkpt lat="42.83342199999995" lon="0.2299719999999992">
        <ele>2203.067</ele>
        <time>2022-01-30T10:37:16Z</time>
      </trkpt>
      <trkpt lat="42.83346799999995" lon="0.2299749999999992">
        <ele>2202.972</ele>
        <time>2022-01-30T10:37:20Z</time>
      </trkpt>
      <trkpt lat="42.83351299999995" lon="0.2300029999999992">
        <ele>2203.848</ele>
        <time>2022-01-30T10:37:25Z</time>
      </trkpt>
      <trkpt lat="42.83356899999995" lon="0.2299929999999992">
        <ele>2203.026</ele>
        <time>2022-01-30T10:37:29Z</time>
      </trkpt>
      <trkpt lat="42.833622999999946" lon="0.23000699999999918">
        <ele>2203.188</ele>
        <time>2022-01-30T10:37:33Z</time>
      </trkpt>
      <trkpt lat="42.833670999999946" lon="0.2300169999999992">
        <ele>2202.765</ele>
        <time>2022-01-30T10:37:37Z</time>
      </trkpt>
      <trkpt lat="42.833718999999945" lon="0.2300209999999992">
        <ele>2202.189</ele>
        <time>2022-01-30T10:37:41Z</time>
      </trkpt>
      <trkpt lat="42.83377599999994" lon="0.2300309999999992">
        <ele>2201.669</ele>
        <time>2022-01-30T10:37:46Z</time>
      </trkpt>
      <trkpt lat="42.83382699999994" lon="0.2300519999999992">
        <ele>2201.671</ele>
        <time>2022-01-30T10:37:50Z</time>
      </trkpt>
      <trkpt lat="42.83387799999994" lon="0.2300659999999992">
        <ele>2201.341</ele>
        <time>2022-01-30T10:37:54Z</time>
      </trkpt>
      <trkpt lat="42.83393199999994" lon="0.2300729999999992">
        <ele>2200.515</ele>
        <time>2022-01-30T10:37:58Z</time>
      </trkpt>
      <trkpt lat="42.83398499999994" lon="0.2300999999999992">
        <ele>2200.308</ele>
        <time>2022-01-30T10:38:02Z</time>
      </trkpt>
      <trkpt lat="42.83404099999994" lon="0.2301129999999992">
        <ele>2199.666</ele>
        <time>2022-01-30T10:38:06Z</time>
      </trkpt>
      <trkpt lat="42.83408599999994" lon="0.2301389999999992">
        <ele>2199.671</ele>
        <time>2022-01-30T10:38:10Z</time>
      </trkpt>
      <trkpt lat="42.834140999999946" lon="0.2301589999999992">
        <ele>2199.257</ele>
        <time>2022-01-30T10:38:14Z</time>
      </trkpt>
      <trkpt lat="42.83419399999995" lon="0.2301789999999992">
        <ele>2198.865</ele>
        <time>2022-01-30T10:38:18Z</time>
      </trkpt>
      <trkpt lat="42.83424399999995" lon="0.2302059999999992">
        <ele>2198.567</ele>
        <time>2022-01-30T10:38:22Z</time>
      </trkpt>
      <trkpt lat="42.83428599999995" lon="0.2302329999999992">
        <ele>2198.494</ele>
        <time>2022-01-30T10:38:26Z</time>
      </trkpt>
      <trkpt lat="42.83433299999995" lon="0.2302629999999992">
        <ele>2198.388</ele>
        <time>2022-01-30T10:38:30Z</time>
      </trkpt>
      <trkpt lat="42.834376999999954" lon="0.2302899999999992">
        <ele>2198.148</ele>
        <time>2022-01-30T10:38:34Z</time>
      </trkpt>
      <trkpt lat="42.834429999999955" lon="0.23031399999999919">
        <ele>2197.438</ele>
        <time>2022-01-30T10:38:38Z</time>
      </trkpt>
      <trkpt lat="42.83447599999995" lon="0.23032999999999917">
        <ele>2196.870</ele>
        <time>2022-01-30T10:38:42Z</time>
      </trkpt>
      <trkpt lat="42.834528999999954" lon="0.23035399999999917">
        <ele>2196.417</ele>
        <time>2022-01-30T10:38:46Z</time>
      </trkpt>
      <trkpt lat="42.83457499999995" lon="0.23037299999999916">
        <ele>2195.908</ele>
        <time>2022-01-30T10:38:50Z</time>
      </trkpt>
      <trkpt lat="42.83462699999995" lon="0.23038499999999917">
        <ele>2195.152</ele>
        <time>2022-01-30T10:38:54Z</time>
      </trkpt>
      <trkpt lat="42.834672999999945" lon="0.23041999999999918">
        <ele>2195.227</ele>
        <time>2022-01-30T10:38:59Z</time>
      </trkpt>
      <trkpt lat="42.834720999999945" lon="0.23044199999999918">
        <ele>2194.853</ele>
        <time>2022-01-30T10:39:04Z</time>
      </trkpt>
      <trkpt lat="42.83476999999994" lon="0.23045999999999917">
        <ele>2194.851</ele>
        <time>2022-01-30T10:39:10Z</time>
      </trkpt>
      <trkpt lat="42.83482199999994" lon="0.23047699999999915">
        <ele>2194.923</ele>
        <time>2022-01-30T10:39:15Z</time>
      </trkpt>
      <trkpt lat="42.834870999999936" lon="0.23047599999999915">
        <ele>2194.420</ele>
        <time>2022-01-30T10:39:19Z</time>
      </trkpt>
      <trkpt lat="42.834918999999935" lon="0.23045299999999916">
        <ele>2193.494</ele>
        <time>2022-01-30T10:39:24Z</time>
      </trkpt>
      <trkpt lat="42.83497099999993" lon="0.23042599999999916">
        <ele>2192.464</ele>
        <time>2022-01-30T10:39:29Z</time>
      </trkpt>
      <trkpt lat="42.83501699999993" lon="0.23040799999999917">
        <ele>2191.884</ele>
        <time>2022-01-30T10:39:34Z</time>
      </trkpt>
      <trkpt lat="42.835068999999926" lon="0.23039499999999916">
        <ele>2191.507</ele>
        <time>2022-01-30T10:39:40Z</time>
      </trkpt>
      <trkpt lat="42.83511799999992" lon="0.23037999999999917">
        <ele>2191.217</ele>
        <time>2022-01-30T10:39:46Z</time>
      </trkpt>
      <trkpt lat="42.83516699999992" lon="0.23037299999999916">
        <ele>2191.108</ele>
        <time>2022-01-30T10:39:50Z</time>
      </trkpt>
      <trkpt lat="42.83522099999992" lon="0.23036099999999915">
        <ele>2190.877</ele>
        <time>2022-01-30T10:39:54Z</time>
      </trkpt>
      <trkpt lat="42.83527199999992" lon="0.23036599999999915">
        <ele>2190.962</ele>
        <time>2022-01-30T10:39:58Z</time>
      </trkpt>
      <trkpt lat="42.83532499999992" lon="0.23034899999999917">
        <ele>2190.848</ele>
        <time>2022-01-30T10:40:02Z</time>
      </trkpt>
      <trkpt lat="42.83537599999992" lon="0.23034099999999916">
        <ele>2190.896</ele>
        <time>2022-01-30T10:40:06Z</time>
      </trkpt>
      <trkpt lat="42.83542999999992" lon="0.23031999999999916">
        <ele>2190.528</ele>
        <time>2022-01-30T10:40:10Z</time>
      </trkpt>
      <trkpt lat="42.83548599999992" lon="0.23029699999999917">
        <ele>2190.295</ele>
        <time>2022-01-30T10:40:14Z</time>
      </trkpt>
      <trkpt lat="42.83553599999992" lon="0.23029399999999917">
        <ele>2190.389</ele>
        <time>2022-01-30T10:40:17Z</time>
      </trkpt>
      <trkpt lat="42.83558999999992" lon="0.23028699999999916">
        <ele>2190.249</ele>
        <time>2022-01-30T10:40:20Z</time>
      </trkpt>
      <trkpt lat="42.83564099999992" lon="0.23029099999999916">
        <ele>2190.395</ele>
        <time>2022-01-30T10:40:23Z</time>
      </trkpt>
      <trkpt lat="42.83569599999992" lon="0.23028599999999916">
        <ele>2190.249</ele>
        <time>2022-01-30T10:40:27Z</time>
      </trkpt>
      <trkpt lat="42.83574199999992" lon="0.23027099999999917">
        <ele>2189.923</ele>
        <time>2022-01-30T10:40:33Z</time>
      </trkpt>
      <trkpt lat="42.83579499999992" lon="0.23027399999999917">
        <ele>2189.908</ele>
        <time>2022-01-30T10:40:40Z</time>
      </trkpt>
      <trkpt lat="42.83584999999992" lon="0.23025799999999919">
        <ele>2189.788</ele>
        <time>2022-01-30T10:40:45Z</time>
      </trkpt>
      <trkpt lat="42.83590099999992" lon="0.2302369999999992">
        <ele>2189.413</ele>
        <time>2022-01-30T10:40:49Z</time>
      </trkpt>
      <trkpt lat="42.83595499999992" lon="0.2302409999999992">
        <ele>2189.329</ele>
        <time>2022-01-30T10:40:54Z</time>
      </trkpt>
      <trkpt lat="42.83600499999992" lon="0.2302339999999992">
        <ele>2189.257</ele>
        <time>2022-01-30T10:40:59Z</time>
      </trkpt>
      <trkpt lat="42.83605699999992" lon="0.2302389999999992">
        <ele>2189.189</ele>
        <time>2022-01-30T10:41:04Z</time>
      </trkpt>
      <trkpt lat="42.83610799999992" lon="0.2302339999999992">
        <ele>2189.046</ele>
        <time>2022-01-30T10:41:09Z</time>
      </trkpt>
      <trkpt lat="42.836153999999915" lon="0.2302339999999992">
        <ele>2189.020</ele>
        <time>2022-01-30T10:41:14Z</time>
      </trkpt>
      <trkpt lat="42.83620099999992" lon="0.23022999999999919">
        <ele>2189.030</ele>
        <time>2022-01-30T10:41:47Z</time>
      </trkpt>
      <trkpt lat="42.83624899999992" lon="0.23022799999999918">
        <ele>2189.034</ele>
        <time>2022-01-30T10:41:52Z</time>
      </trkpt>
      <trkpt lat="42.83629699999992" lon="0.2302329999999992">
        <ele>2189.055</ele>
        <time>2022-01-30T10:41:59Z</time>
      </trkpt>
      <trkpt lat="42.836347999999916" lon="0.23022699999999918">
        <ele>2189.010</ele>
        <time>2022-01-30T10:42:06Z</time>
      </trkpt>
      <trkpt lat="42.83640099999992" lon="0.2302329999999992">
        <ele>2189.008</ele>
        <time>2022-01-30T10:42:18Z</time>
      </trkpt>
      <trkpt lat="42.83644599999992" lon="0.23022799999999918">
        <ele>2189.032</ele>
        <time>2022-01-30T10:42:24Z</time>
      </trkpt>
      <trkpt lat="42.83649599999992" lon="0.23022399999999918">
        <ele>2189.087</ele>
        <time>2022-01-30T10:42:30Z</time>
      </trkpt>
      <trkpt lat="42.83654599999992" lon="0.23021399999999917">
        <ele>2189.053</ele>
        <time>2022-01-30T10:42:36Z</time>
      </trkpt>
      <trkpt lat="42.83659599999992" lon="0.23021799999999917">
        <ele>2189.051</ele>
        <time>2022-01-30T10:42:43Z</time>
      </trkpt>
      <trkpt lat="42.83664499999992" lon="0.23021999999999918">
        <ele>2189.043</ele>
        <time>2022-01-30T10:42:50Z</time>
      </trkpt>
      <trkpt lat="42.836693999999916" lon="0.23022599999999918">
        <ele>2189.020</ele>
        <time>2022-01-30T10:42:56Z</time>
      </trkpt>
      <trkpt lat="42.836739999999914" lon="0.23024199999999917">
        <ele>2189.084</ele>
        <time>2022-01-30T10:43:01Z</time>
      </trkpt>
      <trkpt lat="42.83678899999991" lon="0.23025999999999916">
        <ele>2189.084</ele>
        <time>2022-01-30T10:43:07Z</time>
      </trkpt>
      <trkpt lat="42.83683899999991" lon="0.23026699999999917">
        <ele>2189.087</ele>
        <time>2022-01-30T10:43:13Z</time>
      </trkpt>
      <trkpt lat="42.836891999999914" lon="0.23027699999999918">
        <ele>2189.042</ele>
        <time>2022-01-30T10:43:18Z</time>
      </trkpt>
      <trkpt lat="42.836941999999915" lon="0.23029499999999917">
        <ele>2189.026</ele>
        <time>2022-01-30T10:43:23Z</time>
      </trkpt>
      <trkpt lat="42.83699199999992" lon="0.23027299999999917">
        <ele>2189.208</ele>
        <time>2022-01-30T10:43:28Z</time>
      </trkpt>
      <trkpt lat="42.837037999999914" lon="0.23028399999999918">
        <ele>2189.337</ele>
        <time>2022-01-30T10:43:33Z</time>
      </trkpt>
      <trkpt lat="42.83708499999992" lon="0.2302879999999992">
        <ele>2189.542</ele>
        <time>2022-01-30T10:43:38Z</time>
      </trkpt>
      <trkpt lat="42.83713799999992" lon="0.2302929999999992">
        <ele>2189.748</ele>
        <time>2022-01-30T10:43:54Z</time>
      </trkpt>
      <trkpt lat="42.83718299999992" lon="0.2302869999999992">
        <ele>2189.936</ele>
        <time>2022-01-30T10:44:01Z</time>
      </trkpt>
      <trkpt lat="42.83722799999992" lon="0.23027499999999917">
        <ele>2190.098</ele>
        <time>2022-01-30T10:44:06Z</time>
      </trkpt>
      <trkpt lat="42.83727499999992" lon="0.23027399999999917">
        <ele>2190.075</ele>
        <time>2022-01-30T10:44:11Z</time>
      </trkpt>
      <trkpt lat="42.83733199999992" lon="0.23027799999999918">
        <ele>2190.019</ele>
        <time>2022-01-30T10:44:16Z</time>
      </trkpt>
      <trkpt lat="42.837380999999915" lon="0.23026599999999917">
        <ele>2190.069</ele>
        <time>2022-01-30T10:44:20Z</time>
      </trkpt>
      <trkpt lat="42.83742799999992" lon="0.23025399999999915">
        <ele>2190.037</ele>
        <time>2022-01-30T10:44:24Z</time>
      </trkpt>
      <trkpt lat="42.83747199999992" lon="0.23023399999999916">
        <ele>2190.049</ele>
        <time>2022-01-30T10:44:28Z</time>
      </trkpt>
      <trkpt lat="42.83751799999992" lon="0.23019999999999916">
        <ele>2190.013</ele>
        <time>2022-01-30T10:44:32Z</time>
      </trkpt>
      <trkpt lat="42.83756299999992" lon="0.23016199999999915">
        <ele>2190.008</ele>
        <time>2022-01-30T10:44:36Z</time>
      </trkpt>
      <trkpt lat="42.83760999999992" lon="0.23014299999999915">
        <ele>2190.032</ele>
        <time>2022-01-30T10:44:40Z</time>
      </trkpt>
      <trkpt lat="42.83765299999992" lon="0.23011899999999916">
        <ele>2190.017</ele>
        <time>2022-01-30T10:48:51Z</time>
      </trkpt>
      <trkpt lat="42.837692999999916" lon="0.23008499999999915">
        <ele>2190.033</ele>
        <time>2022-01-30T10:48:55Z</time>
      </trkpt>
      <trkpt lat="42.837735999999914" lon="0.23003499999999916">
        <ele>2190.081</ele>
        <time>2022-01-30T10:48:59Z</time>
      </trkpt>
      <trkpt lat="42.83776799999991" lon="0.22998999999999917">
        <ele>2190.073</ele>
        <time>2022-01-30T10:49:03Z</time>
      </trkpt>
      <trkpt lat="42.83781899999991" lon="0.22995899999999916">
        <ele>2190.040</ele>
        <time>2022-01-30T10:49:08Z</time>
      </trkpt>
      <trkpt lat="42.83786599999991" lon="0.22992299999999916">
        <ele>2190.044</ele>
        <time>2022-01-30T10:49:12Z</time>
      </trkpt>
      <trkpt lat="42.837909999999916" lon="0.22989299999999915">
        <ele>2190.084</ele>
        <time>2022-01-30T10:49:16Z</time>
      </trkpt>
      <trkpt lat="42.837951999999916" lon="0.22986399999999915">
        <ele>2190.045</ele>
        <time>2022-01-30T10:49:20Z</time>
      </trkpt>
      <trkpt lat="42.83798999999992" lon="0.22982899999999915">
        <ele>2190.047</ele>
        <time>2022-01-30T10:49:24Z</time>
      </trkpt>
      <trkpt lat="42.83803299999992" lon="0.22979799999999914">
        <ele>2190.011</ele>
        <time>2022-01-30T10:49:28Z</time>
      </trkpt>
      <trkpt lat="42.83808099999992" lon="0.22977099999999914">
        <ele>2190.008</ele>
        <time>2022-01-30T10:49:32Z</time>
      </trkpt>
      <trkpt lat="42.83813099999992" lon="0.22973999999999914">
        <ele>2190.073</ele>
        <time>2022-01-30T10:49:36Z</time>
      </trkpt>
      <trkpt lat="42.83817899999992" lon="0.22971999999999915">
        <ele>2190.078</ele>
        <time>2022-01-30T10:49:40Z</time>
      </trkpt>
      <trkpt lat="42.83822399999992" lon="0.22969999999999915">
        <ele>2190.084</ele>
        <time>2022-01-30T10:49:44Z</time>
      </trkpt>
      <trkpt lat="42.83827099999992" lon="0.22968699999999914">
        <ele>2190.112</ele>
        <time>2022-01-30T10:49:48Z</time>
      </trkpt>
      <trkpt lat="42.83832399999992" lon="0.22967299999999916">
        <ele>2190.254</ele>
        <time>2022-01-30T10:49:53Z</time>
      </trkpt>
      <trkpt lat="42.838373999999924" lon="0.22966299999999915">
        <ele>2190.461</ele>
        <time>2022-01-30T10:49:57Z</time>
      </trkpt>
      <trkpt lat="42.83842599999992" lon="0.22965199999999913">
        <ele>2190.725</ele>
        <time>2022-01-30T10:50:01Z</time>
      </trkpt>
      <trkpt lat="42.83848399999992" lon="0.22968599999999914">
        <ele>2190.735</ele>
        <time>2022-01-30T10:50:07Z</time>
      </trkpt>
      <trkpt lat="42.838533999999925" lon="0.22971199999999914">
        <ele>2190.854</ele>
        <time>2022-01-30T10:50:35Z</time>
      </trkpt>
      <trkpt lat="42.83858299999992" lon="0.22971599999999914">
        <ele>2190.956</ele>
        <time>2022-01-30T10:50:40Z</time>
      </trkpt>
      <trkpt lat="42.83862499999992" lon="0.22966499999999915">
        <ele>2191.511</ele>
        <time>2022-01-30T10:50:44Z</time>
      </trkpt>
      <trkpt lat="42.83867399999992" lon="0.22965699999999914">
        <ele>2192.008</ele>
        <time>2022-01-30T10:50:49Z</time>
      </trkpt>
      <trkpt lat="42.83871799999992" lon="0.22966999999999915">
        <ele>2192.224</ele>
        <time>2022-01-30T10:51:36Z</time>
      </trkpt>
      <trkpt lat="42.83876699999992" lon="0.22966199999999914">
        <ele>2192.739</ele>
        <time>2022-01-30T10:51:42Z</time>
      </trkpt>
      <trkpt lat="42.83881299999992" lon="0.22966299999999915">
        <ele>2193.085</ele>
        <time>2022-01-30T10:51:48Z</time>
      </trkpt>
      <trkpt lat="42.83886499999991" lon="0.22967599999999916">
        <ele>2193.373</ele>
        <time>2022-01-30T10:51:54Z</time>
      </trkpt>
      <trkpt lat="42.83891599999991" lon="0.22967399999999916">
        <ele>2194.075</ele>
        <time>2022-01-30T10:52:00Z</time>
      </trkpt>
      <trkpt lat="42.838965999999914" lon="0.22968799999999914">
        <ele>2194.732</ele>
        <time>2022-01-30T10:52:06Z</time>
      </trkpt>
      <trkpt lat="42.83901199999991" lon="0.22967899999999913">
        <ele>2195.626</ele>
        <time>2022-01-30T10:52:10Z</time>
      </trkpt>
      <trkpt lat="42.83906399999991" lon="0.22967099999999913">
        <ele>2196.626</ele>
        <time>2022-01-30T10:52:16Z</time>
      </trkpt>
      <trkpt lat="42.839112999999905" lon="0.22968399999999914">
        <ele>2197.332</ele>
        <time>2022-01-30T10:52:21Z</time>
      </trkpt>
      <trkpt lat="42.83916299999991" lon="0.22969799999999913">
        <ele>2198.192</ele>
        <time>2022-01-30T10:52:26Z</time>
      </trkpt>
      <trkpt lat="42.83920999999991" lon="0.22971499999999911">
        <ele>2198.511</ele>
        <time>2022-01-30T10:52:32Z</time>
      </trkpt>
      <trkpt lat="42.83925999999991" lon="0.2297119999999991">
        <ele>2199.108</ele>
        <time>2022-01-30T10:52:38Z</time>
      </trkpt>
      <trkpt lat="42.83930699999991" lon="0.22972399999999912">
        <ele>2199.562</ele>
        <time>2022-01-30T10:52:44Z</time>
      </trkpt>
      <trkpt lat="42.83936399999991" lon="0.22972699999999913">
        <ele>2200.127</ele>
        <time>2022-01-30T10:52:48Z</time>
      </trkpt>
      <trkpt lat="42.83941199999991" lon="0.22972399999999912">
        <ele>2200.633</ele>
        <time>2022-01-30T10:52:51Z</time>
      </trkpt>
      <trkpt lat="42.83946099999991" lon="0.2297129999999991">
        <ele>2201.271</ele>
        <time>2022-01-30T10:52:56Z</time>
      </trkpt>
      <trkpt lat="42.83951399999991" lon="0.2297089999999991">
        <ele>2201.663</ele>
        <time>2022-01-30T10:53:02Z</time>
      </trkpt>
      <trkpt lat="42.839559999999906" lon="0.22969199999999912">
        <ele>2202.010</ele>
        <time>2022-01-30T10:53:07Z</time>
      </trkpt>
      <trkpt lat="42.83960999999991" lon="0.22970099999999913">
        <ele>2202.344</ele>
        <time>2022-01-30T10:53:14Z</time>
      </trkpt>
      <trkpt lat="42.83965799999991" lon="0.22970399999999913">
        <ele>2202.754</ele>
        <time>2022-01-30T10:53:20Z</time>
      </trkpt>
      <trkpt lat="42.83970799999991" lon="0.22970699999999913">
        <ele>2203.015</ele>
        <time>2022-01-30T10:53:29Z</time>
      </trkpt>
      <trkpt lat="42.83975499999991" lon="0.22972099999999912">
        <ele>2203.465</ele>
        <time>2022-01-30T10:53:36Z</time>
      </trkpt>
      <trkpt lat="42.83980899999991" lon="0.22972899999999913">
        <ele>2203.911</ele>
        <time>2022-01-30T10:53:42Z</time>
      </trkpt>
      <trkpt lat="42.83985899999991" lon="0.22974599999999912">
        <ele>2204.208</ele>
        <time>2022-01-30T10:53:49Z</time>
      </trkpt>
      <trkpt lat="42.83991099999991" lon="0.22975299999999912">
        <ele>2204.620</ele>
        <time>2022-01-30T10:53:56Z</time>
      </trkpt>
      <trkpt lat="42.83996099999991" lon="0.22976499999999914">
        <ele>2205.025</ele>
        <time>2022-01-30T10:54:01Z</time>
      </trkpt>
      <trkpt lat="42.84001199999991" lon="0.22978299999999913">
        <ele>2205.331</ele>
        <time>2022-01-30T10:54:06Z</time>
      </trkpt>
      <trkpt lat="42.84006799999991" lon="0.22979099999999913">
        <ele>2206.069</ele>
        <time>2022-01-30T10:54:11Z</time>
      </trkpt>
      <trkpt lat="42.84011999999991" lon="0.22979499999999914">
        <ele>2206.831</ele>
        <time>2022-01-30T10:54:16Z</time>
      </trkpt>
      <trkpt lat="42.840168999999904" lon="0.22980199999999915">
        <ele>2207.528</ele>
        <time>2022-01-30T10:54:20Z</time>
      </trkpt>
      <trkpt lat="42.8402169999999" lon="0.22982199999999914">
        <ele>2208.032</ele>
        <time>2022-01-30T10:54:24Z</time>
      </trkpt>
      <trkpt lat="42.8402629999999" lon="0.22982899999999915">
        <ele>2208.622</ele>
        <time>2022-01-30T10:54:29Z</time>
      </trkpt>
      <trkpt lat="42.8403079999999" lon="0.22985099999999914">
        <ele>2208.995</ele>
        <time>2022-01-30T10:54:34Z</time>
      </trkpt>
      <trkpt lat="42.8403559999999" lon="0.22986599999999913">
        <ele>2209.249</ele>
        <time>2022-01-30T10:54:38Z</time>
      </trkpt>
      <trkpt lat="42.8404059999999" lon="0.22989299999999913">
        <ele>2209.523</ele>
        <time>2022-01-30T10:54:42Z</time>
      </trkpt>
      <trkpt lat="42.840455999999904" lon="0.22991299999999912">
        <ele>2209.908</ele>
        <time>2022-01-30T10:54:47Z</time>
      </trkpt>
      <trkpt lat="42.840505999999905" lon="0.2299299999999991">
        <ele>2210.478</ele>
        <time>2022-01-30T10:54:52Z</time>
      </trkpt>
      <trkpt lat="42.8405519999999" lon="0.22993999999999912">
        <ele>2211.083</ele>
        <time>2022-01-30T10:54:56Z</time>
      </trkpt>
      <trkpt lat="42.8406039999999" lon="0.22996899999999912">
        <ele>2212.229</ele>
        <time>2022-01-30T10:55:00Z</time>
      </trkpt>
      <trkpt lat="42.8406549999999" lon="0.22999499999999912">
        <ele>2213.517</ele>
        <time>2022-01-30T10:55:04Z</time>
      </trkpt>
      <trkpt lat="42.8407049999999" lon="0.23002899999999912">
        <ele>2214.199</ele>
        <time>2022-01-30T10:55:08Z</time>
      </trkpt>
      <trkpt lat="42.8407559999999" lon="0.23005299999999912">
        <ele>2215.026</ele>
        <time>2022-01-30T10:55:12Z</time>
      </trkpt>
      <trkpt lat="42.8408099999999" lon="0.2300689999999991">
        <ele>2216.170</ele>
        <time>2022-01-30T10:55:16Z</time>
      </trkpt>
      <trkpt lat="42.840855999999896" lon="0.23007899999999912">
        <ele>2216.830</ele>
        <time>2022-01-30T10:55:19Z</time>
      </trkpt>
      <trkpt lat="42.84090499999989" lon="0.2301229999999991">
        <ele>2216.815</ele>
        <time>2022-01-30T10:55:23Z</time>
      </trkpt>
      <trkpt lat="42.840943999999894" lon="0.2301579999999991">
        <ele>2216.965</ele>
        <time>2022-01-30T10:55:26Z</time>
      </trkpt>
      <trkpt lat="42.840999999999894" lon="0.2301759999999991">
        <ele>2217.611</ele>
        <time>2022-01-30T10:55:30Z</time>
      </trkpt>
      <trkpt lat="42.841055999999895" lon="0.2301929999999991">
        <ele>2218.408</ele>
        <time>2022-01-30T10:55:34Z</time>
      </trkpt>
      <trkpt lat="42.84110499999989" lon="0.2302029999999991">
        <ele>2219.210</ele>
        <time>2022-01-30T10:55:42Z</time>
      </trkpt>
      <trkpt lat="42.84114999999989" lon="0.2302109999999991">
        <ele>2220.145</ele>
        <time>2022-01-30T10:55:48Z</time>
      </trkpt>
      <trkpt lat="42.841196999999895" lon="0.23022299999999912">
        <ele>2221.261</ele>
        <time>2022-01-30T10:55:57Z</time>
      </trkpt>
      <trkpt lat="42.8412409999999" lon="0.2302379999999991">
        <ele>2222.289</ele>
        <time>2022-01-30T10:56:18Z</time>
      </trkpt>
      <trkpt lat="42.841286999999895" lon="0.2302409999999991">
        <ele>2223.341</ele>
        <time>2022-01-30T10:56:27Z</time>
      </trkpt>
      <trkpt lat="42.8413339999999" lon="0.2302579999999991">
        <ele>2224.538</ele>
        <time>2022-01-30T10:56:34Z</time>
      </trkpt>
      <trkpt lat="42.841387999999895" lon="0.2302559999999991">
        <ele>2225.892</ele>
        <time>2022-01-30T10:56:41Z</time>
      </trkpt>
      <trkpt lat="42.841438999999895" lon="0.2302649999999991">
        <ele>2226.412</ele>
        <time>2022-01-30T10:56:47Z</time>
      </trkpt>
      <trkpt lat="42.84149099999989" lon="0.23027599999999912">
        <ele>2227.182</ele>
        <time>2022-01-30T10:56:52Z</time>
      </trkpt>
      <trkpt lat="42.84153699999989" lon="0.2302659999999991">
        <ele>2227.543</ele>
        <time>2022-01-30T10:56:57Z</time>
      </trkpt>
      <trkpt lat="42.84158699999989" lon="0.23026999999999911">
        <ele>2228.117</ele>
        <time>2022-01-30T10:57:02Z</time>
      </trkpt>
      <trkpt lat="42.84163999999989" lon="0.23026999999999911">
        <ele>2228.608</ele>
        <time>2022-01-30T10:57:08Z</time>
      </trkpt>
      <trkpt lat="42.84168899999989" lon="0.23027999999999912">
        <ele>2229.067</ele>
        <time>2022-01-30T10:57:13Z</time>
      </trkpt>
      <trkpt lat="42.84174199999989" lon="0.23027399999999912">
        <ele>2228.712</ele>
        <time>2022-01-30T10:57:18Z</time>
      </trkpt>
      <trkpt lat="42.84179299999989" lon="0.23028499999999913">
        <ele>2228.768</ele>
        <time>2022-01-30T10:57:24Z</time>
      </trkpt>
      <trkpt lat="42.84184599999989" lon="0.23029799999999914">
        <ele>2228.716</ele>
        <time>2022-01-30T10:57:31Z</time>
      </trkpt>
      <trkpt lat="42.84189199999989" lon="0.23031099999999916">
        <ele>2228.768</ele>
        <time>2022-01-30T10:57:34Z</time>
      </trkpt>
      <trkpt lat="42.84193999999989" lon="0.23034999999999917">
        <ele>2229.185</ele>
        <time>2022-01-30T10:57:38Z</time>
      </trkpt>
      <trkpt lat="42.84199099999989" lon="0.23036599999999915">
        <ele>2229.239</ele>
        <time>2022-01-30T10:57:47Z</time>
      </trkpt>
      <trkpt lat="42.84203499999989" lon="0.23038599999999915">
        <ele>2229.489</ele>
        <time>2022-01-30T10:57:53Z</time>
      </trkpt>
      <trkpt lat="42.84208099999989" lon="0.23039799999999916">
        <ele>2229.593</ele>
        <time>2022-01-30T10:57:58Z</time>
      </trkpt>
      <trkpt lat="42.842126999999884" lon="0.23041199999999915">
        <ele>2229.665</ele>
        <time>2022-01-30T10:58:06Z</time>
      </trkpt>
      <trkpt lat="42.84217099999989" lon="0.23043599999999914">
        <ele>2229.821</ele>
        <time>2022-01-30T10:58:15Z</time>
      </trkpt>
      <trkpt lat="42.84221599999989" lon="0.23045999999999914">
        <ele>2230.008</ele>
        <time>2022-01-30T10:58:22Z</time>
      </trkpt>
      <trkpt lat="42.84225999999989" lon="0.23048599999999914">
        <ele>2230.748</ele>
        <time>2022-01-30T10:58:31Z</time>
      </trkpt>
      <trkpt lat="42.84230299999989" lon="0.23051999999999914">
        <ele>2231.543</ele>
        <time>2022-01-30T10:58:39Z</time>
      </trkpt>
      <trkpt lat="42.84234799999989" lon="0.23053099999999915">
        <ele>2232.129</ele>
        <time>2022-01-30T10:58:46Z</time>
      </trkpt>
      <trkpt lat="42.842390999999886" lon="0.23055499999999915">
        <ele>2232.827</ele>
        <time>2022-01-30T10:58:53Z</time>
      </trkpt>
      <trkpt lat="42.84243799999989" lon="0.23056699999999916">
        <ele>2233.599</ele>
        <time>2022-01-30T10:59:00Z</time>
      </trkpt>
      <trkpt lat="42.842483999999885" lon="0.23058199999999915">
        <ele>2234.286</ele>
        <time>2022-01-30T10:59:08Z</time>
      </trkpt>
      <trkpt lat="42.842531999999885" lon="0.23059799999999914">
        <ele>2235.150</ele>
        <time>2022-01-30T10:59:16Z</time>
      </trkpt>
      <trkpt lat="42.84257499999988" lon="0.23062499999999914">
        <ele>2236.280</ele>
        <time>2022-01-30T10:59:23Z</time>
      </trkpt>
      <trkpt lat="42.84261799999988" lon="0.23065799999999914">
        <ele>2237.576</ele>
        <time>2022-01-30T10:59:31Z</time>
      </trkpt>
      <trkpt lat="42.84266299999988" lon="0.23067699999999913">
        <ele>2238.690</ele>
        <time>2022-01-30T10:59:39Z</time>
      </trkpt>
      <trkpt lat="42.84270699999988" lon="0.23069599999999912">
        <ele>2239.819</ele>
        <time>2022-01-30T10:59:48Z</time>
      </trkpt>
      <trkpt lat="42.84275499999988" lon="0.23070499999999913">
        <ele>2240.808</ele>
        <time>2022-01-30T10:59:56Z</time>
      </trkpt>
      <trkpt lat="42.84280099999988" lon="0.23071899999999912">
        <ele>2242.086</ele>
        <time>2022-01-30T11:00:05Z</time>
      </trkpt>
      <trkpt lat="42.84284799999988" lon="0.23072799999999913">
        <ele>2243.181</ele>
        <time>2022-01-30T11:00:12Z</time>
      </trkpt>
      <trkpt lat="42.84289099999988" lon="0.23074599999999912">
        <ele>2244.367</ele>
        <time>2022-01-30T11:00:20Z</time>
      </trkpt>
      <trkpt lat="42.84293499999988" lon="0.2307619999999991">
        <ele>2245.445</ele>
        <time>2022-01-30T11:00:29Z</time>
      </trkpt>
      <trkpt lat="42.84297999999988" lon="0.23077299999999912">
        <ele>2246.517</ele>
        <time>2022-01-30T11:00:38Z</time>
      </trkpt>
      <trkpt lat="42.84303199999988" lon="0.23077999999999912">
        <ele>2247.674</ele>
        <time>2022-01-30T11:00:48Z</time>
      </trkpt>
      <trkpt lat="42.84307699999988" lon="0.23077599999999912">
        <ele>2248.298</ele>
        <time>2022-01-30T11:00:55Z</time>
      </trkpt>
      <trkpt lat="42.84312599999988" lon="0.23078399999999913">
        <ele>2248.828</ele>
        <time>2022-01-30T11:01:03Z</time>
      </trkpt>
      <trkpt lat="42.84317399999988" lon="0.23078999999999913">
        <ele>2249.365</ele>
        <time>2022-01-30T11:01:11Z</time>
      </trkpt>
      <trkpt lat="42.84321899999988" lon="0.23079099999999914">
        <ele>2249.768</ele>
        <time>2022-01-30T11:01:18Z</time>
      </trkpt>
      <trkpt lat="42.84326599999988" lon="0.23080699999999912">
        <ele>2250.314</ele>
        <time>2022-01-30T11:01:26Z</time>
      </trkpt>
      <trkpt lat="42.843314999999876" lon="0.23080399999999912">
        <ele>2250.608</ele>
        <time>2022-01-30T11:01:35Z</time>
      </trkpt>
      <trkpt lat="42.843360999999874" lon="0.2308189999999991">
        <ele>2251.365</ele>
        <time>2022-01-30T11:01:43Z</time>
      </trkpt>
      <trkpt lat="42.84340999999987" lon="0.2308199999999991">
        <ele>2252.040</ele>
        <time>2022-01-30T11:01:51Z</time>
      </trkpt>
      <trkpt lat="42.84345599999987" lon="0.2308429999999991">
        <ele>2253.056</ele>
        <time>2022-01-30T11:02:04Z</time>
      </trkpt>
      <trkpt lat="42.843504999999865" lon="0.23082799999999912">
        <ele>2253.434</ele>
        <time>2022-01-30T11:02:16Z</time>
      </trkpt>
      <trkpt lat="42.84354799999986" lon="0.23080899999999913">
        <ele>2253.966</ele>
        <time>2022-01-30T11:02:26Z</time>
      </trkpt>
      <trkpt lat="42.84359599999986" lon="0.23082699999999912">
        <ele>2254.783</ele>
        <time>2022-01-30T11:03:22Z</time>
      </trkpt>
      <trkpt lat="42.843628999999865" lon="0.23088099999999911">
        <ele>2256.177</ele>
        <time>2022-01-30T11:04:12Z</time>
      </trkpt>
      <trkpt lat="42.843628999999865" lon="0.2308179999999991">
        <ele>2255.247</ele>
        <time>2022-01-30T11:04:19Z</time>
      </trkpt>
      <trkpt lat="42.84365799999986" lon="0.2307619999999991">
        <ele>2255.274</ele>
        <time>2022-01-30T11:05:07Z</time>
      </trkpt>
      <trkpt lat="42.84370399999986" lon="0.23074399999999912">
        <ele>2255.856</ele>
        <time>2022-01-30T11:05:12Z</time>
      </trkpt>
      <trkpt lat="42.84374899999986" lon="0.23072799999999913">
        <ele>2256.421</ele>
        <time>2022-01-30T11:05:19Z</time>
      </trkpt>
      <trkpt lat="42.84379999999986" lon="0.23071899999999912">
        <ele>2257.208</ele>
        <time>2022-01-30T11:05:26Z</time>
      </trkpt>
      <trkpt lat="42.84384899999986" lon="0.23070399999999913">
        <ele>2257.976</ele>
        <time>2022-01-30T11:05:33Z</time>
      </trkpt>
      <trkpt lat="42.84389599999986" lon="0.23070899999999914">
        <ele>2258.771</ele>
        <time>2022-01-30T11:05:49Z</time>
      </trkpt>
      <trkpt lat="42.84393299999986" lon="0.23066799999999912">
        <ele>2259.257</ele>
        <time>2022-01-30T11:05:59Z</time>
      </trkpt>
      <trkpt lat="42.843984999999854" lon="0.2306559999999991">
        <ele>2260.045</ele>
        <time>2022-01-30T11:06:16Z</time>
      </trkpt>
      <trkpt lat="42.844034999999856" lon="0.2306439999999991">
        <ele>2260.887</ele>
        <time>2022-01-30T11:06:25Z</time>
      </trkpt>
      <trkpt lat="42.84407899999986" lon="0.2306009999999991">
        <ele>2261.154</ele>
        <time>2022-01-30T11:06:32Z</time>
      </trkpt>
      <trkpt lat="42.844127999999856" lon="0.2305879999999991">
        <ele>2261.818</ele>
        <time>2022-01-30T11:06:41Z</time>
      </trkpt>
      <trkpt lat="42.844178999999855" lon="0.2305799999999991">
        <ele>2262.468</ele>
        <time>2022-01-30T11:06:48Z</time>
      </trkpt>
      <trkpt lat="42.844223999999855" lon="0.23056699999999908">
        <ele>2262.989</ele>
        <time>2022-01-30T11:06:55Z</time>
      </trkpt>
      <trkpt lat="42.84426999999985" lon="0.23054499999999908">
        <ele>2263.506</ele>
        <time>2022-01-30T11:07:02Z</time>
      </trkpt>
      <trkpt lat="42.844296999999855" lon="0.2304959999999991">
        <ele>2263.826</ele>
        <time>2022-01-30T11:07:16Z</time>
      </trkpt>
      <trkpt lat="42.844344999999855" lon="0.2304689999999991">
        <ele>2264.508</ele>
        <time>2022-01-30T11:08:36Z</time>
      </trkpt>
      <trkpt lat="42.84439399999985" lon="0.2304749999999991">
        <ele>2265.447</ele>
        <time>2022-01-30T11:08:43Z</time>
      </trkpt>
      <trkpt lat="42.84444199999985" lon="0.2304809999999991">
        <ele>2266.232</ele>
        <time>2022-01-30T11:08:50Z</time>
      </trkpt>
      <trkpt lat="42.84449299999985" lon="0.2304819999999991">
        <ele>2267.028</ele>
        <time>2022-01-30T11:08:57Z</time>
      </trkpt>
      <trkpt lat="42.84453899999985" lon="0.23046699999999912">
        <ele>2267.876</ele>
        <time>2022-01-30T11:09:03Z</time>
      </trkpt>
      <trkpt lat="42.84458399999985" lon="0.23044399999999912">
        <ele>2268.658</ele>
        <time>2022-01-30T11:09:11Z</time>
      </trkpt>
      <trkpt lat="42.84462299999985" lon="0.23041299999999912">
        <ele>2269.465</ele>
        <time>2022-01-30T11:09:19Z</time>
      </trkpt>
      <trkpt lat="42.84466499999985" lon="0.2303739999999991">
        <ele>2270.329</ele>
        <time>2022-01-30T11:09:35Z</time>
      </trkpt>
      <trkpt lat="42.84471099999985" lon="0.2303639999999991">
        <ele>2271.249</ele>
        <time>2022-01-30T11:09:42Z</time>
      </trkpt>
      <trkpt lat="42.844745999999844" lon="0.2303219999999991">
        <ele>2272.386</ele>
        <time>2022-01-30T11:09:51Z</time>
      </trkpt>
      <trkpt lat="42.84478599999984" lon="0.2302879999999991">
        <ele>2273.560</ele>
        <time>2022-01-30T11:10:01Z</time>
      </trkpt>
      <trkpt lat="42.844824999999844" lon="0.2302509999999991">
        <ele>2274.826</ele>
        <time>2022-01-30T11:10:09Z</time>
      </trkpt>
      <trkpt lat="42.84486199999984" lon="0.2302079999999991">
        <ele>2276.208</ele>
        <time>2022-01-30T11:10:18Z</time>
      </trkpt>
      <trkpt lat="42.84490199999984" lon="0.2301709999999991">
        <ele>2277.417</ele>
        <time>2022-01-30T11:10:25Z</time>
      </trkpt>
      <trkpt lat="42.84494699999984" lon="0.2301409999999991">
        <ele>2278.742</ele>
        <time>2022-01-30T11:10:33Z</time>
      </trkpt>
      <trkpt lat="42.844984999999845" lon="0.2300949999999991">
        <ele>2280.068</ele>
        <time>2022-01-30T11:10:39Z</time>
      </trkpt>
      <trkpt lat="42.84502799999984" lon="0.2300559999999991">
        <ele>2281.426</ele>
        <time>2022-01-30T11:10:46Z</time>
      </trkpt>
      <trkpt lat="42.845068999999846" lon="0.2300099999999991">
        <ele>2282.948</ele>
        <time>2022-01-30T11:10:53Z</time>
      </trkpt>
      <trkpt lat="42.845099999999846" lon="0.2299599999999991">
        <ele>2284.285</ele>
        <time>2022-01-30T11:10:59Z</time>
      </trkpt>
      <trkpt lat="42.84514399999985" lon="0.2299209999999991">
        <ele>2285.739</ele>
        <time>2022-01-30T11:11:06Z</time>
      </trkpt>
      <trkpt lat="42.84517999999985" lon="0.2298749999999991">
        <ele>2287.019</ele>
        <time>2022-01-30T11:11:12Z</time>
      </trkpt>
      <trkpt lat="42.84520799999985" lon="0.2298249999999991">
        <ele>2287.943</ele>
        <time>2022-01-30T11:11:19Z</time>
      </trkpt>
      <trkpt lat="42.845245999999854" lon="0.22978099999999912">
        <ele>2289.164</ele>
        <time>2022-01-30T11:11:27Z</time>
      </trkpt>
      <trkpt lat="42.845273999999854" lon="0.22972399999999912">
        <ele>2289.910</ele>
        <time>2022-01-30T11:13:29Z</time>
      </trkpt>
      <trkpt lat="42.84531099999985" lon="0.22967799999999913">
        <ele>2291.808</ele>
        <time>2022-01-30T11:13:51Z</time>
      </trkpt>
      <trkpt lat="42.84531999999985" lon="0.22961599999999913">
        <ele>2292.343</ele>
        <time>2022-01-30T11:13:58Z</time>
      </trkpt>
      <trkpt lat="42.84533699999985" lon="0.22955499999999912">
        <ele>2293.268</ele>
        <time>2022-01-30T11:14:06Z</time>
      </trkpt>
      <trkpt lat="42.84536199999985" lon="0.22949699999999912">
        <ele>2294.394</ele>
        <time>2022-01-30T11:14:14Z</time>
      </trkpt>
      <trkpt lat="42.84539599999985" lon="0.22945199999999913">
        <ele>2295.722</ele>
        <time>2022-01-30T11:14:24Z</time>
      </trkpt>
      <trkpt lat="42.84542199999985" lon="0.22939599999999913">
        <ele>2296.374</ele>
        <time>2022-01-30T11:14:32Z</time>
      </trkpt>
      <trkpt lat="42.84545899999985" lon="0.22935299999999914">
        <ele>2297.331</ele>
        <time>2022-01-30T11:14:40Z</time>
      </trkpt>
      <trkpt lat="42.84550099999985" lon="0.22932999999999915">
        <ele>2298.535</ele>
        <time>2022-01-30T11:14:50Z</time>
      </trkpt>
      <trkpt lat="42.84554299999985" lon="0.22929999999999914">
        <ele>2299.575</ele>
        <time>2022-01-30T11:15:00Z</time>
      </trkpt>
      <trkpt lat="42.84558499999985" lon="0.22926799999999914">
        <ele>2300.239</ele>
        <time>2022-01-30T11:15:09Z</time>
      </trkpt>
      <trkpt lat="42.84562399999985" lon="0.22923599999999913">
        <ele>2300.801</ele>
        <time>2022-01-30T11:15:19Z</time>
      </trkpt>
      <trkpt lat="42.845664999999855" lon="0.22919899999999913">
        <ele>2301.321</ele>
        <time>2022-01-30T11:15:29Z</time>
      </trkpt>
      <trkpt lat="42.845709999999855" lon="0.22919099999999912">
        <ele>2302.308</ele>
        <time>2022-01-30T11:15:41Z</time>
      </trkpt>
      <trkpt lat="42.845754999999855" lon="0.22919199999999912">
        <ele>2303.512</ele>
        <time>2022-01-30T11:16:00Z</time>
      </trkpt>
      <trkpt lat="42.84579899999986" lon="0.22916599999999912">
        <ele>2304.157</ele>
        <time>2022-01-30T11:16:07Z</time>
      </trkpt>
      <trkpt lat="42.84584599999986" lon="0.22914599999999913">
        <ele>2305.043</ele>
        <time>2022-01-30T11:16:16Z</time>
      </trkpt>
      <trkpt lat="42.84588999999986" lon="0.22912799999999914">
        <ele>2306.141</ele>
        <time>2022-01-30T11:16:33Z</time>
      </trkpt>
      <trkpt lat="42.84593199999986" lon="0.22910299999999914">
        <ele>2307.193</ele>
        <time>2022-01-30T11:16:43Z</time>
      </trkpt>
      <trkpt lat="42.845975999999865" lon="0.22908199999999915">
        <ele>2308.190</ele>
        <time>2022-01-30T11:16:54Z</time>
      </trkpt>
      <trkpt lat="42.84601999999987" lon="0.22904999999999914">
        <ele>2308.974</ele>
        <time>2022-01-30T11:17:04Z</time>
      </trkpt>
      <trkpt lat="42.84605699999987" lon="0.22901199999999913">
        <ele>2309.584</ele>
        <time>2022-01-30T11:17:14Z</time>
      </trkpt>
      <trkpt lat="42.84610099999987" lon="0.22898499999999913">
        <ele>2310.451</ele>
        <time>2022-01-30T11:18:18Z</time>
      </trkpt>
      <trkpt lat="42.84614599999987" lon="0.22895999999999914">
        <ele>2311.501</ele>
        <time>2022-01-30T11:18:29Z</time>
      </trkpt>
      <trkpt lat="42.84617799999987" lon="0.22891599999999915">
        <ele>2311.911</ele>
        <time>2022-01-30T11:18:36Z</time>
      </trkpt>
      <trkpt lat="42.84621699999987" lon="0.22888199999999914">
        <ele>2312.708</ele>
        <time>2022-01-30T11:18:42Z</time>
      </trkpt>
      <trkpt lat="42.84625899999987" lon="0.22884499999999913">
        <ele>2313.844</ele>
        <time>2022-01-30T11:18:49Z</time>
      </trkpt>
      <trkpt lat="42.84629699999987" lon="0.22880199999999914">
        <ele>2314.569</ele>
        <time>2022-01-30T11:19:00Z</time>
      </trkpt>
      <trkpt lat="42.846337999999875" lon="0.22876499999999914">
        <ele>2315.545</ele>
        <time>2022-01-30T11:19:09Z</time>
      </trkpt>
      <trkpt lat="42.84636799999988" lon="0.22871399999999914">
        <ele>2315.853</ele>
        <time>2022-01-30T11:19:18Z</time>
      </trkpt>
      <trkpt lat="42.84640099999988" lon="0.22866199999999914">
        <ele>2316.135</ele>
        <time>2022-01-30T11:19:26Z</time>
      </trkpt>
      <trkpt lat="42.84642599999988" lon="0.22860699999999914">
        <ele>2316.282</ele>
        <time>2022-01-30T11:19:34Z</time>
      </trkpt>
      <trkpt lat="42.84646299999988" lon="0.22856399999999916">
        <ele>2317.346</ele>
        <time>2022-01-30T11:19:46Z</time>
      </trkpt>
      <trkpt lat="42.84650499999988" lon="0.22853299999999915">
        <ele>2318.446</ele>
        <time>2022-01-30T11:23:29Z</time>
      </trkpt>
      <trkpt lat="42.84654799999988" lon="0.22849599999999914">
        <ele>2319.439</ele>
        <time>2022-01-30T11:23:38Z</time>
      </trkpt>
      <trkpt lat="42.846587999999876" lon="0.22846099999999914">
        <ele>2320.301</ele>
        <time>2022-01-30T11:23:49Z</time>
      </trkpt>
      <trkpt lat="42.846635999999876" lon="0.22844999999999913">
        <ele>2321.521</ele>
        <time>2022-01-30T11:24:01Z</time>
      </trkpt>
      <trkpt lat="42.846683999999875" lon="0.22844199999999912">
        <ele>2322.708</ele>
        <time>2022-01-30T11:24:11Z</time>
      </trkpt>
      <trkpt lat="42.84672699999987" lon="0.22841599999999912">
        <ele>2323.752</ele>
        <time>2022-01-30T11:24:19Z</time>
      </trkpt>
      <trkpt lat="42.84677199999987" lon="0.22839899999999913">
        <ele>2324.867</ele>
        <time>2022-01-30T11:24:28Z</time>
      </trkpt>
      <trkpt lat="42.846818999999876" lon="0.22838899999999912">
        <ele>2326.143</ele>
        <time>2022-01-30T11:24:35Z</time>
      </trkpt>
      <trkpt lat="42.846863999999876" lon="0.22838299999999911">
        <ele>2327.341</ele>
        <time>2022-01-30T11:24:49Z</time>
      </trkpt>
      <trkpt lat="42.846866999999875" lon="0.22825599999999913">
        <ele>2326.333</ele>
        <time>2022-01-30T11:24:58Z</time>
      </trkpt>
      <trkpt lat="42.84690499999988" lon="0.22821999999999912">
        <ele>2327.150</ele>
        <time>2022-01-30T11:25:09Z</time>
      </trkpt>
      <trkpt lat="42.84694999999988" lon="0.2282069999999991">
        <ele>2328.334</ele>
        <time>2022-01-30T11:25:12Z</time>
      </trkpt>
      <trkpt lat="42.84699099999988" lon="0.2281689999999991">
        <ele>2329.574</ele>
        <time>2022-01-30T11:25:19Z</time>
      </trkpt>
      <trkpt lat="42.84701899999988" lon="0.2281189999999991">
        <ele>2330.014</ele>
        <time>2022-01-30T11:25:26Z</time>
      </trkpt>
      <trkpt lat="42.84705899999988" lon="0.2280859999999991">
        <ele>2331.054</ele>
        <time>2022-01-30T11:25:32Z</time>
      </trkpt>
      <trkpt lat="42.84709099999988" lon="0.2280339999999991">
        <ele>2331.509</ele>
        <time>2022-01-30T11:25:39Z</time>
      </trkpt>
      <trkpt lat="42.84712099999988" lon="0.2279799999999991">
        <ele>2331.908</ele>
        <time>2022-01-30T11:25:48Z</time>
      </trkpt>
      <trkpt lat="42.84715799999988" lon="0.2279369999999991">
        <ele>2332.650</ele>
        <time>2022-01-30T11:25:56Z</time>
      </trkpt>
      <trkpt lat="42.84719199999988" lon="0.22788999999999912">
        <ele>2333.255</ele>
        <time>2022-01-30T11:26:03Z</time>
      </trkpt>
      <trkpt lat="42.84723499999988" lon="0.22786299999999912">
        <ele>2334.371</ele>
        <time>2022-01-30T11:26:09Z</time>
      </trkpt>
      <trkpt lat="42.84728299999988" lon="0.22783999999999913">
        <ele>2335.459</ele>
        <time>2022-01-30T11:26:16Z</time>
      </trkpt>
      <trkpt lat="42.847328999999874" lon="0.22781399999999913">
        <ele>2336.391</ele>
        <time>2022-01-30T11:26:22Z</time>
      </trkpt>
      <trkpt lat="42.84737299999988" lon="0.22779299999999914">
        <ele>2337.138</ele>
        <time>2022-01-30T11:26:28Z</time>
      </trkpt>
      <trkpt lat="42.84741399999988" lon="0.22776399999999913">
        <ele>2337.632</ele>
        <time>2022-01-30T11:26:34Z</time>
      </trkpt>
      <trkpt lat="42.84745799999988" lon="0.22773099999999913">
        <ele>2338.242</ele>
        <time>2022-01-30T11:26:41Z</time>
      </trkpt>
      <trkpt lat="42.84750099999988" lon="0.22769199999999912">
        <ele>2338.577</ele>
        <time>2022-01-30T11:26:47Z</time>
      </trkpt>
      <trkpt lat="42.84753799999988" lon="0.22764799999999913">
        <ele>2338.461</ele>
        <time>2022-01-30T11:26:54Z</time>
      </trkpt>
      <trkpt lat="42.847586999999876" lon="0.22761999999999913">
        <ele>2338.727</ele>
        <time>2022-01-30T11:27:01Z</time>
      </trkpt>
      <trkpt lat="42.84763199999988" lon="0.22758299999999912">
        <ele>2338.708</ele>
        <time>2022-01-30T11:27:08Z</time>
      </trkpt>
      <trkpt lat="42.84767399999988" lon="0.22755299999999912">
        <ele>2338.776</ele>
        <time>2022-01-30T11:27:18Z</time>
      </trkpt>
      <trkpt lat="42.84772399999988" lon="0.22753699999999913">
        <ele>2339.181</ele>
        <time>2022-01-30T11:27:28Z</time>
      </trkpt>
      <trkpt lat="42.84777099999988" lon="0.22752199999999914">
        <ele>2339.567</ele>
        <time>2022-01-30T11:27:35Z</time>
      </trkpt>
      <trkpt lat="42.84781599999988" lon="0.22751399999999913">
        <ele>2340.755</ele>
        <time>2022-01-30T11:27:41Z</time>
      </trkpt>
      <trkpt lat="42.84786299999988" lon="0.22751999999999914">
        <ele>2342.647</ele>
        <time>2022-01-30T11:27:47Z</time>
      </trkpt>
      <trkpt lat="42.84791499999988" lon="0.22751399999999913">
        <ele>2344.364</ele>
        <time>2022-01-30T11:27:53Z</time>
      </trkpt>
      <trkpt lat="42.84795999999988" lon="0.22749599999999914">
        <ele>2345.578</ele>
        <time>2022-01-30T11:28:00Z</time>
      </trkpt>
      <trkpt lat="42.84800899999988" lon="0.22749099999999914">
        <ele>2347.118</ele>
        <time>2022-01-30T11:28:06Z</time>
      </trkpt>
      <trkpt lat="42.84805599999988" lon="0.22745599999999913">
        <ele>2347.961</ele>
        <time>2022-01-30T11:28:13Z</time>
      </trkpt>
      <trkpt lat="42.84809699999988" lon="0.22742599999999913">
        <ele>2348.421</ele>
        <time>2022-01-30T11:28:19Z</time>
      </trkpt>
      <trkpt lat="42.84812899999988" lon="0.22738199999999914">
        <ele>2348.513</ele>
        <time>2022-01-30T11:28:25Z</time>
      </trkpt>
      <trkpt lat="42.84816099999988" lon="0.22733399999999915">
        <ele>2348.508</ele>
        <time>2022-01-30T11:28:31Z</time>
      </trkpt>
      <trkpt lat="42.84820299999988" lon="0.22730099999999914">
        <ele>2349.485</ele>
        <time>2022-01-30T11:28:38Z</time>
      </trkpt>
      <trkpt lat="42.84822499999988" lon="0.22724399999999914">
        <ele>2349.190</ele>
        <time>2022-01-30T11:28:45Z</time>
      </trkpt>
      <trkpt lat="42.84825799999988" lon="0.22719099999999914">
        <ele>2349.876</ele>
        <time>2022-01-30T11:28:52Z</time>
      </trkpt>
      <trkpt lat="42.84828899999988" lon="0.22714199999999915">
        <ele>2350.814</ele>
        <time>2022-01-30T11:29:00Z</time>
      </trkpt>
      <trkpt lat="42.848298999999884" lon="0.22707499999999914">
        <ele>2350.946</ele>
        <time>2022-01-30T11:29:07Z</time>
      </trkpt>
      <trkpt lat="42.848317999999885" lon="0.22700999999999913">
        <ele>2351.583</ele>
        <time>2022-01-30T11:29:14Z</time>
      </trkpt>
      <trkpt lat="42.84834199999989" lon="0.22695099999999913">
        <ele>2352.597</ele>
        <time>2022-01-30T11:29:27Z</time>
      </trkpt>
      <trkpt lat="42.84835299999989" lon="0.22688799999999912">
        <ele>2352.947</ele>
        <time>2022-01-30T11:29:35Z</time>
      </trkpt>
      <trkpt lat="42.84836599999989" lon="0.2268209999999991">
        <ele>2353.462</ele>
        <time>2022-01-30T11:29:45Z</time>
      </trkpt>
      <trkpt lat="42.84837799999989" lon="0.2267569999999991">
        <ele>2353.883</ele>
        <time>2022-01-30T11:29:54Z</time>
      </trkpt>
      <trkpt lat="42.84839299999989" lon="0.2266949999999991">
        <ele>2354.311</ele>
        <time>2022-01-30T11:30:01Z</time>
      </trkpt>
      <trkpt lat="42.84839499999989" lon="0.22663299999999909">
        <ele>2354.708</ele>
        <time>2022-01-30T11:30:08Z</time>
      </trkpt>
      <trkpt lat="42.84840099999989" lon="0.22656799999999908">
        <ele>2355.655</ele>
        <time>2022-01-30T11:30:16Z</time>
      </trkpt>
      <trkpt lat="42.84840399999989" lon="0.22650399999999907">
        <ele>2356.450</ele>
        <time>2022-01-30T11:30:25Z</time>
      </trkpt>
      <trkpt lat="42.84844399999989" lon="0.22647299999999906">
        <ele>2358.456</ele>
        <time>2022-01-30T11:30:35Z</time>
      </trkpt>
      <trkpt lat="42.84847699999989" lon="0.22643099999999908">
        <ele>2360.054</ele>
        <time>2022-01-30T11:30:44Z</time>
      </trkpt>
      <trkpt lat="42.84849999999989" lon="0.22637499999999908">
        <ele>2361.256</ele>
        <time>2022-01-30T11:30:53Z</time>
      </trkpt>
      <trkpt lat="42.848511999999886" lon="0.22630899999999907">
        <ele>2362.543</ele>
        <time>2022-01-30T11:31:11Z</time>
      </trkpt>
      <trkpt lat="42.84850299999989" lon="0.22624499999999906">
        <ele>2363.147</ele>
        <time>2022-01-30T11:31:23Z</time>
      </trkpt>
      <trkpt lat="42.848545999999885" lon="0.22621199999999905">
        <ele>2364.917</ele>
        <time>2022-01-30T11:31:36Z</time>
      </trkpt>
      <trkpt lat="42.848573999999886" lon="0.22615999999999906">
        <ele>2366.426</ele>
        <time>2022-01-30T11:31:49Z</time>
      </trkpt>
      <trkpt lat="42.84860399999989" lon="0.22611399999999907">
        <ele>2367.847</ele>
        <time>2022-01-30T11:32:01Z</time>
      </trkpt>
      <trkpt lat="42.84863999999989" lon="0.22607499999999905">
        <ele>2369.411</ele>
        <time>2022-01-30T11:32:15Z</time>
      </trkpt>
      <trkpt lat="42.84868699999989" lon="0.22608099999999906">
        <ele>2371.008</ele>
        <time>2022-01-30T11:32:27Z</time>
      </trkpt>
      <trkpt lat="42.84867499999989" lon="0.22614099999999906">
        <ele>2370.191</ele>
        <time>2022-01-30T11:32:42Z</time>
      </trkpt>
      <trkpt lat="42.84861999999989" lon="0.22615599999999905">
        <ele>2367.936</ele>
        <time>2022-01-30T11:32:50Z</time>
      </trkpt>
      <trkpt lat="42.84863399999989" lon="0.22609699999999905">
        <ele>2369.022</ele>
        <time>2022-01-30T11:33:28Z</time>
      </trkpt>
      <trkpt lat="42.84861599999989" lon="0.22603999999999905">
        <ele>2368.960</ele>
        <time>2022-01-30T11:33:55Z</time>
      </trkpt>
      <trkpt lat="42.84857399999989" lon="0.22600699999999904">
        <ele>2368.262</ele>
        <time>2022-01-30T11:34:06Z</time>
      </trkpt>
      <trkpt lat="42.84862299999989" lon="0.22600699999999904">
        <ele>2369.559</ele>
        <time>2022-01-30T11:34:23Z</time>
      </trkpt>
      <trkpt lat="42.84866999999989" lon="0.22597999999999904">
        <ele>2371.243</ele>
        <time>2022-01-30T11:34:30Z</time>
      </trkpt>
      <trkpt lat="42.848713999999894" lon="0.22594699999999904">
        <ele>2372.813</ele>
        <time>2022-01-30T11:34:36Z</time>
      </trkpt>
      <trkpt lat="42.84874599999989" lon="0.22590299999999905">
        <ele>2374.027</ele>
        <time>2022-01-30T11:34:41Z</time>
      </trkpt>
      <trkpt lat="42.84878899999989" lon="0.22585799999999906">
        <ele>2375.468</ele>
        <time>2022-01-30T11:34:45Z</time>
      </trkpt>
      <trkpt lat="42.84883799999989" lon="0.22584699999999905">
        <ele>2376.714</ele>
        <time>2022-01-30T11:34:52Z</time>
      </trkpt>
      <trkpt lat="42.84887099999989" lon="0.22580399999999906">
        <ele>2377.608</ele>
        <time>2022-01-30T11:34:56Z</time>
      </trkpt>
      <trkpt lat="42.84891499999989" lon="0.22575899999999907">
        <ele>2378.561</ele>
        <time>2022-01-30T11:35:01Z</time>
      </trkpt>
      <trkpt lat="42.848955999999895" lon="0.22571899999999906">
        <ele>2379.276</ele>
        <time>2022-01-30T11:35:07Z</time>
      </trkpt>
      <trkpt lat="42.848994999999896" lon="0.22567599999999907">
        <ele>2379.622</ele>
        <time>2022-01-30T11:35:13Z</time>
      </trkpt>
      <trkpt lat="42.84902999999989" lon="0.22563099999999908">
        <ele>2379.740</ele>
        <time>2022-01-30T11:35:20Z</time>
      </trkpt>
      <trkpt lat="42.84905099999989" lon="0.22557399999999908">
        <ele>2379.422</ele>
        <time>2022-01-30T11:35:28Z</time>
      </trkpt>
      <trkpt lat="42.84908199999989" lon="0.2255289999999991">
        <ele>2379.419</ele>
        <time>2022-01-30T11:35:34Z</time>
      </trkpt>
      <trkpt lat="42.84911999999989" lon="0.2254829999999991">
        <ele>2379.643</ele>
        <time>2022-01-30T11:35:39Z</time>
      </trkpt>
      <trkpt lat="42.849158999999894" lon="0.2254389999999991">
        <ele>2379.943</ele>
        <time>2022-01-30T11:35:44Z</time>
      </trkpt>
      <trkpt lat="42.849183999999894" lon="0.22538699999999912">
        <ele>2380.648</ele>
        <time>2022-01-30T11:35:52Z</time>
      </trkpt>
      <trkpt lat="42.8492079999999" lon="0.22532999999999911">
        <ele>2381.361</ele>
        <time>2022-01-30T11:36:01Z</time>
      </trkpt>
      <trkpt lat="42.8492189999999" lon="0.2252709999999991">
        <ele>2381.617</ele>
        <time>2022-01-30T11:36:08Z</time>
      </trkpt>
      <trkpt lat="42.849233999999896" lon="0.2252089999999991">
        <ele>2382.608</ele>
        <time>2022-01-30T11:36:17Z</time>
      </trkpt>
      <trkpt lat="42.849248999999894" lon="0.2251429999999991">
        <ele>2383.523</ele>
        <time>2022-01-30T11:36:26Z</time>
      </trkpt>
      <trkpt lat="42.84925599999989" lon="0.2250679999999991">
        <ele>2384.488</ele>
        <time>2022-01-30T11:36:36Z</time>
      </trkpt>
      <trkpt lat="42.84927199999989" lon="0.2250059999999991">
        <ele>2385.234</ele>
        <time>2022-01-30T11:36:48Z</time>
      </trkpt>
      <trkpt lat="42.84928599999989" lon="0.2249459999999991">
        <ele>2386.282</ele>
        <time>2022-01-30T11:36:58Z</time>
      </trkpt>
      <trkpt lat="42.849298999999895" lon="0.22488099999999908">
        <ele>2387.244</ele>
        <time>2022-01-30T11:37:07Z</time>
      </trkpt>
      <trkpt lat="42.849278999999896" lon="0.22481999999999908">
        <ele>2387.551</ele>
        <time>2022-01-30T11:38:39Z</time>
      </trkpt>
      <trkpt lat="42.8492889999999" lon="0.22475999999999907">
        <ele>2388.385</ele>
        <time>2022-01-30T11:38:47Z</time>
      </trkpt>
      <trkpt lat="42.8493159999999" lon="0.22470999999999908">
        <ele>2389.395</ele>
        <time>2022-01-30T11:38:55Z</time>
      </trkpt>
      <trkpt lat="42.849339999999906" lon="0.22465099999999907">
        <ele>2390.365</ele>
        <time>2022-01-30T11:39:02Z</time>
      </trkpt>
      <trkpt lat="42.849356999999905" lon="0.22459299999999907">
        <ele>2391.168</ele>
        <time>2022-01-30T11:39:08Z</time>
      </trkpt>
      <trkpt lat="42.84937899999991" lon="0.22453299999999907">
        <ele>2392.114</ele>
        <time>2022-01-30T11:39:14Z</time>
      </trkpt>
      <trkpt lat="42.84941999999991" lon="0.22449299999999905">
        <ele>2393.108</ele>
        <time>2022-01-30T11:39:20Z</time>
      </trkpt>
      <trkpt lat="42.84945799999991" lon="0.22444699999999906">
        <ele>2394.295</ele>
        <time>2022-01-30T11:39:41Z</time>
      </trkpt>
      <trkpt lat="42.849490999999915" lon="0.22439099999999906">
        <ele>2394.930</ele>
        <time>2022-01-30T11:39:47Z</time>
      </trkpt>
      <trkpt lat="42.849524999999915" lon="0.22433899999999907">
        <ele>2395.746</ele>
        <time>2022-01-30T11:39:54Z</time>
      </trkpt>
      <trkpt lat="42.849546999999916" lon="0.22427699999999906">
        <ele>2396.344</ele>
        <time>2022-01-30T11:40:01Z</time>
      </trkpt>
      <trkpt lat="42.84958299999992" lon="0.22423899999999905">
        <ele>2397.146</ele>
        <time>2022-01-30T11:40:11Z</time>
      </trkpt>
      <trkpt lat="42.849608999999916" lon="0.22418399999999905">
        <ele>2397.953</ele>
        <time>2022-01-30T11:40:26Z</time>
      </trkpt>
      <trkpt lat="42.84964799999992" lon="0.22415199999999905">
        <ele>2398.847</ele>
        <time>2022-01-30T11:41:15Z</time>
      </trkpt>
      <trkpt lat="42.84969299999992" lon="0.22416199999999906">
        <ele>2399.597</ele>
        <time>2022-01-30T11:41:24Z</time>
      </trkpt>
      <trkpt lat="42.849659999999915" lon="0.22411799999999907">
        <ele>2399.564</ele>
        <time>2022-01-30T11:41:28Z</time>
      </trkpt>
      <trkpt lat="42.849704999999915" lon="0.22411599999999907">
        <ele>2400.406</ele>
        <time>2022-01-30T11:42:16Z</time>
      </trkpt>
      <trkpt lat="42.84972899999992" lon="0.22405499999999906">
        <ele>2401.816</ele>
        <time>2022-01-30T11:42:23Z</time>
      </trkpt>
      <trkpt lat="42.84976199999992" lon="0.22400999999999907">
        <ele>2403.408</ele>
        <time>2022-01-30T11:42:30Z</time>
      </trkpt>
      <trkpt lat="42.84979399999992" lon="0.22396099999999908">
        <ele>2404.965</ele>
        <time>2022-01-30T11:42:42Z</time>
      </trkpt>
      <trkpt lat="42.84981899999992" lon="0.22390799999999908">
        <ele>2406.220</ele>
        <time>2022-01-30T11:42:52Z</time>
      </trkpt>
      <trkpt lat="42.849853999999915" lon="0.22386699999999907">
        <ele>2407.676</ele>
        <time>2022-01-30T11:43:05Z</time>
      </trkpt>
      <trkpt lat="42.84988399999992" lon="0.22381199999999907">
        <ele>2408.974</ele>
        <time>2022-01-30T11:43:32Z</time>
      </trkpt>
      <trkpt lat="42.849918999999915" lon="0.22376399999999907">
        <ele>2410.326</ele>
        <time>2022-01-30T11:43:40Z</time>
      </trkpt>
      <trkpt lat="42.84995999999992" lon="0.22372499999999906">
        <ele>2411.813</ele>
        <time>2022-01-30T11:43:47Z</time>
      </trkpt>
      <trkpt lat="42.84999799999992" lon="0.22368399999999905">
        <ele>2413.227</ele>
        <time>2022-01-30T11:43:54Z</time>
      </trkpt>
      <trkpt lat="42.85003799999992" lon="0.22364099999999906">
        <ele>2414.787</ele>
        <time>2022-01-30T11:44:03Z</time>
      </trkpt>
      <trkpt lat="42.85008199999992" lon="0.22362099999999907">
        <ele>2416.034</ele>
        <time>2022-01-30T11:44:10Z</time>
      </trkpt>
      <trkpt lat="42.850122999999925" lon="0.22359499999999907">
        <ele>2417.155</ele>
        <time>2022-01-30T11:44:17Z</time>
      </trkpt>
      <trkpt lat="42.850162999999924" lon="0.22355799999999906">
        <ele>2418.210</ele>
        <time>2022-01-30T11:44:29Z</time>
      </trkpt>
      <trkpt lat="42.850195999999926" lon="0.22351299999999907">
        <ele>2419.008</ele>
        <time>2022-01-30T11:44:33Z</time>
      </trkpt>
      <trkpt lat="42.850223999999926" lon="0.22346199999999908">
        <ele>2419.742</ele>
        <time>2022-01-30T11:44:39Z</time>
      </trkpt>
      <trkpt lat="42.85026299999993" lon="0.22342999999999907">
        <ele>2420.737</ele>
        <time>2022-01-30T11:44:48Z</time>
      </trkpt>
      <trkpt lat="42.85030199999993" lon="0.22339699999999907">
        <ele>2421.553</ele>
        <time>2022-01-30T11:44:51Z</time>
      </trkpt>
      <trkpt lat="42.85033999999993" lon="0.22336199999999906">
        <ele>2422.141</ele>
        <time>2022-01-30T11:44:57Z</time>
      </trkpt>
      <trkpt lat="42.850380999999935" lon="0.22332999999999906">
        <ele>2422.843</ele>
        <time>2022-01-30T11:45:06Z</time>
      </trkpt>
      <trkpt lat="42.850417999999934" lon="0.22328599999999907">
        <ele>2423.440</ele>
        <time>2022-01-30T11:45:18Z</time>
      </trkpt>
      <trkpt lat="42.85045799999993" lon="0.22325599999999907">
        <ele>2424.044</ele>
        <time>2022-01-30T11:45:26Z</time>
      </trkpt>
      <trkpt lat="42.85049299999993" lon="0.22321399999999908">
        <ele>2424.724</ele>
        <time>2022-01-30T11:45:39Z</time>
      </trkpt>
      <trkpt lat="42.85052399999993" lon="0.2231659999999991">
        <ele>2425.352</ele>
        <time>2022-01-30T11:45:47Z</time>
      </trkpt>
      <trkpt lat="42.85056199999993" lon="0.2231239999999991">
        <ele>2426.253</ele>
        <time>2022-01-30T11:46:17Z</time>
      </trkpt>
      <trkpt lat="42.85059099999993" lon="0.2230689999999991">
        <ele>2427.008</ele>
        <time>2022-01-30T11:46:25Z</time>
      </trkpt>
      <trkpt lat="42.85062699999993" lon="0.2230279999999991">
        <ele>2428.208</ele>
        <time>2022-01-30T11:46:34Z</time>
      </trkpt>
      <trkpt lat="42.85066299999993" lon="0.2229859999999991">
        <ele>2429.634</ele>
        <time>2022-01-30T11:46:51Z</time>
      </trkpt>
      <trkpt lat="42.850698999999935" lon="0.2229479999999991">
        <ele>2431.179</ele>
        <time>2022-01-30T11:47:01Z</time>
      </trkpt>
      <trkpt lat="42.85073099999993" lon="0.2229029999999991">
        <ele>2432.625</ele>
        <time>2022-01-30T11:49:08Z</time>
      </trkpt>
      <trkpt lat="42.85076299999993" lon="0.2228529999999991">
        <ele>2434.373</ele>
        <time>2022-01-30T11:49:19Z</time>
      </trkpt>
      <trkpt lat="42.850783999999926" lon="0.2227959999999991">
        <ele>2435.855</ele>
        <time>2022-01-30T11:49:28Z</time>
      </trkpt>
      <trkpt lat="42.850809999999925" lon="0.2227419999999991">
        <ele>2437.542</ele>
        <time>2022-01-30T11:49:45Z</time>
      </trkpt>
      <trkpt lat="42.85080499999992" lon="0.2226759999999991">
        <ele>2438.086</ele>
        <time>2022-01-30T11:50:13Z</time>
      </trkpt>
      <trkpt lat="42.85082599999992" lon="0.2226209999999991">
        <ele>2439.446</ele>
        <time>2022-01-30T11:50:21Z</time>
      </trkpt>
      <trkpt lat="42.85083799999992" lon="0.2225569999999991">
        <ele>2440.598</ele>
        <time>2022-01-30T11:50:30Z</time>
      </trkpt>
      <trkpt lat="42.85083999999992" lon="0.22248899999999908">
        <ele>2441.315</ele>
        <time>2022-01-30T11:50:40Z</time>
      </trkpt>
      <trkpt lat="42.85082999999992" lon="0.22242799999999907">
        <ele>2441.726</ele>
        <time>2022-01-30T11:50:48Z</time>
      </trkpt>
      <trkpt lat="42.850824999999915" lon="0.22236299999999906">
        <ele>2442.208</ele>
        <time>2022-01-30T11:50:56Z</time>
      </trkpt>
      <trkpt lat="42.85083799999992" lon="0.22229799999999905">
        <ele>2443.368</ele>
        <time>2022-01-30T11:51:04Z</time>
      </trkpt>
      <trkpt lat="42.85085499999992" lon="0.22223899999999905">
        <ele>2444.483</ele>
        <time>2022-01-30T11:51:10Z</time>
      </trkpt>
      <trkpt lat="42.850875999999914" lon="0.22218399999999905">
        <ele>2445.629</ele>
        <time>2022-01-30T11:51:17Z</time>
      </trkpt>
      <trkpt lat="42.850897999999916" lon="0.22212499999999905">
        <ele>2446.887</ele>
        <time>2022-01-30T11:51:24Z</time>
      </trkpt>
      <trkpt lat="42.850909999999914" lon="0.22206399999999904">
        <ele>2447.829</ele>
        <time>2022-01-30T11:51:30Z</time>
      </trkpt>
      <trkpt lat="42.850906999999914" lon="0.22199599999999903">
        <ele>2448.336</ele>
        <time>2022-01-30T11:51:38Z</time>
      </trkpt>
      <trkpt lat="42.850925999999916" lon="0.22192699999999901">
        <ele>2449.520</ele>
        <time>2022-01-30T11:51:46Z</time>
      </trkpt>
      <trkpt lat="42.85095899999992" lon="0.22188499999999903">
        <ele>2450.870</ele>
        <time>2022-01-30T11:51:49Z</time>
      </trkpt>
      <trkpt lat="42.85098699999992" lon="0.22182499999999902">
        <ele>2452.267</ele>
        <time>2022-01-30T11:51:53Z</time>
      </trkpt>
      <trkpt lat="42.85099499999992" lon="0.221758999999999">
        <ele>2453.181</ele>
        <time>2022-01-30T11:51:58Z</time>
      </trkpt>
      <trkpt lat="42.85099699999992" lon="0.221696999999999">
        <ele>2453.819</ele>
        <time>2022-01-30T11:52:05Z</time>
      </trkpt>
      <trkpt lat="42.85098799999992" lon="0.221635999999999">
        <ele>2454.108</ele>
        <time>2022-01-30T11:52:13Z</time>
      </trkpt>
      <trkpt lat="42.851014999999926" lon="0.221578999999999">
        <ele>2455.135</ele>
        <time>2022-01-30T11:55:16Z</time>
      </trkpt>
      <trkpt lat="42.851011999999926" lon="0.221514999999999">
        <ele>2455.440</ele>
        <time>2022-01-30T11:55:24Z</time>
      </trkpt>
      <trkpt lat="42.850969999999926" lon="0.22147799999999898">
        <ele>2454.886</ele>
        <time>2022-01-30T11:55:44Z</time>
      </trkpt>
      <trkpt lat="42.85095999999992" lon="0.22141699999999898">
        <ele>2455.144</ele>
        <time>2022-01-30T11:56:16Z</time>
      </trkpt>
      <trkpt lat="42.85095499999992" lon="0.22135599999999897">
        <ele>2455.626</ele>
        <time>2022-01-30T11:56:23Z</time>
      </trkpt>
      <trkpt lat="42.85095699999992" lon="0.22129399999999896">
        <ele>2456.573</ele>
        <time>2022-01-30T11:56:32Z</time>
      </trkpt>
      <trkpt lat="42.85092399999992" lon="0.22124799999999897">
        <ele>2456.747</ele>
        <time>2022-01-30T11:56:45Z</time>
      </trkpt>
      <trkpt lat="42.85088099999992" lon="0.22127099999999897">
        <ele>2455.837</ele>
        <time>2022-01-30T11:56:56Z</time>
      </trkpt>
      <trkpt lat="42.85084699999992" lon="0.22122399999999898">
        <ele>2456.127</ele>
        <time>2022-01-30T11:57:14Z</time>
      </trkpt>
      <trkpt lat="42.85085299999992" lon="0.22116199999999897">
        <ele>2457.368</ele>
        <time>2022-01-30T11:57:22Z</time>
      </trkpt>
      <trkpt lat="42.850871999999924" lon="0.22109999999999896">
        <ele>2458.514</ele>
        <time>2022-01-30T11:58:28Z</time>
      </trkpt>
      <trkpt lat="42.85086399999992" lon="0.22103099999999895">
        <ele>2459.808</ele>
        <time>2022-01-30T11:58:37Z</time>
      </trkpt>
      <trkpt lat="42.85084499999992" lon="0.22097399999999895">
        <ele>2460.621</ele>
        <time>2022-01-30T11:58:46Z</time>
      </trkpt>
      <trkpt lat="42.85086999999992" lon="0.22091899999999895">
        <ele>2462.066</ele>
        <time>2022-01-30T11:59:07Z</time>
      </trkpt>
      <trkpt lat="42.850854999999925" lon="0.22085499999999894">
        <ele>2463.042</ele>
        <time>2022-01-30T11:59:16Z</time>
      </trkpt>
      <trkpt lat="42.85084299999993" lon="0.22079299999999893">
        <ele>2464.170</ele>
        <time>2022-01-30T11:59:26Z</time>
      </trkpt>
      <trkpt lat="42.85083699999993" lon="0.22073099999999893">
        <ele>2465.372</ele>
        <time>2022-01-30T11:59:36Z</time>
      </trkpt>
      <trkpt lat="42.850812999999924" lon="0.22067699999999893">
        <ele>2466.159</ele>
        <time>2022-01-30T11:59:59Z</time>
      </trkpt>
      <trkpt lat="42.85079099999992" lon="0.22062199999999893">
        <ele>2466.923</ele>
        <time>2022-01-30T12:00:09Z</time>
      </trkpt>
      <trkpt lat="42.85077199999992" lon="0.22056399999999893">
        <ele>2467.713</ele>
        <time>2022-01-30T12:00:21Z</time>
      </trkpt>
      <trkpt lat="42.85078299999992" lon="0.22050299999999892">
        <ele>2469.454</ele>
        <time>2022-01-30T12:00:31Z</time>
      </trkpt>
      <trkpt lat="42.850781999999924" lon="0.22043999999999891">
        <ele>2471.056</ele>
        <time>2022-01-30T12:00:47Z</time>
      </trkpt>
      <trkpt lat="42.85078899999992" lon="0.2203729999999989">
        <ele>2472.911</ele>
        <time>2022-01-30T12:00:57Z</time>
      </trkpt>
      <trkpt lat="42.85077399999992" lon="0.2203119999999989">
        <ele>2474.008</ele>
        <time>2022-01-30T12:01:06Z</time>
      </trkpt>
      <trkpt lat="42.850775999999925" lon="0.2202489999999989">
        <ele>2475.784</ele>
        <time>2022-01-30T12:01:15Z</time>
      </trkpt>
      <trkpt lat="42.85075799999993" lon="0.2201909999999989">
        <ele>2476.579</ele>
        <time>2022-01-30T12:01:26Z</time>
      </trkpt>
      <trkpt lat="42.850758999999925" lon="0.22012899999999888">
        <ele>2478.245</ele>
        <time>2022-01-30T12:01:36Z</time>
      </trkpt>
      <trkpt lat="42.85074999999993" lon="0.22006399999999887">
        <ele>2479.543</ele>
        <time>2022-01-30T12:01:47Z</time>
      </trkpt>
      <trkpt lat="42.850724999999926" lon="0.22000699999999887">
        <ele>2479.825</ele>
        <time>2022-01-30T12:01:57Z</time>
      </trkpt>
      <trkpt lat="42.85071499999992" lon="0.21994499999999886">
        <ele>2481.252</ele>
        <time>2022-01-30T12:02:21Z</time>
      </trkpt>
      <trkpt lat="42.85070199999992" lon="0.21988299999999886">
        <ele>2482.486</ele>
        <time>2022-01-30T12:02:30Z</time>
      </trkpt>
      <trkpt lat="42.85068599999992" lon="0.21982499999999885">
        <ele>2483.496</ele>
        <time>2022-01-30T12:02:39Z</time>
      </trkpt>
      <trkpt lat="42.85067199999992" lon="0.21976399999999885">
        <ele>2484.612</ele>
        <time>2022-01-30T12:02:51Z</time>
      </trkpt>
      <trkpt lat="42.850678999999914" lon="0.21969899999999884">
        <ele>2487.032</ele>
        <time>2022-01-30T12:03:00Z</time>
      </trkpt>
      <trkpt lat="42.85066599999991" lon="0.21963699999999883">
        <ele>2488.405</ele>
        <time>2022-01-30T12:03:08Z</time>
      </trkpt>
      <trkpt lat="42.850658999999915" lon="0.21957299999999882">
        <ele>2490.208</ele>
        <time>2022-01-30T12:03:17Z</time>
      </trkpt>
      <trkpt lat="42.85064299999991" lon="0.21951099999999882">
        <ele>2491.570</ele>
        <time>2022-01-30T12:03:29Z</time>
      </trkpt>
      <trkpt lat="42.850630999999915" lon="0.2194509999999988">
        <ele>2492.975</ele>
        <time>2022-01-30T12:03:38Z</time>
      </trkpt>
      <trkpt lat="42.85061199999991" lon="0.2193949999999988">
        <ele>2493.471</ele>
        <time>2022-01-30T12:03:47Z</time>
      </trkpt>
      <trkpt lat="42.850605999999914" lon="0.2193329999999988">
        <ele>2494.899</ele>
        <time>2022-01-30T12:03:56Z</time>
      </trkpt>
      <trkpt lat="42.85057799999991" lon="0.2192799999999988">
        <ele>2494.971</ele>
        <time>2022-01-30T12:04:10Z</time>
      </trkpt>
      <trkpt lat="42.85059299999991" lon="0.2192129999999988">
        <ele>2497.598</ele>
        <time>2022-01-30T12:04:22Z</time>
      </trkpt>
      <trkpt lat="42.85054799999991" lon="0.2191799999999988">
        <ele>2496.352</ele>
        <time>2022-01-30T12:04:31Z</time>
      </trkpt>
      <trkpt lat="42.85059299999991" lon="0.21916799999999878">
        <ele>2498.752</ele>
        <time>2022-01-30T12:06:32Z</time>
      </trkpt>
      <trkpt lat="42.85063899999991" lon="0.21919999999999878">
        <ele>2500.033</ele>
        <time>2022-01-30T12:08:11Z</time>
      </trkpt>
      <trkpt lat="42.85067799999991" lon="0.21924899999999878">
        <ele>2500.623</ele>
        <time>2022-01-30T12:08:23Z</time>
      </trkpt>
      <trkpt lat="42.85072099999991" lon="0.21927399999999878">
        <ele>2502.115</ele>
        <time>2022-01-30T12:08:39Z</time>
      </trkpt>
      <trkpt lat="42.85076499999991" lon="0.21928999999999876">
        <ele>2503.908</ele>
        <time>2022-01-30T12:10:13Z</time>
      </trkpt>
      <trkpt lat="42.85080599999991" lon="0.21925699999999876">
        <ele>2506.762</ele>
        <time>2022-01-30T12:10:24Z</time>
      </trkpt>
      <trkpt lat="42.850849999999916" lon="0.21927999999999875">
        <ele>2508.397</ele>
        <time>2022-01-30T12:10:33Z</time>
      </trkpt>
      <trkpt lat="42.850894999999916" lon="0.21926699999999874">
        <ele>2510.793</ele>
        <time>2022-01-30T12:10:46Z</time>
      </trkpt>
      <trkpt lat="42.850847999999914" lon="0.21924199999999874">
        <ele>2509.151</ele>
        <time>2022-01-30T12:11:40Z</time>
      </trkpt>
      <trkpt lat="42.850799999999914" lon="0.21922199999999875">
        <ele>2507.283</ele>
        <time>2022-01-30T12:11:48Z</time>
      </trkpt>
      <trkpt lat="42.85075399999992" lon="0.21922399999999875">
        <ele>2504.960</ele>
        <time>2022-01-30T12:11:54Z</time>
      </trkpt>
      <trkpt lat="42.850700999999916" lon="0.21922799999999876">
        <ele>2502.334</ele>
        <time>2022-01-30T12:11:59Z</time>
      </trkpt>
      <trkpt lat="42.85065399999991" lon="0.21920099999999876">
        <ele>2500.724</ele>
        <time>2022-01-30T12:12:04Z</time>
      </trkpt>
      <trkpt lat="42.85059899999991" lon="0.21919199999999875">
        <ele>2498.342</ele>
        <time>2022-01-30T12:12:10Z</time>
      </trkpt>
      <trkpt lat="42.85062699999991" lon="0.21912999999999874">
        <ele>2500.022</ele>
        <time>2022-01-30T12:15:03Z</time>
      </trkpt>
      <trkpt lat="42.85065399999991" lon="0.21917999999999874">
        <ele>2501.314</ele>
        <time>2022-01-30T12:17:37Z</time>
      </trkpt>
      <trkpt lat="42.85069699999991" lon="0.21920699999999874">
        <ele>2502.608</ele>
        <time>2022-01-30T12:17:44Z</time>
      </trkpt>
      <trkpt lat="42.85073899999991" lon="0.21923499999999874">
        <ele>2503.953</ele>
        <time>2022-01-30T12:17:51Z</time>
      </trkpt>
      <trkpt lat="42.850779999999915" lon="0.21927299999999875">
        <ele>2505.148</ele>
        <time>2022-01-30T12:18:00Z</time>
      </trkpt>
      <trkpt lat="42.850813999999914" lon="0.21931799999999874">
        <ele>2505.834</ele>
        <time>2022-01-30T12:18:09Z</time>
      </trkpt>
      <trkpt lat="42.85086099999992" lon="0.21932399999999874">
        <ele>2507.952</ele>
        <time>2022-01-30T12:18:22Z</time>
      </trkpt>
      <trkpt lat="42.85089999999992" lon="0.21928399999999873">
        <ele>2510.674</ele>
        <time>2022-01-30T12:18:33Z</time>
      </trkpt>
      <trkpt lat="42.85093099999992" lon="0.21923699999999874">
        <ele>2513.181</ele>
        <time>2022-01-30T12:18:41Z</time>
      </trkpt>
      <trkpt lat="42.85096399999992" lon="0.21919599999999873">
        <ele>2515.585</ele>
        <time>2022-01-30T12:18:51Z</time>
      </trkpt>
      <trkpt lat="42.85098299999992" lon="0.21913399999999872">
        <ele>2516.465</ele>
        <time>2022-01-30T12:19:03Z</time>
      </trkpt>
      <trkpt lat="42.85100599999992" lon="0.21918999999999872">
        <ele>2517.652</ele>
        <time>2022-01-30T12:19:18Z</time>
      </trkpt>
      <trkpt lat="42.85102099999992" lon="0.21925299999999873">
        <ele>2516.953</ele>
        <time>2022-01-30T12:19:26Z</time>
      </trkpt>
      <trkpt lat="42.85106799999992" lon="0.21926299999999874">
        <ele>2518.908</ele>
        <time>2022-01-30T12:19:48Z</time>
      </trkpt>
      <trkpt lat="42.85110199999992" lon="0.21921499999999874">
        <ele>2521.508</ele>
        <time>2022-01-30T12:20:28Z</time>
      </trkpt>
      <trkpt lat="42.85114099999992" lon="0.21925299999999875">
        <ele>2522.744</ele>
        <time>2022-01-30T12:24:03Z</time>
      </trkpt>
      <trkpt lat="42.85118499999992" lon="0.21921999999999875">
        <ele>2525.789</ele>
        <time>2022-01-30T12:24:55Z</time>
      </trkpt>
      <trkpt lat="42.85122799999992" lon="0.21924799999999875">
        <ele>2527.395</ele>
        <time>2022-01-30T12:25:16Z</time>
      </trkpt>
      <trkpt lat="42.85127399999992" lon="0.21925699999999876">
        <ele>2529.563</ele>
        <time>2022-01-30T12:25:49Z</time>
      </trkpt>
      <trkpt lat="42.851305999999916" lon="0.21921299999999877">
        <ele>2532.325</ele>
        <time>2022-01-30T12:25:58Z</time>
      </trkpt>
      <trkpt lat="42.851353999999915" lon="0.21921899999999878">
        <ele>2534.732</ele>
        <time>2022-01-30T12:26:17Z</time>
      </trkpt>
      <trkpt lat="42.85138999999992" lon="0.2192589999999988">
        <ele>2535.446</ele>
        <time>2022-01-30T12:26:33Z</time>
      </trkpt>
      <trkpt lat="42.851437999999916" lon="0.2192589999999988">
        <ele>2537.916</ele>
        <time>2022-01-30T12:26:48Z</time>
      </trkpt>
      <trkpt lat="42.85147699999992" lon="0.21922899999999879">
        <ele>2540.858</ele>
        <time>2022-01-30T12:27:25Z</time>
      </trkpt>
      <trkpt lat="42.85151899999992" lon="0.2192039999999988">
        <ele>2543.852</ele>
        <time>2022-01-30T12:27:45Z</time>
      </trkpt>
      <trkpt lat="42.85154899999992" lon="0.21925299999999878">
        <ele>2543.817</ele>
        <time>2022-01-30T12:28:25Z</time>
      </trkpt>
      <trkpt lat="42.85157899999992" lon="0.2192019999999988">
        <ele>2547.108</ele>
        <time>2022-01-30T12:29:28Z</time>
      </trkpt>
      <trkpt lat="42.851625999999925" lon="0.2192019999999988">
        <ele>2549.634</ele>
        <time>2022-01-30T12:29:50Z</time>
      </trkpt>
      <trkpt lat="42.85166699999993" lon="0.2192379999999988">
        <ele>2550.429</ele>
        <time>2022-01-30T12:30:07Z</time>
      </trkpt>
      <trkpt lat="42.85167999999993" lon="0.2191779999999988">
        <ele>2553.235</ele>
        <time>2022-01-30T12:30:41Z</time>
      </trkpt>
      <trkpt lat="42.85172599999993" lon="0.2191859999999988">
        <ele>2555.163</ele>
        <time>2022-01-30T12:31:01Z</time>
      </trkpt>
      <trkpt lat="42.85177299999993" lon="0.2192129999999988">
        <ele>2556.225</ele>
        <time>2022-01-30T12:31:19Z</time>
      </trkpt>
      <trkpt lat="42.85179799999993" lon="0.2192669999999988">
        <ele>2555.422</ele>
        <time>2022-01-30T12:31:53Z</time>
      </trkpt>
      <trkpt lat="42.85184299999993" lon="0.21925599999999879">
        <ele>2557.876</ele>
        <time>2022-01-30T12:32:21Z</time>
      </trkpt>
      <trkpt lat="42.85187399999993" lon="0.2192059999999988">
        <ele>2561.266</ele>
        <time>2022-01-30T12:34:47Z</time>
      </trkpt>
      <trkpt lat="42.851911999999935" lon="0.2192389999999988">
        <ele>2561.652</ele>
        <time>2022-01-30T12:34:57Z</time>
      </trkpt>
      <trkpt lat="42.851959999999934" lon="0.2192139999999988">
        <ele>2564.853</ele>
        <time>2022-01-30T12:35:06Z</time>
      </trkpt>
      <trkpt lat="42.852004999999934" lon="0.2192159999999988">
        <ele>2566.908</ele>
        <time>2022-01-30T12:35:30Z</time>
      </trkpt>
      <trkpt lat="42.852049999999934" lon="0.2192089999999988">
        <ele>2569.208</ele>
        <time>2022-01-30T12:35:55Z</time>
      </trkpt>
      <trkpt lat="42.85209599999993" lon="0.2191809999999988">
        <ele>2572.134</ele>
        <time>2022-01-30T12:36:24Z</time>
      </trkpt>
      <trkpt lat="42.85214099999993" lon="0.21919899999999878">
        <ele>2573.649</ele>
        <time>2022-01-30T12:36:49Z</time>
      </trkpt>
      <trkpt lat="42.85218599999993" lon="0.2192119999999988">
        <ele>2575.355</ele>
        <time>2022-01-30T12:39:55Z</time>
      </trkpt>
      <trkpt lat="42.85219699999993" lon="0.2192719999999988">
        <ele>2574.563</ele>
        <time>2022-01-30T12:40:05Z</time>
      </trkpt>
      <trkpt lat="42.85224299999993" lon="0.2192549999999988">
        <ele>2576.825</ele>
        <time>2022-01-30T12:40:16Z</time>
      </trkpt>
      <trkpt lat="42.85228799999993" lon="0.2192699999999988">
        <ele>2578.052</ele>
        <time>2022-01-30T12:40:27Z</time>
      </trkpt>
      <trkpt lat="42.85232799999993" lon="0.2192969999999988">
        <ele>2579.176</ele>
        <time>2022-01-30T12:40:40Z</time>
      </trkpt>
      <trkpt lat="42.85236599999993" lon="0.2193319999999988">
        <ele>2580.346</ele>
        <time>2022-01-30T12:40:52Z</time>
      </trkpt>
      <trkpt lat="42.852412999999935" lon="0.21934399999999882">
        <ele>2582.243</ele>
        <time>2022-01-30T12:41:06Z</time>
      </trkpt>
      <trkpt lat="42.852457999999935" lon="0.2193589999999988">
        <ele>2584.264</ele>
        <time>2022-01-30T12:41:19Z</time>
      </trkpt>
      <trkpt lat="42.852508999999934" lon="0.2193489999999988">
        <ele>2586.210</ele>
        <time>2022-01-30T12:41:33Z</time>
      </trkpt>
      <trkpt lat="42.852553999999934" lon="0.21936499999999878">
        <ele>2587.808</ele>
        <time>2022-01-30T12:41:46Z</time>
      </trkpt>
      <trkpt lat="42.852592999999935" lon="0.2193999999999988">
        <ele>2589.663</ele>
        <time>2022-01-30T12:42:07Z</time>
      </trkpt>
      <trkpt lat="42.85263999999994" lon="0.21939399999999878">
        <ele>2591.078</ele>
        <time>2022-01-30T12:42:26Z</time>
      </trkpt>
      <trkpt lat="42.85268499999994" lon="0.21941399999999878">
        <ele>2593.064</ele>
        <time>2022-01-30T12:42:43Z</time>
      </trkpt>
      <trkpt lat="42.852733999999934" lon="0.21942899999999876">
        <ele>2595.042</ele>
        <time>2022-01-30T12:43:15Z</time>
      </trkpt>
      <trkpt lat="42.85278299999993" lon="0.21942999999999876">
        <ele>2596.754</ele>
        <time>2022-01-30T12:43:41Z</time>
      </trkpt>
      <trkpt lat="42.85282599999993" lon="0.21945699999999876">
        <ele>2598.041</ele>
        <time>2022-01-30T12:43:55Z</time>
      </trkpt>
      <trkpt lat="42.85286899999993" lon="0.21948099999999876">
        <ele>2598.945</ele>
        <time>2022-01-30T12:44:16Z</time>
      </trkpt>
      <trkpt lat="42.85288499999993" lon="0.21954099999999876">
        <ele>2598.895</ele>
        <time>2022-01-30T12:44:27Z</time>
      </trkpt>
      <trkpt lat="42.85292499999993" lon="0.21957099999999877">
        <ele>2600.272</ele>
        <time>2022-01-30T12:45:02Z</time>
      </trkpt>
      <trkpt lat="42.852970999999926" lon="0.21958399999999878">
        <ele>2602.013</ele>
        <time>2022-01-30T12:45:14Z</time>
      </trkpt>
      <trkpt lat="42.85301499999993" lon="0.21960499999999877">
        <ele>2604.014</ele>
        <time>2022-01-30T12:45:29Z</time>
      </trkpt>
      <trkpt lat="42.85306299999993" lon="0.21959899999999877">
        <ele>2605.908</ele>
        <time>2022-01-30T12:45:39Z</time>
      </trkpt>
      <trkpt lat="42.85308599999993" lon="0.21965599999999877">
        <ele>2607.486</ele>
        <time>2022-01-30T12:45:51Z</time>
      </trkpt>
      <trkpt lat="42.85312099999992" lon="0.21969699999999878">
        <ele>2609.441</ele>
        <time>2022-01-30T12:46:11Z</time>
      </trkpt>
      <trkpt lat="42.853159999999924" lon="0.2197299999999988">
        <ele>2611.487</ele>
        <time>2022-01-30T12:46:22Z</time>
      </trkpt>
      <trkpt lat="42.853190999999924" lon="0.21977999999999878">
        <ele>2612.145</ele>
        <time>2022-01-30T12:46:36Z</time>
      </trkpt>
      <trkpt lat="42.853232999999925" lon="0.21980899999999878">
        <ele>2613.797</ele>
        <time>2022-01-30T12:46:46Z</time>
      </trkpt>
      <trkpt lat="42.85327599999992" lon="0.2198409999999988">
        <ele>2615.454</ele>
        <time>2022-01-30T12:46:55Z</time>
      </trkpt>
      <trkpt lat="42.853319999999925" lon="0.2198699999999988">
        <ele>2617.338</ele>
        <time>2022-01-30T12:47:08Z</time>
      </trkpt>
      <trkpt lat="42.85336899999992" lon="0.2198719999999988">
        <ele>2618.258</ele>
        <time>2022-01-30T12:47:24Z</time>
      </trkpt>
      <trkpt lat="42.85340899999992" lon="0.2199039999999988">
        <ele>2618.247</ele>
        <time>2022-01-30T12:47:38Z</time>
      </trkpt>
      <trkpt lat="42.85345499999992" lon="0.2198999999999988">
        <ele>2618.629</ele>
        <time>2022-01-30T12:47:49Z</time>
      </trkpt>
      <trkpt lat="42.85349999999992" lon="0.2198749999999988">
        <ele>2619.121</ele>
        <time>2022-01-30T12:47:58Z</time>
      </trkpt>
      <trkpt lat="42.853545999999916" lon="0.2198739999999988">
        <ele>2619.408</ele>
        <time>2022-01-30T12:48:07Z</time>
      </trkpt>
      <trkpt lat="42.85358999999992" lon="0.2199009999999988">
        <ele>2619.653</ele>
        <time>2022-01-30T12:48:32Z</time>
      </trkpt>
      <trkpt lat="42.85363999999992" lon="0.2198839999999988">
        <ele>2619.028</ele>
        <time>2022-01-30T12:48:37Z</time>
      </trkpt>
      <trkpt lat="42.85368399999992" lon="0.2198599999999988">
        <ele>2618.074</ele>
        <time>2022-01-30T12:48:43Z</time>
      </trkpt>
      <trkpt lat="42.85372999999992" lon="0.2198359999999988">
        <ele>2617.222</ele>
        <time>2022-01-30T12:48:50Z</time>
      </trkpt>
      <trkpt lat="42.85377699999992" lon="0.21984099999999882">
        <ele>2616.084</ele>
        <time>2022-01-30T12:48:56Z</time>
      </trkpt>
      <trkpt lat="42.85382299999992" lon="0.21981599999999882">
        <ele>2615.551</ele>
        <time>2022-01-30T12:49:01Z</time>
      </trkpt>
      <trkpt lat="42.85387499999992" lon="0.21982499999999883">
        <ele>2614.095</ele>
        <time>2022-01-30T12:49:06Z</time>
      </trkpt>
      <trkpt lat="42.85384099999992" lon="0.21977699999999883">
        <ele>2616.265</ele>
        <time>2022-01-30T12:50:21Z</time>
      </trkpt>
      <trkpt lat="42.85379599999992" lon="0.21979399999999882">
        <ele>2616.638</ele>
        <time>2022-01-30T12:50:30Z</time>
      </trkpt>
      <trkpt lat="42.85375899999992" lon="0.21984199999999882">
        <ele>2616.470</ele>
        <time>2022-01-30T12:50:36Z</time>
      </trkpt>
      <trkpt lat="42.85370799999992" lon="0.2198569999999988">
        <ele>2617.417</ele>
        <time>2022-01-30T12:50:42Z</time>
      </trkpt>
      <trkpt lat="42.85366099999992" lon="0.2198619999999988">
        <ele>2618.608</ele>
        <time>2022-01-30T12:50:47Z</time>
      </trkpt>
      <trkpt lat="42.85361499999992" lon="0.2198759999999988">
        <ele>2619.872</ele>
        <time>2022-01-30T12:50:52Z</time>
      </trkpt>
      <trkpt lat="42.85356699999992" lon="0.2198989999999988">
        <ele>2619.477</ele>
        <time>2022-01-30T12:50:57Z</time>
      </trkpt>
      <trkpt lat="42.85351799999992" lon="0.2199089999999988">
        <ele>2619.033</ele>
        <time>2022-01-30T12:52:45Z</time>
      </trkpt>
      <trkpt lat="42.853474999999925" lon="0.2199269999999988">
        <ele>2618.551</ele>
        <time>2022-01-30T13:00:35Z</time>
      </trkpt>
      <trkpt lat="42.853488999999925" lon="0.21986599999999878">
        <ele>2619.153</ele>
        <time>2022-01-30T13:01:05Z</time>
      </trkpt>
      <trkpt lat="42.85344599999993" lon="0.2198429999999988">
        <ele>2618.980</ele>
        <time>2022-01-30T13:01:46Z</time>
      </trkpt>
      <trkpt lat="42.853482999999926" lon="0.2198839999999988">
        <ele>2618.974</ele>
        <time>2022-01-30T13:02:23Z</time>
      </trkpt>
      <trkpt lat="42.85352399999993" lon="0.2199179999999988">
        <ele>2619.044</ele>
        <time>2022-01-30T13:02:54Z</time>
      </trkpt>
      <trkpt lat="42.85348699999993" lon="0.2199689999999988">
        <ele>2618.326</ele>
        <time>2022-01-30T13:03:45Z</time>
      </trkpt>
      <trkpt lat="42.85344399999993" lon="0.2200039999999988">
        <ele>2617.747</ele>
        <time>2022-01-30T13:03:51Z</time>
      </trkpt>
      <trkpt lat="42.85339999999993" lon="0.2200199999999988">
        <ele>2617.011</ele>
        <time>2022-01-30T13:03:59Z</time>
      </trkpt>
      <trkpt lat="42.85338599999993" lon="0.2199619999999988">
        <ele>2617.708</ele>
        <time>2022-01-30T13:04:17Z</time>
      </trkpt>
      <trkpt lat="42.85338499999993" lon="0.2198999999999988">
        <ele>2618.131</ele>
        <time>2022-01-30T13:04:46Z</time>
      </trkpt>
      <trkpt lat="42.85342799999993" lon="0.2198769999999988">
        <ele>2618.676</ele>
        <time>2022-01-30T13:04:59Z</time>
      </trkpt>
      <trkpt lat="42.85346399999993" lon="0.21983699999999878">
        <ele>2619.162</ele>
        <time>2022-01-30T13:05:10Z</time>
      </trkpt>
      <trkpt lat="42.85351199999993" lon="0.2198159999999988">
        <ele>2619.610</ele>
        <time>2022-01-30T13:06:03Z</time>
      </trkpt>
      <trkpt lat="42.85346899999993" lon="0.21983799999999878">
        <ele>2619.182</ele>
        <time>2022-01-30T13:07:05Z</time>
      </trkpt>
      <trkpt lat="42.853478999999936" lon="0.21990999999999877">
        <ele>2618.759</ele>
        <time>2022-01-30T13:08:40Z</time>
      </trkpt>
      <trkpt lat="42.85349999999993" lon="0.21985499999999877">
        <ele>2619.263</ele>
        <time>2022-01-30T13:10:01Z</time>
      </trkpt>
      <trkpt lat="42.85351799999993" lon="0.21991499999999878">
        <ele>2618.953</ele>
        <time>2022-01-30T13:12:44Z</time>
      </trkpt>
      <trkpt lat="42.85347399999993" lon="0.2198999999999988">
        <ele>2618.774</ele>
        <time>2022-01-30T13:14:01Z</time>
      </trkpt>
      <trkpt lat="42.85347599999993" lon="0.2199619999999988">
        <ele>2618.356</ele>
        <time>2022-01-30T13:14:55Z</time>
      </trkpt>
      <trkpt lat="42.85351299999993" lon="0.2199269999999988">
        <ele>2618.821</ele>
        <time>2022-01-30T13:16:07Z</time>
      </trkpt>
      <trkpt lat="42.85347899999993" lon="0.21988599999999878">
        <ele>2618.908</ele>
        <time>2022-01-30T13:18:53Z</time>
      </trkpt>
      <trkpt lat="42.85347599999993" lon="0.21982499999999877">
        <ele>2619.366</ele>
        <time>2022-01-30T13:24:27Z</time>
      </trkpt>
      <trkpt lat="42.85347199999993" lon="0.21988899999999878">
        <ele>2618.821</ele>
        <time>2022-01-30T13:25:50Z</time>
      </trkpt>
      <trkpt lat="42.853495999999936" lon="0.21994399999999878">
        <ele>2618.637</ele>
        <time>2022-01-30T13:25:57Z</time>
      </trkpt>
      <trkpt lat="42.853538999999934" lon="0.21991699999999878">
        <ele>2619.125</ele>
        <time>2022-01-30T13:26:17Z</time>
      </trkpt>
      <trkpt lat="42.85349499999993" lon="0.21995999999999877">
        <ele>2618.567</ele>
        <time>2022-01-30T13:26:37Z</time>
      </trkpt>
      <trkpt lat="42.85345299999993" lon="0.21999899999999878">
        <ele>2617.934</ele>
        <time>2022-01-30T13:26:42Z</time>
      </trkpt>
      <trkpt lat="42.85340799999993" lon="0.22001899999999877">
        <ele>2617.138</ele>
        <time>2022-01-30T13:26:55Z</time>
      </trkpt>
      <trkpt lat="42.85344699999993" lon="0.21998699999999877">
        <ele>2617.968</ele>
        <time>2022-01-30T13:28:15Z</time>
      </trkpt>
      <trkpt lat="42.85348199999993" lon="0.21992999999999877">
        <ele>2618.625</ele>
        <time>2022-01-30T13:28:20Z</time>
      </trkpt>
      <trkpt lat="42.85348799999993" lon="0.21986299999999875">
        <ele>2619.126</ele>
        <time>2022-01-30T13:28:27Z</time>
      </trkpt>
      <trkpt lat="42.85345399999993" lon="0.21980999999999876">
        <ele>2619.208</ele>
        <time>2022-01-30T13:28:32Z</time>
      </trkpt>
      <trkpt lat="42.85345099999993" lon="0.21987999999999874">
        <ele>2618.708</ele>
        <time>2022-01-30T13:30:43Z</time>
      </trkpt>
      <trkpt lat="42.85348399999993" lon="0.21993699999999874">
        <ele>2618.551</ele>
        <time>2022-01-30T13:30:46Z</time>
      </trkpt>
      <trkpt lat="42.85353199999993" lon="0.21993299999999874">
        <ele>2618.986</ele>
        <time>2022-01-30T13:30:48Z</time>
      </trkpt>
      <trkpt lat="42.85350999999993" lon="0.21987499999999874">
        <ele>2619.292</ele>
        <time>2022-01-30T13:30:56Z</time>
      </trkpt>
      <trkpt lat="42.85348499999993" lon="0.21981199999999873">
        <ele>2619.490</ele>
        <time>2022-01-30T13:31:50Z</time>
      </trkpt>
      <trkpt lat="42.85348099999993" lon="0.21987699999999874">
        <ele>2618.922</ele>
        <time>2022-01-30T13:34:33Z</time>
      </trkpt>
      <trkpt lat="42.853521999999934" lon="0.21990599999999874">
        <ele>2619.069</ele>
        <time>2022-01-30T13:34:47Z</time>
      </trkpt>
      <trkpt lat="42.85348099999993" lon="0.21986699999999873">
        <ele>2619.043</ele>
        <time>2022-01-30T13:35:06Z</time>
      </trkpt>
      <trkpt lat="42.85344199999993" lon="0.21991299999999872">
        <ele>2618.493</ele>
        <time>2022-01-30T13:41:07Z</time>
      </trkpt>
      <trkpt lat="42.85341899999993" lon="0.21997299999999873">
        <ele>2617.899</ele>
        <time>2022-01-30T13:41:41Z</time>
      </trkpt>
      <trkpt lat="42.85337399999993" lon="0.22000199999999873">
        <ele>2617.207</ele>
        <time>2022-01-30T13:43:48Z</time>
      </trkpt>
      <trkpt lat="42.85332599999993" lon="0.21999899999999872">
        <ele>2616.627</ele>
        <time>2022-01-30T13:43:54Z</time>
      </trkpt>
      <trkpt lat="42.85328199999993" lon="0.21996999999999872">
        <ele>2614.508</ele>
        <time>2022-01-30T13:44:10Z</time>
      </trkpt>
      <trkpt lat="42.85323699999993" lon="0.21995199999999873">
        <ele>2612.338</ele>
        <time>2022-01-30T13:44:22Z</time>
      </trkpt>
      <trkpt lat="42.85326199999993" lon="0.21989799999999873">
        <ele>2614.223</ele>
        <time>2022-01-30T13:45:05Z</time>
      </trkpt>
      <trkpt lat="42.85321799999993" lon="0.21988099999999874">
        <ele>2612.229</ele>
        <time>2022-01-30T13:45:17Z</time>
      </trkpt>
      <trkpt lat="42.85317199999993" lon="0.21985399999999874">
        <ele>2610.347</ele>
        <time>2022-01-30T13:45:25Z</time>
      </trkpt>
      <trkpt lat="42.85312699999993" lon="0.21983699999999876">
        <ele>2608.389</ele>
        <time>2022-01-30T13:45:35Z</time>
      </trkpt>
      <trkpt lat="42.85308599999993" lon="0.21980099999999875">
        <ele>2607.076</ele>
        <time>2022-01-30T13:45:46Z</time>
      </trkpt>
      <trkpt lat="42.85304499999992" lon="0.21976599999999874">
        <ele>2605.690</ele>
        <time>2022-01-30T13:46:20Z</time>
      </trkpt>
      <trkpt lat="42.85300099999992" lon="0.21974099999999874">
        <ele>2603.570</ele>
        <time>2022-01-30T13:46:28Z</time>
      </trkpt>
      <trkpt lat="42.85296299999992" lon="0.21970399999999873">
        <ele>2601.797</ele>
        <time>2022-01-30T13:46:33Z</time>
      </trkpt>
      <trkpt lat="42.85291799999992" lon="0.21969699999999873">
        <ele>2599.223</ele>
        <time>2022-01-30T13:46:39Z</time>
      </trkpt>
      <trkpt lat="42.85286699999992" lon="0.21968499999999871">
        <ele>2596.625</ele>
        <time>2022-01-30T13:46:46Z</time>
      </trkpt>
      <trkpt lat="42.85282499999992" lon="0.2196559999999987">
        <ele>2594.808</ele>
        <time>2022-01-30T13:46:52Z</time>
      </trkpt>
      <trkpt lat="42.852774999999916" lon="0.21963699999999872">
        <ele>2592.738</ele>
        <time>2022-01-30T13:46:59Z</time>
      </trkpt>
      <trkpt lat="42.85273699999991" lon="0.21960199999999871">
        <ele>2591.743</ele>
        <time>2022-01-30T13:47:49Z</time>
      </trkpt>
      <trkpt lat="42.852693999999914" lon="0.2195679999999987">
        <ele>2590.699</ele>
        <time>2022-01-30T13:48:17Z</time>
      </trkpt>
      <trkpt lat="42.852656999999915" lon="0.21952099999999872">
        <ele>2590.467</ele>
        <time>2022-01-30T13:48:31Z</time>
      </trkpt>
      <trkpt lat="42.852653999999916" lon="0.2193749999999987">
        <ele>2591.179</ele>
        <time>2022-01-30T13:48:35Z</time>
      </trkpt>
      <trkpt lat="42.852645999999915" lon="0.21944399999999872">
        <ele>2592.226</ele>
        <time>2022-01-30T13:48:45Z</time>
      </trkpt>
      <trkpt lat="42.85259999999992" lon="0.21942399999999873">
        <ele>2590.280</ele>
        <time>2022-01-30T13:49:59Z</time>
      </trkpt>
      <trkpt lat="42.85256299999992" lon="0.21936299999999873">
        <ele>2588.150</ele>
        <time>2022-01-30T13:50:04Z</time>
      </trkpt>
      <trkpt lat="42.85246999999992" lon="0.21927799999999872">
        <ele>2584.217</ele>
        <time>2022-01-30T13:50:06Z</time>
      </trkpt>
      <trkpt lat="42.85237499999992" lon="0.21925599999999873">
        <ele>2581.087</ele>
        <time>2022-01-30T13:50:07Z</time>
      </trkpt>
      <trkpt lat="42.85222299999992" lon="0.21924499999999872">
        <ele>2576.315</ele>
        <time>2022-01-30T13:50:09Z</time>
      </trkpt>
      <trkpt lat="42.85216099999992" lon="0.2192329999999987">
        <ele>2573.708</ele>
        <time>2022-01-30T13:50:10Z</time>
      </trkpt>
      <trkpt lat="42.85206199999992" lon="0.2191989999999987">
        <ele>2570.070</ele>
        <time>2022-01-30T13:50:12Z</time>
      </trkpt>
      <trkpt lat="42.851972999999916" lon="0.2191619999999987">
        <ele>2567.185</ele>
        <time>2022-01-30T13:50:14Z</time>
      </trkpt>
      <trkpt lat="42.85190699999992" lon="0.21914999999999868">
        <ele>2563.831</ele>
        <time>2022-01-30T13:50:16Z</time>
      </trkpt>
      <trkpt lat="42.85194499999992" lon="0.21919699999999867">
        <ele>2564.849</ele>
        <time>2022-01-30T13:50:18Z</time>
      </trkpt>
      <trkpt lat="42.851991999999925" lon="0.21922499999999867">
        <ele>2565.931</ele>
        <time>2022-01-30T13:50:23Z</time>
      </trkpt>
      <trkpt lat="42.85203799999992" lon="0.21924899999999867">
        <ele>2567.358</ele>
        <time>2022-01-30T13:50:30Z</time>
      </trkpt>
      <trkpt lat="42.852081999999925" lon="0.21927599999999867">
        <ele>2568.632</ele>
        <time>2022-01-30T13:50:42Z</time>
      </trkpt>
      <trkpt lat="42.852126999999925" lon="0.21926499999999866">
        <ele>2571.212</ele>
        <time>2022-01-30T13:51:04Z</time>
      </trkpt>
      <trkpt lat="42.85208299999992" lon="0.21923199999999865">
        <ele>2570.022</ele>
        <time>2022-01-30T13:51:19Z</time>
      </trkpt>
      <trkpt lat="42.852042999999924" lon="0.21927099999999866">
        <ele>2566.862</ele>
        <time>2022-01-30T13:51:27Z</time>
      </trkpt>
      <trkpt lat="42.85199599999992" lon="0.21927899999999867">
        <ele>2564.208</ele>
        <time>2022-01-30T13:52:33Z</time>
      </trkpt>
      <trkpt lat="42.85194799999992" lon="0.21926899999999866">
        <ele>2562.108</ele>
        <time>2022-01-30T13:52:42Z</time>
      </trkpt>
      <trkpt lat="42.85190599999992" lon="0.21929699999999866">
        <ele>2559.131</ele>
        <time>2022-01-30T13:52:53Z</time>
      </trkpt>
      <trkpt lat="42.851856999999924" lon="0.21928999999999865">
        <ele>2557.296</ele>
        <time>2022-01-30T13:53:04Z</time>
      </trkpt>
      <trkpt lat="42.85182099999992" lon="0.21925199999999864">
        <ele>2557.062</ele>
        <time>2022-01-30T13:53:29Z</time>
      </trkpt>
      <trkpt lat="42.85177099999992" lon="0.21924799999999864">
        <ele>2554.840</ele>
        <time>2022-01-30T13:53:35Z</time>
      </trkpt>
      <trkpt lat="42.851724999999924" lon="0.21921799999999864">
        <ele>2553.842</ele>
        <time>2022-01-30T13:53:58Z</time>
      </trkpt>
      <trkpt lat="42.851678999999926" lon="0.21920099999999865">
        <ele>2552.349</ele>
        <time>2022-01-30T13:54:03Z</time>
      </trkpt>
      <trkpt lat="42.85163499999992" lon="0.21921499999999863">
        <ele>2549.643</ele>
        <time>2022-01-30T13:54:12Z</time>
      </trkpt>
      <trkpt lat="42.851586999999924" lon="0.21922999999999862">
        <ele>2546.553</ele>
        <time>2022-01-30T13:54:22Z</time>
      </trkpt>
      <trkpt lat="42.851541999999924" lon="0.21922399999999861">
        <ele>2544.495</ele>
        <time>2022-01-30T13:54:30Z</time>
      </trkpt>
      <trkpt lat="42.851493999999924" lon="0.21922399999999861">
        <ele>2541.949</ele>
        <time>2022-01-30T13:54:39Z</time>
      </trkpt>
      <trkpt lat="42.85144999999992" lon="0.21925399999999862">
        <ele>2538.623</ele>
        <time>2022-01-30T13:54:48Z</time>
      </trkpt>
      <trkpt lat="42.85140599999992" lon="0.21926399999999863">
        <ele>2536.108</ele>
        <time>2022-01-30T13:54:55Z</time>
      </trkpt>
      <trkpt lat="42.85135599999992" lon="0.21926899999999863">
        <ele>2533.488</ele>
        <time>2022-01-30T13:55:02Z</time>
      </trkpt>
      <trkpt lat="42.85131099999992" lon="0.21926599999999863">
        <ele>2531.173</ele>
        <time>2022-01-30T13:55:55Z</time>
      </trkpt>
      <trkpt lat="42.85126299999992" lon="0.21926999999999863">
        <ele>2528.639</ele>
        <time>2022-01-30T13:56:02Z</time>
      </trkpt>
      <trkpt lat="42.85121699999992" lon="0.21927899999999864">
        <ele>2526.017</ele>
        <time>2022-01-30T13:56:09Z</time>
      </trkpt>
      <trkpt lat="42.85117099999992" lon="0.21927599999999864">
        <ele>2523.729</ele>
        <time>2022-01-30T13:56:18Z</time>
      </trkpt>
      <trkpt lat="42.85112399999992" lon="0.21929199999999863">
        <ele>2520.936</ele>
        <time>2022-01-30T13:56:40Z</time>
      </trkpt>
      <trkpt lat="42.85107799999992" lon="0.21929899999999863">
        <ele>2518.680</ele>
        <time>2022-01-30T13:56:49Z</time>
      </trkpt>
      <trkpt lat="42.851026999999924" lon="0.21929899999999863">
        <ele>2516.220</ele>
        <time>2022-01-30T13:56:57Z</time>
      </trkpt>
      <trkpt lat="42.85097999999992" lon="0.21930199999999864">
        <ele>2513.924</ele>
        <time>2022-01-30T13:57:03Z</time>
      </trkpt>
      <trkpt lat="42.85092299999992" lon="0.21928699999999865">
        <ele>2511.604</ele>
        <time>2022-01-30T13:57:07Z</time>
      </trkpt>
      <trkpt lat="42.850882999999925" lon="0.21924899999999864">
        <ele>2510.514</ele>
        <time>2022-01-30T13:57:09Z</time>
      </trkpt>
      <trkpt lat="42.850829999999924" lon="0.21920599999999865">
        <ele>2509.008</ele>
        <time>2022-01-30T13:57:12Z</time>
      </trkpt>
      <trkpt lat="42.85073799999992" lon="0.21919199999999867">
        <ele>2504.941</ele>
        <time>2022-01-30T13:57:13Z</time>
      </trkpt>
      <trkpt lat="42.850778999999925" lon="0.21925399999999867">
        <ele>2505.466</ele>
        <time>2022-01-30T13:57:15Z</time>
      </trkpt>
      <trkpt lat="42.850741999999926" lon="0.21929099999999868">
        <ele>2502.742</ele>
        <time>2022-01-30T13:57:23Z</time>
      </trkpt>
      <trkpt lat="42.85069599999993" lon="0.2192689999999987">
        <ele>2501.040</ele>
        <time>2022-01-30T13:57:40Z</time>
      </trkpt>
      <trkpt lat="42.850657999999925" lon="0.2193019999999987">
        <ele>2498.342</ele>
        <time>2022-01-30T13:57:51Z</time>
      </trkpt>
      <trkpt lat="42.85064999999992" lon="0.2193639999999987">
        <ele>2496.299</ele>
        <time>2022-01-30T13:58:24Z</time>
      </trkpt>
      <trkpt lat="42.85065599999992" lon="0.2194279999999987">
        <ele>2494.983</ele>
        <time>2022-01-30T13:58:30Z</time>
      </trkpt>
      <trkpt lat="42.85065899999992" lon="0.21949199999999872">
        <ele>2493.023</ele>
        <time>2022-01-30T13:58:35Z</time>
      </trkpt>
      <trkpt lat="42.850660999999924" lon="0.21955999999999873">
        <ele>2490.847</ele>
        <time>2022-01-30T13:58:41Z</time>
      </trkpt>
      <trkpt lat="42.85067099999993" lon="0.21963099999999872">
        <ele>2488.929</ele>
        <time>2022-01-30T13:58:47Z</time>
      </trkpt>
      <trkpt lat="42.85069299999993" lon="0.2196839999999987">
        <ele>2488.221</ele>
        <time>2022-01-30T13:58:51Z</time>
      </trkpt>
      <trkpt lat="42.850713999999925" lon="0.21975299999999873">
        <ele>2487.008</ele>
        <time>2022-01-30T13:58:56Z</time>
      </trkpt>
      <trkpt lat="42.85073199999992" lon="0.21982699999999872">
        <ele>2485.683</ele>
        <time>2022-01-30T13:59:01Z</time>
      </trkpt>
      <trkpt lat="42.85074299999992" lon="0.21988699999999872">
        <ele>2484.358</ele>
        <time>2022-01-30T13:59:05Z</time>
      </trkpt>
      <trkpt lat="42.85075799999992" lon="0.21994799999999873">
        <ele>2483.124</ele>
        <time>2022-01-30T13:59:10Z</time>
      </trkpt>
      <trkpt lat="42.85076499999992" lon="0.22001599999999874">
        <ele>2481.492</ele>
        <time>2022-01-30T13:59:15Z</time>
      </trkpt>
      <trkpt lat="42.85074499999992" lon="0.22007699999999875">
        <ele>2478.974</ele>
        <time>2022-01-30T13:59:55Z</time>
      </trkpt>
      <trkpt lat="42.850745999999916" lon="0.22014299999999876">
        <ele>2477.361</ele>
        <time>2022-01-30T14:00:00Z</time>
      </trkpt>
      <trkpt lat="42.85073399999992" lon="0.22020999999999877">
        <ele>2475.115</ele>
        <time>2022-01-30T14:00:05Z</time>
      </trkpt>
      <trkpt lat="42.850725999999916" lon="0.22027599999999878">
        <ele>2473.235</ele>
        <time>2022-01-30T14:00:10Z</time>
      </trkpt>
      <trkpt lat="42.850726999999914" lon="0.22034599999999877">
        <ele>2471.777</ele>
        <time>2022-01-30T14:00:16Z</time>
      </trkpt>
      <trkpt lat="42.85073899999991" lon="0.22040899999999877">
        <ele>2470.661</ele>
        <time>2022-01-30T14:00:22Z</time>
      </trkpt>
      <trkpt lat="42.85075899999991" lon="0.22047399999999878">
        <ele>2469.627</ele>
        <time>2022-01-30T14:00:28Z</time>
      </trkpt>
      <trkpt lat="42.850768999999914" lon="0.2205419999999988">
        <ele>2468.208</ele>
        <time>2022-01-30T14:00:35Z</time>
      </trkpt>
      <trkpt lat="42.850776999999916" lon="0.2206039999999988">
        <ele>2467.056</ele>
        <time>2022-01-30T14:00:41Z</time>
      </trkpt>
      <trkpt lat="42.850788999999914" lon="0.2206749999999988">
        <ele>2465.871</ele>
        <time>2022-01-30T14:00:48Z</time>
      </trkpt>
      <trkpt lat="42.850790999999916" lon="0.2207429999999988">
        <ele>2464.527</ele>
        <time>2022-01-30T14:00:54Z</time>
      </trkpt>
      <trkpt lat="42.850801999999916" lon="0.2208079999999988">
        <ele>2463.315</ele>
        <time>2022-01-30T14:01:02Z</time>
      </trkpt>
      <trkpt lat="42.85080999999992" lon="0.22087599999999882">
        <ele>2462.167</ele>
        <time>2022-01-30T14:01:09Z</time>
      </trkpt>
      <trkpt lat="42.85083199999992" lon="0.22093699999999883">
        <ele>2461.134</ele>
        <time>2022-01-30T14:01:15Z</time>
      </trkpt>
      <trkpt lat="42.85085799999992" lon="0.22099499999999883">
        <ele>2460.488</ele>
        <time>2022-01-30T14:01:21Z</time>
      </trkpt>
      <trkpt lat="42.850886999999915" lon="0.22105599999999884">
        <ele>2459.538</ele>
        <time>2022-01-30T14:01:27Z</time>
      </trkpt>
      <trkpt lat="42.85091699999992" lon="0.22110899999999883">
        <ele>2458.673</ele>
        <time>2022-01-30T14:01:32Z</time>
      </trkpt>
      <trkpt lat="42.850934999999915" lon="0.22117099999999884">
        <ele>2457.985</ele>
        <time>2022-01-30T14:01:37Z</time>
      </trkpt>
      <trkpt lat="42.85096199999992" lon="0.22123299999999885">
        <ele>2457.313</ele>
        <time>2022-01-30T14:01:43Z</time>
      </trkpt>
      <trkpt lat="42.85097799999992" lon="0.22129799999999886">
        <ele>2456.708</ele>
        <time>2022-01-30T14:01:48Z</time>
      </trkpt>
      <trkpt lat="42.85097199999992" lon="0.22136699999999887">
        <ele>2455.856</ele>
        <time>2022-01-30T14:01:53Z</time>
      </trkpt>
      <trkpt lat="42.85097399999992" lon="0.22142899999999888">
        <ele>2455.221</ele>
        <time>2022-01-30T14:01:58Z</time>
      </trkpt>
      <trkpt lat="42.85097199999992" lon="0.22149999999999886">
        <ele>2454.787</ele>
        <time>2022-01-30T14:02:04Z</time>
      </trkpt>
      <trkpt lat="42.85097499999992" lon="0.22156799999999888">
        <ele>2454.355</ele>
        <time>2022-01-30T14:02:10Z</time>
      </trkpt>
      <trkpt lat="42.85097699999992" lon="0.2216349999999989">
        <ele>2453.847</ele>
        <time>2022-01-30T14:02:15Z</time>
      </trkpt>
      <trkpt lat="42.85098299999992" lon="0.2217159999999989">
        <ele>2453.234</ele>
        <time>2022-01-30T14:02:20Z</time>
      </trkpt>
      <trkpt lat="42.850981999999924" lon="0.22179499999999888">
        <ele>2452.458</ele>
        <time>2022-01-30T14:02:22Z</time>
      </trkpt>
      <trkpt lat="42.85099099999992" lon="0.2218629999999989">
        <ele>2451.938</ele>
        <time>2022-01-30T14:02:24Z</time>
      </trkpt>
      <trkpt lat="42.85098899999992" lon="0.2219279999999989">
        <ele>2451.133</ele>
        <time>2022-01-30T14:02:26Z</time>
      </trkpt>
      <trkpt lat="42.85098399999992" lon="0.22199399999999891">
        <ele>2450.423</ele>
        <time>2022-01-30T14:02:28Z</time>
      </trkpt>
      <trkpt lat="42.85095299999992" lon="0.2220709999999989">
        <ele>2448.815</ele>
        <time>2022-01-30T14:02:31Z</time>
      </trkpt>
      <trkpt lat="42.85091699999992" lon="0.22213899999999892">
        <ele>2447.208</ele>
        <time>2022-01-30T14:02:34Z</time>
      </trkpt>
      <trkpt lat="42.85090299999992" lon="0.22220799999999893">
        <ele>2446.192</ele>
        <time>2022-01-30T14:02:37Z</time>
      </trkpt>
      <trkpt lat="42.85089599999992" lon="0.22226999999999894">
        <ele>2445.377</ele>
        <time>2022-01-30T14:02:40Z</time>
      </trkpt>
      <trkpt lat="42.85087899999992" lon="0.22233099999999895">
        <ele>2444.283</ele>
        <time>2022-01-30T14:02:43Z</time>
      </trkpt>
      <trkpt lat="42.85085599999992" lon="0.22238699999999895">
        <ele>2442.941</ele>
        <time>2022-01-30T14:02:46Z</time>
      </trkpt>
      <trkpt lat="42.85082299999992" lon="0.22243199999999894">
        <ele>2441.473</ele>
        <time>2022-01-30T14:03:00Z</time>
      </trkpt>
      <trkpt lat="42.85081899999992" lon="0.22249399999999894">
        <ele>2440.660</ele>
        <time>2022-01-30T14:03:13Z</time>
      </trkpt>
      <trkpt lat="42.85081199999993" lon="0.22256699999999893">
        <ele>2439.544</ele>
        <time>2022-01-30T14:03:20Z</time>
      </trkpt>
      <trkpt lat="42.850798999999924" lon="0.22263699999999892">
        <ele>2438.274</ele>
        <time>2022-01-30T14:03:25Z</time>
      </trkpt>
      <trkpt lat="42.85079499999993" lon="0.22270499999999893">
        <ele>2437.389</ele>
        <time>2022-01-30T14:03:30Z</time>
      </trkpt>
      <trkpt lat="42.85078799999993" lon="0.22277299999999894">
        <ele>2436.306</ele>
        <time>2022-01-30T14:03:37Z</time>
      </trkpt>
      <trkpt lat="42.85078499999993" lon="0.22283799999999895">
        <ele>2435.326</ele>
        <time>2022-01-30T14:03:44Z</time>
      </trkpt>
      <trkpt lat="42.85080399999993" lon="0.22276999999999894">
        <ele>2436.908</ele>
        <time>2022-01-30T14:04:56Z</time>
      </trkpt>
      <trkpt lat="42.85078999999993" lon="0.22283299999999895">
        <ele>2435.667</ele>
        <time>2022-01-30T14:05:14Z</time>
      </trkpt>
      <trkpt lat="42.850785999999935" lon="0.22289399999999895">
        <ele>2434.762</ele>
        <time>2022-01-30T14:05:19Z</time>
      </trkpt>
      <trkpt lat="42.85076999999993" lon="0.22295999999999896">
        <ele>2433.358</ele>
        <time>2022-01-30T14:05:25Z</time>
      </trkpt>
      <trkpt lat="42.850757999999935" lon="0.22302199999999897">
        <ele>2432.296</ele>
        <time>2022-01-30T14:05:30Z</time>
      </trkpt>
      <trkpt lat="42.85075699999994" lon="0.22308899999999898">
        <ele>2431.728</ele>
        <time>2022-01-30T14:05:36Z</time>
      </trkpt>
      <trkpt lat="42.850757999999935" lon="0.223153999999999">
        <ele>2431.615</ele>
        <time>2022-01-30T14:05:42Z</time>
      </trkpt>
      <trkpt lat="42.850751999999936" lon="0.223217999999999">
        <ele>2431.299</ele>
        <time>2022-01-30T14:05:48Z</time>
      </trkpt>
      <trkpt lat="42.85073899999993" lon="0.22328699999999901">
        <ele>2430.739</ele>
        <time>2022-01-30T14:05:55Z</time>
      </trkpt>
      <trkpt lat="42.85073099999993" lon="0.223360999999999">
        <ele>2430.323</ele>
        <time>2022-01-30T14:06:01Z</time>
      </trkpt>
      <trkpt lat="42.85071399999993" lon="0.22342799999999902">
        <ele>2429.883</ele>
        <time>2022-01-30T14:06:06Z</time>
      </trkpt>
      <trkpt lat="42.85070299999993" lon="0.22349399999999903">
        <ele>2429.411</ele>
        <time>2022-01-30T14:06:13Z</time>
      </trkpt>
      <trkpt lat="42.85069799999993" lon="0.22355999999999904">
        <ele>2429.208</ele>
        <time>2022-01-30T14:06:20Z</time>
      </trkpt>
      <trkpt lat="42.85067699999993" lon="0.22362599999999905">
        <ele>2428.751</ele>
        <time>2022-01-30T14:06:27Z</time>
      </trkpt>
      <trkpt lat="42.85066299999993" lon="0.22368599999999905">
        <ele>2428.486</ele>
        <time>2022-01-30T14:06:33Z</time>
      </trkpt>
      <trkpt lat="42.850645999999934" lon="0.22375099999999906">
        <ele>2428.272</ele>
        <time>2022-01-30T14:06:40Z</time>
      </trkpt>
      <trkpt lat="42.850633999999935" lon="0.22381099999999907">
        <ele>2428.050</ele>
        <time>2022-01-30T14:06:45Z</time>
      </trkpt>
      <trkpt lat="42.85061799999993" lon="0.22388099999999905">
        <ele>2428.012</ele>
        <time>2022-01-30T14:06:52Z</time>
      </trkpt>
      <trkpt lat="42.850605999999935" lon="0.22394999999999907">
        <ele>2427.319</ele>
        <time>2022-01-30T14:06:59Z</time>
      </trkpt>
      <trkpt lat="42.85059299999993" lon="0.22400899999999907">
        <ele>2426.843</ele>
        <time>2022-01-30T14:07:05Z</time>
      </trkpt>
      <trkpt lat="42.85058199999993" lon="0.22407999999999906">
        <ele>2426.543</ele>
        <time>2022-01-30T14:07:12Z</time>
      </trkpt>
      <trkpt lat="42.850569999999934" lon="0.22414399999999907">
        <ele>2426.514</ele>
        <time>2022-01-30T14:07:17Z</time>
      </trkpt>
      <trkpt lat="42.85056199999993" lon="0.22420899999999908">
        <ele>2425.354</ele>
        <time>2022-01-30T14:07:23Z</time>
      </trkpt>
      <trkpt lat="42.85057599999993" lon="0.22426899999999908">
        <ele>2422.609</ele>
        <time>2022-01-30T14:07:30Z</time>
      </trkpt>
      <trkpt lat="42.850549999999934" lon="0.22432999999999909">
        <ele>2421.608</ele>
        <time>2022-01-30T14:07:35Z</time>
      </trkpt>
      <trkpt lat="42.850529999999935" lon="0.2243949999999991">
        <ele>2419.540</ele>
        <time>2022-01-30T14:07:41Z</time>
      </trkpt>
      <trkpt lat="42.85050099999994" lon="0.2244529999999991">
        <ele>2417.875</ele>
        <time>2022-01-30T14:07:48Z</time>
      </trkpt>
      <trkpt lat="42.85047599999994" lon="0.2245139999999991">
        <ele>2416.471</ele>
        <time>2022-01-30T14:07:55Z</time>
      </trkpt>
      <trkpt lat="42.850467999999935" lon="0.22458199999999912">
        <ele>2414.979</ele>
        <time>2022-01-30T14:08:04Z</time>
      </trkpt>
      <trkpt lat="42.85044499999994" lon="0.22465099999999913">
        <ele>2414.051</ele>
        <time>2022-01-30T14:08:09Z</time>
      </trkpt>
      <trkpt lat="42.85042399999994" lon="0.22470599999999913">
        <ele>2413.558</ele>
        <time>2022-01-30T14:08:13Z</time>
      </trkpt>
      <trkpt lat="42.85039999999994" lon="0.22476299999999913">
        <ele>2413.322</ele>
        <time>2022-01-30T14:08:18Z</time>
      </trkpt>
      <trkpt lat="42.85037399999994" lon="0.22482199999999913">
        <ele>2413.552</ele>
        <time>2022-01-30T14:08:23Z</time>
      </trkpt>
      <trkpt lat="42.850346999999935" lon="0.22488199999999914">
        <ele>2414.276</ele>
        <time>2022-01-30T14:08:29Z</time>
      </trkpt>
      <trkpt lat="42.850318999999935" lon="0.22493499999999914">
        <ele>2415.490</ele>
        <time>2022-01-30T14:08:35Z</time>
      </trkpt>
      <trkpt lat="42.85028999999994" lon="0.22499099999999914">
        <ele>2417.119</ele>
        <time>2022-01-30T14:08:43Z</time>
      </trkpt>
      <trkpt lat="42.85026899999994" lon="0.22504999999999914">
        <ele>2416.808</ele>
        <time>2022-01-30T14:08:50Z</time>
      </trkpt>
      <trkpt lat="42.85024899999994" lon="0.22510699999999914">
        <ele>2415.426</ele>
        <time>2022-01-30T14:08:56Z</time>
      </trkpt>
      <trkpt lat="42.85022499999994" lon="0.22516099999999914">
        <ele>2414.531</ele>
        <time>2022-01-30T14:09:01Z</time>
      </trkpt>
      <trkpt lat="42.85019899999994" lon="0.22522299999999915">
        <ele>2413.977</ele>
        <time>2022-01-30T14:09:07Z</time>
      </trkpt>
      <trkpt lat="42.85017099999994" lon="0.22527699999999914">
        <ele>2413.975</ele>
        <time>2022-01-30T14:09:13Z</time>
      </trkpt>
      <trkpt lat="42.85014299999994" lon="0.22532699999999914">
        <ele>2414.077</ele>
        <time>2022-01-30T14:09:19Z</time>
      </trkpt>
      <trkpt lat="42.85011799999994" lon="0.22537999999999914">
        <ele>2414.524</ele>
        <time>2022-01-30T14:09:25Z</time>
      </trkpt>
      <trkpt lat="42.850098999999936" lon="0.22543599999999914">
        <ele>2415.188</ele>
        <time>2022-01-30T14:09:30Z</time>
      </trkpt>
      <trkpt lat="42.85007299999994" lon="0.22548999999999914">
        <ele>2416.388</ele>
        <time>2022-01-30T14:09:35Z</time>
      </trkpt>
      <trkpt lat="42.85004699999994" lon="0.22554399999999913">
        <ele>2418.093</ele>
        <time>2022-01-30T14:09:40Z</time>
      </trkpt>
      <trkpt lat="42.85001799999994" lon="0.22560299999999914">
        <ele>2420.065</ele>
        <time>2022-01-30T14:09:46Z</time>
      </trkpt>
      <trkpt lat="42.84999299999994" lon="0.22565799999999914">
        <ele>2421.121</ele>
        <time>2022-01-30T14:09:51Z</time>
      </trkpt>
      <trkpt lat="42.84996299999994" lon="0.22571399999999914">
        <ele>2420.408</ele>
        <time>2022-01-30T14:09:57Z</time>
      </trkpt>
      <trkpt lat="42.84993499999994" lon="0.22577399999999914">
        <ele>2419.968</ele>
        <time>2022-01-30T14:10:03Z</time>
      </trkpt>
      <trkpt lat="42.84988699999994" lon="0.22578199999999915">
        <ele>2418.683</ele>
        <time>2022-01-30T14:10:25Z</time>
      </trkpt>
      <trkpt lat="42.849831999999935" lon="0.22577099999999914">
        <ele>2416.929</ele>
        <time>2022-01-30T14:11:00Z</time>
      </trkpt>
      <trkpt lat="42.84978599999994" lon="0.22575999999999913">
        <ele>2415.367</ele>
        <time>2022-01-30T14:12:43Z</time>
      </trkpt>
      <trkpt lat="42.84974899999994" lon="0.22569399999999912">
        <ele>2412.949</ele>
        <time>2022-01-30T14:13:00Z</time>
      </trkpt>
      <trkpt lat="42.84979599999994" lon="0.22572799999999912">
        <ele>2415.116</ele>
        <time>2022-01-30T14:13:28Z</time>
      </trkpt>
      <trkpt lat="42.84975499999994" lon="0.2256879999999991">
        <ele>2413.080</ele>
        <time>2022-01-30T14:13:59Z</time>
      </trkpt>
      <trkpt lat="42.84970999999994" lon="0.2257079999999991">
        <ele>2411.660</ele>
        <time>2022-01-30T14:14:18Z</time>
      </trkpt>
      <trkpt lat="42.84966399999994" lon="0.2257249999999991">
        <ele>2409.469</ele>
        <time>2022-01-30T14:14:29Z</time>
      </trkpt>
      <trkpt lat="42.84961099999994" lon="0.22571199999999908">
        <ele>2406.204</ele>
        <time>2022-01-30T14:14:37Z</time>
      </trkpt>
      <trkpt lat="42.84957599999994" lon="0.2256639999999991">
        <ele>2403.124</ele>
        <time>2022-01-30T14:14:48Z</time>
      </trkpt>
      <trkpt lat="42.84952899999994" lon="0.2256639999999991">
        <ele>2400.508</ele>
        <time>2022-01-30T14:14:55Z</time>
      </trkpt>
      <trkpt lat="42.84947899999994" lon="0.22565899999999908">
        <ele>2397.685</ele>
        <time>2022-01-30T14:15:45Z</time>
      </trkpt>
      <trkpt lat="42.84942999999994" lon="0.2256629999999991">
        <ele>2395.060</ele>
        <time>2022-01-30T14:15:54Z</time>
      </trkpt>
      <trkpt lat="42.84938699999994" lon="0.22563399999999909">
        <ele>2392.276</ele>
        <time>2022-01-30T14:16:01Z</time>
      </trkpt>
      <trkpt lat="42.84933499999995" lon="0.22565299999999908">
        <ele>2390.134</ele>
        <time>2022-01-30T14:16:07Z</time>
      </trkpt>
      <trkpt lat="42.84928899999995" lon="0.22565899999999908">
        <ele>2387.946</ele>
        <time>2022-01-30T14:16:12Z</time>
      </trkpt>
      <trkpt lat="42.84924399999995" lon="0.22567399999999907">
        <ele>2386.053</ele>
        <time>2022-01-30T14:16:16Z</time>
      </trkpt>
      <trkpt lat="42.84920499999995" lon="0.22571099999999908">
        <ele>2384.747</ele>
        <time>2022-01-30T14:16:20Z</time>
      </trkpt>
      <trkpt lat="42.849154999999946" lon="0.22573699999999908">
        <ele>2383.067</ele>
        <time>2022-01-30T14:16:24Z</time>
      </trkpt>
      <trkpt lat="42.84911199999995" lon="0.22575899999999907">
        <ele>2382.527</ele>
        <time>2022-01-30T14:16:29Z</time>
      </trkpt>
      <trkpt lat="42.84906899999995" lon="0.22578799999999907">
        <ele>2382.068</ele>
        <time>2022-01-30T14:16:34Z</time>
      </trkpt>
      <trkpt lat="42.84902299999995" lon="0.22576399999999908">
        <ele>2380.814</ele>
        <time>2022-01-30T14:16:39Z</time>
      </trkpt>
      <trkpt lat="42.84897899999995" lon="0.22574299999999908">
        <ele>2379.708</ele>
        <time>2022-01-30T14:16:44Z</time>
      </trkpt>
      <trkpt lat="42.84901299999995" lon="0.22578799999999907">
        <ele>2380.861</ele>
        <time>2022-01-30T14:17:09Z</time>
      </trkpt>
      <trkpt lat="42.84896399999995" lon="0.22579299999999908">
        <ele>2379.746</ele>
        <time>2022-01-30T14:22:19Z</time>
      </trkpt>
      <trkpt lat="42.848920999999955" lon="0.22583899999999907">
        <ele>2378.822</ele>
        <time>2022-01-30T14:22:23Z</time>
      </trkpt>
      <trkpt lat="42.848880999999956" lon="0.22588799999999906">
        <ele>2377.820</ele>
        <time>2022-01-30T14:22:28Z</time>
      </trkpt>
      <trkpt lat="42.84884299999995" lon="0.22592799999999907">
        <ele>2376.772</ele>
        <time>2022-01-30T14:22:33Z</time>
      </trkpt>
      <trkpt lat="42.84880199999995" lon="0.22595699999999908">
        <ele>2375.459</ele>
        <time>2022-01-30T14:22:39Z</time>
      </trkpt>
      <trkpt lat="42.84875899999995" lon="0.22598799999999908">
        <ele>2373.993</ele>
        <time>2022-01-30T14:22:44Z</time>
      </trkpt>
      <trkpt lat="42.84871499999995" lon="0.22602199999999908">
        <ele>2372.313</ele>
        <time>2022-01-30T14:22:49Z</time>
      </trkpt>
      <trkpt lat="42.84866999999995" lon="0.22603599999999907">
        <ele>2370.845</ele>
        <time>2022-01-30T14:22:54Z</time>
      </trkpt>
      <trkpt lat="42.84862499999995" lon="0.22606499999999907">
        <ele>2369.047</ele>
        <time>2022-01-30T14:23:01Z</time>
      </trkpt>
      <trkpt lat="42.84858899999995" lon="0.22610099999999908">
        <ele>2367.511</ele>
        <time>2022-01-30T14:23:07Z</time>
      </trkpt>
      <trkpt lat="42.848552999999946" lon="0.2261399999999991">
        <ele>2366.008</ele>
        <time>2022-01-30T14:23:14Z</time>
      </trkpt>
      <trkpt lat="42.848518999999946" lon="0.22618499999999908">
        <ele>2364.463</ele>
        <time>2022-01-30T14:23:21Z</time>
      </trkpt>
      <trkpt lat="42.848479999999945" lon="0.2262229999999991">
        <ele>2362.618</ele>
        <time>2022-01-30T14:23:27Z</time>
      </trkpt>
      <trkpt lat="42.84845399999995" lon="0.2262759999999991">
        <ele>2361.074</ele>
        <time>2022-01-30T14:23:32Z</time>
      </trkpt>
      <trkpt lat="42.848434999999945" lon="0.2263319999999991">
        <ele>2359.522</ele>
        <time>2022-01-30T14:23:37Z</time>
      </trkpt>
      <trkpt lat="42.848406999999945" lon="0.2263859999999991">
        <ele>2357.724</ele>
        <time>2022-01-30T14:23:44Z</time>
      </trkpt>
      <trkpt lat="42.84839699999994" lon="0.2264519999999991">
        <ele>2356.621</ele>
        <time>2022-01-30T14:23:54Z</time>
      </trkpt>
      <trkpt lat="42.84838499999994" lon="0.2265139999999991">
        <ele>2355.595</ele>
        <time>2022-01-30T14:23:59Z</time>
      </trkpt>
      <trkpt lat="42.84837799999995" lon="0.2265779999999991">
        <ele>2354.475</ele>
        <time>2022-01-30T14:24:05Z</time>
      </trkpt>
      <trkpt lat="42.84836899999995" lon="0.22663999999999912">
        <ele>2353.296</ele>
        <time>2022-01-30T14:24:11Z</time>
      </trkpt>
      <trkpt lat="42.84835699999995" lon="0.22670199999999913">
        <ele>2352.431</ele>
        <time>2022-01-30T14:24:17Z</time>
      </trkpt>
      <trkpt lat="42.84834899999995" lon="0.22676699999999914">
        <ele>2352.224</ele>
        <time>2022-01-30T14:24:23Z</time>
      </trkpt>
      <trkpt lat="42.84834299999995" lon="0.22683199999999915">
        <ele>2352.108</ele>
        <time>2022-01-30T14:24:28Z</time>
      </trkpt>
      <trkpt lat="42.84832799999995" lon="0.22690299999999913">
        <ele>2351.678</ele>
        <time>2022-01-30T14:24:33Z</time>
      </trkpt>
      <trkpt lat="42.84831099999995" lon="0.22696399999999914">
        <ele>2351.043</ele>
        <time>2022-01-30T14:24:38Z</time>
      </trkpt>
      <trkpt lat="42.84829499999995" lon="0.22703199999999915">
        <ele>2350.589</ele>
        <time>2022-01-30T14:24:45Z</time>
      </trkpt>
      <trkpt lat="42.84827499999995" lon="0.22709499999999916">
        <ele>2349.947</ele>
        <time>2022-01-30T14:24:51Z</time>
      </trkpt>
      <trkpt lat="42.84825499999995" lon="0.22715999999999917">
        <ele>2349.569</ele>
        <time>2022-01-30T14:24:57Z</time>
      </trkpt>
      <trkpt lat="42.848233999999955" lon="0.22721499999999917">
        <ele>2349.086</ele>
        <time>2022-01-30T14:25:02Z</time>
      </trkpt>
      <trkpt lat="42.848205999999955" lon="0.22726299999999916">
        <ele>2348.790</ele>
        <time>2022-01-30T14:25:07Z</time>
      </trkpt>
      <trkpt lat="42.84816999999995" lon="0.22731699999999916">
        <ele>2348.520</ele>
        <time>2022-01-30T14:25:13Z</time>
      </trkpt>
      <trkpt lat="42.848138999999954" lon="0.22736499999999915">
        <ele>2348.437</ele>
        <time>2022-01-30T14:25:19Z</time>
      </trkpt>
      <trkpt lat="42.84809399999995" lon="0.22739299999999915">
        <ele>2347.649</ele>
        <time>2022-01-30T14:25:24Z</time>
      </trkpt>
      <trkpt lat="42.84804899999995" lon="0.22741699999999915">
        <ele>2346.713</ele>
        <time>2022-01-30T14:25:29Z</time>
      </trkpt>
      <trkpt lat="42.848002999999956" lon="0.22744299999999915">
        <ele>2345.808</ele>
        <time>2022-01-30T14:25:33Z</time>
      </trkpt>
      <trkpt lat="42.847949999999955" lon="0.22745499999999916">
        <ele>2344.312</ele>
        <time>2022-01-30T14:25:38Z</time>
      </trkpt>
      <trkpt lat="42.84790599999995" lon="0.22747799999999915">
        <ele>2343.287</ele>
        <time>2022-01-30T14:25:43Z</time>
      </trkpt>
      <trkpt lat="42.847859999999955" lon="0.22747999999999916">
        <ele>2341.653</ele>
        <time>2022-01-30T14:25:48Z</time>
      </trkpt>
      <trkpt lat="42.84780999999995" lon="0.22747999999999916">
        <ele>2339.871</ele>
        <time>2022-01-30T14:25:54Z</time>
      </trkpt>
      <trkpt lat="42.84776199999995" lon="0.22747399999999915">
        <ele>2338.433</ele>
        <time>2022-01-30T14:25:57Z</time>
      </trkpt>
      <trkpt lat="42.84770099999995" lon="0.22748999999999914">
        <ele>2337.840</ele>
        <time>2022-01-30T14:26:00Z</time>
      </trkpt>
      <trkpt lat="42.84764299999995" lon="0.22750699999999913">
        <ele>2337.274</ele>
        <time>2022-01-30T14:26:04Z</time>
      </trkpt>
      <trkpt lat="42.84759399999995" lon="0.22752699999999912">
        <ele>2336.954</ele>
        <time>2022-01-30T14:26:08Z</time>
      </trkpt>
      <trkpt lat="42.84755399999995" lon="0.22755499999999912">
        <ele>2336.842</ele>
        <time>2022-01-30T14:26:14Z</time>
      </trkpt>
      <trkpt lat="42.84751599999995" lon="0.2275989999999991">
        <ele>2337.122</ele>
        <time>2022-01-30T14:26:23Z</time>
      </trkpt>
      <trkpt lat="42.84748299999995" lon="0.2276479999999991">
        <ele>2337.314</ele>
        <time>2022-01-30T14:26:30Z</time>
      </trkpt>
      <trkpt lat="42.84743799999995" lon="0.2276759999999991">
        <ele>2336.808</ele>
        <time>2022-01-30T14:26:37Z</time>
      </trkpt>
      <trkpt lat="42.847393999999944" lon="0.2277099999999991">
        <ele>2336.343</ele>
        <time>2022-01-30T14:26:43Z</time>
      </trkpt>
      <trkpt lat="42.847348999999944" lon="0.2277389999999991">
        <ele>2335.678</ele>
        <time>2022-01-30T14:26:49Z</time>
      </trkpt>
      <trkpt lat="42.84730299999995" lon="0.2277709999999991">
        <ele>2334.924</ele>
        <time>2022-01-30T14:26:55Z</time>
      </trkpt>
      <trkpt lat="42.847263999999946" lon="0.22780299999999912">
        <ele>2334.422</ele>
        <time>2022-01-30T14:27:00Z</time>
      </trkpt>
      <trkpt lat="42.847218999999946" lon="0.22783299999999912">
        <ele>2333.574</ele>
        <time>2022-01-30T14:27:03Z</time>
      </trkpt>
      <trkpt lat="42.84717499999994" lon="0.22786899999999913">
        <ele>2332.531</ele>
        <time>2022-01-30T14:27:11Z</time>
      </trkpt>
      <trkpt lat="42.847137999999944" lon="0.22791799999999912">
        <ele>2331.855</ele>
        <time>2022-01-30T14:27:17Z</time>
      </trkpt>
      <trkpt lat="42.847108999999946" lon="0.22797499999999912">
        <ele>2331.535</ele>
        <time>2022-01-30T14:27:25Z</time>
      </trkpt>
      <trkpt lat="42.84707499999995" lon="0.22802899999999912">
        <ele>2330.936</ele>
        <time>2022-01-30T14:27:32Z</time>
      </trkpt>
      <trkpt lat="42.847041999999945" lon="0.2280759999999991">
        <ele>2330.417</ele>
        <time>2022-01-30T14:27:37Z</time>
      </trkpt>
      <trkpt lat="42.84699799999994" lon="0.22811399999999912">
        <ele>2329.218</ele>
        <time>2022-01-30T14:27:43Z</time>
      </trkpt>
      <trkpt lat="42.84695899999994" lon="0.2281599999999991">
        <ele>2328.308</ele>
        <time>2022-01-30T14:27:47Z</time>
      </trkpt>
      <trkpt lat="42.84691399999994" lon="0.2281789999999991">
        <ele>2327.152</ele>
        <time>2022-01-30T14:27:51Z</time>
      </trkpt>
      <trkpt lat="42.846864999999944" lon="0.2282059999999991">
        <ele>2325.997</ele>
        <time>2022-01-30T14:27:56Z</time>
      </trkpt>
      <trkpt lat="42.846816999999945" lon="0.2282319999999991">
        <ele>2324.843</ele>
        <time>2022-01-30T14:28:01Z</time>
      </trkpt>
      <trkpt lat="42.84677099999995" lon="0.2282519999999991">
        <ele>2323.681</ele>
        <time>2022-01-30T14:28:05Z</time>
      </trkpt>
      <trkpt lat="42.84672199999995" lon="0.2282719999999991">
        <ele>2322.313</ele>
        <time>2022-01-30T14:28:10Z</time>
      </trkpt>
      <trkpt lat="42.84667399999995" lon="0.22828799999999907">
        <ele>2321.010</ele>
        <time>2022-01-30T14:28:14Z</time>
      </trkpt>
      <trkpt lat="42.84662699999995" lon="0.22830599999999907">
        <ele>2320.064</ele>
        <time>2022-01-30T14:28:18Z</time>
      </trkpt>
      <trkpt lat="42.84658099999995" lon="0.22833399999999907">
        <ele>2319.244</ele>
        <time>2022-01-30T14:28:22Z</time>
      </trkpt>
      <trkpt lat="42.84653299999995" lon="0.22836999999999907">
        <ele>2318.372</ele>
        <time>2022-01-30T14:28:27Z</time>
      </trkpt>
      <trkpt lat="42.84649099999995" lon="0.22841399999999906">
        <ele>2317.513</ele>
        <time>2022-01-30T14:28:32Z</time>
      </trkpt>
      <trkpt lat="42.84644299999995" lon="0.22845699999999905">
        <ele>2316.414</ele>
        <time>2022-01-30T14:28:36Z</time>
      </trkpt>
      <trkpt lat="42.84640299999995" lon="0.22850199999999904">
        <ele>2315.408</ele>
        <time>2022-01-30T14:28:41Z</time>
      </trkpt>
      <trkpt lat="42.84636599999995" lon="0.22854999999999903">
        <ele>2314.366</ele>
        <time>2022-01-30T14:28:46Z</time>
      </trkpt>
      <trkpt lat="42.846336999999956" lon="0.22860899999999904">
        <ele>2313.331</ele>
        <time>2022-01-30T14:28:51Z</time>
      </trkpt>
      <trkpt lat="42.846305999999956" lon="0.22866599999999904">
        <ele>2313.027</ele>
        <time>2022-01-30T14:28:57Z</time>
      </trkpt>
      <trkpt lat="42.84627399999996" lon="0.22871899999999903">
        <ele>2312.795</ele>
        <time>2022-01-30T14:29:02Z</time>
      </trkpt>
      <trkpt lat="42.846243999999956" lon="0.22876499999999902">
        <ele>2312.257</ele>
        <time>2022-01-30T14:29:08Z</time>
      </trkpt>
      <trkpt lat="42.84624299999996" lon="0.22883399999999904">
        <ele>2313.124</ele>
        <time>2022-01-30T14:29:28Z</time>
      </trkpt>
      <trkpt lat="42.84620399999996" lon="0.22886399999999904">
        <ele>2312.078</ele>
        <time>2022-01-30T14:29:34Z</time>
      </trkpt>
      <trkpt lat="42.84616399999996" lon="0.22889999999999905">
        <ele>2311.128</ele>
        <time>2022-01-30T14:29:39Z</time>
      </trkpt>
      <trkpt lat="42.84611899999996" lon="0.22893399999999905">
        <ele>2310.146</ele>
        <time>2022-01-30T14:29:47Z</time>
      </trkpt>
      <trkpt lat="42.84607099999996" lon="0.22896399999999906">
        <ele>2309.188</ele>
        <time>2022-01-30T14:29:52Z</time>
      </trkpt>
      <trkpt lat="42.84602699999996" lon="0.22899199999999906">
        <ele>2308.116</ele>
        <time>2022-01-30T14:29:57Z</time>
      </trkpt>
      <trkpt lat="42.845976999999955" lon="0.22900699999999904">
        <ele>2306.808</ele>
        <time>2022-01-30T14:30:03Z</time>
      </trkpt>
      <trkpt lat="42.84592999999995" lon="0.22903299999999904">
        <ele>2305.763</ele>
        <time>2022-01-30T14:30:09Z</time>
      </trkpt>
      <trkpt lat="42.84588299999995" lon="0.22906799999999905">
        <ele>2304.848</ele>
        <time>2022-01-30T14:30:14Z</time>
      </trkpt>
      <trkpt lat="42.845833999999954" lon="0.22909099999999905">
        <ele>2303.784</ele>
        <time>2022-01-30T14:30:19Z</time>
      </trkpt>
      <trkpt lat="42.845788999999954" lon="0.22910699999999903">
        <ele>2302.982</ele>
        <time>2022-01-30T14:30:24Z</time>
      </trkpt>
      <trkpt lat="42.84574499999995" lon="0.22912299999999902">
        <ele>2302.134</ele>
        <time>2022-01-30T14:30:30Z</time>
      </trkpt>
      <trkpt lat="42.84569999999995" lon="0.229141999999999">
        <ele>2301.361</ele>
        <time>2022-01-30T14:30:35Z</time>
      </trkpt>
      <trkpt lat="42.84565699999995" lon="0.229159999999999">
        <ele>2300.515</ele>
        <time>2022-01-30T14:30:40Z</time>
      </trkpt>
      <trkpt lat="42.845604999999956" lon="0.229178999999999">
        <ele>2299.455</ele>
        <time>2022-01-30T14:30:45Z</time>
      </trkpt>
      <trkpt lat="42.84555599999996" lon="0.229200999999999">
        <ele>2298.598</ele>
        <time>2022-01-30T14:30:49Z</time>
      </trkpt>
      <trkpt lat="42.84550699999996" lon="0.22922099999999898">
        <ele>2297.415</ele>
        <time>2022-01-30T14:30:55Z</time>
      </trkpt>
      <trkpt lat="42.845463999999964" lon="0.22924699999999898">
        <ele>2296.526</ele>
        <time>2022-01-30T14:31:00Z</time>
      </trkpt>
      <trkpt lat="42.84542499999996" lon="0.229284999999999">
        <ele>2295.608</ele>
        <time>2022-01-30T14:31:04Z</time>
      </trkpt>
      <trkpt lat="42.84543399999996" lon="0.229350999999999">
        <ele>2296.488</ele>
        <time>2022-01-30T14:31:07Z</time>
      </trkpt>
      <trkpt lat="42.84540799999996" lon="0.229401999999999">
        <ele>2295.963</ele>
        <time>2022-01-30T14:31:50Z</time>
      </trkpt>
      <trkpt lat="42.84536399999996" lon="0.22944799999999899">
        <ele>2294.459</ele>
        <time>2022-01-30T14:31:56Z</time>
      </trkpt>
      <trkpt lat="42.84533099999996" lon="0.229505999999999">
        <ele>2293.097</ele>
        <time>2022-01-30T14:32:03Z</time>
      </trkpt>
      <trkpt lat="42.84530599999996" lon="0.229574999999999">
        <ele>2291.859</ele>
        <time>2022-01-30T14:32:08Z</time>
      </trkpt>
      <trkpt lat="42.84528599999996" lon="0.229631999999999">
        <ele>2290.726</ele>
        <time>2022-01-30T14:32:13Z</time>
      </trkpt>
      <trkpt lat="42.84526599999996" lon="0.229691999999999">
        <ele>2289.940</ele>
        <time>2022-01-30T14:32:18Z</time>
      </trkpt>
      <trkpt lat="42.845227999999956" lon="0.229745999999999">
        <ele>2288.880</ele>
        <time>2022-01-30T14:32:24Z</time>
      </trkpt>
      <trkpt lat="42.84519099999996" lon="0.229795999999999">
        <ele>2287.749</ele>
        <time>2022-01-30T14:32:29Z</time>
      </trkpt>
      <trkpt lat="42.845154999999956" lon="0.229837999999999">
        <ele>2286.602</ele>
        <time>2022-01-30T14:32:33Z</time>
      </trkpt>
      <trkpt lat="42.845118999999954" lon="0.22988699999999898">
        <ele>2285.322</ele>
        <time>2022-01-30T14:32:37Z</time>
      </trkpt>
      <trkpt lat="42.84508099999995" lon="0.22993199999999897">
        <ele>2283.908</ele>
        <time>2022-01-30T14:32:41Z</time>
      </trkpt>
      <trkpt lat="42.84504099999995" lon="0.22997899999999896">
        <ele>2282.453</ele>
        <time>2022-01-30T14:32:45Z</time>
      </trkpt>
      <trkpt lat="42.84501599999995" lon="0.23003099999999896">
        <ele>2281.298</ele>
        <time>2022-01-30T14:32:48Z</time>
      </trkpt>
      <trkpt lat="42.84498899999995" lon="0.23008399999999896">
        <ele>2280.174</ele>
        <time>2022-01-30T14:32:53Z</time>
      </trkpt>
      <trkpt lat="42.844958999999946" lon="0.23013199999999895">
        <ele>2279.182</ele>
        <time>2022-01-30T14:32:58Z</time>
      </trkpt>
      <trkpt lat="42.84492399999995" lon="0.23017899999999894">
        <ele>2277.934</ele>
        <time>2022-01-30T14:33:03Z</time>
      </trkpt>
      <trkpt lat="42.84488399999995" lon="0.23020999999999894">
        <ele>2276.711</ele>
        <time>2022-01-30T14:33:08Z</time>
      </trkpt>
      <trkpt lat="42.84483699999995" lon="0.23024699999999895">
        <ele>2275.225</ele>
        <time>2022-01-30T14:33:13Z</time>
      </trkpt>
      <trkpt lat="42.844795999999945" lon="0.23028099999999896">
        <ele>2273.835</ele>
        <time>2022-01-30T14:33:17Z</time>
      </trkpt>
      <trkpt lat="42.84474999999995" lon="0.23031399999999896">
        <ele>2272.455</ele>
        <time>2022-01-30T14:33:22Z</time>
      </trkpt>
      <trkpt lat="42.84470199999995" lon="0.23033699999999896">
        <ele>2271.207</ele>
        <time>2022-01-30T14:33:30Z</time>
      </trkpt>
      <trkpt lat="42.844657999999946" lon="0.23035499999999895">
        <ele>2270.417</ele>
        <time>2022-01-30T14:33:36Z</time>
      </trkpt>
      <trkpt lat="42.84461399999994" lon="0.23037999999999895">
        <ele>2269.508</ele>
        <time>2022-01-30T14:33:42Z</time>
      </trkpt>
      <trkpt lat="42.84456399999994" lon="0.23040199999999894">
        <ele>2268.524</ele>
        <time>2022-01-30T14:33:48Z</time>
      </trkpt>
      <trkpt lat="42.844511999999945" lon="0.23041599999999893">
        <ele>2267.699</ele>
        <time>2022-01-30T14:33:54Z</time>
      </trkpt>
      <trkpt lat="42.84446799999994" lon="0.23043799999999892">
        <ele>2266.885</ele>
        <time>2022-01-30T14:33:59Z</time>
      </trkpt>
      <trkpt lat="42.844413999999944" lon="0.23046099999999892">
        <ele>2265.823</ele>
        <time>2022-01-30T14:34:04Z</time>
      </trkpt>
      <trkpt lat="42.84436999999994" lon="0.2304829999999989">
        <ele>2265.065</ele>
        <time>2022-01-30T14:34:08Z</time>
      </trkpt>
      <trkpt lat="42.84432299999994" lon="0.2305029999999989">
        <ele>2264.262</ele>
        <time>2022-01-30T14:34:12Z</time>
      </trkpt>
      <trkpt lat="42.84427499999994" lon="0.2305359999999989">
        <ele>2263.576</ele>
        <time>2022-01-30T14:34:17Z</time>
      </trkpt>
      <trkpt lat="42.84422799999994" lon="0.2305649999999989">
        <ele>2263.086</ele>
        <time>2022-01-30T14:34:22Z</time>
      </trkpt>
      <trkpt lat="42.84418199999994" lon="0.2305889999999989">
        <ele>2262.695</ele>
        <time>2022-01-30T14:34:26Z</time>
      </trkpt>
      <trkpt lat="42.84413899999994" lon="0.2306189999999989">
        <ele>2262.249</ele>
        <time>2022-01-30T14:34:30Z</time>
      </trkpt>
      <trkpt lat="42.84409399999994" lon="0.2306399999999989">
        <ele>2261.723</ele>
        <time>2022-01-30T14:34:34Z</time>
      </trkpt>
      <trkpt lat="42.84404899999994" lon="0.2306709999999989">
        <ele>2261.208</ele>
        <time>2022-01-30T14:34:39Z</time>
      </trkpt>
      <trkpt lat="42.843999999999944" lon="0.2306909999999989">
        <ele>2260.518</ele>
        <time>2022-01-30T14:34:46Z</time>
      </trkpt>
      <trkpt lat="42.84394999999994" lon="0.23070499999999888">
        <ele>2259.723</ele>
        <time>2022-01-30T14:34:51Z</time>
      </trkpt>
      <trkpt lat="42.843898999999944" lon="0.23072999999999888">
        <ele>2258.879</ele>
        <time>2022-01-30T14:34:56Z</time>
      </trkpt>
      <trkpt lat="42.84385799999994" lon="0.2307699999999989">
        <ele>2258.377</ele>
        <time>2022-01-30T14:35:01Z</time>
      </trkpt>
      <trkpt lat="42.843805999999944" lon="0.23078899999999888">
        <ele>2257.629</ele>
        <time>2022-01-30T14:35:06Z</time>
      </trkpt>
      <trkpt lat="42.84376699999994" lon="0.2308269999999989">
        <ele>2257.266</ele>
        <time>2022-01-30T14:35:11Z</time>
      </trkpt>
      <trkpt lat="42.84373399999994" lon="0.2308799999999989">
        <ele>2257.550</ele>
        <time>2022-01-30T14:35:16Z</time>
      </trkpt>
      <trkpt lat="42.84368399999994" lon="0.23087399999999889">
        <ele>2256.750</ele>
        <time>2022-01-30T14:35:24Z</time>
      </trkpt>
      <trkpt lat="42.843656999999936" lon="0.2309309999999989">
        <ele>2257.395</ele>
        <time>2022-01-30T14:35:30Z</time>
      </trkpt>
      <trkpt lat="42.84363899999994" lon="0.2309949999999989">
        <ele>2258.249</ele>
        <time>2022-01-30T14:35:36Z</time>
      </trkpt>
      <trkpt lat="42.84362199999994" lon="0.2310569999999989">
        <ele>2259.123</ele>
        <time>2022-01-30T14:35:41Z</time>
      </trkpt>
      <trkpt lat="42.84360299999994" lon="0.2311159999999989">
        <ele>2260.008</ele>
        <time>2022-01-30T14:35:46Z</time>
      </trkpt>
      <trkpt lat="42.84359199999994" lon="0.2311759999999989">
        <ele>2261.438</ele>
        <time>2022-01-30T14:36:04Z</time>
      </trkpt>
      <trkpt lat="42.84354999999994" lon="0.2312189999999989">
        <ele>2262.073</ele>
        <time>2022-01-30T14:36:09Z</time>
      </trkpt>
      <trkpt lat="42.84349899999994" lon="0.2312369999999989">
        <ele>2261.849</ele>
        <time>2022-01-30T14:36:14Z</time>
      </trkpt>
      <trkpt lat="42.84345399999994" lon="0.2312719999999989">
        <ele>2262.057</ele>
        <time>2022-01-30T14:36:19Z</time>
      </trkpt>
      <trkpt lat="42.843417999999936" lon="0.2313189999999989">
        <ele>2262.669</ele>
        <time>2022-01-30T14:36:35Z</time>
      </trkpt>
      <trkpt lat="42.84338299999994" lon="0.2313579999999989">
        <ele>2263.096</ele>
        <time>2022-01-30T14:36:44Z</time>
      </trkpt>
      <trkpt lat="42.84334399999994" lon="0.2313929999999989">
        <ele>2263.240</ele>
        <time>2022-01-30T14:36:52Z</time>
      </trkpt>
      <trkpt lat="42.84330099999994" lon="0.2314179999999989">
        <ele>2263.230</ele>
        <time>2022-01-30T14:37:01Z</time>
      </trkpt>
      <trkpt lat="42.84325999999994" lon="0.2314529999999989">
        <ele>2263.498</ele>
        <time>2022-01-30T14:37:11Z</time>
      </trkpt>
      <trkpt lat="42.843229999999934" lon="0.2315009999999989">
        <ele>2263.915</ele>
        <time>2022-01-30T14:37:20Z</time>
      </trkpt>
      <trkpt lat="42.84318099999994" lon="0.2315309999999989">
        <ele>2263.926</ele>
        <time>2022-01-30T14:37:29Z</time>
      </trkpt>
      <trkpt lat="42.843142999999934" lon="0.2315829999999989">
        <ele>2264.408</ele>
        <time>2022-01-30T14:37:35Z</time>
      </trkpt>
      <trkpt lat="42.84310799999994" lon="0.2316339999999989">
        <ele>2264.938</ele>
        <time>2022-01-30T14:37:41Z</time>
      </trkpt>
      <trkpt lat="42.84307699999994" lon="0.2316929999999989">
        <ele>2265.833</ele>
        <time>2022-01-30T14:37:47Z</time>
      </trkpt>
      <trkpt lat="42.843052999999934" lon="0.2317559999999989">
        <ele>2266.999</ele>
        <time>2022-01-30T14:37:53Z</time>
      </trkpt>
      <trkpt lat="42.84303899999993" lon="0.23182399999999892">
        <ele>2268.287</ele>
        <time>2022-01-30T14:37:59Z</time>
      </trkpt>
      <trkpt lat="42.843015999999935" lon="0.23188399999999892">
        <ele>2269.019</ele>
        <time>2022-01-30T14:38:05Z</time>
      </trkpt>
      <trkpt lat="42.842992999999936" lon="0.23194399999999893">
        <ele>2269.926</ele>
        <time>2022-01-30T14:38:11Z</time>
      </trkpt>
      <trkpt lat="42.84296599999993" lon="0.23200399999999893">
        <ele>2271.530</ele>
        <time>2022-01-30T14:38:17Z</time>
      </trkpt>
      <trkpt lat="42.842947999999936" lon="0.23206299999999894">
        <ele>2273.220</ele>
        <time>2022-01-30T14:38:22Z</time>
      </trkpt>
      <trkpt lat="42.84292399999993" lon="0.23212399999999894">
        <ele>2274.642</ele>
        <time>2022-01-30T14:38:28Z</time>
      </trkpt>
      <trkpt lat="42.84289599999993" lon="0.23217599999999894">
        <ele>2275.322</ele>
        <time>2022-01-30T14:38:36Z</time>
      </trkpt>
      <trkpt lat="42.84286499999993" lon="0.23222899999999894">
        <ele>2275.714</ele>
        <time>2022-01-30T14:38:47Z</time>
      </trkpt>
      <trkpt lat="42.842829999999935" lon="0.23227799999999893">
        <ele>2276.008</ele>
        <time>2022-01-30T14:38:56Z</time>
      </trkpt>
      <trkpt lat="42.84280399999994" lon="0.23233299999999893">
        <ele>2276.763</ele>
        <time>2022-01-30T14:39:05Z</time>
      </trkpt>
      <trkpt lat="42.842778999999936" lon="0.23238899999999893">
        <ele>2277.538</ele>
        <time>2022-01-30T14:39:14Z</time>
      </trkpt>
      <trkpt lat="42.842747999999936" lon="0.23243699999999892">
        <ele>2277.984</ele>
        <time>2022-01-30T14:39:37Z</time>
      </trkpt>
      <trkpt lat="42.84272199999994" lon="0.23249799999999893">
        <ele>2278.982</ele>
        <time>2022-01-30T14:39:45Z</time>
      </trkpt>
      <trkpt lat="42.842688999999936" lon="0.23254199999999892">
        <ele>2279.444</ele>
        <time>2022-01-30T14:39:56Z</time>
      </trkpt>
      <trkpt lat="42.84267099999994" lon="0.23260299999999892">
        <ele>2281.051</ele>
        <time>2022-01-30T14:40:15Z</time>
      </trkpt>
      <trkpt lat="42.84262499999994" lon="0.23260499999999892">
        <ele>2279.295</ele>
        <time>2022-01-30T14:40:23Z</time>
      </trkpt>
      <trkpt lat="42.842592999999944" lon="0.23265799999999892">
        <ele>2279.785</ele>
        <time>2022-01-30T14:40:31Z</time>
      </trkpt>
      <trkpt lat="42.84257499999995" lon="0.23271599999999892">
        <ele>2280.837</ele>
        <time>2022-01-30T14:40:39Z</time>
      </trkpt>
      <trkpt lat="42.84255699999995" lon="0.23277599999999893">
        <ele>2281.849</ele>
        <time>2022-01-30T14:40:48Z</time>
      </trkpt>
      <trkpt lat="42.84252899999995" lon="0.23282499999999892">
        <ele>2281.513</ele>
        <time>2022-01-30T14:41:01Z</time>
      </trkpt>
      <trkpt lat="42.84250699999995" lon="0.23288299999999892">
        <ele>2281.708</ele>
        <time>2022-01-30T14:41:08Z</time>
      </trkpt>
      <trkpt lat="42.84247499999995" lon="0.23293199999999892">
        <ele>2282.152</ele>
        <time>2022-01-30T14:41:15Z</time>
      </trkpt>
      <trkpt lat="42.842439999999954" lon="0.23298999999999892">
        <ele>2282.977</ele>
        <time>2022-01-30T14:41:21Z</time>
      </trkpt>
      <trkpt lat="42.84240699999995" lon="0.23305099999999893">
        <ele>2283.963</ele>
        <time>2022-01-30T14:41:26Z</time>
      </trkpt>
      <trkpt lat="42.84238099999995" lon="0.23310299999999892">
        <ele>2284.831</ele>
        <time>2022-01-30T14:41:30Z</time>
      </trkpt>
      <trkpt lat="42.84235699999995" lon="0.23316099999999892">
        <ele>2285.953</ele>
        <time>2022-01-30T14:41:35Z</time>
      </trkpt>
      <trkpt lat="42.84232499999995" lon="0.23321699999999893">
        <ele>2286.850</ele>
        <time>2022-01-30T14:41:41Z</time>
      </trkpt>
      <trkpt lat="42.842298999999954" lon="0.23327499999999893">
        <ele>2287.824</ele>
        <time>2022-01-30T14:41:47Z</time>
      </trkpt>
      <trkpt lat="42.84233599999995" lon="0.23323899999999892">
        <ele>2287.524</ele>
        <time>2022-01-30T14:42:05Z</time>
      </trkpt>
      <trkpt lat="42.84231099999995" lon="0.23332499999999892">
        <ele>2289.129</ele>
        <time>2022-01-30T14:42:35Z</time>
      </trkpt>
      <trkpt lat="42.842264999999955" lon="0.23337799999999892">
        <ele>2290.100</ele>
        <time>2022-01-30T14:42:36Z</time>
      </trkpt>
      <trkpt lat="42.842196999999956" lon="0.23347199999999893">
        <ele>2292.020</ele>
        <time>2022-01-30T14:42:38Z</time>
      </trkpt>
      <trkpt lat="42.84219599999996" lon="0.23357799999999893">
        <ele>2295.408</ele>
        <time>2022-01-30T14:42:40Z</time>
      </trkpt>
      <trkpt lat="42.842196999999956" lon="0.23364399999999894">
        <ele>2297.771</ele>
        <time>2022-01-30T14:43:22Z</time>
      </trkpt>
      <trkpt lat="42.84218799999996" lon="0.23370499999999894">
        <ele>2299.886</ele>
        <time>2022-01-30T14:43:39Z</time>
      </trkpt>
      <trkpt lat="42.84215999999996" lon="0.23375599999999894">
        <ele>2301.172</ele>
        <time>2022-01-30T14:43:52Z</time>
      </trkpt>
      <trkpt lat="42.84213099999996" lon="0.23380899999999893">
        <ele>2302.570</ele>
        <time>2022-01-30T14:44:04Z</time>
      </trkpt>
      <trkpt lat="42.84209199999996" lon="0.23385199999999892">
        <ele>2303.322</ele>
        <time>2022-01-30T14:44:15Z</time>
      </trkpt>
      <trkpt lat="42.84205499999996" lon="0.23389099999999893">
        <ele>2304.049</ele>
        <time>2022-01-30T14:44:24Z</time>
      </trkpt>
      <trkpt lat="42.842016999999956" lon="0.23393499999999892">
        <ele>2304.443</ele>
        <time>2022-01-30T14:44:33Z</time>
      </trkpt>
      <trkpt lat="42.841980999999954" lon="0.23397499999999893">
        <ele>2304.683</ele>
        <time>2022-01-30T14:44:43Z</time>
      </trkpt>
      <trkpt lat="42.84194899999996" lon="0.23401899999999892">
        <ele>2304.938</ele>
        <time>2022-01-30T14:44:52Z</time>
      </trkpt>
      <trkpt lat="42.84191399999996" lon="0.2340639999999989">
        <ele>2305.470</ele>
        <time>2022-01-30T14:44:59Z</time>
      </trkpt>
      <trkpt lat="42.84189399999996" lon="0.23412499999999892">
        <ele>2306.517</ele>
        <time>2022-01-30T14:45:05Z</time>
      </trkpt>
      <trkpt lat="42.84186299999996" lon="0.2341739999999989">
        <ele>2307.408</ele>
        <time>2022-01-30T14:45:11Z</time>
      </trkpt>
      <trkpt lat="42.84182499999996" lon="0.23420999999999892">
        <ele>2308.252</ele>
        <time>2022-01-30T14:45:16Z</time>
      </trkpt>
      <trkpt lat="42.84178799999996" lon="0.2342579999999989">
        <ele>2309.447</ele>
        <time>2022-01-30T14:45:21Z</time>
      </trkpt>
      <trkpt lat="42.84175399999996" lon="0.2343059999999989">
        <ele>2310.643</ele>
        <time>2022-01-30T14:45:27Z</time>
      </trkpt>
      <trkpt lat="42.84172399999996" lon="0.2343549999999989">
        <ele>2311.961</ele>
        <time>2022-01-30T14:45:34Z</time>
      </trkpt>
      <trkpt lat="42.841696999999954" lon="0.2344089999999989">
        <ele>2313.383</ele>
        <time>2022-01-30T14:45:54Z</time>
      </trkpt>
      <trkpt lat="42.841670999999955" lon="0.2344629999999989">
        <ele>2314.830</ele>
        <time>2022-01-30T14:46:00Z</time>
      </trkpt>
      <trkpt lat="42.84162999999995" lon="0.2344899999999989">
        <ele>2315.244</ele>
        <time>2022-01-30T14:46:26Z</time>
      </trkpt>
      <trkpt lat="42.84159199999995" lon="0.2345259999999989">
        <ele>2316.064</ele>
        <time>2022-01-30T14:46:31Z</time>
      </trkpt>
      <trkpt lat="42.84154199999995" lon="0.2345589999999989">
        <ele>2316.786</ele>
        <time>2022-01-30T14:46:37Z</time>
      </trkpt>
      <trkpt lat="42.84149699999995" lon="0.2345899999999989">
        <ele>2317.360</ele>
        <time>2022-01-30T14:46:42Z</time>
      </trkpt>
      <trkpt lat="42.841455999999944" lon="0.2346159999999989">
        <ele>2317.926</ele>
        <time>2022-01-30T14:46:47Z</time>
      </trkpt>
      <trkpt lat="42.84141699999994" lon="0.23465299999999892">
        <ele>2319.108</ele>
        <time>2022-01-30T14:46:52Z</time>
      </trkpt>
      <trkpt lat="42.84137599999994" lon="0.23468699999999892">
        <ele>2320.277</ele>
        <time>2022-01-30T14:46:57Z</time>
      </trkpt>
      <trkpt lat="42.84133199999994" lon="0.23472299999999893">
        <ele>2321.442</ele>
        <time>2022-01-30T14:47:02Z</time>
      </trkpt>
      <trkpt lat="42.84128399999994" lon="0.23475599999999894">
        <ele>2322.368</ele>
        <time>2022-01-30T14:47:07Z</time>
      </trkpt>
      <trkpt lat="42.84123199999994" lon="0.23477399999999893">
        <ele>2322.546</ele>
        <time>2022-01-30T14:47:12Z</time>
      </trkpt>
      <trkpt lat="42.84118399999994" lon="0.23479799999999892">
        <ele>2323.048</ele>
        <time>2022-01-30T14:47:17Z</time>
      </trkpt>
      <trkpt lat="42.84113899999994" lon="0.23481699999999892">
        <ele>2323.485</ele>
        <time>2022-01-30T14:47:21Z</time>
      </trkpt>
      <trkpt lat="42.84108399999994" lon="0.23481999999999892">
        <ele>2323.489</ele>
        <time>2022-01-30T14:47:25Z</time>
      </trkpt>
      <trkpt lat="42.841028999999935" lon="0.23482299999999892">
        <ele>2323.939</ele>
        <time>2022-01-30T14:47:29Z</time>
      </trkpt>
      <trkpt lat="42.840975999999934" lon="0.23481999999999892">
        <ele>2324.115</ele>
        <time>2022-01-30T14:47:33Z</time>
      </trkpt>
      <trkpt lat="42.84091999999993" lon="0.2348129999999989">
        <ele>2324.165</ele>
        <time>2022-01-30T14:47:37Z</time>
      </trkpt>
      <trkpt lat="42.84087199999993" lon="0.23479599999999892">
        <ele>2323.511</ele>
        <time>2022-01-30T14:47:41Z</time>
      </trkpt>
      <trkpt lat="42.840822999999936" lon="0.23477899999999893">
        <ele>2322.908</ele>
        <time>2022-01-30T14:47:45Z</time>
      </trkpt>
      <trkpt lat="42.84077099999994" lon="0.23476899999999892">
        <ele>2322.470</ele>
        <time>2022-01-30T14:47:51Z</time>
      </trkpt>
      <trkpt lat="42.84071699999994" lon="0.23476699999999892">
        <ele>2322.375</ele>
        <time>2022-01-30T14:47:57Z</time>
      </trkpt>
      <trkpt lat="42.84067099999994" lon="0.23476399999999892">
        <ele>2322.381</ele>
        <time>2022-01-30T14:48:02Z</time>
      </trkpt>
      <trkpt lat="42.84062399999994" lon="0.23476699999999892">
        <ele>2322.449</ele>
        <time>2022-01-30T14:48:08Z</time>
      </trkpt>
      <trkpt lat="42.840577999999944" lon="0.23477499999999893">
        <ele>2322.781</ele>
        <time>2022-01-30T14:48:14Z</time>
      </trkpt>
      <trkpt lat="42.840526999999945" lon="0.23477599999999893">
        <ele>2322.818</ele>
        <time>2022-01-30T14:48:20Z</time>
      </trkpt>
      <trkpt lat="42.84048099999995" lon="0.23477499999999893">
        <ele>2323.012</ele>
        <time>2022-01-30T14:48:26Z</time>
      </trkpt>
      <trkpt lat="42.84043199999995" lon="0.23478399999999894">
        <ele>2323.482</ele>
        <time>2022-01-30T14:48:33Z</time>
      </trkpt>
      <trkpt lat="42.84038399999995" lon="0.23479399999999895">
        <ele>2323.854</ele>
        <time>2022-01-30T14:48:40Z</time>
      </trkpt>
      <trkpt lat="42.84033799999995" lon="0.23479799999999895">
        <ele>2324.056</ele>
        <time>2022-01-30T14:48:45Z</time>
      </trkpt>
      <trkpt lat="42.84029399999995" lon="0.23481699999999894">
        <ele>2324.311</ele>
        <time>2022-01-30T14:48:51Z</time>
      </trkpt>
      <trkpt lat="42.84024799999995" lon="0.23483499999999893">
        <ele>2325.008</ele>
        <time>2022-01-30T14:48:58Z</time>
      </trkpt>
      <trkpt lat="42.84019999999995" lon="0.23484099999999894">
        <ele>2325.664</ele>
        <time>2022-01-30T14:49:06Z</time>
      </trkpt>
      <trkpt lat="42.840156999999955" lon="0.23486799999999894">
        <ele>2326.429</ele>
        <time>2022-01-30T14:49:14Z</time>
      </trkpt>
      <trkpt lat="42.84010699999995" lon="0.23488099999999895">
        <ele>2327.075</ele>
        <time>2022-01-30T14:49:20Z</time>
      </trkpt>
      <trkpt lat="42.84005699999995" lon="0.23489999999999894">
        <ele>2327.523</ele>
        <time>2022-01-30T14:49:26Z</time>
      </trkpt>
      <trkpt lat="42.84000999999995" lon="0.23493099999999895">
        <ele>2327.935</ele>
        <time>2022-01-30T14:49:32Z</time>
      </trkpt>
      <trkpt lat="42.83996699999995" lon="0.23495799999999895">
        <ele>2328.142</ele>
        <time>2022-01-30T14:49:36Z</time>
      </trkpt>
      <trkpt lat="42.83991999999995" lon="0.23499299999999895">
        <ele>2328.366</ele>
        <time>2022-01-30T14:49:41Z</time>
      </trkpt>
      <trkpt lat="42.83987499999995" lon="0.23501699999999895">
        <ele>2328.546</ele>
        <time>2022-01-30T14:49:45Z</time>
      </trkpt>
      <trkpt lat="42.83983099999995" lon="0.23504699999999895">
        <ele>2328.882</ele>
        <time>2022-01-30T14:49:49Z</time>
      </trkpt>
      <trkpt lat="42.83979699999995" lon="0.23510499999999895">
        <ele>2329.143</ele>
        <time>2022-01-30T14:49:53Z</time>
      </trkpt>
      <trkpt lat="42.83979699999995" lon="0.23517899999999894">
        <ele>2329.417</ele>
        <time>2022-01-30T14:50:01Z</time>
      </trkpt>
      <trkpt lat="42.83977999999995" lon="0.23510299999999895">
        <ele>2329.208</ele>
        <time>2022-01-30T14:50:04Z</time>
      </trkpt>
      <trkpt lat="42.83981399999995" lon="0.23514799999999894">
        <ele>2329.227</ele>
        <time>2022-01-30T14:50:20Z</time>
      </trkpt>
      <trkpt lat="42.83984799999995" lon="0.23519499999999893">
        <ele>2329.242</ele>
        <time>2022-01-30T14:50:28Z</time>
      </trkpt>
      <trkpt lat="42.83983399999995" lon="0.23526599999999892">
        <ele>2329.638</ele>
        <time>2022-01-30T14:50:34Z</time>
      </trkpt>
      <trkpt lat="42.83981399999995" lon="0.23532099999999892">
        <ele>2330.146</ele>
        <time>2022-01-30T14:50:39Z</time>
      </trkpt>
      <trkpt lat="42.83980199999995" lon="0.23538599999999893">
        <ele>2330.968</ele>
        <time>2022-01-30T14:50:45Z</time>
      </trkpt>
      <trkpt lat="42.839805999999946" lon="0.23544799999999894">
        <ele>2331.525</ele>
        <time>2022-01-30T14:50:52Z</time>
      </trkpt>
      <trkpt lat="42.83979999999995" lon="0.23551699999999895">
        <ele>2332.379</ele>
        <time>2022-01-30T14:51:00Z</time>
      </trkpt>
      <trkpt lat="42.839808999999946" lon="0.23558199999999896">
        <ele>2332.459</ele>
        <time>2022-01-30T14:51:08Z</time>
      </trkpt>
      <trkpt lat="42.83981099999995" lon="0.23564499999999897">
        <ele>2331.845</ele>
        <time>2022-01-30T14:51:17Z</time>
      </trkpt>
      <trkpt lat="42.83981899999995" lon="0.23571399999999898">
        <ele>2331.147</ele>
        <time>2022-01-30T14:51:24Z</time>
      </trkpt>
      <trkpt lat="42.83983799999995" lon="0.235780999999999">
        <ele>2330.511</ele>
        <time>2022-01-30T14:51:30Z</time>
      </trkpt>
      <trkpt lat="42.83983499999995" lon="0.235842999999999">
        <ele>2329.808</ele>
        <time>2022-01-30T14:51:34Z</time>
      </trkpt>
      <trkpt lat="42.83983799999995" lon="0.235907999999999">
        <ele>2328.183</ele>
        <time>2022-01-30T14:51:40Z</time>
      </trkpt>
      <trkpt lat="42.83986799999995" lon="0.235956999999999">
        <ele>2326.968</ele>
        <time>2022-01-30T14:51:46Z</time>
      </trkpt>
      <trkpt lat="42.83983999999995" lon="0.235906999999999">
        <ele>2328.134</ele>
        <time>2022-01-30T14:52:10Z</time>
      </trkpt>
      <trkpt lat="42.83988799999995" lon="0.23591499999999901">
        <ele>2328.052</ele>
        <time>2022-01-30T14:52:17Z</time>
      </trkpt>
      <trkpt lat="42.83986799999995" lon="0.23597799999999902">
        <ele>2326.494</ele>
        <time>2022-01-30T14:53:18Z</time>
      </trkpt>
      <trkpt lat="42.83986799999995" lon="0.236050999999999">
        <ele>2324.641</ele>
        <time>2022-01-30T14:56:26Z</time>
      </trkpt>
      <trkpt lat="42.83988799999995" lon="0.23611899999999902">
        <ele>2322.975</ele>
        <time>2022-01-30T14:56:31Z</time>
      </trkpt>
      <trkpt lat="42.839911999999956" lon="0.23618299999999903">
        <ele>2321.155</ele>
        <time>2022-01-30T14:56:36Z</time>
      </trkpt>
      <trkpt lat="42.839942999999955" lon="0.23624699999999904">
        <ele>2319.375</ele>
        <time>2022-01-30T14:56:41Z</time>
      </trkpt>
      <trkpt lat="42.839990999999955" lon="0.23624899999999904">
        <ele>2319.528</ele>
        <time>2022-01-30T14:56:45Z</time>
      </trkpt>
      <trkpt lat="42.84000899999995" lon="0.23631499999999905">
        <ele>2317.520</ele>
        <time>2022-01-30T14:56:53Z</time>
      </trkpt>
      <trkpt lat="42.840027999999954" lon="0.23637999999999906">
        <ele>2315.508</ele>
        <time>2022-01-30T14:56:59Z</time>
      </trkpt>
      <trkpt lat="42.84005099999995" lon="0.23643499999999906">
        <ele>2313.996</ele>
        <time>2022-01-30T14:57:06Z</time>
      </trkpt>
      <trkpt lat="42.840032999999956" lon="0.23649899999999907">
        <ele>2311.961</ele>
        <time>2022-01-30T14:57:17Z</time>
      </trkpt>
      <trkpt lat="42.840030999999954" lon="0.23656499999999908">
        <ele>2309.977</ele>
        <time>2022-01-30T14:57:23Z</time>
      </trkpt>
      <trkpt lat="42.840032999999956" lon="0.23663699999999907">
        <ele>2307.855</ele>
        <time>2022-01-30T14:57:31Z</time>
      </trkpt>
      <trkpt lat="42.84003399999995" lon="0.23670599999999908">
        <ele>2305.747</ele>
        <time>2022-01-30T14:57:37Z</time>
      </trkpt>
      <trkpt lat="42.840010999999954" lon="0.2367679999999991">
        <ele>2304.084</ele>
        <time>2022-01-30T14:57:42Z</time>
      </trkpt>
      <trkpt lat="42.839982999999954" lon="0.2368209999999991">
        <ele>2302.538</ele>
        <time>2022-01-30T14:57:46Z</time>
      </trkpt>
      <trkpt lat="42.83994999999995" lon="0.23687299999999908">
        <ele>2301.038</ele>
        <time>2022-01-30T14:57:51Z</time>
      </trkpt>
      <trkpt lat="42.83991899999995" lon="0.23692699999999908">
        <ele>2299.598</ele>
        <time>2022-01-30T14:57:56Z</time>
      </trkpt>
      <trkpt lat="42.839889999999954" lon="0.23697799999999908">
        <ele>2298.315</ele>
        <time>2022-01-30T14:58:01Z</time>
      </trkpt>
      <trkpt lat="42.839889999999954" lon="0.2370419999999991">
        <ele>2297.026</ele>
        <time>2022-01-30T14:58:21Z</time>
      </trkpt>
      <trkpt lat="42.83985099999995" lon="0.2370969999999991">
        <ele>2296.008</ele>
        <time>2022-01-30T14:58:26Z</time>
      </trkpt>
      <trkpt lat="42.83982299999995" lon="0.23715199999999909">
        <ele>2295.028</ele>
        <time>2022-01-30T14:58:31Z</time>
      </trkpt>
      <trkpt lat="42.83979199999995" lon="0.2372119999999991">
        <ele>2293.983</ele>
        <time>2022-01-30T14:58:36Z</time>
      </trkpt>
      <trkpt lat="42.83976699999995" lon="0.2372699999999991">
        <ele>2293.059</ele>
        <time>2022-01-30T14:58:40Z</time>
      </trkpt>
      <trkpt lat="42.83974299999995" lon="0.2373309999999991">
        <ele>2292.047</ele>
        <time>2022-01-30T14:58:44Z</time>
      </trkpt>
      <trkpt lat="42.83972199999995" lon="0.2373849999999991">
        <ele>2291.169</ele>
        <time>2022-01-30T14:58:48Z</time>
      </trkpt>
      <trkpt lat="42.839700999999955" lon="0.2374439999999991">
        <ele>2289.866</ele>
        <time>2022-01-30T14:58:52Z</time>
      </trkpt>
      <trkpt lat="42.839726999999954" lon="0.2374949999999991">
        <ele>2289.170</ele>
        <time>2022-01-30T14:58:58Z</time>
      </trkpt>
      <trkpt lat="42.83972999999995" lon="0.2375579999999991">
        <ele>2288.480</ele>
        <time>2022-01-30T14:59:27Z</time>
      </trkpt>
      <trkpt lat="42.83971699999995" lon="0.2376219999999991">
        <ele>2287.645</ele>
        <time>2022-01-30T14:59:33Z</time>
      </trkpt>
      <trkpt lat="42.83969999999995" lon="0.23767999999999911">
        <ele>2286.847</ele>
        <time>2022-01-30T14:59:37Z</time>
      </trkpt>
      <trkpt lat="42.83967199999995" lon="0.23773699999999912">
        <ele>2285.711</ele>
        <time>2022-01-30T14:59:41Z</time>
      </trkpt>
      <trkpt lat="42.83963399999995" lon="0.23779299999999912">
        <ele>2284.508</ele>
        <time>2022-01-30T14:59:45Z</time>
      </trkpt>
      <trkpt lat="42.83959599999994" lon="0.2378389999999991">
        <ele>2283.413</ele>
        <time>2022-01-30T14:59:48Z</time>
      </trkpt>
      <trkpt lat="42.839547999999944" lon="0.2378639999999991">
        <ele>2282.488</ele>
        <time>2022-01-30T14:59:51Z</time>
      </trkpt>
      <trkpt lat="42.83950099999994" lon="0.2378859999999991">
        <ele>2281.364</ele>
        <time>2022-01-30T14:59:54Z</time>
      </trkpt>
      <trkpt lat="42.83945899999994" lon="0.2379099999999991">
        <ele>2280.342</ele>
        <time>2022-01-30T14:59:57Z</time>
      </trkpt>
      <trkpt lat="42.839406999999945" lon="0.2379329999999991">
        <ele>2279.294</ele>
        <time>2022-01-30T15:00:01Z</time>
      </trkpt>
      <trkpt lat="42.839355999999945" lon="0.2379649999999991">
        <ele>2277.971</ele>
        <time>2022-01-30T15:00:06Z</time>
      </trkpt>
      <trkpt lat="42.839335999999946" lon="0.2380229999999991">
        <ele>2276.965</ele>
        <time>2022-01-30T15:00:11Z</time>
      </trkpt>
      <trkpt lat="42.83929899999995" lon="0.2380619999999991">
        <ele>2275.825</ele>
        <time>2022-01-30T15:00:17Z</time>
      </trkpt>
      <trkpt lat="42.839276999999946" lon="0.2381159999999991">
        <ele>2274.692</ele>
        <time>2022-01-30T15:00:22Z</time>
      </trkpt>
      <trkpt lat="42.83924799999995" lon="0.2381719999999991">
        <ele>2273.473</ele>
        <time>2022-01-30T15:00:27Z</time>
      </trkpt>
      <trkpt lat="42.839228999999946" lon="0.2382279999999991">
        <ele>2272.320</ele>
        <time>2022-01-30T15:00:31Z</time>
      </trkpt>
      <trkpt lat="42.839197999999946" lon="0.2382719999999991">
        <ele>2271.208</ele>
        <time>2022-01-30T15:00:35Z</time>
      </trkpt>
      <trkpt lat="42.83916699999995" lon="0.2383309999999991">
        <ele>2270.068</ele>
        <time>2022-01-30T15:00:40Z</time>
      </trkpt>
      <trkpt lat="42.839133999999945" lon="0.2383899999999991">
        <ele>2268.933</ele>
        <time>2022-01-30T15:00:45Z</time>
      </trkpt>
      <trkpt lat="42.839108999999944" lon="0.2384499999999991">
        <ele>2267.759</ele>
        <time>2022-01-30T15:00:50Z</time>
      </trkpt>
      <trkpt lat="42.83908499999994" lon="0.2385039999999991">
        <ele>2266.647</ele>
        <time>2022-01-30T15:00:55Z</time>
      </trkpt>
      <trkpt lat="42.83905799999994" lon="0.2385589999999991">
        <ele>2265.579</ele>
        <time>2022-01-30T15:01:00Z</time>
      </trkpt>
      <trkpt lat="42.83902899999994" lon="0.2386109999999991">
        <ele>2264.586</ele>
        <time>2022-01-30T15:01:05Z</time>
      </trkpt>
      <trkpt lat="42.83899699999994" lon="0.2386689999999991">
        <ele>2263.340</ele>
        <time>2022-01-30T15:01:10Z</time>
      </trkpt>
      <trkpt lat="42.83896399999994" lon="0.2387319999999991">
        <ele>2262.140</ele>
        <time>2022-01-30T15:01:14Z</time>
      </trkpt>
      <trkpt lat="42.83892999999994" lon="0.2387839999999991">
        <ele>2261.086</ele>
        <time>2022-01-30T15:01:18Z</time>
      </trkpt>
      <trkpt lat="42.83890399999994" lon="0.2388449999999991">
        <ele>2259.860</ele>
        <time>2022-01-30T15:01:23Z</time>
      </trkpt>
      <trkpt lat="42.838874999999945" lon="0.2388999999999991">
        <ele>2258.826</ele>
        <time>2022-01-30T15:01:28Z</time>
      </trkpt>
      <trkpt lat="42.838849999999944" lon="0.2389559999999991">
        <ele>2258.008</ele>
        <time>2022-01-30T15:01:33Z</time>
      </trkpt>
      <trkpt lat="42.83881999999994" lon="0.23901599999999912">
        <ele>2257.197</ele>
        <time>2022-01-30T15:01:38Z</time>
      </trkpt>
      <trkpt lat="42.83879599999994" lon="0.23907399999999912">
        <ele>2256.332</ele>
        <time>2022-01-30T15:01:44Z</time>
      </trkpt>
      <trkpt lat="42.83876699999994" lon="0.23913799999999913">
        <ele>2255.458</ele>
        <time>2022-01-30T15:01:49Z</time>
      </trkpt>
      <trkpt lat="42.838745999999944" lon="0.23920199999999914">
        <ele>2254.586</ele>
        <time>2022-01-30T15:01:54Z</time>
      </trkpt>
      <trkpt lat="42.83872099999994" lon="0.23926799999999915">
        <ele>2253.568</ele>
        <time>2022-01-30T15:01:59Z</time>
      </trkpt>
      <trkpt lat="42.838699999999946" lon="0.23932199999999915">
        <ele>2252.625</ele>
        <time>2022-01-30T15:02:03Z</time>
      </trkpt>
      <trkpt lat="42.83867699999995" lon="0.23938599999999916">
        <ele>2251.549</ele>
        <time>2022-01-30T15:02:07Z</time>
      </trkpt>
      <trkpt lat="42.838652999999944" lon="0.23944099999999915">
        <ele>2250.579</ele>
        <time>2022-01-30T15:02:11Z</time>
      </trkpt>
      <trkpt lat="42.83862899999994" lon="0.23949399999999915">
        <ele>2249.644</ele>
        <time>2022-01-30T15:02:15Z</time>
      </trkpt>
      <trkpt lat="42.83860399999994" lon="0.23955199999999915">
        <ele>2248.805</ele>
        <time>2022-01-30T15:02:19Z</time>
      </trkpt>
      <trkpt lat="42.83857899999994" lon="0.23960899999999916">
        <ele>2247.915</ele>
        <time>2022-01-30T15:02:23Z</time>
      </trkpt>
      <trkpt lat="42.838554999999936" lon="0.23967299999999916">
        <ele>2247.008</ele>
        <time>2022-01-30T15:02:27Z</time>
      </trkpt>
      <trkpt lat="42.83852899999994" lon="0.23973299999999917">
        <ele>2245.953</ele>
        <time>2022-01-30T15:02:31Z</time>
      </trkpt>
      <trkpt lat="42.83849699999994" lon="0.23979199999999917">
        <ele>2244.738</ele>
        <time>2022-01-30T15:02:36Z</time>
      </trkpt>
      <trkpt lat="42.83846699999994" lon="0.23983899999999916">
        <ele>2243.564</ele>
        <time>2022-01-30T15:02:40Z</time>
      </trkpt>
      <trkpt lat="42.83843599999994" lon="0.23988499999999915">
        <ele>2242.442</ele>
        <time>2022-01-30T15:02:44Z</time>
      </trkpt>
      <trkpt lat="42.838405999999935" lon="0.23993499999999915">
        <ele>2241.254</ele>
        <time>2022-01-30T15:02:48Z</time>
      </trkpt>
      <trkpt lat="42.83837399999994" lon="0.23997999999999914">
        <ele>2239.981</ele>
        <time>2022-01-30T15:02:52Z</time>
      </trkpt>
      <trkpt lat="42.838332999999935" lon="0.24002499999999913">
        <ele>2238.275</ele>
        <time>2022-01-30T15:02:58Z</time>
      </trkpt>
      <trkpt lat="42.83837599999993" lon="0.24006199999999914">
        <ele>2237.815</ele>
        <time>2022-01-30T15:03:04Z</time>
      </trkpt>
      <trkpt lat="42.838357999999936" lon="0.24011899999999914">
        <ele>2235.792</ele>
        <time>2022-01-30T15:03:12Z</time>
      </trkpt>
      <trkpt lat="42.838323999999936" lon="0.24016499999999913">
        <ele>2233.573</ele>
        <time>2022-01-30T15:03:17Z</time>
      </trkpt>
      <trkpt lat="42.838321999999934" lon="0.24022799999999914">
        <ele>2231.420</ele>
        <time>2022-01-30T15:03:23Z</time>
      </trkpt>
      <trkpt lat="42.838290999999934" lon="0.24017399999999914">
        <ele>2232.808</ele>
        <time>2022-01-30T15:03:58Z</time>
      </trkpt>
      <trkpt lat="42.83824699999993" lon="0.24013899999999913">
        <ele>2233.338</ele>
        <time>2022-01-30T15:04:03Z</time>
      </trkpt>
      <trkpt lat="42.838194999999935" lon="0.24012299999999914">
        <ele>2233.033</ele>
        <time>2022-01-30T15:04:09Z</time>
      </trkpt>
      <trkpt lat="42.83814899999994" lon="0.24011899999999914">
        <ele>2232.539</ele>
        <time>2022-01-30T15:04:15Z</time>
      </trkpt>
      <trkpt lat="42.83811199999994" lon="0.24015699999999915">
        <ele>2230.767</ele>
        <time>2022-01-30T15:04:21Z</time>
      </trkpt>
      <trkpt lat="42.83807699999994" lon="0.24019499999999916">
        <ele>2229.069</ele>
        <time>2022-01-30T15:04:26Z</time>
      </trkpt>
      <trkpt lat="42.83803599999994" lon="0.24024099999999915">
        <ele>2227.566</ele>
        <time>2022-01-30T15:04:31Z</time>
      </trkpt>
      <trkpt lat="42.83800499999994" lon="0.24028799999999914">
        <ele>2226.790</ele>
        <time>2022-01-30T15:04:35Z</time>
      </trkpt>
      <trkpt lat="42.83797699999994" lon="0.24034099999999914">
        <ele>2226.060</ele>
        <time>2022-01-30T15:04:39Z</time>
      </trkpt>
      <trkpt lat="42.83794599999994" lon="0.24040099999999914">
        <ele>2225.121</ele>
        <time>2022-01-30T15:04:43Z</time>
      </trkpt>
      <trkpt lat="42.83791499999994" lon="0.24044799999999913">
        <ele>2224.541</ele>
        <time>2022-01-30T15:04:47Z</time>
      </trkpt>
      <trkpt lat="42.83788199999994" lon="0.24050499999999914">
        <ele>2223.705</ele>
        <time>2022-01-30T15:04:51Z</time>
      </trkpt>
      <trkpt lat="42.83785099999994" lon="0.24055299999999913">
        <ele>2223.008</ele>
        <time>2022-01-30T15:04:55Z</time>
      </trkpt>
      <trkpt lat="42.83781699999994" lon="0.24059399999999914">
        <ele>2222.721</ele>
        <time>2022-01-30T15:04:59Z</time>
      </trkpt>
      <trkpt lat="42.83779099999994" lon="0.24065199999999914">
        <ele>2221.846</ele>
        <time>2022-01-30T15:05:03Z</time>
      </trkpt>
      <trkpt lat="42.83776199999994" lon="0.24071099999999915">
        <ele>2220.772</ele>
        <time>2022-01-30T15:05:07Z</time>
      </trkpt>
      <trkpt lat="42.83773399999994" lon="0.24076099999999914">
        <ele>2219.880</ele>
        <time>2022-01-30T15:05:11Z</time>
      </trkpt>
      <trkpt lat="42.83770299999994" lon="0.24081099999999914">
        <ele>2218.842</ele>
        <time>2022-01-30T15:05:15Z</time>
      </trkpt>
      <trkpt lat="42.83767699999994" lon="0.24086499999999914">
        <ele>2217.469</ele>
        <time>2022-01-30T15:05:19Z</time>
      </trkpt>
      <trkpt lat="42.83765199999994" lon="0.24092899999999914">
        <ele>2215.483</ele>
        <time>2022-01-30T15:05:23Z</time>
      </trkpt>
      <trkpt lat="42.83763299999994" lon="0.24099199999999915">
        <ele>2213.353</ele>
        <time>2022-01-30T15:05:27Z</time>
      </trkpt>
      <trkpt lat="42.83761199999994" lon="0.24106199999999914">
        <ele>2210.968</ele>
        <time>2022-01-30T15:05:32Z</time>
      </trkpt>
      <trkpt lat="42.837582999999945" lon="0.24112699999999915">
        <ele>2208.442</ele>
        <time>2022-01-30T15:05:37Z</time>
      </trkpt>
      <trkpt lat="42.83756999999994" lon="0.24119799999999914">
        <ele>2206.226</ele>
        <time>2022-01-30T15:05:42Z</time>
      </trkpt>
      <trkpt lat="42.83755599999994" lon="0.24126699999999915">
        <ele>2203.908</ele>
        <time>2022-01-30T15:05:48Z</time>
      </trkpt>
      <trkpt lat="42.83752499999994" lon="0.24131499999999914">
        <ele>2201.995</ele>
        <time>2022-01-30T15:05:54Z</time>
      </trkpt>
      <trkpt lat="42.83749099999994" lon="0.24136399999999913">
        <ele>2199.660</ele>
        <time>2022-01-30T15:06:01Z</time>
      </trkpt>
      <trkpt lat="42.837461999999945" lon="0.24141699999999913">
        <ele>2197.076</ele>
        <time>2022-01-30T15:06:06Z</time>
      </trkpt>
      <trkpt lat="42.83744299999994" lon="0.24148399999999914">
        <ele>2194.154</ele>
        <time>2022-01-30T15:06:10Z</time>
      </trkpt>
      <trkpt lat="42.83742699999994" lon="0.24155299999999916">
        <ele>2191.316</ele>
        <time>2022-01-30T15:06:15Z</time>
      </trkpt>
      <trkpt lat="42.83740499999994" lon="0.24160899999999916">
        <ele>2188.773</ele>
        <time>2022-01-30T15:06:20Z</time>
      </trkpt>
      <trkpt lat="42.83741399999994" lon="0.24167099999999916">
        <ele>2186.757</ele>
        <time>2022-01-30T15:06:25Z</time>
      </trkpt>
      <trkpt lat="42.83739099999994" lon="0.24172999999999917">
        <ele>2184.687</ele>
        <time>2022-01-30T15:06:31Z</time>
      </trkpt>
      <trkpt lat="42.83735499999994" lon="0.24178199999999916">
        <ele>2182.225</ele>
        <time>2022-01-30T15:06:37Z</time>
      </trkpt>
      <trkpt lat="42.837330999999935" lon="0.24184599999999917">
        <ele>2179.726</ele>
        <time>2022-01-30T15:06:42Z</time>
      </trkpt>
      <trkpt lat="42.83730099999993" lon="0.24190699999999918">
        <ele>2176.908</ele>
        <time>2022-01-30T15:06:47Z</time>
      </trkpt>
      <trkpt lat="42.83725599999993" lon="0.24193499999999918">
        <ele>2174.508</ele>
        <time>2022-01-30T15:06:51Z</time>
      </trkpt>
      <trkpt lat="42.83723899999993" lon="0.24199399999999918">
        <ele>2172.671</ele>
        <time>2022-01-30T15:06:56Z</time>
      </trkpt>
      <trkpt lat="42.83726699999993" lon="0.24204299999999918">
        <ele>2172.666</ele>
        <time>2022-01-30T15:07:02Z</time>
      </trkpt>
      <trkpt lat="42.837220999999936" lon="0.24207299999999918">
        <ele>2170.262</ele>
        <time>2022-01-30T15:07:05Z</time>
      </trkpt>
      <trkpt lat="42.837192999999935" lon="0.24213599999999919">
        <ele>2169.170</ele>
        <time>2022-01-30T15:07:09Z</time>
      </trkpt>
      <trkpt lat="42.83718399999994" lon="0.24220699999999917">
        <ele>2167.672</ele>
        <time>2022-01-30T15:07:13Z</time>
      </trkpt>
      <trkpt lat="42.83715799999994" lon="0.24226399999999917">
        <ele>2166.629</ele>
        <time>2022-01-30T15:07:15Z</time>
      </trkpt>
      <trkpt lat="42.837141999999936" lon="0.24232599999999918">
        <ele>2165.383</ele>
        <time>2022-01-30T15:07:17Z</time>
      </trkpt>
      <trkpt lat="42.83711899999994" lon="0.24241099999999918">
        <ele>2163.363</ele>
        <time>2022-01-30T15:07:19Z</time>
      </trkpt>
      <trkpt lat="42.83711199999994" lon="0.2424739999999992">
        <ele>2161.854</ele>
        <time>2022-01-30T15:07:24Z</time>
      </trkpt>
      <trkpt lat="42.83710199999994" lon="0.2425549999999992">
        <ele>2159.956</ele>
        <time>2022-01-30T15:07:26Z</time>
      </trkpt>
      <trkpt lat="42.83708499999994" lon="0.24262899999999918">
        <ele>2158.011</ele>
        <time>2022-01-30T15:07:28Z</time>
      </trkpt>
      <trkpt lat="42.83705299999994" lon="0.2426929999999992">
        <ele>2156.008</ele>
        <time>2022-01-30T15:07:30Z</time>
      </trkpt>
      <trkpt lat="42.83702899999994" lon="0.2427559999999992">
        <ele>2154.154</ele>
        <time>2022-01-30T15:07:32Z</time>
      </trkpt>
      <trkpt lat="42.83701399999994" lon="0.2428229999999992">
        <ele>2152.459</ele>
        <time>2022-01-30T15:07:34Z</time>
      </trkpt>
      <trkpt lat="42.83700599999994" lon="0.24288799999999922">
        <ele>2150.955</ele>
        <time>2022-01-30T15:07:36Z</time>
      </trkpt>
      <trkpt lat="42.837006999999936" lon="0.24294999999999922">
        <ele>2149.723</ele>
        <time>2022-01-30T15:07:42Z</time>
      </trkpt>
      <trkpt lat="42.837003999999936" lon="0.24301299999999923">
        <ele>2148.465</ele>
        <time>2022-01-30T15:07:50Z</time>
      </trkpt>
      <trkpt lat="42.83696599999993" lon="0.24305599999999922">
        <ele>2146.552</ele>
        <time>2022-01-30T15:07:57Z</time>
      </trkpt>
      <trkpt lat="42.836919999999935" lon="0.24312099999999923">
        <ele>2144.686</ele>
        <time>2022-01-30T15:08:11Z</time>
      </trkpt>
      <trkpt lat="42.83692099999993" lon="0.24319799999999922">
        <ele>2142.926</ele>
        <time>2022-01-30T15:08:15Z</time>
      </trkpt>
      <trkpt lat="42.836930999999936" lon="0.2432699999999992">
        <ele>2141.471</ele>
        <time>2022-01-30T15:08:19Z</time>
      </trkpt>
      <trkpt lat="42.83693199999993" lon="0.24333799999999922">
        <ele>2139.941</ele>
        <time>2022-01-30T15:08:23Z</time>
      </trkpt>
      <trkpt lat="42.83692699999993" lon="0.2434119999999992">
        <ele>2138.815</ele>
        <time>2022-01-30T15:08:28Z</time>
      </trkpt>
      <trkpt lat="42.83690399999993" lon="0.24347799999999922">
        <ele>2137.708</ele>
        <time>2022-01-30T15:08:33Z</time>
      </trkpt>
      <trkpt lat="42.83688499999993" lon="0.24354499999999923">
        <ele>2136.536</ele>
        <time>2022-01-30T15:08:38Z</time>
      </trkpt>
      <trkpt lat="42.83686799999993" lon="0.24360299999999924">
        <ele>2135.331</ele>
        <time>2022-01-30T15:08:42Z</time>
      </trkpt>
      <trkpt lat="42.83684399999993" lon="0.24365899999999924">
        <ele>2134.077</ele>
        <time>2022-01-30T15:08:46Z</time>
      </trkpt>
      <trkpt lat="42.836819999999925" lon="0.24372099999999924">
        <ele>2132.555</ele>
        <time>2022-01-30T15:08:52Z</time>
      </trkpt>
      <trkpt lat="42.83679899999993" lon="0.24378399999999925">
        <ele>2131.057</ele>
        <time>2022-01-30T15:08:58Z</time>
      </trkpt>
      <trkpt lat="42.83677099999993" lon="0.24384499999999926">
        <ele>2129.484</ele>
        <time>2022-01-30T15:09:03Z</time>
      </trkpt>
      <trkpt lat="42.83674299999993" lon="0.24390599999999926">
        <ele>2127.848</ele>
        <time>2022-01-30T15:09:08Z</time>
      </trkpt>
      <trkpt lat="42.83671799999993" lon="0.24395999999999926">
        <ele>2126.698</ele>
        <time>2022-01-30T15:09:13Z</time>
      </trkpt>
      <trkpt lat="42.83669199999993" lon="0.24401699999999926">
        <ele>2125.248</ele>
        <time>2022-01-30T15:09:18Z</time>
      </trkpt>
      <trkpt lat="42.83666399999993" lon="0.24407599999999927">
        <ele>2123.761</ele>
        <time>2022-01-30T15:09:23Z</time>
      </trkpt>
      <trkpt lat="42.83664099999993" lon="0.24413599999999927">
        <ele>2123.217</ele>
        <time>2022-01-30T15:09:28Z</time>
      </trkpt>
      <trkpt lat="42.83661199999993" lon="0.24419399999999927">
        <ele>2123.008</ele>
        <time>2022-01-30T15:09:33Z</time>
      </trkpt>
      <trkpt lat="42.83658299999993" lon="0.24424699999999927">
        <ele>2122.953</ele>
        <time>2022-01-30T15:09:37Z</time>
      </trkpt>
      <trkpt lat="42.83655599999993" lon="0.24430999999999928">
        <ele>2122.528</ele>
        <time>2022-01-30T15:09:42Z</time>
      </trkpt>
      <trkpt lat="42.83653199999993" lon="0.24436699999999928">
        <ele>2122.294</ele>
        <time>2022-01-30T15:09:46Z</time>
      </trkpt>
      <trkpt lat="42.83650399999993" lon="0.2444309999999993">
        <ele>2121.712</ele>
        <time>2022-01-30T15:09:51Z</time>
      </trkpt>
      <trkpt lat="42.83648399999993" lon="0.2444989999999993">
        <ele>2120.894</ele>
        <time>2022-01-30T15:09:56Z</time>
      </trkpt>
      <trkpt lat="42.83646699999993" lon="0.2445569999999993">
        <ele>2119.911</ele>
        <time>2022-01-30T15:10:00Z</time>
      </trkpt>
      <trkpt lat="42.836450999999926" lon="0.2446279999999993">
        <ele>2118.665</ele>
        <time>2022-01-30T15:10:05Z</time>
      </trkpt>
      <trkpt lat="42.83643499999992" lon="0.24469899999999928">
        <ele>2117.235</ele>
        <time>2022-01-30T15:10:10Z</time>
      </trkpt>
      <trkpt lat="42.836416999999926" lon="0.2447679999999993">
        <ele>2115.982</ele>
        <time>2022-01-30T15:10:14Z</time>
      </trkpt>
      <trkpt lat="42.836411999999925" lon="0.2448339999999993">
        <ele>2114.643</ele>
        <time>2022-01-30T15:10:18Z</time>
      </trkpt>
      <trkpt lat="42.836400999999924" lon="0.2448999999999993">
        <ele>2113.217</ele>
        <time>2022-01-30T15:10:22Z</time>
      </trkpt>
      <trkpt lat="42.836394999999925" lon="0.2449749999999993">
        <ele>2111.608</ele>
        <time>2022-01-30T15:10:27Z</time>
      </trkpt>
      <trkpt lat="42.83639399999993" lon="0.2450389999999993">
        <ele>2110.587</ele>
        <time>2022-01-30T15:10:31Z</time>
      </trkpt>
      <trkpt lat="42.836388999999926" lon="0.2451129999999993">
        <ele>2109.482</ele>
        <time>2022-01-30T15:10:36Z</time>
      </trkpt>
      <trkpt lat="42.83638299999993" lon="0.24517999999999932">
        <ele>2108.648</ele>
        <time>2022-01-30T15:10:40Z</time>
      </trkpt>
      <trkpt lat="42.83637599999993" lon="0.2452549999999993">
        <ele>2107.726</ele>
        <time>2022-01-30T15:10:45Z</time>
      </trkpt>
      <trkpt lat="42.83635799999993" lon="0.24531899999999932">
        <ele>2107.138</ele>
        <time>2022-01-30T15:10:49Z</time>
      </trkpt>
      <trkpt lat="42.836331999999935" lon="0.24538499999999933">
        <ele>2106.425</ele>
        <time>2022-01-30T15:10:53Z</time>
      </trkpt>
      <trkpt lat="42.83630799999993" lon="0.24544299999999933">
        <ele>2105.639</ele>
        <time>2022-01-30T15:10:57Z</time>
      </trkpt>
      <trkpt lat="42.83628399999993" lon="0.24549899999999933">
        <ele>2104.799</ele>
        <time>2022-01-30T15:11:01Z</time>
      </trkpt>
      <trkpt lat="42.83626299999993" lon="0.24556199999999934">
        <ele>2103.418</ele>
        <time>2022-01-30T15:11:06Z</time>
      </trkpt>
      <trkpt lat="42.83623199999993" lon="0.24561999999999934">
        <ele>2102.598</ele>
        <time>2022-01-30T15:11:11Z</time>
      </trkpt>
      <trkpt lat="42.83620399999993" lon="0.24568399999999935">
        <ele>2101.117</ele>
        <time>2022-01-30T15:11:16Z</time>
      </trkpt>
      <trkpt lat="42.83617699999993" lon="0.24574299999999935">
        <ele>2099.308</ele>
        <time>2022-01-30T15:11:21Z</time>
      </trkpt>
      <trkpt lat="42.83614499999993" lon="0.24579799999999935">
        <ele>2097.130</ele>
        <time>2022-01-30T15:11:26Z</time>
      </trkpt>
      <trkpt lat="42.83611699999993" lon="0.24584899999999935">
        <ele>2094.945</ele>
        <time>2022-01-30T15:11:30Z</time>
      </trkpt>
      <trkpt lat="42.836081999999934" lon="0.24590399999999935">
        <ele>2093.891</ele>
        <time>2022-01-30T15:11:35Z</time>
      </trkpt>
      <trkpt lat="42.83605399999993" lon="0.24595299999999934">
        <ele>2092.869</ele>
        <time>2022-01-30T15:11:39Z</time>
      </trkpt>
      <trkpt lat="42.836018999999936" lon="0.24599799999999933">
        <ele>2091.521</ele>
        <time>2022-01-30T15:11:43Z</time>
      </trkpt>
      <trkpt lat="42.83598499999994" lon="0.24604399999999932">
        <ele>2089.838</ele>
        <time>2022-01-30T15:11:47Z</time>
      </trkpt>
      <trkpt lat="42.835945999999936" lon="0.24607899999999933">
        <ele>2088.242</ele>
        <time>2022-01-30T15:11:51Z</time>
      </trkpt>
      <trkpt lat="42.835912999999934" lon="0.24613699999999933">
        <ele>2086.052</ele>
        <time>2022-01-30T15:11:55Z</time>
      </trkpt>
      <trkpt lat="42.835883999999936" lon="0.24619499999999933">
        <ele>2084.362</ele>
        <time>2022-01-30T15:11:59Z</time>
      </trkpt>
      <trkpt lat="42.835852999999936" lon="0.24624799999999933">
        <ele>2082.283</ele>
        <time>2022-01-30T15:12:03Z</time>
      </trkpt>
      <trkpt lat="42.83580999999994" lon="0.24628099999999933">
        <ele>2080.611</ele>
        <time>2022-01-30T15:12:08Z</time>
      </trkpt>
      <trkpt lat="42.83577299999994" lon="0.24632899999999933">
        <ele>2079.008</ele>
        <time>2022-01-30T15:12:13Z</time>
      </trkpt>
      <trkpt lat="42.83578199999994" lon="0.24639799999999934">
        <ele>2077.435</ele>
        <time>2022-01-30T15:12:18Z</time>
      </trkpt>
      <trkpt lat="42.83577099999994" lon="0.24645799999999934">
        <ele>2076.720</ele>
        <time>2022-01-30T15:12:25Z</time>
      </trkpt>
      <trkpt lat="42.83582399999994" lon="0.24649499999999935">
        <ele>2077.476</ele>
        <time>2022-01-30T15:12:29Z</time>
      </trkpt>
      <trkpt lat="42.83573899999994" lon="0.24638899999999936">
        <ele>2077.074</ele>
        <time>2022-01-30T15:12:48Z</time>
      </trkpt>
      <trkpt lat="42.83570799999994" lon="0.24643699999999935">
        <ele>2076.016</ele>
        <time>2022-01-30T15:13:02Z</time>
      </trkpt>
      <trkpt lat="42.83566399999994" lon="0.24645699999999934">
        <ele>2075.073</ele>
        <time>2022-01-30T15:13:05Z</time>
      </trkpt>
      <trkpt lat="42.835608999999934" lon="0.24647899999999934">
        <ele>2073.727</ele>
        <time>2022-01-30T15:13:09Z</time>
      </trkpt>
      <trkpt lat="42.83559799999993" lon="0.24654399999999935">
        <ele>2072.167</ele>
        <time>2022-01-30T15:13:15Z</time>
      </trkpt>
      <trkpt lat="42.835560999999934" lon="0.24659499999999934">
        <ele>2070.093</ele>
        <time>2022-01-30T15:13:21Z</time>
      </trkpt>
      <trkpt lat="42.83552499999993" lon="0.24663199999999935">
        <ele>2068.765</ele>
        <time>2022-01-30T15:13:25Z</time>
      </trkpt>
      <trkpt lat="42.835492999999936" lon="0.24668999999999935">
        <ele>2067.221</ele>
        <time>2022-01-30T15:13:30Z</time>
      </trkpt>
      <trkpt lat="42.83545799999994" lon="0.24674399999999935">
        <ele>2066.208</ele>
        <time>2022-01-30T15:13:35Z</time>
      </trkpt>
      <trkpt lat="42.83541899999994" lon="0.24678299999999936">
        <ele>2065.188</ele>
        <time>2022-01-30T15:13:39Z</time>
      </trkpt>
      <trkpt lat="42.83537699999994" lon="0.24682099999999937">
        <ele>2064.083</ele>
        <time>2022-01-30T15:13:43Z</time>
      </trkpt>
      <trkpt lat="42.83533199999994" lon="0.24686699999999936">
        <ele>2062.529</ele>
        <time>2022-01-30T15:13:47Z</time>
      </trkpt>
      <trkpt lat="42.835287999999935" lon="0.24690599999999938">
        <ele>2061.047</ele>
        <time>2022-01-30T15:13:51Z</time>
      </trkpt>
      <trkpt lat="42.83524699999993" lon="0.24695799999999937">
        <ele>2059.749</ele>
        <time>2022-01-30T15:13:55Z</time>
      </trkpt>
      <trkpt lat="42.83521399999993" lon="0.24700199999999936">
        <ele>2058.796</ele>
        <time>2022-01-30T15:13:58Z</time>
      </trkpt>
      <trkpt lat="42.83516899999993" lon="0.24704799999999935">
        <ele>2057.480</ele>
        <time>2022-01-30T15:14:02Z</time>
      </trkpt>
      <trkpt lat="42.83512099999993" lon="0.24708999999999934">
        <ele>2055.950</ele>
        <time>2022-01-30T15:14:06Z</time>
      </trkpt>
      <trkpt lat="42.83507899999993" lon="0.24714299999999934">
        <ele>2053.965</ele>
        <time>2022-01-30T15:14:10Z</time>
      </trkpt>
      <trkpt lat="42.83504599999993" lon="0.24718899999999933">
        <ele>2051.968</ele>
        <time>2022-01-30T15:14:14Z</time>
      </trkpt>
      <trkpt lat="42.83500299999993" lon="0.24722899999999934">
        <ele>2049.914</ele>
        <time>2022-01-30T15:14:18Z</time>
      </trkpt>
      <trkpt lat="42.83496399999993" lon="0.24727799999999933">
        <ele>2048.708</ele>
        <time>2022-01-30T15:14:22Z</time>
      </trkpt>
      <trkpt lat="42.83497999999993" lon="0.24734199999999934">
        <ele>2047.635</ele>
        <time>2022-01-30T15:14:32Z</time>
      </trkpt>
      <trkpt lat="42.83497199999993" lon="0.24740599999999935">
        <ele>2046.380</ele>
        <time>2022-01-30T15:14:36Z</time>
      </trkpt>
      <trkpt lat="42.83495099999993" lon="0.24746099999999935">
        <ele>2044.846</ele>
        <time>2022-01-30T15:14:41Z</time>
      </trkpt>
      <trkpt lat="42.83491499999993" lon="0.24751199999999934">
        <ele>2042.984</ele>
        <time>2022-01-30T15:14:46Z</time>
      </trkpt>
      <trkpt lat="42.83490199999993" lon="0.24758599999999933">
        <ele>2041.156</ele>
        <time>2022-01-30T15:14:51Z</time>
      </trkpt>
      <trkpt lat="42.83487699999993" lon="0.24763799999999933">
        <ele>2039.383</ele>
        <time>2022-01-30T15:14:55Z</time>
      </trkpt>
      <trkpt lat="42.83484199999993" lon="0.24769999999999934">
        <ele>2036.727</ele>
        <time>2022-01-30T15:15:00Z</time>
      </trkpt>
      <trkpt lat="42.83481899999993" lon="0.24775299999999933">
        <ele>2034.537</ele>
        <time>2022-01-30T15:15:04Z</time>
      </trkpt>
      <trkpt lat="42.83478899999993" lon="0.24780799999999933">
        <ele>2032.381</ele>
        <time>2022-01-30T15:15:09Z</time>
      </trkpt>
      <trkpt lat="42.83474799999993" lon="0.24785399999999932">
        <ele>2030.061</ele>
        <time>2022-01-30T15:15:15Z</time>
      </trkpt>
      <trkpt lat="42.83474399999993" lon="0.24791699999999933">
        <ele>2029.017</ele>
        <time>2022-01-30T15:15:20Z</time>
      </trkpt>
      <trkpt lat="42.834750999999926" lon="0.24785499999999933">
        <ele>2030.108</ele>
        <time>2022-01-30T15:15:24Z</time>
      </trkpt>
      <trkpt lat="42.834691999999926" lon="0.24781899999999932">
        <ele>2028.897</ele>
        <time>2022-01-30T15:15:46Z</time>
      </trkpt>
      <trkpt lat="42.83468599999993" lon="0.24788099999999932">
        <ele>2027.722</ele>
        <time>2022-01-30T15:15:48Z</time>
      </trkpt>
      <trkpt lat="42.83471299999993" lon="0.24793899999999933">
        <ele>2027.568</ele>
        <time>2022-01-30T15:16:05Z</time>
      </trkpt>
      <trkpt lat="42.83472799999993" lon="0.24800199999999933">
        <ele>2027.176</ele>
        <time>2022-01-30T15:16:45Z</time>
      </trkpt>
      <trkpt lat="42.834691999999926" lon="0.24803999999999934">
        <ele>2025.478</ele>
        <time>2022-01-30T15:16:48Z</time>
      </trkpt>
      <trkpt lat="42.83464599999993" lon="0.24806499999999934">
        <ele>2023.885</ele>
        <time>2022-01-30T15:16:53Z</time>
      </trkpt>
      <trkpt lat="42.83460299999993" lon="0.24810399999999935">
        <ele>2022.359</ele>
        <time>2022-01-30T15:17:01Z</time>
      </trkpt>
      <trkpt lat="42.83457899999993" lon="0.24815999999999935">
        <ele>2021.379</ele>
        <time>2022-01-30T15:17:45Z</time>
      </trkpt>
      <trkpt lat="42.83455299999993" lon="0.24821599999999935">
        <ele>2020.248</ele>
        <time>2022-01-30T15:17:53Z</time>
      </trkpt>
      <trkpt lat="42.83450499999993" lon="0.24820399999999934">
        <ele>2018.861</ele>
        <time>2022-01-30T15:17:59Z</time>
      </trkpt>
      <trkpt lat="42.83446899999993" lon="0.24824199999999935">
        <ele>2017.417</ele>
        <time>2022-01-30T15:18:06Z</time>
      </trkpt>
      <trkpt lat="42.83442399999993" lon="0.24826399999999935">
        <ele>2015.908</ele>
        <time>2022-01-30T15:18:12Z</time>
      </trkpt>
      <trkpt lat="42.83439599999993" lon="0.24831299999999934">
        <ele>2014.853</ele>
        <time>2022-01-30T15:18:21Z</time>
      </trkpt>
      <trkpt lat="42.83434699999993" lon="0.24829999999999933">
        <ele>2013.548</ele>
        <time>2022-01-30T15:18:44Z</time>
      </trkpt>
      <trkpt lat="42.83430699999993" lon="0.24833699999999934">
        <ele>2012.084</ele>
        <time>2022-01-30T15:18:50Z</time>
      </trkpt>
      <trkpt lat="42.83426399999993" lon="0.24836399999999934">
        <ele>2010.892</ele>
        <time>2022-01-30T15:18:54Z</time>
      </trkpt>
      <trkpt lat="42.83422199999993" lon="0.24838499999999933">
        <ele>2009.624</ele>
        <time>2022-01-30T15:18:58Z</time>
      </trkpt>
      <trkpt lat="42.83417699999993" lon="0.24841199999999933">
        <ele>2008.551</ele>
        <time>2022-01-30T15:19:03Z</time>
      </trkpt>
      <trkpt lat="42.83413299999993" lon="0.24845799999999932">
        <ele>2008.075</ele>
        <time>2022-01-30T15:19:08Z</time>
      </trkpt>
      <trkpt lat="42.83408699999993" lon="0.24848599999999932">
        <ele>2007.415</ele>
        <time>2022-01-30T15:19:12Z</time>
      </trkpt>
      <trkpt lat="42.834046999999934" lon="0.2485319999999993">
        <ele>2007.264</ele>
        <time>2022-01-30T15:19:18Z</time>
      </trkpt>
      <trkpt lat="42.83399999999993" lon="0.24853699999999931">
        <ele>2006.606</ele>
        <time>2022-01-30T15:19:46Z</time>
      </trkpt>
      <trkpt lat="42.83398699999993" lon="0.2484749999999993">
        <ele>2005.916</ele>
        <time>2022-01-30T15:19:57Z</time>
      </trkpt>
      <trkpt lat="42.83394199999993" lon="0.2484479999999993">
        <ele>2005.008</ele>
        <time>2022-01-30T15:21:52Z</time>
      </trkpt>
      <trkpt lat="42.83391099999993" lon="0.2483919999999993">
        <ele>2004.055</ele>
        <time>2022-01-30T15:21:59Z</time>
      </trkpt>
      <trkpt lat="42.833886999999926" lon="0.2483389999999993">
        <ele>2003.030</ele>
        <time>2022-01-30T15:22:05Z</time>
      </trkpt>
      <trkpt lat="42.83386699999993" lon="0.2482839999999993">
        <ele>2002.586</ele>
        <time>2022-01-30T15:22:11Z</time>
      </trkpt>
      <trkpt lat="42.83384099999993" lon="0.2482279999999993">
        <ele>2001.644</ele>
        <time>2022-01-30T15:22:17Z</time>
      </trkpt>
      <trkpt lat="42.83381499999993" lon="0.2481609999999993">
        <ele>2000.546</ele>
        <time>2022-01-30T15:22:22Z</time>
      </trkpt>
      <trkpt lat="42.83378299999993" lon="0.2481079999999993">
        <ele>1998.723</ele>
        <time>2022-01-30T15:22:27Z</time>
      </trkpt>
      <trkpt lat="42.83377199999993" lon="0.2480469999999993">
        <ele>1998.227</ele>
        <time>2022-01-30T15:22:30Z</time>
      </trkpt>
      <trkpt lat="42.83362899999993" lon="0.2478889999999993">
        <ele>1992.427</ele>
        <time>2022-01-30T15:22:32Z</time>
      </trkpt>
      <trkpt lat="42.83361699999993" lon="0.24778999999999932">
        <ele>1994.136</ele>
        <time>2022-01-30T15:22:55Z</time>
      </trkpt>
      <trkpt lat="42.83361199999993" lon="0.24768999999999933">
        <ele>1995.317</ele>
        <time>2022-01-30T15:22:57Z</time>
      </trkpt>
      <trkpt lat="42.83356499999993" lon="0.24763899999999933">
        <ele>1992.818</ele>
        <time>2022-01-30T15:23:04Z</time>
      </trkpt>
      <trkpt lat="42.83355899999993" lon="0.24757699999999933">
        <ele>1993.408</ele>
        <time>2022-01-30T15:23:06Z</time>
      </trkpt>
      <trkpt lat="42.83356999999993" lon="0.24750699999999934">
        <ele>1995.242</ele>
        <time>2022-01-30T15:23:08Z</time>
      </trkpt>
      <trkpt lat="42.833565999999934" lon="0.24744299999999933">
        <ele>1995.287</ele>
        <time>2022-01-30T15:23:11Z</time>
      </trkpt>
      <trkpt lat="42.83355899999994" lon="0.24737199999999934">
        <ele>1994.843</ele>
        <time>2022-01-30T15:23:17Z</time>
      </trkpt>
      <trkpt lat="42.83354999999994" lon="0.24730799999999933">
        <ele>1994.351</ele>
        <time>2022-01-30T15:23:23Z</time>
      </trkpt>
      <trkpt lat="42.83355199999994" lon="0.24723099999999934">
        <ele>1994.563</ele>
        <time>2022-01-30T15:23:29Z</time>
      </trkpt>
      <trkpt lat="42.83355799999994" lon="0.24716899999999933">
        <ele>1994.390</ele>
        <time>2022-01-30T15:23:32Z</time>
      </trkpt>
      <trkpt lat="42.83356399999994" lon="0.24710599999999933">
        <ele>1993.874</ele>
        <time>2022-01-30T15:23:37Z</time>
      </trkpt>
      <trkpt lat="42.83357199999994" lon="0.2470369999999993">
        <ele>1993.544</ele>
        <time>2022-01-30T15:23:41Z</time>
      </trkpt>
      <trkpt lat="42.83359499999994" lon="0.2469729999999993">
        <ele>1994.293</ele>
        <time>2022-01-30T15:23:46Z</time>
      </trkpt>
      <trkpt lat="42.83359799999994" lon="0.24690199999999932">
        <ele>1993.465</ele>
        <time>2022-01-30T15:23:51Z</time>
      </trkpt>
      <trkpt lat="42.83359099999994" lon="0.2468359999999993">
        <ele>1992.021</ele>
        <time>2022-01-30T15:23:56Z</time>
      </trkpt>
      <trkpt lat="42.83359599999994" lon="0.2467679999999993">
        <ele>1991.408</ele>
        <time>2022-01-30T15:24:00Z</time>
      </trkpt>
      <trkpt lat="42.83360799999994" lon="0.2467059999999993">
        <ele>1991.348</ele>
        <time>2022-01-30T15:24:04Z</time>
      </trkpt>
      <trkpt lat="42.83361499999994" lon="0.2466289999999993">
        <ele>1990.553</ele>
        <time>2022-01-30T15:24:09Z</time>
      </trkpt>
      <trkpt lat="42.83361499999994" lon="0.2465569999999993">
        <ele>1988.929</ele>
        <time>2022-01-30T15:24:14Z</time>
      </trkpt>
      <trkpt lat="42.83360599999994" lon="0.2464899999999993">
        <ele>1986.897</ele>
        <time>2022-01-30T15:24:19Z</time>
      </trkpt>
      <trkpt lat="42.83360499999994" lon="0.24642299999999928">
        <ele>1985.379</ele>
        <time>2022-01-30T15:24:24Z</time>
      </trkpt>
      <trkpt lat="42.83360799999994" lon="0.24636199999999928">
        <ele>1984.636</ele>
        <time>2022-01-30T15:24:29Z</time>
      </trkpt>
      <trkpt lat="42.83361199999994" lon="0.2462919999999993">
        <ele>1984.480</ele>
        <time>2022-01-30T15:24:33Z</time>
      </trkpt>
      <trkpt lat="42.83361999999994" lon="0.24622999999999928">
        <ele>1984.580</ele>
        <time>2022-01-30T15:24:37Z</time>
      </trkpt>
      <trkpt lat="42.83362799999994" lon="0.24616499999999927">
        <ele>1984.788</ele>
        <time>2022-01-30T15:24:43Z</time>
      </trkpt>
      <trkpt lat="42.83362299999994" lon="0.24609699999999926">
        <ele>1983.924</ele>
        <time>2022-01-30T15:24:49Z</time>
      </trkpt>
      <trkpt lat="42.83360599999994" lon="0.24603499999999925">
        <ele>1982.726</ele>
        <time>2022-01-30T15:24:57Z</time>
      </trkpt>
      <trkpt lat="42.83358699999994" lon="0.24596099999999926">
        <ele>1981.608</ele>
        <time>2022-01-30T15:25:04Z</time>
      </trkpt>
      <trkpt lat="42.83356099999994" lon="0.24590199999999926">
        <ele>1980.217</ele>
        <time>2022-01-30T15:25:08Z</time>
      </trkpt>
      <trkpt lat="42.83354399999994" lon="0.24584199999999926">
        <ele>1979.472</ele>
        <time>2022-01-30T15:25:12Z</time>
      </trkpt>
      <trkpt lat="42.83352999999994" lon="0.24577599999999925">
        <ele>1978.928</ele>
        <time>2022-01-30T15:25:18Z</time>
      </trkpt>
      <trkpt lat="42.833502999999936" lon="0.24570899999999923">
        <ele>1977.836</ele>
        <time>2022-01-30T15:25:24Z</time>
      </trkpt>
      <trkpt lat="42.83347699999994" lon="0.24565199999999923">
        <ele>1976.758</ele>
        <time>2022-01-30T15:25:28Z</time>
      </trkpt>
      <trkpt lat="42.833457999999936" lon="0.24559399999999923">
        <ele>1976.145</ele>
        <time>2022-01-30T15:25:32Z</time>
      </trkpt>
      <trkpt lat="42.833446999999936" lon="0.24552899999999922">
        <ele>1975.919</ele>
        <time>2022-01-30T15:25:36Z</time>
      </trkpt>
      <trkpt lat="42.833421999999935" lon="0.24544899999999922">
        <ele>1975.159</ele>
        <time>2022-01-30T15:25:41Z</time>
      </trkpt>
      <trkpt lat="42.833387999999935" lon="0.24538699999999922">
        <ele>1973.628</ele>
        <time>2022-01-30T15:25:45Z</time>
      </trkpt>
      <trkpt lat="42.833368999999934" lon="0.24533099999999922">
        <ele>1972.889</ele>
        <time>2022-01-30T15:25:50Z</time>
      </trkpt>
      <trkpt lat="42.833348999999934" lon="0.24527399999999921">
        <ele>1971.917</ele>
        <time>2022-01-30T15:25:56Z</time>
      </trkpt>
      <trkpt lat="42.83330999999993" lon="0.24522499999999922">
        <ele>1970.408</ele>
        <time>2022-01-30T15:26:01Z</time>
      </trkpt>
      <trkpt lat="42.83326899999993" lon="0.24519999999999922">
        <ele>1969.021</ele>
        <time>2022-01-30T15:26:06Z</time>
      </trkpt>
      <trkpt lat="42.83324399999993" lon="0.24514699999999923">
        <ele>1968.586</ele>
        <time>2022-01-30T15:26:10Z</time>
      </trkpt>
      <trkpt lat="42.83319899999993" lon="0.2451059999999992">
        <ele>1967.382</ele>
        <time>2022-01-30T15:26:15Z</time>
      </trkpt>
      <trkpt lat="42.83316699999993" lon="0.24505999999999922">
        <ele>1966.880</ele>
        <time>2022-01-30T15:26:19Z</time>
      </trkpt>
      <trkpt lat="42.83311599999993" lon="0.24502399999999921">
        <ele>1965.692</ele>
        <time>2022-01-30T15:26:24Z</time>
      </trkpt>
      <trkpt lat="42.833080999999936" lon="0.2449639999999992">
        <ele>1965.629</ele>
        <time>2022-01-30T15:26:27Z</time>
      </trkpt>
      <trkpt lat="42.833027999999935" lon="0.24494899999999922">
        <ele>1965.463</ele>
        <time>2022-01-30T15:26:31Z</time>
      </trkpt>
      <trkpt lat="42.83298099999993" lon="0.24495899999999923">
        <ele>1965.793</ele>
        <time>2022-01-30T15:26:35Z</time>
      </trkpt>
      <trkpt lat="42.832937999999935" lon="0.24499899999999925">
        <ele>1965.344</ele>
        <time>2022-01-30T15:26:40Z</time>
      </trkpt>
      <trkpt lat="42.832897999999936" lon="0.24504099999999923">
        <ele>1965.005</ele>
        <time>2022-01-30T15:26:45Z</time>
      </trkpt>
      <trkpt lat="42.83285699999993" lon="0.24508799999999922">
        <ele>1964.615</ele>
        <time>2022-01-30T15:26:51Z</time>
      </trkpt>
      <trkpt lat="42.83282999999993" lon="0.24514099999999922">
        <ele>1963.908</ele>
        <time>2022-01-30T15:26:56Z</time>
      </trkpt>
      <trkpt lat="42.83279599999993" lon="0.24519799999999922">
        <ele>1963.273</ele>
        <time>2022-01-30T15:27:01Z</time>
      </trkpt>
      <trkpt lat="42.83275499999993" lon="0.24525099999999922">
        <ele>1962.678</ele>
        <time>2022-01-30T15:27:05Z</time>
      </trkpt>
      <trkpt lat="42.832735999999926" lon="0.24531299999999923">
        <ele>1961.324</ele>
        <time>2022-01-30T15:27:11Z</time>
      </trkpt>
      <trkpt lat="42.83271199999992" lon="0.24536899999999923">
        <ele>1960.172</ele>
        <time>2022-01-30T15:27:16Z</time>
      </trkpt>
      <trkpt lat="42.83268499999992" lon="0.24542099999999922">
        <ele>1959.164</ele>
        <time>2022-01-30T15:27:21Z</time>
      </trkpt>
      <trkpt lat="42.83265199999992" lon="0.24547999999999923">
        <ele>1958.061</ele>
        <time>2022-01-30T15:27:26Z</time>
      </trkpt>
      <trkpt lat="42.83262399999992" lon="0.2455499999999992">
        <ele>1956.825</ele>
        <time>2022-01-30T15:27:31Z</time>
      </trkpt>
      <trkpt lat="42.83260299999992" lon="0.24560799999999922">
        <ele>1956.045</ele>
        <time>2022-01-30T15:27:35Z</time>
      </trkpt>
      <trkpt lat="42.83257799999992" lon="0.24567099999999922">
        <ele>1955.328</ele>
        <time>2022-01-30T15:27:40Z</time>
      </trkpt>
      <trkpt lat="42.83255399999992" lon="0.24573599999999923">
        <ele>1954.689</ele>
        <time>2022-01-30T15:27:46Z</time>
      </trkpt>
      <trkpt lat="42.83252999999991" lon="0.24578899999999923">
        <ele>1954.117</ele>
        <time>2022-01-30T15:27:51Z</time>
      </trkpt>
      <trkpt lat="42.83250599999991" lon="0.24585399999999924">
        <ele>1953.608</ele>
        <time>2022-01-30T15:27:56Z</time>
      </trkpt>
      <trkpt lat="42.83249199999991" lon="0.24591999999999925">
        <ele>1952.851</ele>
        <time>2022-01-30T15:28:01Z</time>
      </trkpt>
      <trkpt lat="42.83247499999991" lon="0.24597699999999925">
        <ele>1952.056</ele>
        <time>2022-01-30T15:28:05Z</time>
      </trkpt>
      <trkpt lat="42.83245299999991" lon="0.24603999999999926">
        <ele>1951.242</ele>
        <time>2022-01-30T15:28:10Z</time>
      </trkpt>
      <trkpt lat="42.83242799999991" lon="0.24609499999999926">
        <ele>1950.520</ele>
        <time>2022-01-30T15:28:15Z</time>
      </trkpt>
      <trkpt lat="42.83239599999991" lon="0.24614499999999925">
        <ele>1949.882</ele>
        <time>2022-01-30T15:28:20Z</time>
      </trkpt>
      <trkpt lat="42.83235299999991" lon="0.24611999999999926">
        <ele>1950.419</ele>
        <time>2022-01-30T15:28:23Z</time>
      </trkpt>
      <trkpt lat="42.83230599999991" lon="0.24613499999999924">
        <ele>1950.323</ele>
        <time>2022-01-30T15:28:26Z</time>
      </trkpt>
      <trkpt lat="42.83228099999991" lon="0.24618799999999924">
        <ele>1949.653</ele>
        <time>2022-01-30T15:28:29Z</time>
      </trkpt>
      <trkpt lat="42.83226199999991" lon="0.24624699999999924">
        <ele>1948.889</ele>
        <time>2022-01-30T15:28:33Z</time>
      </trkpt>
      <trkpt lat="42.83224199999991" lon="0.24630499999999925">
        <ele>1948.106</ele>
        <time>2022-01-30T15:28:37Z</time>
      </trkpt>
      <trkpt lat="42.83222699999991" lon="0.24637199999999926">
        <ele>1947.226</ele>
        <time>2022-01-30T15:28:41Z</time>
      </trkpt>
      <trkpt lat="42.83220799999991" lon="0.24642799999999926">
        <ele>1946.608</ele>
        <time>2022-01-30T15:28:45Z</time>
      </trkpt>
      <trkpt lat="42.83216199999991" lon="0.24644999999999925">
        <ele>1946.527</ele>
        <time>2022-01-30T15:28:51Z</time>
      </trkpt>
      <trkpt lat="42.83214299999991" lon="0.24651399999999926">
        <ele>1945.872</ele>
        <time>2022-01-30T15:28:56Z</time>
      </trkpt>
      <trkpt lat="42.83210799999991" lon="0.24657699999999927">
        <ele>1945.178</ele>
        <time>2022-01-30T15:29:01Z</time>
      </trkpt>
      <trkpt lat="42.83208299999991" lon="0.24664699999999926">
        <ele>1944.246</ele>
        <time>2022-01-30T15:29:05Z</time>
      </trkpt>
      <trkpt lat="42.83205499999991" lon="0.24669599999999925">
        <ele>1943.638</ele>
        <time>2022-01-30T15:29:09Z</time>
      </trkpt>
      <trkpt lat="42.83203299999991" lon="0.24675199999999925">
        <ele>1943.085</ele>
        <time>2022-01-30T15:29:13Z</time>
      </trkpt>
      <trkpt lat="42.83200299999991" lon="0.24679899999999924">
        <ele>1942.569</ele>
        <time>2022-01-30T15:29:17Z</time>
      </trkpt>
      <trkpt lat="42.83197799999991" lon="0.24686499999999925">
        <ele>1941.889</ele>
        <time>2022-01-30T15:29:22Z</time>
      </trkpt>
      <trkpt lat="42.83193599999991" lon="0.24691399999999925">
        <ele>1941.493</ele>
        <time>2022-01-30T15:29:26Z</time>
      </trkpt>
      <trkpt lat="42.83188999999991" lon="0.24694199999999925">
        <ele>1941.465</ele>
        <time>2022-01-30T15:29:30Z</time>
      </trkpt>
      <trkpt lat="42.83185399999991" lon="0.24697899999999925">
        <ele>1940.821</ele>
        <time>2022-01-30T15:29:34Z</time>
      </trkpt>
      <trkpt lat="42.83181099999991" lon="0.24700199999999925">
        <ele>1940.408</ele>
        <time>2022-01-30T15:29:38Z</time>
      </trkpt>
      <trkpt lat="42.83176199999991" lon="0.24701699999999924">
        <ele>1940.288</ele>
        <time>2022-01-30T15:29:42Z</time>
      </trkpt>
      <trkpt lat="42.83170899999991" lon="0.24702799999999925">
        <ele>1940.183</ele>
        <time>2022-01-30T15:29:47Z</time>
      </trkpt>
      <trkpt lat="42.831656999999915" lon="0.24702499999999925">
        <ele>1940.439</ele>
        <time>2022-01-30T15:29:51Z</time>
      </trkpt>
      <trkpt lat="42.831600999999914" lon="0.24703199999999925">
        <ele>1940.077</ele>
        <time>2022-01-30T15:29:55Z</time>
      </trkpt>
      <trkpt lat="42.831549999999915" lon="0.24704399999999926">
        <ele>1939.539</ele>
        <time>2022-01-30T15:29:59Z</time>
      </trkpt>
      <trkpt lat="42.83149999999991" lon="0.24706399999999926">
        <ele>1938.666</ele>
        <time>2022-01-30T15:30:03Z</time>
      </trkpt>
      <trkpt lat="42.831448999999914" lon="0.24707799999999924">
        <ele>1937.910</ele>
        <time>2022-01-30T15:30:07Z</time>
      </trkpt>
      <trkpt lat="42.831403999999914" lon="0.24703599999999926">
        <ele>1939.440</ele>
        <time>2022-01-30T15:30:11Z</time>
      </trkpt>
      <trkpt lat="42.83155899999991" lon="0.24707099999999926">
        <ele>1938.587</ele>
        <time>2022-01-30T15:30:36Z</time>
      </trkpt>
      <trkpt lat="42.831490999999914" lon="0.24709099999999926">
        <ele>1937.642</ele>
        <time>2022-01-30T15:30:44Z</time>
      </trkpt>
      <trkpt lat="42.831434999999914" lon="0.24709099999999926">
        <ele>1937.426</ele>
        <time>2022-01-30T15:30:48Z</time>
      </trkpt>
      <trkpt lat="42.83139099999991" lon="0.24711599999999925">
        <ele>1936.208</ele>
        <time>2022-01-30T15:30:53Z</time>
      </trkpt>
      <trkpt lat="42.83133699999991" lon="0.24712999999999924">
        <ele>1935.377</ele>
        <time>2022-01-30T15:30:59Z</time>
      </trkpt>
      <trkpt lat="42.83128999999991" lon="0.24713099999999924">
        <ele>1935.032</ele>
        <time>2022-01-30T15:31:03Z</time>
      </trkpt>
      <trkpt lat="42.83123699999991" lon="0.24712099999999923">
        <ele>1935.148</ele>
        <time>2022-01-30T15:31:08Z</time>
      </trkpt>
      <trkpt lat="42.83118899999991" lon="0.24714199999999922">
        <ele>1933.926</ele>
        <time>2022-01-30T15:31:14Z</time>
      </trkpt>
      <trkpt lat="42.83114499999991" lon="0.24716499999999922">
        <ele>1932.738</ele>
        <time>2022-01-30T15:31:20Z</time>
      </trkpt>
      <trkpt lat="42.831094999999905" lon="0.2471839999999992">
        <ele>1931.455</ele>
        <time>2022-01-30T15:31:25Z</time>
      </trkpt>
      <trkpt lat="42.83104099999991" lon="0.2471739999999992">
        <ele>1930.979</ele>
        <time>2022-01-30T15:31:29Z</time>
      </trkpt>
      <trkpt lat="42.83099299999991" lon="0.2471619999999992">
        <ele>1930.629</ele>
        <time>2022-01-30T15:31:34Z</time>
      </trkpt>
      <trkpt lat="42.83094799999991" lon="0.24712699999999918">
        <ele>1931.445</ele>
        <time>2022-01-30T15:31:39Z</time>
      </trkpt>
      <trkpt lat="42.83090299999991" lon="0.2471089999999992">
        <ele>1931.547</ele>
        <time>2022-01-30T15:31:44Z</time>
      </trkpt>
      <trkpt lat="42.830852999999905" lon="0.2471159999999992">
        <ele>1930.311</ele>
        <time>2022-01-30T15:31:51Z</time>
      </trkpt>
      <trkpt lat="42.830801999999906" lon="0.2471229999999992">
        <ele>1929.008</ele>
        <time>2022-01-30T15:31:57Z</time>
      </trkpt>
      <trkpt lat="42.830748999999905" lon="0.2471239999999992">
        <ele>1927.863</ele>
        <time>2022-01-30T15:32:02Z</time>
      </trkpt>
      <trkpt lat="42.830697999999906" lon="0.2471199999999992">
        <ele>1926.828</ele>
        <time>2022-01-30T15:32:06Z</time>
      </trkpt>
      <trkpt lat="42.830647999999904" lon="0.2471159999999992">
        <ele>1925.974</ele>
        <time>2022-01-30T15:32:10Z</time>
      </trkpt>
      <trkpt lat="42.8305949999999" lon="0.2471279999999992">
        <ele>1924.272</ele>
        <time>2022-01-30T15:32:14Z</time>
      </trkpt>
      <trkpt lat="42.830543999999904" lon="0.24713299999999921">
        <ele>1923.044</ele>
        <time>2022-01-30T15:32:18Z</time>
      </trkpt>
      <trkpt lat="42.8304909999999" lon="0.24714399999999923">
        <ele>1921.961</ele>
        <time>2022-01-30T15:32:23Z</time>
      </trkpt>
      <trkpt lat="42.830433999999904" lon="0.24715199999999923">
        <ele>1920.945</ele>
        <time>2022-01-30T15:32:28Z</time>
      </trkpt>
      <trkpt lat="42.8303869999999" lon="0.24715199999999923">
        <ele>1920.275</ele>
        <time>2022-01-30T15:32:32Z</time>
      </trkpt>
      <trkpt lat="42.8303419999999" lon="0.24717699999999923">
        <ele>1918.927</ele>
        <time>2022-01-30T15:32:37Z</time>
      </trkpt>
      <trkpt lat="42.8302969999999" lon="0.24718099999999923">
        <ele>1918.368</ele>
        <time>2022-01-30T15:32:42Z</time>
      </trkpt>
      <trkpt lat="42.8302519999999" lon="0.24716099999999924">
        <ele>1918.214</ele>
        <time>2022-01-30T15:32:50Z</time>
      </trkpt>
      <trkpt lat="42.8302109999999" lon="0.24719999999999925">
        <ele>1916.708</ele>
        <time>2022-01-30T15:32:55Z</time>
      </trkpt>
      <trkpt lat="42.8301799999999" lon="0.24725199999999925">
        <ele>1914.961</ele>
        <time>2022-01-30T15:33:02Z</time>
      </trkpt>
      <trkpt lat="42.8301409999999" lon="0.24729199999999926">
        <ele>1913.476</ele>
        <time>2022-01-30T15:33:08Z</time>
      </trkpt>
      <trkpt lat="42.830113999999895" lon="0.24734299999999926">
        <ele>1911.942</ele>
        <time>2022-01-30T15:33:14Z</time>
      </trkpt>
      <trkpt lat="42.8300849999999" lon="0.24739299999999925">
        <ele>1910.370</ele>
        <time>2022-01-30T15:33:20Z</time>
      </trkpt>
      <trkpt lat="42.8300529999999" lon="0.24745399999999926">
        <ele>1908.672</ele>
        <time>2022-01-30T15:33:26Z</time>
      </trkpt>
      <trkpt lat="42.8300249999999" lon="0.24750699999999926">
        <ele>1907.259</ele>
        <time>2022-01-30T15:33:31Z</time>
      </trkpt>
      <trkpt lat="42.8299949999999" lon="0.24756599999999926">
        <ele>1906.023</ele>
        <time>2022-01-30T15:33:36Z</time>
      </trkpt>
      <trkpt lat="42.8299669999999" lon="0.24761399999999925">
        <ele>1905.283</ele>
        <time>2022-01-30T15:33:42Z</time>
      </trkpt>
      <trkpt lat="42.8299389999999" lon="0.24767199999999925">
        <ele>1904.244</ele>
        <time>2022-01-30T15:33:48Z</time>
      </trkpt>
      <trkpt lat="42.8299099999999" lon="0.24772099999999925">
        <ele>1903.205</ele>
        <time>2022-01-30T15:33:53Z</time>
      </trkpt>
      <trkpt lat="42.8298769999999" lon="0.24777699999999925">
        <ele>1902.115</ele>
        <time>2022-01-30T15:33:59Z</time>
      </trkpt>
      <trkpt lat="42.829837999999896" lon="0.24782199999999924">
        <ele>1901.008</ele>
        <time>2022-01-30T15:34:05Z</time>
      </trkpt>
      <trkpt lat="42.82980799999989" lon="0.24786999999999923">
        <ele>1900.073</ele>
        <time>2022-01-30T15:34:10Z</time>
      </trkpt>
      <trkpt lat="42.829781999999895" lon="0.24792699999999923">
        <ele>1898.778</ele>
        <time>2022-01-30T15:34:15Z</time>
      </trkpt>
      <trkpt lat="42.8297499999999" lon="0.24798099999999923">
        <ele>1897.544</ele>
        <time>2022-01-30T15:34:20Z</time>
      </trkpt>
      <trkpt lat="42.8297189999999" lon="0.24803799999999923">
        <ele>1896.322</ele>
        <time>2022-01-30T15:34:25Z</time>
      </trkpt>
      <trkpt lat="42.829696999999896" lon="0.24810299999999924">
        <ele>1895.244</ele>
        <time>2022-01-30T15:34:30Z</time>
      </trkpt>
      <trkpt lat="42.82966999999989" lon="0.24815699999999924">
        <ele>1894.261</ele>
        <time>2022-01-30T15:34:35Z</time>
      </trkpt>
      <trkpt lat="42.829646999999895" lon="0.24821199999999924">
        <ele>1893.245</ele>
        <time>2022-01-30T15:34:40Z</time>
      </trkpt>
      <trkpt lat="42.82961399999989" lon="0.24826499999999924">
        <ele>1892.085</ele>
        <time>2022-01-30T15:34:45Z</time>
      </trkpt>
      <trkpt lat="42.82958899999989" lon="0.24833099999999925">
        <ele>1890.686</ele>
        <time>2022-01-30T15:34:50Z</time>
      </trkpt>
      <trkpt lat="42.82956399999989" lon="0.24838299999999924">
        <ele>1889.560</ele>
        <time>2022-01-30T15:34:55Z</time>
      </trkpt>
      <trkpt lat="42.82953799999989" lon="0.24844999999999925">
        <ele>1888.226</ele>
        <time>2022-01-30T15:35:00Z</time>
      </trkpt>
      <trkpt lat="42.829511999999895" lon="0.24850899999999926">
        <ele>1887.008</ele>
        <time>2022-01-30T15:35:05Z</time>
      </trkpt>
      <trkpt lat="42.829483999999894" lon="0.24856599999999926">
        <ele>1886.067</ele>
        <time>2022-01-30T15:35:10Z</time>
      </trkpt>
      <trkpt lat="42.829457999999896" lon="0.24862599999999926">
        <ele>1884.952</ele>
        <time>2022-01-30T15:35:15Z</time>
      </trkpt>
      <trkpt lat="42.82943399999989" lon="0.24868699999999927">
        <ele>1883.838</ele>
        <time>2022-01-30T15:35:20Z</time>
      </trkpt>
      <trkpt lat="42.82940599999989" lon="0.24873899999999927">
        <ele>1882.826</ele>
        <time>2022-01-30T15:35:24Z</time>
      </trkpt>
      <trkpt lat="42.829373999999895" lon="0.24880299999999927">
        <ele>1881.438</ele>
        <time>2022-01-30T15:35:28Z</time>
      </trkpt>
      <trkpt lat="42.829345999999894" lon="0.24885999999999928">
        <ele>1880.115</ele>
        <time>2022-01-30T15:35:33Z</time>
      </trkpt>
      <trkpt lat="42.8293139999999" lon="0.24891099999999927">
        <ele>1878.799</ele>
        <time>2022-01-30T15:35:38Z</time>
      </trkpt>
      <trkpt lat="42.8292799999999" lon="0.24896599999999927">
        <ele>1877.129</ele>
        <time>2022-01-30T15:35:44Z</time>
      </trkpt>
      <trkpt lat="42.8292399999999" lon="0.24900799999999926">
        <ele>1875.879</ele>
        <time>2022-01-30T15:35:49Z</time>
      </trkpt>
      <trkpt lat="42.8291979999999" lon="0.24904899999999927">
        <ele>1874.505</ele>
        <time>2022-01-30T15:35:54Z</time>
      </trkpt>
      <trkpt lat="42.8291579999999" lon="0.24909899999999927">
        <ele>1873.125</ele>
        <time>2022-01-30T15:35:59Z</time>
      </trkpt>
      <trkpt lat="42.8291199999999" lon="0.24913299999999927">
        <ele>1872.008</ele>
        <time>2022-01-30T15:36:04Z</time>
      </trkpt>
      <trkpt lat="42.829075999999894" lon="0.24909699999999926">
        <ele>1872.196</ele>
        <time>2022-01-30T15:36:16Z</time>
      </trkpt>
      <trkpt lat="42.82901799999989" lon="0.24910299999999927">
        <ele>1871.381</ele>
        <time>2022-01-30T15:36:48Z</time>
      </trkpt>
      <trkpt lat="42.82897499999989" lon="0.24907699999999927">
        <ele>1871.377</ele>
        <time>2022-01-30T15:36:53Z</time>
      </trkpt>
      <trkpt lat="42.828951999999894" lon="0.24912899999999927">
        <ele>1869.845</ele>
        <time>2022-01-30T15:36:58Z</time>
      </trkpt>
      <trkpt lat="42.828926999999894" lon="0.24918399999999927">
        <ele>1868.277</ele>
        <time>2022-01-30T15:37:04Z</time>
      </trkpt>
      <trkpt lat="42.8288919999999" lon="0.24923499999999926">
        <ele>1866.824</ele>
        <time>2022-01-30T15:37:11Z</time>
      </trkpt>
      <trkpt lat="42.8288659999999" lon="0.24929399999999927">
        <ele>1865.558</ele>
        <time>2022-01-30T15:37:25Z</time>
      </trkpt>
      <trkpt lat="42.828827999999895" lon="0.24933899999999926">
        <ele>1864.258</ele>
        <time>2022-01-30T15:37:31Z</time>
      </trkpt>
      <trkpt lat="42.82879799999989" lon="0.24938799999999925">
        <ele>1862.777</ele>
        <time>2022-01-30T15:37:38Z</time>
      </trkpt>
      <trkpt lat="42.82876099999989" lon="0.24943199999999924">
        <ele>1861.061</ele>
        <time>2022-01-30T15:37:44Z</time>
      </trkpt>
      <trkpt lat="42.82871599999989" lon="0.24946999999999925">
        <ele>1859.327</ele>
        <time>2022-01-30T15:37:50Z</time>
      </trkpt>
      <trkpt lat="42.82867199999989" lon="0.24949999999999925">
        <ele>1857.808</ele>
        <time>2022-01-30T15:37:55Z</time>
      </trkpt>
      <trkpt lat="42.82863099999989" lon="0.24953399999999926">
        <ele>1856.146</ele>
        <time>2022-01-30T15:38:00Z</time>
      </trkpt>
      <trkpt lat="42.82858599999989" lon="0.24955699999999925">
        <ele>1855.041</ele>
        <time>2022-01-30T15:38:05Z</time>
      </trkpt>
      <trkpt lat="42.82853799999989" lon="0.24958899999999926">
        <ele>1853.877</ele>
        <time>2022-01-30T15:38:10Z</time>
      </trkpt>
      <trkpt lat="42.82849199999989" lon="0.24960899999999925">
        <ele>1852.895</ele>
        <time>2022-01-30T15:38:14Z</time>
      </trkpt>
      <trkpt lat="42.82844299999989" lon="0.24962899999999924">
        <ele>1851.757</ele>
        <time>2022-01-30T15:38:18Z</time>
      </trkpt>
      <trkpt lat="42.82839899999989" lon="0.24964399999999923">
        <ele>1850.844</ele>
        <time>2022-01-30T15:38:22Z</time>
      </trkpt>
      <trkpt lat="42.82835099999989" lon="0.24965199999999924">
        <ele>1850.028</ele>
        <time>2022-01-30T15:38:26Z</time>
      </trkpt>
      <trkpt lat="42.82830299999989" lon="0.24965899999999924">
        <ele>1849.238</ele>
        <time>2022-01-30T15:38:31Z</time>
      </trkpt>
      <trkpt lat="42.828256999999894" lon="0.24969099999999925">
        <ele>1847.526</ele>
        <time>2022-01-30T15:38:37Z</time>
      </trkpt>
      <trkpt lat="42.828208999999895" lon="0.24971399999999924">
        <ele>1846.047</ele>
        <time>2022-01-30T15:38:44Z</time>
      </trkpt>
      <trkpt lat="42.82815899999989" lon="0.24972799999999923">
        <ele>1844.911</ele>
        <time>2022-01-30T15:38:51Z</time>
      </trkpt>
      <trkpt lat="42.828109999999896" lon="0.24974399999999922">
        <ele>1843.808</ele>
        <time>2022-01-30T15:39:02Z</time>
      </trkpt>
      <trkpt lat="42.828062999999894" lon="0.24975399999999923">
        <ele>1842.881</ele>
        <time>2022-01-30T15:39:08Z</time>
      </trkpt>
      <trkpt lat="42.82801299999989" lon="0.24976399999999924">
        <ele>1841.436</ele>
        <time>2022-01-30T15:39:14Z</time>
      </trkpt>
      <trkpt lat="42.827960999999895" lon="0.24975799999999923">
        <ele>1840.542</ele>
        <time>2022-01-30T15:39:18Z</time>
      </trkpt>
      <trkpt lat="42.827912999999896" lon="0.24976799999999924">
        <ele>1838.950</ele>
        <time>2022-01-30T15:39:23Z</time>
      </trkpt>
      <trkpt lat="42.8278639999999" lon="0.24974599999999925">
        <ele>1838.862</ele>
        <time>2022-01-30T15:39:28Z</time>
      </trkpt>
      <trkpt lat="42.8278079999999" lon="0.24975499999999926">
        <ele>1837.199</ele>
        <time>2022-01-30T15:39:34Z</time>
      </trkpt>
      <trkpt lat="42.8277599999999" lon="0.24977299999999925">
        <ele>1835.233</ele>
        <time>2022-01-30T15:39:39Z</time>
      </trkpt>
      <trkpt lat="42.8277109999999" lon="0.24976599999999924">
        <ele>1834.373</ele>
        <time>2022-01-30T15:39:45Z</time>
      </trkpt>
      <trkpt lat="42.8276659999999" lon="0.24977899999999925">
        <ele>1832.682</ele>
        <time>2022-01-30T15:39:51Z</time>
      </trkpt>
      <trkpt lat="42.8276209999999" lon="0.24976099999999926">
        <ele>1832.343</ele>
        <time>2022-01-30T15:39:57Z</time>
      </trkpt>
      <trkpt lat="42.8275739999999" lon="0.24979299999999927">
        <ele>1829.717</ele>
        <time>2022-01-30T15:40:03Z</time>
      </trkpt>
      <trkpt lat="42.8275229999999" lon="0.24979799999999927">
        <ele>1828.308</ele>
        <time>2022-01-30T15:40:08Z</time>
      </trkpt>
      <trkpt lat="42.8274749999999" lon="0.24978399999999928">
        <ele>1827.737</ele>
        <time>2022-01-30T15:40:14Z</time>
      </trkpt>
      <trkpt lat="42.8274269999999" lon="0.24978099999999928">
        <ele>1826.792</ele>
        <time>2022-01-30T15:40:19Z</time>
      </trkpt>
      <trkpt lat="42.8273739999999" lon="0.24978199999999928">
        <ele>1825.348</ele>
        <time>2022-01-30T15:40:25Z</time>
      </trkpt>
      <trkpt lat="42.8273299999999" lon="0.24975399999999928">
        <ele>1825.476</ele>
        <time>2022-01-30T15:40:30Z</time>
      </trkpt>
      <trkpt lat="42.827285999999894" lon="0.24977099999999927">
        <ele>1823.648</ele>
        <time>2022-01-30T15:40:34Z</time>
      </trkpt>
      <trkpt lat="42.82722999999989" lon="0.24976499999999927">
        <ele>1822.575</ele>
        <time>2022-01-30T15:40:39Z</time>
      </trkpt>
      <trkpt lat="42.827178999999894" lon="0.24976099999999926">
        <ele>1821.779</ele>
        <time>2022-01-30T15:40:44Z</time>
      </trkpt>
      <trkpt lat="42.8271329999999" lon="0.24975999999999926">
        <ele>1820.929</ele>
        <time>2022-01-30T15:40:48Z</time>
      </trkpt>
      <trkpt lat="42.8270869999999" lon="0.24975499999999926">
        <ele>1820.268</ele>
        <time>2022-01-30T15:40:53Z</time>
      </trkpt>
      <trkpt lat="42.8270329999999" lon="0.24975299999999925">
        <ele>1819.342</ele>
        <time>2022-01-30T15:40:58Z</time>
      </trkpt>
      <trkpt lat="42.826980999999904" lon="0.24975399999999925">
        <ele>1818.326</ele>
        <time>2022-01-30T15:41:03Z</time>
      </trkpt>
      <trkpt lat="42.826929999999905" lon="0.24974599999999925">
        <ele>1817.608</ele>
        <time>2022-01-30T15:41:07Z</time>
      </trkpt>
      <trkpt lat="42.82687799999991" lon="0.24973999999999924">
        <ele>1816.635</ele>
        <time>2022-01-30T15:41:12Z</time>
      </trkpt>
      <trkpt lat="42.82683199999991" lon="0.24973899999999924">
        <ele>1815.450</ele>
        <time>2022-01-30T15:41:16Z</time>
      </trkpt>
      <trkpt lat="42.82678499999991" lon="0.24973799999999924">
        <ele>1814.326</ele>
        <time>2022-01-30T15:41:20Z</time>
      </trkpt>
      <trkpt lat="42.82673999999991" lon="0.24973099999999923">
        <ele>1813.594</ele>
        <time>2022-01-30T15:41:24Z</time>
      </trkpt>
      <trkpt lat="42.82669199999991" lon="0.24972599999999923">
        <ele>1812.566</ele>
        <time>2022-01-30T15:41:28Z</time>
      </trkpt>
      <trkpt lat="42.82663999999991" lon="0.24971999999999922">
        <ele>1811.543</ele>
        <time>2022-01-30T15:41:33Z</time>
      </trkpt>
      <trkpt lat="42.82659299999991" lon="0.24972199999999922">
        <ele>1810.427</ele>
        <time>2022-01-30T15:41:38Z</time>
      </trkpt>
      <trkpt lat="42.82653899999991" lon="0.24971799999999922">
        <ele>1809.467</ele>
        <time>2022-01-30T15:41:43Z</time>
      </trkpt>
      <trkpt lat="42.82649099999991" lon="0.24971499999999922">
        <ele>1808.593</ele>
        <time>2022-01-30T15:41:47Z</time>
      </trkpt>
      <trkpt lat="42.82644099999991" lon="0.24971499999999922">
        <ele>1807.565</ele>
        <time>2022-01-30T15:41:51Z</time>
      </trkpt>
      <trkpt lat="42.82639099999991" lon="0.24972299999999922">
        <ele>1806.021</ele>
        <time>2022-01-30T15:41:56Z</time>
      </trkpt>
      <trkpt lat="42.826366999999905" lon="0.24978099999999923">
        <ele>1803.408</ele>
        <time>2022-01-30T15:42:01Z</time>
      </trkpt>
      <trkpt lat="42.826313999999904" lon="0.24977399999999922">
        <ele>1803.078</ele>
        <time>2022-01-30T15:42:35Z</time>
      </trkpt>
      <trkpt lat="42.8263009999999" lon="0.24983899999999923">
        <ele>1800.453</ele>
        <time>2022-01-30T15:42:41Z</time>
      </trkpt>
      <trkpt lat="42.8263429999999" lon="0.24988099999999921">
        <ele>1799.259</ele>
        <time>2022-01-30T15:42:46Z</time>
      </trkpt>
      <trkpt lat="42.8263009999999" lon="0.2499289999999992">
        <ele>1797.027</ele>
        <time>2022-01-30T15:43:00Z</time>
      </trkpt>
      <trkpt lat="42.826310999999905" lon="0.24999499999999922">
        <ele>1794.639</ele>
        <time>2022-01-30T15:43:05Z</time>
      </trkpt>
      <trkpt lat="42.82632399999991" lon="0.25006199999999923">
        <ele>1792.386</ele>
        <time>2022-01-30T15:43:15Z</time>
      </trkpt>
      <trkpt lat="42.826335999999905" lon="0.2501249999999992">
        <ele>1790.150</ele>
        <time>2022-01-30T15:43:22Z</time>
      </trkpt>
      <trkpt lat="42.82630099999991" lon="0.2501729999999992">
        <ele>1788.510</ele>
        <time>2022-01-30T15:43:31Z</time>
      </trkpt>
      <trkpt lat="42.826301999999906" lon="0.2502399999999992">
        <ele>1786.283</ele>
        <time>2022-01-30T15:43:40Z</time>
      </trkpt>
      <trkpt lat="42.82629299999991" lon="0.2502999999999992">
        <ele>1784.525</ele>
        <time>2022-01-30T15:43:49Z</time>
      </trkpt>
      <trkpt lat="42.826273999999906" lon="0.2503599999999992">
        <ele>1783.217</ele>
        <time>2022-01-30T15:43:57Z</time>
      </trkpt>
      <trkpt lat="42.82629799999991" lon="0.25041699999999917">
        <ele>1781.308</ele>
        <time>2022-01-30T15:44:03Z</time>
      </trkpt>
      <trkpt lat="42.82631799999991" lon="0.25047599999999914">
        <ele>1779.397</ele>
        <time>2022-01-30T15:44:11Z</time>
      </trkpt>
      <trkpt lat="42.826329999999906" lon="0.25053799999999915">
        <ele>1777.252</ele>
        <time>2022-01-30T15:44:20Z</time>
      </trkpt>
      <trkpt lat="42.82635799999991" lon="0.25059199999999915">
        <ele>1775.138</ele>
        <time>2022-01-30T15:44:28Z</time>
      </trkpt>
      <trkpt lat="42.8263789999999" lon="0.25064999999999915">
        <ele>1773.326</ele>
        <time>2022-01-30T15:44:35Z</time>
      </trkpt>
      <trkpt lat="42.8264079999999" lon="0.2507089999999991">
        <ele>1771.888</ele>
        <time>2022-01-30T15:44:42Z</time>
      </trkpt>
      <trkpt lat="42.8264289999999" lon="0.25076399999999915">
        <ele>1770.615</ele>
        <time>2022-01-30T15:44:49Z</time>
      </trkpt>
      <trkpt lat="42.8264679999999" lon="0.25079899999999916">
        <ele>1769.939</ele>
        <time>2022-01-30T15:44:55Z</time>
      </trkpt>
      <trkpt lat="42.8264909999999" lon="0.25085299999999916">
        <ele>1768.599</ele>
        <time>2022-01-30T15:45:01Z</time>
      </trkpt>
      <trkpt lat="42.8265159999999" lon="0.25091199999999914">
        <ele>1766.828</ele>
        <time>2022-01-30T15:45:07Z</time>
      </trkpt>
      <trkpt lat="42.8265519999999" lon="0.2509539999999991">
        <ele>1765.389</ele>
        <time>2022-01-30T15:45:12Z</time>
      </trkpt>
      <trkpt lat="42.8265979999999" lon="0.2509879999999991">
        <ele>1763.717</ele>
        <time>2022-01-30T15:45:18Z</time>
      </trkpt>
      <trkpt lat="42.826615999999895" lon="0.2510529999999991">
        <ele>1761.208</ele>
        <time>2022-01-30T15:45:24Z</time>
      </trkpt>
      <trkpt lat="42.826623999999896" lon="0.25112599999999907">
        <ele>1758.581</ele>
        <time>2022-01-30T15:45:30Z</time>
      </trkpt>
      <trkpt lat="42.8266259999999" lon="0.25118899999999905">
        <ele>1756.736</ele>
        <time>2022-01-30T15:45:36Z</time>
      </trkpt>
      <trkpt lat="42.8266139999999" lon="0.25124899999999906">
        <ele>1755.432</ele>
        <time>2022-01-30T15:45:46Z</time>
      </trkpt>
      <trkpt lat="42.8266439999999" lon="0.2512959999999991">
        <ele>1753.370</ele>
        <time>2022-01-30T15:45:51Z</time>
      </trkpt>
      <trkpt lat="42.826673999999905" lon="0.25134399999999907">
        <ele>1751.352</ele>
        <time>2022-01-30T15:45:57Z</time>
      </trkpt>
      <trkpt lat="42.8267199999999" lon="0.25137599999999904">
        <ele>1750.659</ele>
        <time>2022-01-30T15:46:02Z</time>
      </trkpt>
      <trkpt lat="42.8267509999999" lon="0.25142199999999904">
        <ele>1749.623</ele>
        <time>2022-01-30T15:46:07Z</time>
      </trkpt>
      <trkpt lat="42.8267879999999" lon="0.251465999999999">
        <ele>1748.663</ele>
        <time>2022-01-30T15:46:14Z</time>
      </trkpt>
      <trkpt lat="42.8268189999999" lon="0.251509999999999">
        <ele>1747.422</ele>
        <time>2022-01-30T15:46:19Z</time>
      </trkpt>
      <trkpt lat="42.8268489999999" lon="0.251568999999999">
        <ele>1745.562</ele>
        <time>2022-01-30T15:46:25Z</time>
      </trkpt>
      <trkpt lat="42.826878999999906" lon="0.251618999999999">
        <ele>1743.708</ele>
        <time>2022-01-30T15:46:31Z</time>
      </trkpt>
      <trkpt lat="42.82691199999991" lon="0.251661999999999">
        <ele>1741.708</ele>
        <time>2022-01-30T15:46:37Z</time>
      </trkpt>
      <trkpt lat="42.826940999999906" lon="0.251721999999999">
        <ele>1738.931</ele>
        <time>2022-01-30T15:46:44Z</time>
      </trkpt>
      <trkpt lat="42.82696799999991" lon="0.251773999999999">
        <ele>1736.946</ele>
        <time>2022-01-30T15:46:50Z</time>
      </trkpt>
      <trkpt lat="42.82699799999991" lon="0.251821999999999">
        <ele>1735.132</ele>
        <time>2022-01-30T15:46:56Z</time>
      </trkpt>
      <trkpt lat="42.827038999999914" lon="0.251848999999999">
        <ele>1734.240</ele>
        <time>2022-01-30T15:47:02Z</time>
      </trkpt>
      <trkpt lat="42.82707299999991" lon="0.251901999999999">
        <ele>1732.252</ele>
        <time>2022-01-30T15:47:10Z</time>
      </trkpt>
      <trkpt lat="42.827102999999916" lon="0.25194899999999903">
        <ele>1730.449</ele>
        <time>2022-01-30T15:47:16Z</time>
      </trkpt>
      <trkpt lat="42.827125999999915" lon="0.25200499999999904">
        <ele>1728.073</ele>
        <time>2022-01-30T15:47:22Z</time>
      </trkpt>
      <trkpt lat="42.82713799999991" lon="0.252065999999999">
        <ele>1725.453</ele>
        <time>2022-01-30T15:47:30Z</time>
      </trkpt>
      <trkpt lat="42.82718999999991" lon="0.252074999999999">
        <ele>1724.967</ele>
        <time>2022-01-30T15:47:36Z</time>
      </trkpt>
      <trkpt lat="42.82723599999991" lon="0.252100999999999">
        <ele>1724.181</ele>
        <time>2022-01-30T15:47:45Z</time>
      </trkpt>
      <trkpt lat="42.82727799999991" lon="0.252131999999999">
        <ele>1724.119</ele>
        <time>2022-01-30T15:47:50Z</time>
      </trkpt>
      <trkpt lat="42.82732299999991" lon="0.252161999999999">
        <ele>1724.208</ele>
        <time>2022-01-30T15:47:57Z</time>
      </trkpt>
      <trkpt lat="42.827371999999905" lon="0.252195999999999">
        <ele>1724.135</ele>
        <time>2022-01-30T15:48:04Z</time>
      </trkpt>
      <trkpt lat="42.827405999999904" lon="0.252249999999999">
        <ele>1722.750</ele>
        <time>2022-01-30T15:48:12Z</time>
      </trkpt>
      <trkpt lat="42.827447999999904" lon="0.252284999999999">
        <ele>1722.436</ele>
        <time>2022-01-30T15:48:18Z</time>
      </trkpt>
      <trkpt lat="42.8274829999999" lon="0.252331999999999">
        <ele>1721.334</ele>
        <time>2022-01-30T15:48:24Z</time>
      </trkpt>
      <trkpt lat="42.8275009999999" lon="0.252388999999999">
        <ele>1719.276</ele>
        <time>2022-01-30T15:48:32Z</time>
      </trkpt>
      <trkpt lat="42.8275239999999" lon="0.25244999999999895">
        <ele>1717.073</ele>
        <time>2022-01-30T15:48:42Z</time>
      </trkpt>
      <trkpt lat="42.8274979999999" lon="0.25251699999999894">
        <ele>1713.077</ele>
        <time>2022-01-30T15:48:52Z</time>
      </trkpt>
      <trkpt lat="42.8275269999999" lon="0.2525739999999989">
        <ele>1710.747</ele>
        <time>2022-01-30T15:48:58Z</time>
      </trkpt>
      <trkpt lat="42.8275539999999" lon="0.2526329999999989">
        <ele>1708.226</ele>
        <time>2022-01-30T15:49:04Z</time>
      </trkpt>
      <trkpt lat="42.8275989999999" lon="0.2526549999999989">
        <ele>1708.147</ele>
        <time>2022-01-30T15:49:14Z</time>
      </trkpt>
      <trkpt lat="42.8276259999999" lon="0.2527049999999989">
        <ele>1706.111</ele>
        <time>2022-01-30T15:49:19Z</time>
      </trkpt>
      <trkpt lat="42.827655999999905" lon="0.2527589999999989">
        <ele>1703.908</ele>
        <time>2022-01-30T15:49:26Z</time>
      </trkpt>
      <trkpt lat="42.827675999999904" lon="0.2528229999999989">
        <ele>1701.221</ele>
        <time>2022-01-30T15:49:33Z</time>
      </trkpt>
      <trkpt lat="42.8276629999999" lon="0.2528959999999989">
        <ele>1697.376</ele>
        <time>2022-01-30T15:49:39Z</time>
      </trkpt>
      <trkpt lat="42.8276489999999" lon="0.2529619999999989">
        <ele>1693.832</ele>
        <time>2022-01-30T15:49:44Z</time>
      </trkpt>
      <trkpt lat="42.8276379999999" lon="0.2530269999999989">
        <ele>1690.460</ele>
        <time>2022-01-30T15:49:50Z</time>
      </trkpt>
      <trkpt lat="42.8276539999999" lon="0.2530849999999989">
        <ele>1689.082</ele>
        <time>2022-01-30T15:49:55Z</time>
      </trkpt>
      <trkpt lat="42.8276149999999" lon="0.2531309999999989">
        <ele>1687.589</ele>
        <time>2022-01-30T15:50:03Z</time>
      </trkpt>
      <trkpt lat="42.8275899999999" lon="0.25319599999999887">
        <ele>1685.933</ele>
        <time>2022-01-30T15:50:08Z</time>
      </trkpt>
      <trkpt lat="42.8275459999999" lon="0.25322899999999887">
        <ele>1683.993</ele>
        <time>2022-01-30T15:50:14Z</time>
      </trkpt>
      <trkpt lat="42.8275149999999" lon="0.2532889999999989">
        <ele>1681.643</ele>
        <time>2022-01-30T15:50:20Z</time>
      </trkpt>
      <trkpt lat="42.8274899999999" lon="0.25335599999999886">
        <ele>1679.864</ele>
        <time>2022-01-30T15:50:25Z</time>
      </trkpt>
      <trkpt lat="42.8274469999999" lon="0.2533969999999989">
        <ele>1678.710</ele>
        <time>2022-01-30T15:50:30Z</time>
      </trkpt>
      <trkpt lat="42.827408999999896" lon="0.25344299999999886">
        <ele>1677.508</ele>
        <time>2022-01-30T15:50:35Z</time>
      </trkpt>
      <trkpt lat="42.827369999999895" lon="0.2534819999999989">
        <ele>1676.073</ele>
        <time>2022-01-30T15:50:40Z</time>
      </trkpt>
      <trkpt lat="42.827333999999894" lon="0.25352799999999887">
        <ele>1674.448</ele>
        <time>2022-01-30T15:50:47Z</time>
      </trkpt>
      <trkpt lat="42.82730099999989" lon="0.25357999999999886">
        <ele>1672.724</ele>
        <time>2022-01-30T15:50:53Z</time>
      </trkpt>
      <trkpt lat="42.82725699999989" lon="0.25360799999999883">
        <ele>1670.572</ele>
        <time>2022-01-30T15:50:59Z</time>
      </trkpt>
      <trkpt lat="42.82720499999989" lon="0.2536129999999988">
        <ele>1668.534</ele>
        <time>2022-01-30T15:51:04Z</time>
      </trkpt>
      <trkpt lat="42.82718899999989" lon="0.2536709999999988">
        <ele>1668.881</ele>
        <time>2022-01-30T15:51:07Z</time>
      </trkpt>
      <trkpt lat="42.82713899999989" lon="0.2536819999999988">
        <ele>1667.225</ele>
        <time>2022-01-30T15:51:13Z</time>
      </trkpt>
      <trkpt lat="42.82710199999989" lon="0.2537269999999988">
        <ele>1666.345</ele>
        <time>2022-01-30T15:51:18Z</time>
      </trkpt>
      <trkpt lat="42.82707599999989" lon="0.2537829999999988">
        <ele>1665.612</ele>
        <time>2022-01-30T15:51:25Z</time>
      </trkpt>
      <trkpt lat="42.82705099999989" lon="0.25383799999999884">
        <ele>1664.832</ele>
        <time>2022-01-30T15:51:31Z</time>
      </trkpt>
      <trkpt lat="42.82701699999989" lon="0.25388899999999887">
        <ele>1663.405</ele>
        <time>2022-01-30T15:51:36Z</time>
      </trkpt>
      <trkpt lat="42.82699399999989" lon="0.25395099999999887">
        <ele>1662.808</ele>
        <time>2022-01-30T15:51:40Z</time>
      </trkpt>
      <trkpt lat="42.82695999999989" lon="0.2539959999999989">
        <ele>1661.510</ele>
        <time>2022-01-30T15:51:44Z</time>
      </trkpt>
      <trkpt lat="42.82692699999989" lon="0.2540479999999989">
        <ele>1660.525</ele>
        <time>2022-01-30T15:51:49Z</time>
      </trkpt>
      <trkpt lat="42.82689799999989" lon="0.2540999999999989">
        <ele>1659.691</ele>
        <time>2022-01-30T15:51:54Z</time>
      </trkpt>
      <trkpt lat="42.826871999999895" lon="0.2541519999999989">
        <ele>1658.849</ele>
        <time>2022-01-30T15:51:58Z</time>
      </trkpt>
      <trkpt lat="42.8268289999999" lon="0.2541869999999989">
        <ele>1657.021</ele>
        <time>2022-01-30T15:52:03Z</time>
      </trkpt>
      <trkpt lat="42.826792999999896" lon="0.2542339999999989">
        <ele>1655.418</ele>
        <time>2022-01-30T15:52:08Z</time>
      </trkpt>
      <trkpt lat="42.826753999999895" lon="0.2542769999999989">
        <ele>1653.632</ele>
        <time>2022-01-30T15:52:13Z</time>
      </trkpt>
      <trkpt lat="42.826730999999896" lon="0.25434299999999893">
        <ele>1652.442</ele>
        <time>2022-01-30T15:52:19Z</time>
      </trkpt>
      <trkpt lat="42.8267079999999" lon="0.25440499999999894">
        <ele>1651.261</ele>
        <time>2022-01-30T15:52:24Z</time>
      </trkpt>
      <trkpt lat="42.826683999999894" lon="0.2544619999999989">
        <ele>1649.821</ele>
        <time>2022-01-30T15:52:27Z</time>
      </trkpt>
      <trkpt lat="42.82666199999989" lon="0.2545279999999989">
        <ele>1648.513</ele>
        <time>2022-01-30T15:52:31Z</time>
      </trkpt>
      <trkpt lat="42.82666299999989" lon="0.2545969999999989">
        <ele>1648.308</ele>
        <time>2022-01-30T15:52:42Z</time>
      </trkpt>
      <trkpt lat="42.82663599999989" lon="0.2546599999999989">
        <ele>1647.155</ele>
        <time>2022-01-30T15:52:48Z</time>
      </trkpt>
      <trkpt lat="42.82660499999989" lon="0.25471899999999886">
        <ele>1645.670</ele>
        <time>2022-01-30T15:52:54Z</time>
      </trkpt>
      <trkpt lat="42.826585999999885" lon="0.25477999999999884">
        <ele>1644.516</ele>
        <time>2022-01-30T15:52:59Z</time>
      </trkpt>
      <trkpt lat="42.826551999999886" lon="0.25483099999999886">
        <ele>1642.744</ele>
        <time>2022-01-30T15:53:04Z</time>
      </trkpt>
      <trkpt lat="42.826529999999885" lon="0.2548949999999989">
        <ele>1641.486</ele>
        <time>2022-01-30T15:53:10Z</time>
      </trkpt>
      <trkpt lat="42.82650099999989" lon="0.2549439999999989">
        <ele>1639.723</ele>
        <time>2022-01-30T15:53:15Z</time>
      </trkpt>
      <trkpt lat="42.82646899999989" lon="0.2549959999999989">
        <ele>1637.817</ele>
        <time>2022-01-30T15:53:20Z</time>
      </trkpt>
      <trkpt lat="42.82642599999989" lon="0.2550289999999989">
        <ele>1635.447</ele>
        <time>2022-01-30T15:53:27Z</time>
      </trkpt>
      <trkpt lat="42.82637799999989" lon="0.25505899999999887">
        <ele>1633.189</ele>
        <time>2022-01-30T15:53:32Z</time>
      </trkpt>
      <trkpt lat="42.826348999999894" lon="0.2551119999999989">
        <ele>1631.906</ele>
        <time>2022-01-30T15:53:36Z</time>
      </trkpt>
      <trkpt lat="42.82632099999989" lon="0.2551699999999989">
        <ele>1630.526</ele>
        <time>2022-01-30T15:53:40Z</time>
      </trkpt>
      <trkpt lat="42.82630499999989" lon="0.2552319999999989">
        <ele>1629.208</ele>
        <time>2022-01-30T15:53:44Z</time>
      </trkpt>
      <trkpt lat="42.82627799999989" lon="0.25528699999999893">
        <ele>1627.767</ele>
        <time>2022-01-30T15:53:48Z</time>
      </trkpt>
      <trkpt lat="42.82625699999989" lon="0.2553619999999989">
        <ele>1626.172</ele>
        <time>2022-01-30T15:53:58Z</time>
      </trkpt>
      <trkpt lat="42.82623099999989" lon="0.2554189999999989">
        <ele>1624.658</ele>
        <time>2022-01-30T15:54:02Z</time>
      </trkpt>
      <trkpt lat="42.82619499999989" lon="0.2554629999999989">
        <ele>1623.026</ele>
        <time>2022-01-30T15:54:08Z</time>
      </trkpt>
      <trkpt lat="42.82617899999989" lon="0.25552999999999887">
        <ele>1621.558</ele>
        <time>2022-01-30T15:54:15Z</time>
      </trkpt>
      <trkpt lat="42.82615599999989" lon="0.2555959999999989">
        <ele>1619.835</ele>
        <time>2022-01-30T15:54:20Z</time>
      </trkpt>
      <trkpt lat="42.82614699999989" lon="0.25566299999999886">
        <ele>1618.349</ele>
        <time>2022-01-30T15:54:24Z</time>
      </trkpt>
      <trkpt lat="42.82613099999989" lon="0.25572099999999887">
        <ele>1616.869</ele>
        <time>2022-01-30T15:54:28Z</time>
      </trkpt>
      <trkpt lat="42.82611999999989" lon="0.25578999999999885">
        <ele>1615.122</ele>
        <time>2022-01-30T15:54:33Z</time>
      </trkpt>
      <trkpt lat="42.82610599999989" lon="0.25584999999999886">
        <ele>1613.962</ele>
        <time>2022-01-30T15:54:37Z</time>
      </trkpt>
      <trkpt lat="42.82609899999989" lon="0.25591999999999887">
        <ele>1613.108</ele>
        <time>2022-01-30T15:54:41Z</time>
      </trkpt>
      <trkpt lat="42.82610199999989" lon="0.25598499999999885">
        <ele>1612.408</ele>
        <time>2022-01-30T15:54:44Z</time>
      </trkpt>
      <trkpt lat="42.82609399999989" lon="0.25605899999999887">
        <ele>1611.691</ele>
        <time>2022-01-30T15:54:48Z</time>
      </trkpt>
      <trkpt lat="42.82607999999989" lon="0.25612199999999885">
        <ele>1610.966</ele>
        <time>2022-01-30T15:54:52Z</time>
      </trkpt>
      <trkpt lat="42.82607699999989" lon="0.25619099999999884">
        <ele>1610.152</ele>
        <time>2022-01-30T15:54:55Z</time>
      </trkpt>
      <trkpt lat="42.82606799999989" lon="0.25626499999999885">
        <ele>1609.390</ele>
        <time>2022-01-30T15:55:00Z</time>
      </trkpt>
      <trkpt lat="42.82606799999989" lon="0.25632899999999886">
        <ele>1608.582</ele>
        <time>2022-01-30T15:55:04Z</time>
      </trkpt>
      <trkpt lat="42.82607199999989" lon="0.2564049999999989">
        <ele>1607.759</ele>
        <time>2022-01-30T15:55:08Z</time>
      </trkpt>
      <trkpt lat="42.82605699999989" lon="0.2564629999999989">
        <ele>1607.223</ele>
        <time>2022-01-30T15:55:12Z</time>
      </trkpt>
      <trkpt lat="42.826069999999895" lon="0.25652399999999886">
        <ele>1606.813</ele>
        <time>2022-01-30T15:55:16Z</time>
      </trkpt>
      <trkpt lat="42.8260719999999" lon="0.2565879999999989">
        <ele>1606.366</ele>
        <time>2022-01-30T15:55:22Z</time>
      </trkpt>
      <trkpt lat="42.826074999999896" lon="0.25665299999999885">
        <ele>1605.829</ele>
        <time>2022-01-30T15:55:26Z</time>
      </trkpt>
      <trkpt lat="42.8260849999999" lon="0.2567309999999989">
        <ele>1605.521</ele>
        <time>2022-01-30T15:55:30Z</time>
      </trkpt>
      <trkpt lat="42.8260799999999" lon="0.25680599999999887">
        <ele>1605.108</ele>
        <time>2022-01-30T15:55:34Z</time>
      </trkpt>
      <trkpt lat="42.826074999999896" lon="0.25687899999999886">
        <ele>1604.715</ele>
        <time>2022-01-30T15:55:38Z</time>
      </trkpt>
      <trkpt lat="42.826072999999894" lon="0.25694799999999884">
        <ele>1604.340</ele>
        <time>2022-01-30T15:55:42Z</time>
      </trkpt>
      <trkpt lat="42.82606499999989" lon="0.25701399999999885">
        <ele>1603.716</ele>
        <time>2022-01-30T15:55:46Z</time>
      </trkpt>
      <trkpt lat="42.82607199999989" lon="0.25708699999999884">
        <ele>1603.354</ele>
        <time>2022-01-30T15:55:51Z</time>
      </trkpt>
      <trkpt lat="42.82606799999989" lon="0.25715899999999886">
        <ele>1602.776</ele>
        <time>2022-01-30T15:55:56Z</time>
      </trkpt>
      <trkpt lat="42.82606899999989" lon="0.2572269999999989">
        <ele>1602.213</ele>
        <time>2022-01-30T15:56:00Z</time>
      </trkpt>
      <trkpt lat="42.82606099999989" lon="0.25729599999999886">
        <ele>1601.887</ele>
        <time>2022-01-30T15:56:04Z</time>
      </trkpt>
      <trkpt lat="42.82605799999989" lon="0.2573699999999989">
        <ele>1601.447</ele>
        <time>2022-01-30T15:56:08Z</time>
      </trkpt>
      <trkpt lat="42.82605499999989" lon="0.25743899999999886">
        <ele>1601.137</ele>
        <time>2022-01-30T15:56:12Z</time>
      </trkpt>
      <trkpt lat="42.82604299999989" lon="0.25750599999999885">
        <ele>1600.549</ele>
        <time>2022-01-30T15:56:16Z</time>
      </trkpt>
      <trkpt lat="42.826030999999894" lon="0.2575649999999988">
        <ele>1600.113</ele>
        <time>2022-01-30T15:56:20Z</time>
      </trkpt>
      <trkpt lat="42.826018999999896" lon="0.2576299999999988">
        <ele>1599.708</ele>
        <time>2022-01-30T15:56:24Z</time>
      </trkpt>
      <trkpt lat="42.8260099999999" lon="0.2577039999999988">
        <ele>1599.382</ele>
        <time>2022-01-30T15:56:28Z</time>
      </trkpt>
      <trkpt lat="42.8259979999999" lon="0.25776799999999883">
        <ele>1598.837</ele>
        <time>2022-01-30T15:56:32Z</time>
      </trkpt>
      <trkpt lat="42.8259829999999" lon="0.25783399999999884">
        <ele>1598.173</ele>
        <time>2022-01-30T15:56:36Z</time>
      </trkpt>
      <trkpt lat="42.8259719999999" lon="0.25790399999999886">
        <ele>1597.551</ele>
        <time>2022-01-30T15:56:40Z</time>
      </trkpt>
      <trkpt lat="42.8259639999999" lon="0.25796499999999883">
        <ele>1597.053</ele>
        <time>2022-01-30T15:56:43Z</time>
      </trkpt>
      <trkpt lat="42.8259689999999" lon="0.25803099999999884">
        <ele>1597.060</ele>
        <time>2022-01-30T15:56:46Z</time>
      </trkpt>
      <trkpt lat="42.8259539999999" lon="0.25808899999999885">
        <ele>1596.254</ele>
        <time>2022-01-30T15:56:49Z</time>
      </trkpt>
      <trkpt lat="42.8259399999999" lon="0.25815599999999883">
        <ele>1595.474</ele>
        <time>2022-01-30T15:56:54Z</time>
      </trkpt>
      <trkpt lat="42.8259129999999" lon="0.2582149999999988">
        <ele>1594.042</ele>
        <time>2022-01-30T15:56:59Z</time>
      </trkpt>
      <trkpt lat="42.8259019999999" lon="0.2582819999999988">
        <ele>1593.222</ele>
        <time>2022-01-30T15:57:04Z</time>
      </trkpt>
      <trkpt lat="42.8258739999999" lon="0.25834099999999877">
        <ele>1591.714</ele>
        <time>2022-01-30T15:57:10Z</time>
      </trkpt>
      <trkpt lat="42.8258429999999" lon="0.25842199999999876">
        <ele>1589.808</ele>
        <time>2022-01-30T15:57:15Z</time>
      </trkpt>
      <trkpt lat="42.825818999999896" lon="0.2584939999999988">
        <ele>1588.733</ele>
        <time>2022-01-30T15:57:17Z</time>
      </trkpt>
      <trkpt lat="42.825782999999895" lon="0.2585369999999988">
        <ele>1587.938</ele>
        <time>2022-01-30T15:57:23Z</time>
      </trkpt>
      <trkpt lat="42.825751999999895" lon="0.2585919999999988">
        <ele>1587.054</ele>
        <time>2022-01-30T15:57:31Z</time>
      </trkpt>
      <trkpt lat="42.82574199999989" lon="0.2586589999999988">
        <ele>1586.462</ele>
        <time>2022-01-30T15:57:36Z</time>
      </trkpt>
      <trkpt lat="42.82572599999989" lon="0.2587209999999988">
        <ele>1585.834</ele>
        <time>2022-01-30T15:57:42Z</time>
      </trkpt>
      <trkpt lat="42.82569899999989" lon="0.2586709999999988">
        <ele>1585.661</ele>
        <time>2022-01-30T15:57:51Z</time>
      </trkpt>
      <trkpt lat="42.825651999999884" lon="0.2586919999999988">
        <ele>1584.785</ele>
        <time>2022-01-30T15:58:05Z</time>
      </trkpt>
      <trkpt lat="42.82568899999988" lon="0.2586549999999988">
        <ele>1585.635</ele>
        <time>2022-01-30T15:59:06Z</time>
      </trkpt>
      <trkpt lat="42.825653999999886" lon="0.2585809999999988">
        <ele>1585.866</ele>
        <time>2022-01-30T16:02:02Z</time>
      </trkpt>
      <trkpt lat="42.82560199999989" lon="0.25855499999999876">
        <ele>1585.429</ele>
        <time>2022-01-30T16:02:44Z</time>
      </trkpt>
      <trkpt lat="42.82565299999989" lon="0.2585729999999988">
        <ele>1585.921</ele>
        <time>2022-01-30T16:02:52Z</time>
      </trkpt>
      <trkpt lat="42.82567699999989" lon="0.2586309999999988">
        <ele>1585.608</ele>
        <time>2022-01-30T16:03:17Z</time>
      </trkpt>
      <trkpt lat="42.825633999999894" lon="0.25860899999999876">
        <ele>1585.265</ele>
        <time>2022-01-30T16:07:28Z</time>
      </trkpt>
      <trkpt lat="42.825655" lon="0.257923">
        <ele>1592.658</ele>
        <time>2021-02-27T09:09:21Z</time>
      </trkpt>
      <trkpt lat="42.825615" lon="0.257926">
        <ele>1592.552</ele>
        <time>2021-02-27T09:09:24Z</time>
      </trkpt>
      <trkpt lat="42.825576" lon="0.257923">
        <ele>1592.517</ele>
        <time>2021-02-27T09:09:29Z</time>
      </trkpt>
      <trkpt lat="42.82554" lon="0.257934">
        <ele>1592.608</ele>
        <time>2021-02-27T09:09:32Z</time>
      </trkpt>
      <trkpt lat="42.825497999999996" lon="0.257929">
        <ele>1593.321</ele>
        <time>2021-02-27T09:09:37Z</time>
      </trkpt>
      <trkpt lat="42.825458999999995" lon="0.257906">
        <ele>1594.281</ele>
        <time>2021-02-27T09:09:40Z</time>
      </trkpt>
      <trkpt lat="42.82538399999999" lon="0.25792400000000004">
        <ele>1595.243</ele>
        <time>2021-02-27T09:09:44Z</time>
      </trkpt>
      <trkpt lat="42.825298999999994" lon="0.2579">
        <ele>1596.987</ele>
        <time>2021-02-27T09:09:49Z</time>
      </trkpt>
      <trkpt lat="42.825258999999996" lon="0.25791400000000003">
        <ele>1598.146</ele>
        <time>2021-02-27T09:09:51Z</time>
      </trkpt>
      <trkpt lat="42.825154" lon="0.257952">
        <ele>1603.779</ele>
        <time>2021-02-27T09:10:00Z</time>
      </trkpt>
      <trkpt lat="42.825078" lon="0.258062">
        <ele>1607.127</ele>
        <time>2021-02-27T09:10:16Z</time>
      </trkpt>
      <trkpt lat="42.825036" lon="0.25821500000000003">
        <ele>1608.049</ele>
        <time>2021-02-27T09:10:37Z</time>
      </trkpt>
      <trkpt lat="42.825013999999996" lon="0.25826000000000005">
        <ele>1608.964</ele>
        <time>2021-02-27T09:10:41Z</time>
      </trkpt>
      <trkpt lat="42.824996" lon="0.25831600000000005">
        <ele>1609.506</ele>
        <time>2021-02-27T09:10:51Z</time>
      </trkpt>
      <trkpt lat="42.824992" lon="0.25836500000000007">
        <ele>1609.116</ele>
        <time>2021-02-27T09:10:56Z</time>
      </trkpt>
      <trkpt lat="42.82499" lon="0.25842300000000007">
        <ele>1608.208</ele>
        <time>2021-02-27T09:11:01Z</time>
      </trkpt>
      <trkpt lat="42.824971" lon="0.25847100000000006">
        <ele>1608.832</ele>
        <time>2021-02-27T09:11:07Z</time>
      </trkpt>
      <trkpt lat="42.824954999999996" lon="0.25852300000000006">
        <ele>1609.182</ele>
        <time>2021-02-27T09:11:15Z</time>
      </trkpt>
      <trkpt lat="42.824940999999995" lon="0.25857300000000005">
        <ele>1609.344</ele>
        <time>2021-02-27T09:11:23Z</time>
      </trkpt>
      <trkpt lat="42.82492499999999" lon="0.25862300000000005">
        <ele>1609.698</ele>
        <time>2021-02-27T09:11:28Z</time>
      </trkpt>
      <trkpt lat="42.824906999999996" lon="0.25867100000000004">
        <ele>1609.987</ele>
        <time>2021-02-27T09:11:32Z</time>
      </trkpt>
      <trkpt lat="42.824884999999995" lon="0.25872000000000006">
        <ele>1610.370</ele>
        <time>2021-02-27T09:11:37Z</time>
      </trkpt>
      <trkpt lat="42.824867999999995" lon="0.2587730000000001">
        <ele>1610.128</ele>
        <time>2021-02-27T09:11:40Z</time>
      </trkpt>
      <trkpt lat="42.82485" lon="0.2588250000000001">
        <ele>1609.950</ele>
        <time>2021-02-27T09:11:45Z</time>
      </trkpt>
      <trkpt lat="42.824824" lon="0.2588660000000001">
        <ele>1610.432</ele>
        <time>2021-02-27T09:11:49Z</time>
      </trkpt>
      <trkpt lat="42.824801" lon="0.2589080000000001">
        <ele>1610.692</ele>
        <time>2021-02-27T09:11:53Z</time>
      </trkpt>
      <trkpt lat="42.824779" lon="0.2589530000000001">
        <ele>1610.711</ele>
        <time>2021-02-27T09:11:57Z</time>
      </trkpt>
      <trkpt lat="42.82476" lon="0.2590050000000001">
        <ele>1610.408</ele>
        <time>2021-02-27T09:12:00Z</time>
      </trkpt>
      <trkpt lat="42.824742" lon="0.2590560000000001">
        <ele>1610.039</ele>
        <time>2021-02-27T09:12:05Z</time>
      </trkpt>
      <trkpt lat="42.824716" lon="0.25910300000000014">
        <ele>1610.289</ele>
        <time>2021-02-27T09:12:08Z</time>
      </trkpt>
      <trkpt lat="42.824695000000006" lon="0.25914400000000015">
        <ele>1610.691</ele>
        <time>2021-02-27T09:12:12Z</time>
      </trkpt>
      <trkpt lat="42.82439000000001" lon="0.25987400000000016">
        <ele>1629.475</ele>
        <time>2021-02-27T09:13:22Z</time>
      </trkpt>
      <trkpt lat="42.82438600000001" lon="0.2603070000000002">
        <ele>1629.624</ele>
        <time>2021-02-27T09:14:05Z</time>
      </trkpt>
      <trkpt lat="42.82425700000001" lon="0.2609390000000002">
        <ele>1630.447</ele>
        <time>2021-02-27T09:15:04Z</time>
      </trkpt>
      <trkpt lat="42.82367900000001" lon="0.2617550000000002">
        <ele>1662.385</ele>
        <time>2021-02-27T09:17:07Z</time>
      </trkpt>
      <trkpt lat="42.82375300000001" lon="0.26041300000000017">
        <ele>1675.247</ele>
        <time>2021-02-27T09:19:07Z</time>
      </trkpt>
      <trkpt lat="42.82349900000001" lon="0.2594310000000002">
        <ele>1703.925</ele>
        <time>2021-02-27T09:22:08Z</time>
      </trkpt>
      <trkpt lat="42.82349600000001" lon="0.2590370000000002">
        <ele>1710.726</ele>
        <time>2021-02-27T09:23:06Z</time>
      </trkpt>
      <trkpt lat="42.82360300000001" lon="0.25849800000000017">
        <ele>1708.608</ele>
        <time>2021-02-27T09:24:06Z</time>
      </trkpt>
      <trkpt lat="42.823625000000014" lon="0.2567150000000002">
        <ele>1722.808</ele>
        <time>2021-02-27T09:27:07Z</time>
      </trkpt>
      <trkpt lat="42.82340300000001" lon="0.2561520000000002">
        <ele>1739.078</ele>
        <time>2021-02-27T09:28:06Z</time>
      </trkpt>
      <trkpt lat="42.82322600000001" lon="0.2553220000000002">
        <ele>1752.838</ele>
        <time>2021-02-27T09:31:05Z</time>
      </trkpt>
      <trkpt lat="42.823211000000015" lon="0.2544940000000002">
        <ele>1772.350</ele>
        <time>2021-02-27T09:33:05Z</time>
      </trkpt>
      <trkpt lat="42.82335800000001" lon="0.2538860000000002">
        <ele>1783.964</ele>
        <time>2021-02-27T09:34:05Z</time>
      </trkpt>
      <trkpt lat="42.82352400000001" lon="0.2533430000000002">
        <ele>1800.583</ele>
        <time>2021-02-27T09:35:05Z</time>
      </trkpt>
      <trkpt lat="42.82395500000001" lon="0.25295000000000023">
        <ele>1800.036</ele>
        <time>2021-02-27T09:36:18Z</time>
      </trkpt>
      <trkpt lat="42.82442500000001" lon="0.2513300000000002">
        <ele>1827.444</ele>
        <time>2021-02-27T09:39:06Z</time>
      </trkpt>
      <trkpt lat="42.824613000000014" lon="0.25092900000000024">
        <ele>1830.426</ele>
        <time>2021-02-27T09:40:05Z</time>
      </trkpt>
      <trkpt lat="42.824956000000014" lon="0.25102200000000024">
        <ele>1820.838</ele>
        <time>2021-02-27T09:43:05Z</time>
      </trkpt>
      <trkpt lat="42.825240000000015" lon="0.2512470000000002">
        <ele>1812.870</ele>
        <time>2021-02-27T09:49:05Z</time>
      </trkpt>
      <trkpt lat="42.825406000000015" lon="0.2504340000000002">
        <ele>1812.417</ele>
        <time>2021-02-27T09:53:14Z</time>
      </trkpt>
      <trkpt lat="42.82545300000002" lon="0.2500130000000002">
        <ele>1818.908</ele>
        <time>2021-02-27T09:54:05Z</time>
      </trkpt>
      <trkpt lat="42.82559600000002" lon="0.2488370000000002">
        <ele>1833.069</ele>
        <time>2021-02-27T09:56:05Z</time>
      </trkpt>
      <trkpt lat="42.826036000000016" lon="0.24865900000000019">
        <ele>1835.799</ele>
        <time>2021-02-27T09:58:05Z</time>
      </trkpt>
      <trkpt lat="42.82678100000002" lon="0.24874000000000018">
        <ele>1855.271</ele>
        <time>2021-02-27T09:59:18Z</time>
      </trkpt>
      <trkpt lat="42.82782000000002" lon="0.2493000000000002">
        <ele>1859.065</ele>
        <time>2021-02-27T10:01:11Z</time>
      </trkpt>
      <trkpt lat="42.828125000000014" lon="0.2491940000000002">
        <ele>1868.694</ele>
        <time>2021-02-27T10:03:05Z</time>
      </trkpt>
      <trkpt lat="42.828761000000014" lon="0.2489140000000002">
        <ele>1875.987</ele>
        <time>2021-02-27T10:04:08Z</time>
      </trkpt>
      <trkpt lat="42.82915900000001" lon="0.24848500000000018">
        <ele>1886.625</ele>
        <time>2021-02-27T10:05:08Z</time>
      </trkpt>
      <trkpt lat="42.82950600000001" lon="0.24812000000000017">
        <ele>1893.867</ele>
        <time>2021-02-27T10:07:04Z</time>
      </trkpt>
      <trkpt lat="42.82984600000001" lon="0.24795100000000017">
        <ele>1898.613</ele>
        <time>2021-02-27T10:08:04Z</time>
      </trkpt>
      <trkpt lat="42.83098100000001" lon="0.24708800000000017">
        <ele>1933.543</ele>
        <time>2021-02-27T10:11:05Z</time>
      </trkpt>
      <trkpt lat="42.83149900000001" lon="0.24698000000000017">
        <ele>1941.507</ele>
        <time>2021-02-27T10:12:06Z</time>
      </trkpt>
      <trkpt lat="42.83177500000001" lon="0.24687800000000018">
        <ele>1943.008</ele>
        <time>2021-02-27T10:13:05Z</time>
      </trkpt>
      <trkpt lat="42.83209800000001" lon="0.24688300000000019">
        <ele>1941.027</ele>
        <time>2021-02-27T10:18:05Z</time>
      </trkpt>
      <trkpt lat="42.832347000000006" lon="0.2461190000000002">
        <ele>1950.227</ele>
        <time>2021-02-27T10:32:06Z</time>
      </trkpt>
      <trkpt lat="42.83261300000001" lon="0.2454850000000002">
        <ele>1958.079</ele>
        <time>2021-02-27T10:34:05Z</time>
      </trkpt>
      <trkpt lat="42.83281500000001" lon="0.2448610000000002">
        <ele>1969.883</ele>
        <time>2021-02-27T10:36:05Z</time>
      </trkpt>
      <trkpt lat="42.83311400000001" lon="0.2446490000000002">
        <ele>1972.482</ele>
        <time>2021-02-27T10:37:05Z</time>
      </trkpt>
      <trkpt lat="42.83336100000001" lon="0.2443820000000002">
        <ele>1978.995</ele>
        <time>2021-02-27T10:38:05Z</time>
      </trkpt>
      <trkpt lat="42.83362200000001" lon="0.24247800000000022">
        <ele>2015.553</ele>
        <time>2021-02-27T10:41:04Z</time>
      </trkpt>
      <trkpt lat="42.83350200000001" lon="0.24186900000000022">
        <ele>2037.285</ele>
        <time>2021-02-27T10:43:04Z</time>
      </trkpt>
      <trkpt lat="42.83383400000001" lon="0.24078300000000022">
        <ele>2059.354</ele>
        <time>2021-02-27T10:46:06Z</time>
      </trkpt>
      <trkpt lat="42.83380600000001" lon="0.2403610000000002">
        <ele>2070.956</ele>
        <time>2021-02-27T10:48:05Z</time>
      </trkpt>
      <trkpt lat="42.83372400000001" lon="0.23978500000000022">
        <ele>2092.011</ele>
        <time>2021-02-27T10:50:06Z</time>
      </trkpt>
      <trkpt lat="42.83408800000001" lon="0.23898500000000023">
        <ele>2122.908</ele>
        <time>2021-02-27T10:53:06Z</time>
      </trkpt>
      <trkpt lat="42.83438000000001" lon="0.23881300000000022">
        <ele>2129.491</ele>
        <time>2021-02-27T10:55:05Z</time>
      </trkpt>
      <trkpt lat="42.83484800000001" lon="0.23802200000000023">
        <ele>2159.071</ele>
        <time>2021-02-27T10:57:05Z</time>
      </trkpt>
      <trkpt lat="42.83447300000001" lon="0.23720000000000024">
        <ele>2180.383</ele>
        <time>2021-02-27T11:07:06Z</time>
      </trkpt>
      <trkpt lat="42.83399400000001" lon="0.23692800000000025">
        <ele>2198.247</ele>
        <time>2021-02-27T11:09:12Z</time>
      </trkpt>
      <trkpt lat="42.83330100000001" lon="0.23653100000000024">
        <ele>2212.096</ele>
        <time>2021-02-27T11:11:05Z</time>
      </trkpt>
      <trkpt lat="42.833216000000014" lon="0.23617100000000024">
        <ele>2215.039</ele>
        <time>2021-02-27T11:15:05Z</time>
      </trkpt>
      <trkpt lat="42.83221600000002" lon="0.23492500000000024">
        <ele>2206.667</ele>
        <time>2021-02-27T11:32:06Z</time>
      </trkpt>
      <trkpt lat="42.83169800000002" lon="0.23412200000000025">
        <ele>2198.039</ele>
        <time>2021-02-27T11:34:05Z</time>
      </trkpt>
      <trkpt lat="42.83148900000002" lon="0.23369500000000024">
        <ele>2192.889</ele>
        <time>2021-02-27T11:35:05Z</time>
      </trkpt>
      <trkpt lat="42.83127500000002" lon="0.23304400000000022">
        <ele>2187.606</ele>
        <time>2021-02-27T11:36:14Z</time>
      </trkpt>
      <trkpt lat="42.83158400000002" lon="0.23255100000000023">
        <ele>2200.426</ele>
        <time>2021-02-27T11:38:13Z</time>
      </trkpt>
      <trkpt lat="42.83157900000002" lon="0.23209600000000022">
        <ele>2201.108</ele>
        <time>2021-02-27T11:39:04Z</time>
      </trkpt>
      <trkpt lat="42.83166700000002" lon="0.23160800000000023">
        <ele>2204.944</ele>
        <time>2021-02-27T11:41:05Z</time>
      </trkpt>
      <trkpt lat="42.83189100000002" lon="0.23088100000000022">
        <ele>2212.134</ele>
        <time>2021-02-27T11:42:05Z</time>
      </trkpt>
      <trkpt lat="42.831763000000024" lon="0.23023500000000022">
        <ele>2203.026</ele>
        <time>2021-02-27T11:44:06Z</time>
      </trkpt>
      <trkpt lat="42.83215000000003" lon="0.2300090000000002">
        <ele>2202.680</ele>
        <time>2021-02-27T11:45:05Z</time>
      </trkpt>
      <trkpt lat="42.83282800000003" lon="0.23006600000000021">
        <ele>2207.389</ele>
        <time>2021-02-27T11:48:05Z</time>
      </trkpt>
      <trkpt lat="42.83315900000003" lon="0.23012300000000022">
        <ele>2210.752</ele>
        <time>2021-02-27T11:49:05Z</time>
      </trkpt>
      <trkpt lat="42.83373600000003" lon="0.2302840000000002">
        <ele>2210.330</ele>
        <time>2021-02-27T11:50:05Z</time>
      </trkpt>
      <trkpt lat="42.83438500000003" lon="0.23034700000000022">
        <ele>2199.432</ele>
        <time>2021-02-27T11:51:05Z</time>
      </trkpt>
      <trkpt lat="42.83486400000003" lon="0.23046800000000023">
        <ele>2194.288</ele>
        <time>2021-02-27T11:52:05Z</time>
      </trkpt>
      <trkpt lat="42.83560500000003" lon="0.23017800000000022">
        <ele>2187.424</ele>
        <time>2021-02-27T11:54:05Z</time>
      </trkpt>
      <trkpt lat="42.83603900000003" lon="0.2304760000000002">
        <ele>2191.726</ele>
        <time>2021-02-27T11:57:06Z</time>
      </trkpt>
      <trkpt lat="42.835846000000025" lon="0.2298930000000002">
        <ele>2186.708</ele>
        <time>2021-02-27T12:37:06Z</time>
      </trkpt>
      <trkpt lat="42.83575400000002" lon="0.2290280000000002">
        <ele>2190.034</ele>
        <time>2021-02-27T12:39:04Z</time>
      </trkpt>
      <trkpt lat="42.835719000000026" lon="0.2283250000000002">
        <ele>2186.994</ele>
        <time>2021-02-27T12:40:14Z</time>
      </trkpt>
      <trkpt lat="42.835756000000025" lon="0.2278570000000002">
        <ele>2180.476</ele>
        <time>2021-02-27T12:41:06Z</time>
      </trkpt>
      <trkpt lat="42.835764000000026" lon="0.2274790000000002">
        <ele>2175.590</ele>
        <time>2021-02-27T12:42:05Z</time>
      </trkpt>
      <trkpt lat="42.835742000000025" lon="0.2269500000000002">
        <ele>2169.079</ele>
        <time>2021-02-27T12:43:05Z</time>
      </trkpt>
      <trkpt lat="42.835958000000026" lon="0.22654700000000022">
        <ele>2167.072</ele>
        <time>2021-02-27T12:45:05Z</time>
      </trkpt>
      <trkpt lat="42.835928000000024" lon="0.2258950000000002">
        <ele>2164.890</ele>
        <time>2021-02-27T12:51:06Z</time>
      </trkpt>
      <trkpt lat="42.83546800000003" lon="0.2248390000000002">
        <ele>2167.822</ele>
        <time>2021-02-27T12:53:06Z</time>
      </trkpt>
      <trkpt lat="42.83538100000003" lon="0.2243970000000002">
        <ele>2175.819</ele>
        <time>2021-02-27T12:55:05Z</time>
      </trkpt>
      <trkpt lat="42.835156000000026" lon="0.22387700000000021">
        <ele>2181.809</ele>
        <time>2021-02-27T12:56:05Z</time>
      </trkpt>
      <trkpt lat="42.83491100000003" lon="0.22329700000000022">
        <ele>2184.619</ele>
        <time>2021-02-27T12:58:14Z</time>
      </trkpt>
      <trkpt lat="42.83475300000003" lon="0.2228740000000002">
        <ele>2186.608</ele>
        <time>2021-02-27T13:04:05Z</time>
      </trkpt>
      <trkpt lat="42.83442800000003" lon="0.2218710000000002">
        <ele>2190.767</ele>
        <time>2021-02-27T13:06:08Z</time>
      </trkpt>
      <trkpt lat="42.833712000000034" lon="0.2208380000000002">
        <ele>2185.217</ele>
        <time>2021-02-27T13:08:05Z</time>
      </trkpt>
      <trkpt lat="42.83340400000004" lon="0.2203530000000002">
        <ele>2174.939</ele>
        <time>2021-02-27T13:10:07Z</time>
      </trkpt>
      <trkpt lat="42.83292700000004" lon="0.21912900000000018">
        <ele>2157.683</ele>
        <time>2021-02-27T13:12:08Z</time>
      </trkpt>
      <trkpt lat="42.83242100000004" lon="0.2177480000000002">
        <ele>2143.092</ele>
        <time>2021-02-27T13:14:06Z</time>
      </trkpt>
      <trkpt lat="42.83179000000004" lon="0.2167550000000002">
        <ele>2141.245</ele>
        <time>2021-02-27T13:17:05Z</time>
      </trkpt>
      <trkpt lat="42.83160700000004" lon="0.2164830000000002">
        <ele>2139.553</ele>
        <time>2021-02-27T13:19:05Z</time>
      </trkpt>
      <trkpt lat="42.83133200000004" lon="0.2150470000000002">
        <ele>2132.875</ele>
        <time>2021-02-27T13:22:07Z</time>
      </trkpt>
      <trkpt lat="42.83126800000004" lon="0.21444300000000022">
        <ele>2135.747</ele>
        <time>2021-02-27T13:23:14Z</time>
      </trkpt>
      <trkpt lat="42.831218000000035" lon="0.21397500000000022">
        <ele>2137.929</ele>
        <time>2021-02-27T13:24:06Z</time>
      </trkpt>
      <trkpt lat="42.83124200000004" lon="0.21351700000000023">
        <ele>2141.921</ele>
        <time>2021-02-27T13:25:06Z</time>
      </trkpt>
      <trkpt lat="42.83119200000004" lon="0.21275800000000022">
        <ele>2141.608</ele>
        <time>2021-02-27T13:26:06Z</time>
      </trkpt>
      <trkpt lat="42.83123400000004" lon="0.21237500000000023">
        <ele>2134.720</ele>
        <time>2021-02-27T13:28:05Z</time>
      </trkpt>
      <trkpt lat="42.831314000000035" lon="0.21194200000000024">
        <ele>2121.340</ele>
        <time>2021-02-27T13:29:05Z</time>
      </trkpt>
      <trkpt lat="42.83138300000004" lon="0.21147100000000024">
        <ele>2125.652</ele>
        <time>2021-02-27T13:30:06Z</time>
      </trkpt>
      <trkpt lat="42.83141700000004" lon="0.21089700000000025">
        <ele>2131.156</ele>
        <time>2021-02-27T13:31:05Z</time>
      </trkpt>
      <trkpt lat="42.83149300000004" lon="0.21041200000000024">
        <ele>2118.275</ele>
        <time>2021-02-27T13:32:05Z</time>
      </trkpt>
      <trkpt lat="42.83195400000004" lon="0.21017900000000023">
        <ele>2121.738</ele>
        <time>2021-02-27T13:36:47Z</time>
      </trkpt>
      <trkpt lat="42.83302600000004" lon="0.20968900000000024">
        <ele>2124.856</ele>
        <time>2021-02-27T13:41:37Z</time>
      </trkpt>
      <trkpt lat="42.83411600000004" lon="0.20921000000000023">
        <ele>2118.188</ele>
        <time>2021-02-27T13:44:52Z</time>
      </trkpt>
      <trkpt lat="42.83442700000004" lon="0.20897200000000024">
        <ele>2114.547</ele>
        <time>2021-02-27T13:46:55Z</time>
      </trkpt>
      <trkpt lat="42.83475400000004" lon="0.20899700000000024">
        <ele>2117.529</ele>
        <time>2021-02-27T13:48:09Z</time>
      </trkpt>
      <trkpt lat="42.83532700000004" lon="0.20870400000000025">
        <ele>2107.121</ele>
        <time>2021-02-27T13:55:59Z</time>
      </trkpt>
      <trkpt lat="42.835627000000045" lon="0.20860000000000026">
        <ele>2107.308</ele>
        <time>2021-02-27T13:57:36Z</time>
      </trkpt>
      <trkpt lat="42.83595000000005" lon="0.20850600000000025">
        <ele>2108.080</ele>
        <time>2021-02-27T13:59:35Z</time>
      </trkpt>
      <trkpt lat="42.83621100000005" lon="0.20829700000000026">
        <ele>2100.410</ele>
        <time>2021-02-27T14:01:35Z</time>
      </trkpt>
      <trkpt lat="42.83661600000005" lon="0.20801700000000026">
        <ele>2092.882</ele>
        <time>2021-02-27T14:02:36Z</time>
      </trkpt>
      <trkpt lat="42.83687800000005" lon="0.20771900000000026">
        <ele>2089.516</ele>
        <time>2021-02-27T14:03:36Z</time>
      </trkpt>
      <trkpt lat="42.83716700000005" lon="0.20790000000000025">
        <ele>2101.165</ele>
        <time>2021-02-27T14:05:36Z</time>
      </trkpt>
      <trkpt lat="42.83755100000005" lon="0.20794700000000024">
        <ele>2113.428</ele>
        <time>2021-02-27T14:06:36Z</time>
      </trkpt>
      <trkpt lat="42.838067000000045" lon="0.20828400000000025">
        <ele>2130.856</ele>
        <time>2021-02-27T14:08:38Z</time>
      </trkpt>
      <trkpt lat="42.83894900000004" lon="0.20830100000000024">
        <ele>2145.468</ele>
        <time>2021-02-27T14:11:47Z</time>
      </trkpt>
      <trkpt lat="42.84015300000004" lon="0.20849500000000024">
        <ele>2140.781</ele>
        <time>2021-02-27T14:17:37Z</time>
      </trkpt>
      <trkpt lat="42.84104000000004" lon="0.20864800000000022">
        <ele>2142.361</ele>
        <time>2021-02-27T14:20:36Z</time>
      </trkpt>
      <trkpt lat="42.841351000000046" lon="0.20906900000000023">
        <ele>2144.217</ele>
        <time>2021-02-27T14:22:36Z</time>
      </trkpt>
      <trkpt lat="42.842271000000046" lon="0.20959600000000023">
        <ele>2147.208</ele>
        <time>2021-02-27T14:24:37Z</time>
      </trkpt>
      <trkpt lat="42.842781000000045" lon="0.21002600000000024">
        <ele>2166.194</ele>
        <time>2021-02-27T14:26:38Z</time>
      </trkpt>
      <trkpt lat="42.84312800000004" lon="0.21052000000000023">
        <ele>2174.984</ele>
        <time>2021-02-27T14:30:35Z</time>
      </trkpt>
      <trkpt lat="42.84333600000004" lon="0.21088700000000024">
        <ele>2182.656</ele>
        <time>2021-02-27T14:31:35Z</time>
      </trkpt>
      <trkpt lat="42.84358200000004" lon="0.21123600000000023">
        <ele>2191.240</ele>
        <time>2021-02-27T14:32:36Z</time>
      </trkpt>
      <trkpt lat="42.84383300000004" lon="0.21146600000000024">
        <ele>2195.299</ele>
        <time>2021-02-27T14:33:36Z</time>
      </trkpt>
      <trkpt lat="42.84425700000004" lon="0.21153300000000025">
        <ele>2188.252</ele>
        <time>2021-02-27T14:34:35Z</time>
      </trkpt>
      <trkpt lat="42.84438100000004" lon="0.21187900000000026">
        <ele>2199.710</ele>
        <time>2021-02-27T14:35:36Z</time>
      </trkpt>
      <trkpt lat="42.84462000000004" lon="0.21208400000000027">
        <ele>2201.922</ele>
        <time>2021-02-27T14:36:35Z</time>
      </trkpt>
      <trkpt lat="42.84487100000004" lon="0.21239600000000028">
        <ele>2206.553</ele>
        <time>2021-02-27T14:37:36Z</time>
      </trkpt>
      <trkpt lat="42.84522600000004" lon="0.21260500000000027">
        <ele>2205.304</ele>
        <time>2021-02-27T14:38:35Z</time>
      </trkpt>
      <trkpt lat="42.84561200000004" lon="0.21283800000000028">
        <ele>2204.514</ele>
        <time>2021-02-27T14:39:36Z</time>
      </trkpt>
      <trkpt lat="42.84623300000004" lon="0.21303900000000028">
        <ele>2208.008</ele>
        <time>2021-02-27T14:41:36Z</time>
      </trkpt>
      <trkpt lat="42.84665800000004" lon="0.2130440000000003">
        <ele>2204.551</ele>
        <time>2021-02-27T14:42:35Z</time>
      </trkpt>
      <trkpt lat="42.84826800000004" lon="0.21251200000000028">
        <ele>2210.151</ele>
        <time>2021-02-27T14:44:48Z</time>
      </trkpt>
      <trkpt lat="42.84818200000004" lon="0.2129350000000003">
        <ele>2209.963</ele>
        <time>2021-02-27T14:48:58Z</time>
      </trkpt>
      <trkpt lat="42.848791000000034" lon="0.2121300000000003">
        <ele>2209.887</ele>
        <time>2021-02-27T14:50:53Z</time>
      </trkpt>
      <trkpt lat="42.84987500000003" lon="0.21181800000000028">
        <ele>2217.946</ele>
        <time>2021-02-27T14:54:02Z</time>
      </trkpt>
      <trkpt lat="42.85060400000003" lon="0.21204200000000029">
        <ele>2222.229</ele>
        <time>2021-02-27T14:56:49Z</time>
      </trkpt>
      <trkpt lat="42.85120400000003" lon="0.21187200000000028">
        <ele>2221.077</ele>
        <time>2021-02-27T14:58:36Z</time>
      </trkpt>
      <trkpt lat="42.85161900000003" lon="0.2117140000000003">
        <ele>2225.759</ele>
        <time>2021-02-27T14:59:35Z</time>
      </trkpt>
      <trkpt lat="42.85255200000003" lon="0.2109080000000003">
        <ele>2230.352</ele>
        <time>2021-02-27T15:01:36Z</time>
      </trkpt>
      <trkpt lat="42.85292400000003" lon="0.2105750000000003">
        <ele>2247.853</ele>
        <time>2021-02-27T15:05:36Z</time>
      </trkpt>
      <trkpt lat="42.85320600000003" lon="0.2101030000000003">
        <ele>2245.308</ele>
        <time>2021-02-27T15:09:36Z</time>
      </trkpt>
      <trkpt lat="42.85333000000003" lon="0.20975800000000028">
        <ele>2243.108</ele>
        <time>2021-02-27T15:18:20Z</time>
      </trkpt>
    </trkseg>
  </trk>
</gpx>
